<?xml version="1.0" encoding="UTF-8" standalone="no" ?>
<gpx xmlns="http://www.topografix.com/GPX/1/1" xmlns:xsi="http://www.w3.org/2001/XMLSchema-instance" xsi:schemaLocation="http://www.topografix.com/GPX/1/1 http://www.topografix.com/GPX/1/1/gpx.xsd" version="1.1" creator="VisuGPX - https://www.visugpx.com">
  <metadata>
    <name>83 - VTT - Roc d'Azur</name>
    <desc><![CDATA[Trace de Mike]]></desc>
  </metadata>
  <trk>
    <name><![CDATA[Roc D'Azur]]></name>
    <cmt><![CDATA[roc d'azur avec Lionel, Thierry, Fabien, Carlo et raf.....crames rapidement...bcp de montée a pieds...pas la joie.....mon plus mauvais roc]]></cmt>
    <trkseg>
      <trkpt lat="43.4183" lon="6.73701">
        <ele>6</ele>
        <time>2013-10-13T08:22:36Z</time>
      </trkpt>
      <trkpt lat="43.41827" lon="6.737">
        <ele>6</ele>
        <time>2013-10-13T08:22:36Z</time>
      </trkpt>
      <trkpt lat="43.41819" lon="6.73698">
        <ele>6</ele>
        <time>2013-10-13T08:22:38Z</time>
      </trkpt>
      <trkpt lat="43.41809" lon="6.73696">
        <ele>6</ele>
        <time>2013-10-13T08:22:40Z</time>
      </trkpt>
      <trkpt lat="43.41799" lon="6.73694">
        <ele>6</ele>
        <time>2013-10-13T08:22:42Z</time>
      </trkpt>
      <trkpt lat="43.41788" lon="6.73692">
        <ele>6</ele>
        <time>2013-10-13T08:22:44Z</time>
      </trkpt>
      <trkpt lat="43.41777" lon="6.7369">
        <ele>6</ele>
        <time>2013-10-13T08:22:46Z</time>
      </trkpt>
      <trkpt lat="43.41765" lon="6.73687">
        <ele>6</ele>
        <time>2013-10-13T08:22:48Z</time>
      </trkpt>
      <trkpt lat="43.41759" lon="6.73685">
        <ele>6</ele>
        <time>2013-10-13T08:22:49Z</time>
      </trkpt>
      <trkpt lat="43.41754" lon="6.73684">
        <ele>6</ele>
        <time>2013-10-13T08:22:50Z</time>
      </trkpt>
      <trkpt lat="43.41748" lon="6.73682">
        <ele>6</ele>
        <time>2013-10-13T08:22:51Z</time>
      </trkpt>
      <trkpt lat="43.41742" lon="6.7368">
        <ele>6</ele>
        <time>2013-10-13T08:22:52Z</time>
      </trkpt>
      <trkpt lat="43.41732" lon="6.73678">
        <ele>6</ele>
        <time>2013-10-13T08:22:54Z</time>
      </trkpt>
      <trkpt lat="43.41726" lon="6.73676">
        <ele>6</ele>
        <time>2013-10-13T08:22:55Z</time>
      </trkpt>
      <trkpt lat="43.41716" lon="6.73673">
        <ele>6</ele>
        <time>2013-10-13T08:22:57Z</time>
      </trkpt>
      <trkpt lat="43.41705" lon="6.7367">
        <ele>6</ele>
        <time>2013-10-13T08:22:59Z</time>
      </trkpt>
      <trkpt lat="43.41694" lon="6.73667">
        <ele>6</ele>
        <time>2013-10-13T08:23:01Z</time>
      </trkpt>
      <trkpt lat="43.41684" lon="6.73662">
        <ele>6</ele>
        <time>2013-10-13T08:23:03Z</time>
      </trkpt>
      <trkpt lat="43.41675" lon="6.73654">
        <ele>6</ele>
        <time>2013-10-13T08:23:05Z</time>
      </trkpt>
      <trkpt lat="43.41666" lon="6.73644">
        <ele>6</ele>
        <time>2013-10-13T08:23:07Z</time>
      </trkpt>
      <trkpt lat="43.41662" lon="6.73638">
        <ele>6</ele>
        <time>2013-10-13T08:23:08Z</time>
      </trkpt>
      <trkpt lat="43.41658" lon="6.73632">
        <ele>6</ele>
        <time>2013-10-13T08:23:09Z</time>
      </trkpt>
      <trkpt lat="43.41654" lon="6.73625">
        <ele>6</ele>
        <time>2013-10-13T08:23:10Z</time>
      </trkpt>
      <trkpt lat="43.4165" lon="6.73619">
        <ele>6</ele>
        <time>2013-10-13T08:23:11Z</time>
      </trkpt>
      <trkpt lat="43.41647" lon="6.73613">
        <ele>6</ele>
        <time>2013-10-13T08:23:12Z</time>
      </trkpt>
      <trkpt lat="43.41643" lon="6.73607">
        <ele>6</ele>
        <time>2013-10-13T08:23:13Z</time>
      </trkpt>
      <trkpt lat="43.41639" lon="6.736">
        <ele>6</ele>
        <time>2013-10-13T08:23:14Z</time>
      </trkpt>
      <trkpt lat="43.41636" lon="6.73594">
        <ele>6</ele>
        <time>2013-10-13T08:23:15Z</time>
      </trkpt>
      <trkpt lat="43.4163" lon="6.73583">
        <ele>6</ele>
        <time>2013-10-13T08:23:17Z</time>
      </trkpt>
      <trkpt lat="43.41625" lon="6.73571">
        <ele>6</ele>
        <time>2013-10-13T08:23:19Z</time>
      </trkpt>
      <trkpt lat="43.41624" lon="6.73564">
        <ele>6</ele>
        <time>2013-10-13T08:23:20Z</time>
      </trkpt>
      <trkpt lat="43.41624" lon="6.73551">
        <ele>6</ele>
        <time>2013-10-13T08:23:22Z</time>
      </trkpt>
      <trkpt lat="43.41626" lon="6.73536">
        <ele>6</ele>
        <time>2013-10-13T08:23:24Z</time>
      </trkpt>
      <trkpt lat="43.41628" lon="6.73529">
        <ele>6</ele>
        <time>2013-10-13T08:23:25Z</time>
      </trkpt>
      <trkpt lat="43.41631" lon="6.73516">
        <ele>6</ele>
        <time>2013-10-13T08:23:27Z</time>
      </trkpt>
      <trkpt lat="43.41638" lon="6.73507">
        <ele>6</ele>
        <time>2013-10-13T08:23:29Z</time>
      </trkpt>
      <trkpt lat="43.41648" lon="6.73504">
        <ele>6</ele>
        <time>2013-10-13T08:23:31Z</time>
      </trkpt>
      <trkpt lat="43.4166" lon="6.73502">
        <ele>6</ele>
        <time>2013-10-13T08:23:33Z</time>
      </trkpt>
      <trkpt lat="43.41673" lon="6.735">
        <ele>6</ele>
        <time>2013-10-13T08:23:35Z</time>
      </trkpt>
      <trkpt lat="43.41685" lon="6.73498">
        <ele>6</ele>
        <time>2013-10-13T08:23:37Z</time>
      </trkpt>
      <trkpt lat="43.41698" lon="6.73496">
        <ele>6</ele>
        <time>2013-10-13T08:23:39Z</time>
      </trkpt>
      <trkpt lat="43.41711" lon="6.73494">
        <ele>6</ele>
        <time>2013-10-13T08:23:41Z</time>
      </trkpt>
      <trkpt lat="43.41724" lon="6.73492">
        <ele>6</ele>
        <time>2013-10-13T08:23:43Z</time>
      </trkpt>
      <trkpt lat="43.41737" lon="6.7349">
        <ele>6</ele>
        <time>2013-10-13T08:23:45Z</time>
      </trkpt>
      <trkpt lat="43.4175" lon="6.73487">
        <ele>6</ele>
        <time>2013-10-13T08:23:47Z</time>
      </trkpt>
      <trkpt lat="43.41761" lon="6.73483">
        <ele>6</ele>
        <time>2013-10-13T08:23:49Z</time>
      </trkpt>
      <trkpt lat="43.41773" lon="6.73479">
        <ele>6</ele>
        <time>2013-10-13T08:23:51Z</time>
      </trkpt>
      <trkpt lat="43.41785" lon="6.73474">
        <ele>6</ele>
        <time>2013-10-13T08:23:53Z</time>
      </trkpt>
      <trkpt lat="43.41795" lon="6.73467">
        <ele>6</ele>
        <time>2013-10-13T08:23:55Z</time>
      </trkpt>
      <trkpt lat="43.41806" lon="6.73457">
        <ele>6</ele>
        <time>2013-10-13T08:23:57Z</time>
      </trkpt>
      <trkpt lat="43.41816" lon="6.73443">
        <ele>6</ele>
        <time>2013-10-13T08:23:59Z</time>
      </trkpt>
      <trkpt lat="43.41822" lon="6.73427">
        <ele>6</ele>
        <time>2013-10-13T08:24:01Z</time>
      </trkpt>
      <trkpt lat="43.41825" lon="6.73409">
        <ele>6</ele>
        <time>2013-10-13T08:24:03Z</time>
      </trkpt>
      <trkpt lat="43.41827" lon="6.73392">
        <ele>6</ele>
        <time>2013-10-13T08:24:05Z</time>
      </trkpt>
      <trkpt lat="43.41825" lon="6.73374">
        <ele>6</ele>
        <time>2013-10-13T08:24:07Z</time>
      </trkpt>
      <trkpt lat="43.41822" lon="6.73358">
        <ele>6</ele>
        <time>2013-10-13T08:24:09Z</time>
      </trkpt>
      <trkpt lat="43.41818" lon="6.73342">
        <ele>6</ele>
        <time>2013-10-13T08:24:11Z</time>
      </trkpt>
      <trkpt lat="43.41813" lon="6.73327">
        <ele>6</ele>
        <time>2013-10-13T08:24:13Z</time>
      </trkpt>
      <trkpt lat="43.41809" lon="6.73312">
        <ele>6</ele>
        <time>2013-10-13T08:24:15Z</time>
      </trkpt>
      <trkpt lat="43.41804" lon="6.73298">
        <ele>6</ele>
        <time>2013-10-13T08:24:17Z</time>
      </trkpt>
      <trkpt lat="43.41796" lon="6.73276">
        <ele>6</ele>
        <time>2013-10-13T08:24:20Z</time>
      </trkpt>
      <trkpt lat="43.41792" lon="6.73261">
        <ele>6</ele>
        <time>2013-10-13T08:24:22Z</time>
      </trkpt>
      <trkpt lat="43.41789" lon="6.73253">
        <ele>6</ele>
        <time>2013-10-13T08:24:23Z</time>
      </trkpt>
      <trkpt lat="43.41787" lon="6.73246">
        <ele>6</ele>
        <time>2013-10-13T08:24:24Z</time>
      </trkpt>
      <trkpt lat="43.41782" lon="6.73231">
        <ele>6</ele>
        <time>2013-10-13T08:24:26Z</time>
      </trkpt>
      <trkpt lat="43.41777" lon="6.73217">
        <ele>6</ele>
        <time>2013-10-13T08:24:28Z</time>
      </trkpt>
      <trkpt lat="43.41772" lon="6.73203">
        <ele>6</ele>
        <time>2013-10-13T08:24:30Z</time>
      </trkpt>
      <trkpt lat="43.41768" lon="6.73189">
        <ele>6</ele>
        <time>2013-10-13T08:24:32Z</time>
      </trkpt>
      <trkpt lat="43.41765" lon="6.73182">
        <ele>6</ele>
        <time>2013-10-13T08:24:33Z</time>
      </trkpt>
      <trkpt lat="43.41761" lon="6.73168">
        <ele>6</ele>
        <time>2013-10-13T08:24:35Z</time>
      </trkpt>
      <trkpt lat="43.41758" lon="6.73161">
        <ele>6</ele>
        <time>2013-10-13T08:24:36Z</time>
      </trkpt>
      <trkpt lat="43.41756" lon="6.73155">
        <ele>6</ele>
        <time>2013-10-13T08:24:37Z</time>
      </trkpt>
      <trkpt lat="43.41749" lon="6.73134">
        <ele>6</ele>
        <time>2013-10-13T08:24:40Z</time>
      </trkpt>
      <trkpt lat="43.41745" lon="6.7312">
        <ele>6</ele>
        <time>2013-10-13T08:24:42Z</time>
      </trkpt>
      <trkpt lat="43.4174" lon="6.73107">
        <ele>6</ele>
        <time>2013-10-13T08:24:44Z</time>
      </trkpt>
      <trkpt lat="43.41736" lon="6.73094">
        <ele>6</ele>
        <time>2013-10-13T08:24:46Z</time>
      </trkpt>
      <trkpt lat="43.41732" lon="6.7308">
        <ele>6</ele>
        <time>2013-10-13T08:24:48Z</time>
      </trkpt>
      <trkpt lat="43.41727" lon="6.73066">
        <ele>6</ele>
        <time>2013-10-13T08:24:50Z</time>
      </trkpt>
      <trkpt lat="43.41722" lon="6.73053">
        <ele>6</ele>
        <time>2013-10-13T08:24:52Z</time>
      </trkpt>
      <trkpt lat="43.41718" lon="6.73039">
        <ele>6</ele>
        <time>2013-10-13T08:24:54Z</time>
      </trkpt>
      <trkpt lat="43.41714" lon="6.73027">
        <ele>6</ele>
        <time>2013-10-13T08:24:56Z</time>
      </trkpt>
      <trkpt lat="43.4171" lon="6.73014">
        <ele>6</ele>
        <time>2013-10-13T08:24:58Z</time>
      </trkpt>
      <trkpt lat="43.41706" lon="6.73002">
        <ele>6</ele>
        <time>2013-10-13T08:25:00Z</time>
      </trkpt>
      <trkpt lat="43.41702" lon="6.72989">
        <ele>6</ele>
        <time>2013-10-13T08:25:02Z</time>
      </trkpt>
      <trkpt lat="43.41698" lon="6.72977">
        <ele>6</ele>
        <time>2013-10-13T08:25:04Z</time>
      </trkpt>
      <trkpt lat="43.41694" lon="6.72964">
        <ele>6</ele>
        <time>2013-10-13T08:25:06Z</time>
      </trkpt>
      <trkpt lat="43.4169" lon="6.72951">
        <ele>6</ele>
        <time>2013-10-13T08:25:08Z</time>
      </trkpt>
      <trkpt lat="43.41687" lon="6.72939">
        <ele>6</ele>
        <time>2013-10-13T08:25:10Z</time>
      </trkpt>
      <trkpt lat="43.41683" lon="6.72926">
        <ele>6</ele>
        <time>2013-10-13T08:25:12Z</time>
      </trkpt>
      <trkpt lat="43.41679" lon="6.72913">
        <ele>6</ele>
        <time>2013-10-13T08:25:14Z</time>
      </trkpt>
      <trkpt lat="43.41677" lon="6.72907">
        <ele>6</ele>
        <time>2013-10-13T08:25:15Z</time>
      </trkpt>
      <trkpt lat="43.41675" lon="6.72901">
        <ele>6</ele>
        <time>2013-10-13T08:25:16Z</time>
      </trkpt>
      <trkpt lat="43.41671" lon="6.7289">
        <ele>6</ele>
        <time>2013-10-13T08:25:18Z</time>
      </trkpt>
      <trkpt lat="43.41669" lon="6.72882">
        <ele>6</ele>
        <time>2013-10-13T08:25:20Z</time>
      </trkpt>
      <trkpt lat="43.41666" lon="6.72871">
        <ele>6</ele>
        <time>2013-10-13T08:25:23Z</time>
      </trkpt>
      <trkpt lat="43.41663" lon="6.72863">
        <ele>6</ele>
        <time>2013-10-13T08:25:26Z</time>
      </trkpt>
      <trkpt lat="43.41662" lon="6.72855">
        <ele>6</ele>
        <time>2013-10-13T08:25:30Z</time>
      </trkpt>
      <trkpt lat="43.41658" lon="6.72843">
        <ele>6</ele>
        <time>2013-10-13T08:25:36Z</time>
      </trkpt>
      <trkpt lat="43.41655" lon="6.72836">
        <ele>6</ele>
        <time>2013-10-13T08:25:38Z</time>
      </trkpt>
      <trkpt lat="43.41649" lon="6.7283">
        <ele>6</ele>
        <time>2013-10-13T08:25:40Z</time>
      </trkpt>
      <trkpt lat="43.41642" lon="6.72825">
        <ele>6</ele>
        <time>2013-10-13T08:25:43Z</time>
      </trkpt>
      <trkpt lat="43.41637" lon="6.72821">
        <ele>6</ele>
        <time>2013-10-13T08:25:46Z</time>
      </trkpt>
      <trkpt lat="43.41628" lon="6.72818">
        <ele>6</ele>
        <time>2013-10-13T08:25:50Z</time>
      </trkpt>
      <trkpt lat="43.41621" lon="6.72814">
        <ele>6</ele>
        <time>2013-10-13T08:25:53Z</time>
      </trkpt>
      <trkpt lat="43.41611" lon="6.72813">
        <ele>6</ele>
        <time>2013-10-13T08:25:56Z</time>
      </trkpt>
      <trkpt lat="43.41599" lon="6.72815">
        <ele>6</ele>
        <time>2013-10-13T08:25:59Z</time>
      </trkpt>
      <trkpt lat="43.4159" lon="6.72817">
        <ele>6</ele>
        <time>2013-10-13T08:26:01Z</time>
      </trkpt>
      <trkpt lat="43.41581" lon="6.72819">
        <ele>6</ele>
        <time>2013-10-13T08:26:03Z</time>
      </trkpt>
      <trkpt lat="43.41569" lon="6.72826">
        <ele>6</ele>
        <time>2013-10-13T08:26:06Z</time>
      </trkpt>
      <trkpt lat="43.41559" lon="6.72833">
        <ele>6</ele>
        <time>2013-10-13T08:26:08Z</time>
      </trkpt>
      <trkpt lat="43.41548" lon="6.72838">
        <ele>6</ele>
        <time>2013-10-13T08:26:10Z</time>
      </trkpt>
      <trkpt lat="43.41538" lon="6.72843">
        <ele>6</ele>
        <time>2013-10-13T08:26:12Z</time>
      </trkpt>
      <trkpt lat="43.41528" lon="6.72847">
        <ele>6</ele>
        <time>2013-10-13T08:26:14Z</time>
      </trkpt>
      <trkpt lat="43.41519" lon="6.72853">
        <ele>6</ele>
        <time>2013-10-13T08:26:16Z</time>
      </trkpt>
      <trkpt lat="43.41509" lon="6.72863">
        <ele>6</ele>
        <time>2013-10-13T08:26:18Z</time>
      </trkpt>
      <trkpt lat="43.415" lon="6.72875">
        <ele>6</ele>
        <time>2013-10-13T08:26:20Z</time>
      </trkpt>
      <trkpt lat="43.41491" lon="6.7289">
        <ele>6</ele>
        <time>2013-10-13T08:26:22Z</time>
      </trkpt>
      <trkpt lat="43.41482" lon="6.72904">
        <ele>6</ele>
        <time>2013-10-13T08:26:24Z</time>
      </trkpt>
      <trkpt lat="43.41474" lon="6.72915">
        <ele>6</ele>
        <time>2013-10-13T08:26:26Z</time>
      </trkpt>
      <trkpt lat="43.41467" lon="6.72926">
        <ele>6</ele>
        <time>2013-10-13T08:26:28Z</time>
      </trkpt>
      <trkpt lat="43.41458" lon="6.72939">
        <ele>6</ele>
        <time>2013-10-13T08:26:31Z</time>
      </trkpt>
      <trkpt lat="43.41449" lon="6.72953">
        <ele>6</ele>
        <time>2013-10-13T08:26:34Z</time>
      </trkpt>
      <trkpt lat="43.41441" lon="6.72964">
        <ele>6</ele>
        <time>2013-10-13T08:26:36Z</time>
      </trkpt>
      <trkpt lat="43.41431" lon="6.72975">
        <ele>6</ele>
        <time>2013-10-13T08:26:38Z</time>
      </trkpt>
      <trkpt lat="43.41423" lon="6.72987">
        <ele>6</ele>
        <time>2013-10-13T08:26:40Z</time>
      </trkpt>
      <trkpt lat="43.41414" lon="6.73">
        <ele>6</ele>
        <time>2013-10-13T08:26:42Z</time>
      </trkpt>
      <trkpt lat="43.41406" lon="6.73012">
        <ele>6</ele>
        <time>2013-10-13T08:26:44Z</time>
      </trkpt>
      <trkpt lat="43.41397" lon="6.73026">
        <ele>6</ele>
        <time>2013-10-13T08:26:46Z</time>
      </trkpt>
      <trkpt lat="43.41388" lon="6.73039">
        <ele>6</ele>
        <time>2013-10-13T08:26:48Z</time>
      </trkpt>
      <trkpt lat="43.41379" lon="6.73051">
        <ele>6</ele>
        <time>2013-10-13T08:26:50Z</time>
      </trkpt>
      <trkpt lat="43.4137" lon="6.73063">
        <ele>6</ele>
        <time>2013-10-13T08:26:52Z</time>
      </trkpt>
      <trkpt lat="43.41365" lon="6.73069">
        <ele>6</ele>
        <time>2013-10-13T08:26:53Z</time>
      </trkpt>
      <trkpt lat="43.41356" lon="6.73079">
        <ele>6</ele>
        <time>2013-10-13T08:26:55Z</time>
      </trkpt>
      <trkpt lat="43.41348" lon="6.73092">
        <ele>6</ele>
        <time>2013-10-13T08:26:57Z</time>
      </trkpt>
      <trkpt lat="43.41341" lon="6.73105">
        <ele>6</ele>
        <time>2013-10-13T08:26:59Z</time>
      </trkpt>
      <trkpt lat="43.41334" lon="6.73119">
        <ele>6</ele>
        <time>2013-10-13T08:27:01Z</time>
      </trkpt>
      <trkpt lat="43.41331" lon="6.73127">
        <ele>6</ele>
        <time>2013-10-13T08:27:02Z</time>
      </trkpt>
      <trkpt lat="43.41327" lon="6.73142">
        <ele>6</ele>
        <time>2013-10-13T08:27:04Z</time>
      </trkpt>
      <trkpt lat="43.41325" lon="6.73158">
        <ele>6</ele>
        <time>2013-10-13T08:27:06Z</time>
      </trkpt>
      <trkpt lat="43.41322" lon="6.7317">
        <ele>6</ele>
        <time>2013-10-13T08:27:08Z</time>
      </trkpt>
      <trkpt lat="43.41313" lon="6.73175">
        <ele>6</ele>
        <time>2013-10-13T08:27:11Z</time>
      </trkpt>
      <trkpt lat="43.41305" lon="6.73176">
        <ele>6</ele>
        <time>2013-10-13T08:27:13Z</time>
      </trkpt>
      <trkpt lat="43.41298" lon="6.73181">
        <ele>6</ele>
        <time>2013-10-13T08:27:15Z</time>
      </trkpt>
      <trkpt lat="43.41292" lon="6.73186">
        <ele>6</ele>
        <time>2013-10-13T08:27:17Z</time>
      </trkpt>
      <trkpt lat="43.41286" lon="6.73191">
        <ele>6</ele>
        <time>2013-10-13T08:27:20Z</time>
      </trkpt>
      <trkpt lat="43.4128" lon="6.73196">
        <ele>6</ele>
        <time>2013-10-13T08:27:24Z</time>
      </trkpt>
      <trkpt lat="43.41273" lon="6.732">
        <ele>6</ele>
        <time>2013-10-13T08:27:28Z</time>
      </trkpt>
      <trkpt lat="43.41266" lon="6.73199">
        <ele>6</ele>
        <time>2013-10-13T08:27:35Z</time>
      </trkpt>
      <trkpt lat="43.41258" lon="6.73194">
        <ele>6</ele>
        <time>2013-10-13T08:27:44Z</time>
      </trkpt>
      <trkpt lat="43.41251" lon="6.73189">
        <ele>6</ele>
        <time>2013-10-13T08:27:50Z</time>
      </trkpt>
      <trkpt lat="43.41242" lon="6.73187">
        <ele>6</ele>
        <time>2013-10-13T08:27:57Z</time>
      </trkpt>
      <trkpt lat="43.41235" lon="6.73189">
        <ele>6</ele>
        <time>2013-10-13T08:28:02Z</time>
      </trkpt>
      <trkpt lat="43.41229" lon="6.73191">
        <ele>6</ele>
        <time>2013-10-13T08:28:07Z</time>
      </trkpt>
      <trkpt lat="43.41223" lon="6.73188">
        <ele>6</ele>
        <time>2013-10-13T08:28:14Z</time>
      </trkpt>
      <trkpt lat="43.41216" lon="6.73179">
        <ele>6</ele>
        <time>2013-10-13T08:28:20Z</time>
      </trkpt>
      <trkpt lat="43.41206" lon="6.73167">
        <ele>6</ele>
        <time>2013-10-13T08:28:23Z</time>
      </trkpt>
      <trkpt lat="43.41196" lon="6.73153">
        <ele>6</ele>
        <time>2013-10-13T08:28:25Z</time>
      </trkpt>
      <trkpt lat="43.41188" lon="6.73142">
        <ele>6</ele>
        <time>2013-10-13T08:28:27Z</time>
      </trkpt>
      <trkpt lat="43.41182" lon="6.73132">
        <ele>6</ele>
        <time>2013-10-13T08:28:29Z</time>
      </trkpt>
      <trkpt lat="43.41178" lon="6.73119">
        <ele>6</ele>
        <time>2013-10-13T08:28:31Z</time>
      </trkpt>
      <trkpt lat="43.41179" lon="6.73105">
        <ele>6</ele>
        <time>2013-10-13T08:28:33Z</time>
      </trkpt>
      <trkpt lat="43.41184" lon="6.73092">
        <ele>6</ele>
        <time>2013-10-13T08:28:35Z</time>
      </trkpt>
      <trkpt lat="43.41191" lon="6.73081">
        <ele>6</ele>
        <time>2013-10-13T08:28:37Z</time>
      </trkpt>
      <trkpt lat="43.41199" lon="6.7307">
        <ele>6</ele>
        <time>2013-10-13T08:28:39Z</time>
      </trkpt>
      <trkpt lat="43.41208" lon="6.73059">
        <ele>6</ele>
        <time>2013-10-13T08:28:41Z</time>
      </trkpt>
      <trkpt lat="43.41217" lon="6.73048">
        <ele>6</ele>
        <time>2013-10-13T08:28:43Z</time>
      </trkpt>
      <trkpt lat="43.41225" lon="6.73037">
        <ele>6</ele>
        <time>2013-10-13T08:28:45Z</time>
      </trkpt>
      <trkpt lat="43.41236" lon="6.73024">
        <ele>6</ele>
        <time>2013-10-13T08:28:47Z</time>
      </trkpt>
      <trkpt lat="43.41248" lon="6.73011">
        <ele>6</ele>
        <time>2013-10-13T08:28:49Z</time>
      </trkpt>
      <trkpt lat="43.41257" lon="6.72999">
        <ele>6</ele>
        <time>2013-10-13T08:28:51Z</time>
      </trkpt>
      <trkpt lat="43.41263" lon="6.72986">
        <ele>6</ele>
        <time>2013-10-13T08:28:53Z</time>
      </trkpt>
      <trkpt lat="43.41263" lon="6.72966">
        <ele>6</ele>
        <time>2013-10-13T08:28:56Z</time>
      </trkpt>
      <trkpt lat="43.41257" lon="6.72951">
        <ele>6</ele>
        <time>2013-10-13T08:28:58Z</time>
      </trkpt>
      <trkpt lat="43.41254" lon="6.72935">
        <ele>6</ele>
        <time>2013-10-13T08:29:00Z</time>
      </trkpt>
      <trkpt lat="43.41253" lon="6.72918">
        <ele>6</ele>
        <time>2013-10-13T08:29:02Z</time>
      </trkpt>
      <trkpt lat="43.4125" lon="6.729">
        <ele>6</ele>
        <time>2013-10-13T08:29:04Z</time>
      </trkpt>
      <trkpt lat="43.41246" lon="6.72885">
        <ele>6</ele>
        <time>2013-10-13T08:29:06Z</time>
      </trkpt>
      <trkpt lat="43.41238" lon="6.72871">
        <ele>6</ele>
        <time>2013-10-13T08:29:08Z</time>
      </trkpt>
      <trkpt lat="43.41227" lon="6.7286">
        <ele>6</ele>
        <time>2013-10-13T08:29:10Z</time>
      </trkpt>
      <trkpt lat="43.41222" lon="6.72854">
        <ele>6</ele>
        <time>2013-10-13T08:29:11Z</time>
      </trkpt>
      <trkpt lat="43.41216" lon="6.72849">
        <ele>6</ele>
        <time>2013-10-13T08:29:12Z</time>
      </trkpt>
      <trkpt lat="43.41211" lon="6.72845">
        <ele>6</ele>
        <time>2013-10-13T08:29:13Z</time>
      </trkpt>
      <trkpt lat="43.41205" lon="6.72841">
        <ele>6</ele>
        <time>2013-10-13T08:29:14Z</time>
      </trkpt>
      <trkpt lat="43.41193" lon="6.72834">
        <ele>6</ele>
        <time>2013-10-13T08:29:16Z</time>
      </trkpt>
      <trkpt lat="43.41182" lon="6.72828">
        <ele>6</ele>
        <time>2013-10-13T08:29:18Z</time>
      </trkpt>
      <trkpt lat="43.41172" lon="6.72821">
        <ele>6</ele>
        <time>2013-10-13T08:29:20Z</time>
      </trkpt>
      <trkpt lat="43.41167" lon="6.72804">
        <ele>6</ele>
        <time>2013-10-13T08:29:23Z</time>
      </trkpt>
      <trkpt lat="43.4117" lon="6.72789">
        <ele>6</ele>
        <time>2013-10-13T08:29:25Z</time>
      </trkpt>
      <trkpt lat="43.41177" lon="6.72774">
        <ele>6</ele>
        <time>2013-10-13T08:29:27Z</time>
      </trkpt>
      <trkpt lat="43.41183" lon="6.72761">
        <ele>6</ele>
        <time>2013-10-13T08:29:29Z</time>
      </trkpt>
      <trkpt lat="43.41189" lon="6.72749">
        <ele>6</ele>
        <time>2013-10-13T08:29:31Z</time>
      </trkpt>
      <trkpt lat="43.41194" lon="6.72735">
        <ele>6</ele>
        <time>2013-10-13T08:29:33Z</time>
      </trkpt>
      <trkpt lat="43.41197" lon="6.7272">
        <ele>6</ele>
        <time>2013-10-13T08:29:35Z</time>
      </trkpt>
      <trkpt lat="43.41198" lon="6.72705">
        <ele>6</ele>
        <time>2013-10-13T08:29:37Z</time>
      </trkpt>
      <trkpt lat="43.41193" lon="6.72692">
        <ele>6</ele>
        <time>2013-10-13T08:29:39Z</time>
      </trkpt>
      <trkpt lat="43.41188" lon="6.7268">
        <ele>6</ele>
        <time>2013-10-13T08:29:41Z</time>
      </trkpt>
      <trkpt lat="43.41181" lon="6.72664">
        <ele>6</ele>
        <time>2013-10-13T08:29:44Z</time>
      </trkpt>
      <trkpt lat="43.4117" lon="6.72652">
        <ele>6</ele>
        <time>2013-10-13T08:29:47Z</time>
      </trkpt>
      <trkpt lat="43.41162" lon="6.72642">
        <ele>6</ele>
        <time>2013-10-13T08:29:49Z</time>
      </trkpt>
      <trkpt lat="43.41154" lon="6.72634">
        <ele>6</ele>
        <time>2013-10-13T08:29:51Z</time>
      </trkpt>
      <trkpt lat="43.41143" lon="6.72624">
        <ele>6</ele>
        <time>2013-10-13T08:29:54Z</time>
      </trkpt>
      <trkpt lat="43.41136" lon="6.72614">
        <ele>6</ele>
        <time>2013-10-13T08:29:58Z</time>
      </trkpt>
      <trkpt lat="43.41129" lon="6.72606">
        <ele>6</ele>
        <time>2013-10-13T08:30:02Z</time>
      </trkpt>
      <trkpt lat="43.41125" lon="6.72597">
        <ele>6</ele>
        <time>2013-10-13T08:30:11Z</time>
      </trkpt>
      <trkpt lat="43.41124" lon="6.72597">
        <ele>6</ele>
        <time>2013-10-13T08:30:12Z</time>
      </trkpt>
      <trkpt lat="43.41124" lon="6.72596">
        <ele>6</ele>
        <time>2013-10-13T08:30:14Z</time>
      </trkpt>
      <trkpt lat="43.41124" lon="6.72595">
        <ele>6</ele>
        <time>2013-10-13T08:30:16Z</time>
      </trkpt>
      <trkpt lat="43.41125" lon="6.72593">
        <ele>6</ele>
        <time>2013-10-13T08:30:20Z</time>
      </trkpt>
      <trkpt lat="43.41125" lon="6.72592">
        <ele>6</ele>
        <time>2013-10-13T08:30:22Z</time>
      </trkpt>
      <trkpt lat="43.41128" lon="6.72584">
        <ele>6</ele>
        <time>2013-10-13T08:30:42Z</time>
      </trkpt>
      <trkpt lat="43.41129" lon="6.72582">
        <ele>6</ele>
        <time>2013-10-13T08:30:46Z</time>
      </trkpt>
      <trkpt lat="43.41131" lon="6.72578">
        <ele>6</ele>
        <time>2013-10-13T08:31:00Z</time>
      </trkpt>
      <trkpt lat="43.41132" lon="6.72576">
        <ele>6</ele>
        <time>2013-10-13T08:31:04Z</time>
      </trkpt>
      <trkpt lat="43.41145" lon="6.72561">
        <ele>6</ele>
        <time>2013-10-13T08:32:26Z</time>
      </trkpt>
      <trkpt lat="43.41146" lon="6.72559">
        <ele>6</ele>
        <time>2013-10-13T08:32:30Z</time>
      </trkpt>
      <trkpt lat="43.41147" lon="6.72553">
        <ele>6</ele>
        <time>2013-10-13T08:32:46Z</time>
      </trkpt>
      <trkpt lat="43.41148" lon="6.72551">
        <ele>6</ele>
        <time>2013-10-13T08:32:49Z</time>
      </trkpt>
      <trkpt lat="43.4115" lon="6.72545">
        <ele>6</ele>
        <time>2013-10-13T08:33:00Z</time>
      </trkpt>
      <trkpt lat="43.41149" lon="6.72544">
        <ele>6</ele>
        <time>2013-10-13T08:33:06Z</time>
      </trkpt>
      <trkpt lat="43.4115" lon="6.72543">
        <ele>6</ele>
        <time>2013-10-13T08:33:08Z</time>
      </trkpt>
      <trkpt lat="43.41149" lon="6.7254">
        <ele>6</ele>
        <time>2013-10-13T08:33:14Z</time>
      </trkpt>
      <trkpt lat="43.4115" lon="6.7254">
        <ele>6</ele>
        <time>2013-10-13T08:33:16Z</time>
      </trkpt>
      <trkpt lat="43.41147" lon="6.72528">
        <ele>6</ele>
        <time>2013-10-13T08:34:17Z</time>
      </trkpt>
      <trkpt lat="43.41146" lon="6.7252">
        <ele>6</ele>
        <time>2013-10-13T08:34:23Z</time>
      </trkpt>
      <trkpt lat="43.41151" lon="6.72506">
        <ele>6</ele>
        <time>2013-10-13T08:34:33Z</time>
      </trkpt>
      <trkpt lat="43.41154" lon="6.7249">
        <ele>6</ele>
        <time>2013-10-13T08:34:38Z</time>
      </trkpt>
      <trkpt lat="43.41158" lon="6.72475">
        <ele>6</ele>
        <time>2013-10-13T08:34:42Z</time>
      </trkpt>
      <trkpt lat="43.41165" lon="6.72461">
        <ele>6</ele>
        <time>2013-10-13T08:34:47Z</time>
      </trkpt>
      <trkpt lat="43.41174" lon="6.72455">
        <ele>6</ele>
        <time>2013-10-13T08:34:51Z</time>
      </trkpt>
      <trkpt lat="43.41186" lon="6.7246">
        <ele>6</ele>
        <time>2013-10-13T08:34:54Z</time>
      </trkpt>
      <trkpt lat="43.41192" lon="6.7247">
        <ele>6</ele>
        <time>2013-10-13T08:34:58Z</time>
      </trkpt>
      <trkpt lat="43.41188" lon="6.72482">
        <ele>6</ele>
        <time>2013-10-13T08:35:01Z</time>
      </trkpt>
      <trkpt lat="43.4118" lon="6.72492">
        <ele>6</ele>
        <time>2013-10-13T08:35:03Z</time>
      </trkpt>
      <trkpt lat="43.41171" lon="6.725">
        <ele>6</ele>
        <time>2013-10-13T08:35:05Z</time>
      </trkpt>
      <trkpt lat="43.41159" lon="6.72502">
        <ele>6</ele>
        <time>2013-10-13T08:35:08Z</time>
      </trkpt>
      <trkpt lat="43.41149" lon="6.72496">
        <ele>6</ele>
        <time>2013-10-13T08:35:11Z</time>
      </trkpt>
      <trkpt lat="43.41137" lon="6.72489">
        <ele>6</ele>
        <time>2013-10-13T08:35:14Z</time>
      </trkpt>
      <trkpt lat="43.41124" lon="6.72482">
        <ele>6</ele>
        <time>2013-10-13T08:35:17Z</time>
      </trkpt>
      <trkpt lat="43.41111" lon="6.72474">
        <ele>6</ele>
        <time>2013-10-13T08:35:20Z</time>
      </trkpt>
      <trkpt lat="43.41101" lon="6.72469">
        <ele>6</ele>
        <time>2013-10-13T08:35:22Z</time>
      </trkpt>
      <trkpt lat="43.41093" lon="6.72463">
        <ele>6</ele>
        <time>2013-10-13T08:35:24Z</time>
      </trkpt>
      <trkpt lat="43.41085" lon="6.72458">
        <ele>6</ele>
        <time>2013-10-13T08:35:26Z</time>
      </trkpt>
      <trkpt lat="43.4108" lon="6.72454">
        <ele>6</ele>
        <time>2013-10-13T08:35:27Z</time>
      </trkpt>
      <trkpt lat="43.41072" lon="6.72445">
        <ele>6</ele>
        <time>2013-10-13T08:35:29Z</time>
      </trkpt>
      <trkpt lat="43.41067" lon="6.72439">
        <ele>6</ele>
        <time>2013-10-13T08:35:30Z</time>
      </trkpt>
      <trkpt lat="43.41055" lon="6.72428">
        <ele>6</ele>
        <time>2013-10-13T08:35:32Z</time>
      </trkpt>
      <trkpt lat="43.4104" lon="6.72419">
        <ele>6</ele>
        <time>2013-10-13T08:35:34Z</time>
      </trkpt>
      <trkpt lat="43.41032" lon="6.72416">
        <ele>6</ele>
        <time>2013-10-13T08:35:35Z</time>
      </trkpt>
      <trkpt lat="43.41024" lon="6.72414">
        <ele>6</ele>
        <time>2013-10-13T08:35:36Z</time>
      </trkpt>
      <trkpt lat="43.41008" lon="6.72411">
        <ele>6</ele>
        <time>2013-10-13T08:35:38Z</time>
      </trkpt>
      <trkpt lat="43.40992" lon="6.7241">
        <ele>6</ele>
        <time>2013-10-13T08:35:40Z</time>
      </trkpt>
      <trkpt lat="43.40984" lon="6.72409">
        <ele>6</ele>
        <time>2013-10-13T08:35:41Z</time>
      </trkpt>
      <trkpt lat="43.40976" lon="6.72409">
        <ele>6</ele>
        <time>2013-10-13T08:35:42Z</time>
      </trkpt>
      <trkpt lat="43.40961" lon="6.72411">
        <ele>6</ele>
        <time>2013-10-13T08:35:44Z</time>
      </trkpt>
      <trkpt lat="43.40945" lon="6.72415">
        <ele>6</ele>
        <time>2013-10-13T08:35:46Z</time>
      </trkpt>
      <trkpt lat="43.40931" lon="6.72419">
        <ele>6</ele>
        <time>2013-10-13T08:35:48Z</time>
      </trkpt>
      <trkpt lat="43.40924" lon="6.7242">
        <ele>6</ele>
        <time>2013-10-13T08:35:49Z</time>
      </trkpt>
      <trkpt lat="43.40911" lon="6.72416">
        <ele>6</ele>
        <time>2013-10-13T08:35:51Z</time>
      </trkpt>
      <trkpt lat="43.40904" lon="6.724">
        <ele>6</ele>
        <time>2013-10-13T08:35:53Z</time>
      </trkpt>
      <trkpt lat="43.409" lon="6.72379">
        <ele>6</ele>
        <time>2013-10-13T08:35:55Z</time>
      </trkpt>
      <trkpt lat="43.40893" lon="6.7236">
        <ele>6</ele>
        <time>2013-10-13T08:35:57Z</time>
      </trkpt>
      <trkpt lat="43.40881" lon="6.72348">
        <ele>6</ele>
        <time>2013-10-13T08:35:59Z</time>
      </trkpt>
      <trkpt lat="43.40868" lon="6.7234">
        <ele>6</ele>
        <time>2013-10-13T08:36:01Z</time>
      </trkpt>
      <trkpt lat="43.40853" lon="6.72335">
        <ele>6</ele>
        <time>2013-10-13T08:36:03Z</time>
      </trkpt>
      <trkpt lat="43.40838" lon="6.72333">
        <ele>6</ele>
        <time>2013-10-13T08:36:05Z</time>
      </trkpt>
      <trkpt lat="43.40823" lon="6.72331">
        <ele>6</ele>
        <time>2013-10-13T08:36:07Z</time>
      </trkpt>
      <trkpt lat="43.4081" lon="6.72326">
        <ele>6</ele>
        <time>2013-10-13T08:36:09Z</time>
      </trkpt>
      <trkpt lat="43.40802" lon="6.72324">
        <ele>6</ele>
        <time>2013-10-13T08:36:10Z</time>
      </trkpt>
      <trkpt lat="43.40796" lon="6.72321">
        <ele>6</ele>
        <time>2013-10-13T08:36:11Z</time>
      </trkpt>
      <trkpt lat="43.40789" lon="6.72318">
        <ele>6</ele>
        <time>2013-10-13T08:36:12Z</time>
      </trkpt>
      <trkpt lat="43.40781" lon="6.72315">
        <ele>6</ele>
        <time>2013-10-13T08:36:13Z</time>
      </trkpt>
      <trkpt lat="43.40767" lon="6.72309">
        <ele>6</ele>
        <time>2013-10-13T08:36:15Z</time>
      </trkpt>
      <trkpt lat="43.40754" lon="6.72303">
        <ele>6</ele>
        <time>2013-10-13T08:36:17Z</time>
      </trkpt>
      <trkpt lat="43.40741" lon="6.72295">
        <ele>6</ele>
        <time>2013-10-13T08:36:19Z</time>
      </trkpt>
      <trkpt lat="43.40736" lon="6.72289">
        <ele>6</ele>
        <time>2013-10-13T08:36:20Z</time>
      </trkpt>
      <trkpt lat="43.4073" lon="6.72272">
        <ele>6</ele>
        <time>2013-10-13T08:36:22Z</time>
      </trkpt>
      <trkpt lat="43.40733" lon="6.72254">
        <ele>6</ele>
        <time>2013-10-13T08:36:24Z</time>
      </trkpt>
      <trkpt lat="43.4074" lon="6.72237">
        <ele>6</ele>
        <time>2013-10-13T08:36:26Z</time>
      </trkpt>
      <trkpt lat="43.40748" lon="6.72221">
        <ele>6</ele>
        <time>2013-10-13T08:36:28Z</time>
      </trkpt>
      <trkpt lat="43.40752" lon="6.72213">
        <ele>6</ele>
        <time>2013-10-13T08:36:29Z</time>
      </trkpt>
      <trkpt lat="43.4076" lon="6.72197">
        <ele>6</ele>
        <time>2013-10-13T08:36:31Z</time>
      </trkpt>
      <trkpt lat="43.40763" lon="6.72189">
        <ele>6</ele>
        <time>2013-10-13T08:36:32Z</time>
      </trkpt>
      <trkpt lat="43.40767" lon="6.72181">
        <ele>6</ele>
        <time>2013-10-13T08:36:33Z</time>
      </trkpt>
      <trkpt lat="43.4077" lon="6.72173">
        <ele>6</ele>
        <time>2013-10-13T08:36:34Z</time>
      </trkpt>
      <trkpt lat="43.40774" lon="6.72165">
        <ele>6</ele>
        <time>2013-10-13T08:36:35Z</time>
      </trkpt>
      <trkpt lat="43.40777" lon="6.72157">
        <ele>6</ele>
        <time>2013-10-13T08:36:36Z</time>
      </trkpt>
      <trkpt lat="43.40783" lon="6.72141">
        <ele>6</ele>
        <time>2013-10-13T08:36:38Z</time>
      </trkpt>
      <trkpt lat="43.40788" lon="6.72125">
        <ele>6</ele>
        <time>2013-10-13T08:36:40Z</time>
      </trkpt>
      <trkpt lat="43.40791" lon="6.72108">
        <ele>6</ele>
        <time>2013-10-13T08:36:42Z</time>
      </trkpt>
      <trkpt lat="43.40791" lon="6.721">
        <ele>6</ele>
        <time>2013-10-13T08:36:43Z</time>
      </trkpt>
      <trkpt lat="43.40791" lon="6.72091">
        <ele>6</ele>
        <time>2013-10-13T08:36:44Z</time>
      </trkpt>
      <trkpt lat="43.40792" lon="6.72082">
        <ele>6</ele>
        <time>2013-10-13T08:36:45Z</time>
      </trkpt>
      <trkpt lat="43.40792" lon="6.72073">
        <ele>6</ele>
        <time>2013-10-13T08:36:46Z</time>
      </trkpt>
      <trkpt lat="43.40793" lon="6.72064">
        <ele>6</ele>
        <time>2013-10-13T08:36:47Z</time>
      </trkpt>
      <trkpt lat="43.40794" lon="6.72055">
        <ele>6</ele>
        <time>2013-10-13T08:36:48Z</time>
      </trkpt>
      <trkpt lat="43.40796" lon="6.72046">
        <ele>6</ele>
        <time>2013-10-13T08:36:49Z</time>
      </trkpt>
      <trkpt lat="43.40797" lon="6.72037">
        <ele>6</ele>
        <time>2013-10-13T08:36:50Z</time>
      </trkpt>
      <trkpt lat="43.40799" lon="6.72028">
        <ele>6</ele>
        <time>2013-10-13T08:36:51Z</time>
      </trkpt>
      <trkpt lat="43.40802" lon="6.7201">
        <ele>6</ele>
        <time>2013-10-13T08:36:53Z</time>
      </trkpt>
      <trkpt lat="43.40804" lon="6.72001">
        <ele>6</ele>
        <time>2013-10-13T08:36:54Z</time>
      </trkpt>
      <trkpt lat="43.40805" lon="6.71993">
        <ele>6</ele>
        <time>2013-10-13T08:36:55Z</time>
      </trkpt>
      <trkpt lat="43.40808" lon="6.71984">
        <ele>6</ele>
        <time>2013-10-13T08:36:56Z</time>
      </trkpt>
      <trkpt lat="43.4081" lon="6.71975">
        <ele>6</ele>
        <time>2013-10-13T08:36:57Z</time>
      </trkpt>
      <trkpt lat="43.40813" lon="6.71967">
        <ele>6</ele>
        <time>2013-10-13T08:36:58Z</time>
      </trkpt>
      <trkpt lat="43.40818" lon="6.71949">
        <ele>6</ele>
        <time>2013-10-13T08:37:00Z</time>
      </trkpt>
      <trkpt lat="43.40821" lon="6.71941">
        <ele>6</ele>
        <time>2013-10-13T08:37:01Z</time>
      </trkpt>
      <trkpt lat="43.40827" lon="6.71924">
        <ele>6</ele>
        <time>2013-10-13T08:37:03Z</time>
      </trkpt>
      <trkpt lat="43.4083" lon="6.71915">
        <ele>6</ele>
        <time>2013-10-13T08:37:04Z</time>
      </trkpt>
      <trkpt lat="43.40833" lon="6.71907">
        <ele>6</ele>
        <time>2013-10-13T08:37:05Z</time>
      </trkpt>
      <trkpt lat="43.40836" lon="6.71899">
        <ele>6</ele>
        <time>2013-10-13T08:37:06Z</time>
      </trkpt>
      <trkpt lat="43.40839" lon="6.71891">
        <ele>6</ele>
        <time>2013-10-13T08:37:07Z</time>
      </trkpt>
      <trkpt lat="43.40842" lon="6.71883">
        <ele>6</ele>
        <time>2013-10-13T08:37:08Z</time>
      </trkpt>
      <trkpt lat="43.40845" lon="6.71876">
        <ele>6</ele>
        <time>2013-10-13T08:37:09Z</time>
      </trkpt>
      <trkpt lat="43.40856" lon="6.71854">
        <ele>6</ele>
        <time>2013-10-13T08:37:12Z</time>
      </trkpt>
      <trkpt lat="43.40863" lon="6.7184">
        <ele>6</ele>
        <time>2013-10-13T08:37:14Z</time>
      </trkpt>
      <trkpt lat="43.40871" lon="6.71827">
        <ele>6</ele>
        <time>2013-10-13T08:37:16Z</time>
      </trkpt>
      <trkpt lat="43.40879" lon="6.71813">
        <ele>6</ele>
        <time>2013-10-13T08:37:18Z</time>
      </trkpt>
      <trkpt lat="43.40887" lon="6.718">
        <ele>6</ele>
        <time>2013-10-13T08:37:20Z</time>
      </trkpt>
      <trkpt lat="43.40891" lon="6.71793">
        <ele>6</ele>
        <time>2013-10-13T08:37:21Z</time>
      </trkpt>
      <trkpt lat="43.40894" lon="6.71785">
        <ele>6</ele>
        <time>2013-10-13T08:37:22Z</time>
      </trkpt>
      <trkpt lat="43.40896" lon="6.71777">
        <ele>6</ele>
        <time>2013-10-13T08:37:23Z</time>
      </trkpt>
      <trkpt lat="43.409" lon="6.71761">
        <ele>6</ele>
        <time>2013-10-13T08:37:25Z</time>
      </trkpt>
      <trkpt lat="43.40902" lon="6.71744">
        <ele>6</ele>
        <time>2013-10-13T08:37:27Z</time>
      </trkpt>
      <trkpt lat="43.40905" lon="6.71727">
        <ele>6</ele>
        <time>2013-10-13T08:37:29Z</time>
      </trkpt>
      <trkpt lat="43.40908" lon="6.71711">
        <ele>6</ele>
        <time>2013-10-13T08:37:31Z</time>
      </trkpt>
      <trkpt lat="43.40911" lon="6.71694">
        <ele>6</ele>
        <time>2013-10-13T08:37:33Z</time>
      </trkpt>
      <trkpt lat="43.40913" lon="6.71685">
        <ele>6</ele>
        <time>2013-10-13T08:37:34Z</time>
      </trkpt>
      <trkpt lat="43.40915" lon="6.71676">
        <ele>6</ele>
        <time>2013-10-13T08:37:35Z</time>
      </trkpt>
      <trkpt lat="43.40918" lon="6.7166">
        <ele>6</ele>
        <time>2013-10-13T08:37:37Z</time>
      </trkpt>
      <trkpt lat="43.40921" lon="6.71644">
        <ele>6</ele>
        <time>2013-10-13T08:37:39Z</time>
      </trkpt>
      <trkpt lat="43.40924" lon="6.71628">
        <ele>6</ele>
        <time>2013-10-13T08:37:41Z</time>
      </trkpt>
      <trkpt lat="43.40927" lon="6.71612">
        <ele>6</ele>
        <time>2013-10-13T08:37:43Z</time>
      </trkpt>
      <trkpt lat="43.40929" lon="6.71596">
        <ele>6</ele>
        <time>2013-10-13T08:37:45Z</time>
      </trkpt>
      <trkpt lat="43.40932" lon="6.7158">
        <ele>6</ele>
        <time>2013-10-13T08:37:47Z</time>
      </trkpt>
      <trkpt lat="43.40936" lon="6.71564">
        <ele>6</ele>
        <time>2013-10-13T08:37:49Z</time>
      </trkpt>
      <trkpt lat="43.40939" lon="6.71548">
        <ele>6</ele>
        <time>2013-10-13T08:37:51Z</time>
      </trkpt>
      <trkpt lat="43.4094" lon="6.71532">
        <ele>6</ele>
        <time>2013-10-13T08:37:53Z</time>
      </trkpt>
      <trkpt lat="43.40943" lon="6.71514">
        <ele>6</ele>
        <time>2013-10-13T08:37:55Z</time>
      </trkpt>
      <trkpt lat="43.40945" lon="6.71497">
        <ele>6</ele>
        <time>2013-10-13T08:37:57Z</time>
      </trkpt>
      <trkpt lat="43.40951" lon="6.71481">
        <ele>6</ele>
        <time>2013-10-13T08:37:59Z</time>
      </trkpt>
      <trkpt lat="43.40955" lon="6.71474">
        <ele>6</ele>
        <time>2013-10-13T08:38:00Z</time>
      </trkpt>
      <trkpt lat="43.40961" lon="6.71469">
        <ele>6</ele>
        <time>2013-10-13T08:38:01Z</time>
      </trkpt>
      <trkpt lat="43.40974" lon="6.71464">
        <ele>6</ele>
        <time>2013-10-13T08:38:03Z</time>
      </trkpt>
      <trkpt lat="43.4098" lon="6.71462">
        <ele>6</ele>
        <time>2013-10-13T08:38:04Z</time>
      </trkpt>
      <trkpt lat="43.40992" lon="6.71457">
        <ele>6</ele>
        <time>2013-10-13T08:38:06Z</time>
      </trkpt>
      <trkpt lat="43.40998" lon="6.71454">
        <ele>6</ele>
        <time>2013-10-13T08:38:07Z</time>
      </trkpt>
      <trkpt lat="43.41004" lon="6.7145">
        <ele>6</ele>
        <time>2013-10-13T08:38:08Z</time>
      </trkpt>
      <trkpt lat="43.41009" lon="6.71446">
        <ele>6</ele>
        <time>2013-10-13T08:38:09Z</time>
      </trkpt>
      <trkpt lat="43.41015" lon="6.71442">
        <ele>6</ele>
        <time>2013-10-13T08:38:10Z</time>
      </trkpt>
      <trkpt lat="43.4102" lon="6.71437">
        <ele>6</ele>
        <time>2013-10-13T08:38:11Z</time>
      </trkpt>
      <trkpt lat="43.41024" lon="6.71431">
        <ele>6</ele>
        <time>2013-10-13T08:38:12Z</time>
      </trkpt>
      <trkpt lat="43.41029" lon="6.71426">
        <ele>6</ele>
        <time>2013-10-13T08:38:13Z</time>
      </trkpt>
      <trkpt lat="43.41034" lon="6.7142">
        <ele>6</ele>
        <time>2013-10-13T08:38:14Z</time>
      </trkpt>
      <trkpt lat="43.41038" lon="6.71414">
        <ele>6</ele>
        <time>2013-10-13T08:38:15Z</time>
      </trkpt>
      <trkpt lat="43.41042" lon="6.71409">
        <ele>6</ele>
        <time>2013-10-13T08:38:16Z</time>
      </trkpt>
      <trkpt lat="43.41047" lon="6.71403">
        <ele>6</ele>
        <time>2013-10-13T08:38:17Z</time>
      </trkpt>
      <trkpt lat="43.41059" lon="6.71384">
        <ele>6</ele>
        <time>2013-10-13T08:38:20Z</time>
      </trkpt>
      <trkpt lat="43.41067" lon="6.71372">
        <ele>6</ele>
        <time>2013-10-13T08:38:22Z</time>
      </trkpt>
      <trkpt lat="43.41074" lon="6.71359">
        <ele>6</ele>
        <time>2013-10-13T08:38:24Z</time>
      </trkpt>
      <trkpt lat="43.41082" lon="6.71345">
        <ele>6</ele>
        <time>2013-10-13T08:38:26Z</time>
      </trkpt>
      <trkpt lat="43.41089" lon="6.71332">
        <ele>6</ele>
        <time>2013-10-13T08:38:28Z</time>
      </trkpt>
      <trkpt lat="43.41096" lon="6.71318">
        <ele>6</ele>
        <time>2013-10-13T08:38:30Z</time>
      </trkpt>
      <trkpt lat="43.41105" lon="6.71304">
        <ele>6</ele>
        <time>2013-10-13T08:38:32Z</time>
      </trkpt>
      <trkpt lat="43.41115" lon="6.71292">
        <ele>6</ele>
        <time>2013-10-13T08:38:34Z</time>
      </trkpt>
      <trkpt lat="43.41125" lon="6.71283">
        <ele>6</ele>
        <time>2013-10-13T08:38:36Z</time>
      </trkpt>
      <trkpt lat="43.41137" lon="6.71277">
        <ele>6</ele>
        <time>2013-10-13T08:38:38Z</time>
      </trkpt>
      <trkpt lat="43.41148" lon="6.71273">
        <ele>6</ele>
        <time>2013-10-13T08:38:40Z</time>
      </trkpt>
      <trkpt lat="43.41159" lon="6.71264">
        <ele>6</ele>
        <time>2013-10-13T08:38:42Z</time>
      </trkpt>
      <trkpt lat="43.4117" lon="6.71253">
        <ele>6</ele>
        <time>2013-10-13T08:38:44Z</time>
      </trkpt>
      <trkpt lat="43.4118" lon="6.71241">
        <ele>6</ele>
        <time>2013-10-13T08:38:46Z</time>
      </trkpt>
      <trkpt lat="43.4119" lon="6.71231">
        <ele>6</ele>
        <time>2013-10-13T08:38:48Z</time>
      </trkpt>
      <trkpt lat="43.41201" lon="6.71221">
        <ele>6</ele>
        <time>2013-10-13T08:38:50Z</time>
      </trkpt>
      <trkpt lat="43.41211" lon="6.7121">
        <ele>6</ele>
        <time>2013-10-13T08:38:52Z</time>
      </trkpt>
      <trkpt lat="43.4122" lon="6.71197">
        <ele>6</ele>
        <time>2013-10-13T08:38:54Z</time>
      </trkpt>
      <trkpt lat="43.41228" lon="6.71184">
        <ele>6</ele>
        <time>2013-10-13T08:38:56Z</time>
      </trkpt>
      <trkpt lat="43.41236" lon="6.71169">
        <ele>6</ele>
        <time>2013-10-13T08:38:58Z</time>
      </trkpt>
      <trkpt lat="43.41243" lon="6.71154">
        <ele>6</ele>
        <time>2013-10-13T08:39:00Z</time>
      </trkpt>
      <trkpt lat="43.41249" lon="6.71138">
        <ele>6</ele>
        <time>2013-10-13T08:39:02Z</time>
      </trkpt>
      <trkpt lat="43.41255" lon="6.71123">
        <ele>6</ele>
        <time>2013-10-13T08:39:04Z</time>
      </trkpt>
      <trkpt lat="43.4126" lon="6.71108">
        <ele>6</ele>
        <time>2013-10-13T08:39:06Z</time>
      </trkpt>
      <trkpt lat="43.41266" lon="6.71094">
        <ele>6</ele>
        <time>2013-10-13T08:39:08Z</time>
      </trkpt>
      <trkpt lat="43.41272" lon="6.71079">
        <ele>6</ele>
        <time>2013-10-13T08:39:10Z</time>
      </trkpt>
      <trkpt lat="43.41279" lon="6.71064">
        <ele>6</ele>
        <time>2013-10-13T08:39:12Z</time>
      </trkpt>
      <trkpt lat="43.41288" lon="6.71051">
        <ele>6</ele>
        <time>2013-10-13T08:39:14Z</time>
      </trkpt>
      <trkpt lat="43.41296" lon="6.71038">
        <ele>6</ele>
        <time>2013-10-13T08:39:16Z</time>
      </trkpt>
      <trkpt lat="43.41306" lon="6.71025">
        <ele>6</ele>
        <time>2013-10-13T08:39:18Z</time>
      </trkpt>
      <trkpt lat="43.41313" lon="6.71011">
        <ele>6</ele>
        <time>2013-10-13T08:39:20Z</time>
      </trkpt>
      <trkpt lat="43.41321" lon="6.70998">
        <ele>6</ele>
        <time>2013-10-13T08:39:22Z</time>
      </trkpt>
      <trkpt lat="43.4133" lon="6.70987">
        <ele>6</ele>
        <time>2013-10-13T08:39:24Z</time>
      </trkpt>
      <trkpt lat="43.4134" lon="6.70976">
        <ele>6</ele>
        <time>2013-10-13T08:39:26Z</time>
      </trkpt>
      <trkpt lat="43.41348" lon="6.70962">
        <ele>6</ele>
        <time>2013-10-13T08:39:28Z</time>
      </trkpt>
      <trkpt lat="43.41357" lon="6.70949">
        <ele>6</ele>
        <time>2013-10-13T08:39:30Z</time>
      </trkpt>
      <trkpt lat="43.41366" lon="6.70936">
        <ele>6</ele>
        <time>2013-10-13T08:39:32Z</time>
      </trkpt>
      <trkpt lat="43.41376" lon="6.70924">
        <ele>6</ele>
        <time>2013-10-13T08:39:34Z</time>
      </trkpt>
      <trkpt lat="43.41386" lon="6.7091">
        <ele>6</ele>
        <time>2013-10-13T08:39:36Z</time>
      </trkpt>
      <trkpt lat="43.41396" lon="6.70896">
        <ele>6</ele>
        <time>2013-10-13T08:39:38Z</time>
      </trkpt>
      <trkpt lat="43.41405" lon="6.7088">
        <ele>6</ele>
        <time>2013-10-13T08:39:40Z</time>
      </trkpt>
      <trkpt lat="43.41413" lon="6.70863">
        <ele>6</ele>
        <time>2013-10-13T08:39:42Z</time>
      </trkpt>
      <trkpt lat="43.4142" lon="6.70846">
        <ele>6</ele>
        <time>2013-10-13T08:39:44Z</time>
      </trkpt>
      <trkpt lat="43.41425" lon="6.70828">
        <ele>6</ele>
        <time>2013-10-13T08:39:46Z</time>
      </trkpt>
      <trkpt lat="43.41428" lon="6.7081">
        <ele>6</ele>
        <time>2013-10-13T08:39:48Z</time>
      </trkpt>
      <trkpt lat="43.41428" lon="6.70801">
        <ele>6</ele>
        <time>2013-10-13T08:39:49Z</time>
      </trkpt>
      <trkpt lat="43.41431" lon="6.70774">
        <ele>6</ele>
        <time>2013-10-13T08:39:52Z</time>
      </trkpt>
      <trkpt lat="43.41434" lon="6.70758">
        <ele>6</ele>
        <time>2013-10-13T08:39:54Z</time>
      </trkpt>
      <trkpt lat="43.41439" lon="6.70744">
        <ele>6</ele>
        <time>2013-10-13T08:39:56Z</time>
      </trkpt>
      <trkpt lat="43.41444" lon="6.70726">
        <ele>6</ele>
        <time>2013-10-13T08:39:59Z</time>
      </trkpt>
      <trkpt lat="43.41447" lon="6.70713">
        <ele>6</ele>
        <time>2013-10-13T08:40:01Z</time>
      </trkpt>
      <trkpt lat="43.41447" lon="6.70699">
        <ele>6</ele>
        <time>2013-10-13T08:40:03Z</time>
      </trkpt>
      <trkpt lat="43.41447" lon="6.70684">
        <ele>6</ele>
        <time>2013-10-13T08:40:05Z</time>
      </trkpt>
      <trkpt lat="43.41443" lon="6.7067">
        <ele>6</ele>
        <time>2013-10-13T08:40:07Z</time>
      </trkpt>
      <trkpt lat="43.41438" lon="6.70657">
        <ele>6</ele>
        <time>2013-10-13T08:40:09Z</time>
      </trkpt>
      <trkpt lat="43.41427" lon="6.70645">
        <ele>6</ele>
        <time>2013-10-13T08:40:12Z</time>
      </trkpt>
      <trkpt lat="43.41417" lon="6.7064">
        <ele>6</ele>
        <time>2013-10-13T08:40:14Z</time>
      </trkpt>
      <trkpt lat="43.41406" lon="6.70636">
        <ele>6</ele>
        <time>2013-10-13T08:40:16Z</time>
      </trkpt>
      <trkpt lat="43.41394" lon="6.70635">
        <ele>6</ele>
        <time>2013-10-13T08:40:18Z</time>
      </trkpt>
      <trkpt lat="43.41384" lon="6.70642">
        <ele>6</ele>
        <time>2013-10-13T08:40:20Z</time>
      </trkpt>
      <trkpt lat="43.41373" lon="6.70651">
        <ele>6</ele>
        <time>2013-10-13T08:40:23Z</time>
      </trkpt>
      <trkpt lat="43.41364" lon="6.70659">
        <ele>6</ele>
        <time>2013-10-13T08:40:25Z</time>
      </trkpt>
      <trkpt lat="43.41353" lon="6.7066">
        <ele>6</ele>
        <time>2013-10-13T08:40:28Z</time>
      </trkpt>
      <trkpt lat="43.41346" lon="6.70654">
        <ele>6</ele>
        <time>2013-10-13T08:40:30Z</time>
      </trkpt>
      <trkpt lat="43.41339" lon="6.70646">
        <ele>6</ele>
        <time>2013-10-13T08:40:32Z</time>
      </trkpt>
      <trkpt lat="43.41331" lon="6.70637">
        <ele>6</ele>
        <time>2013-10-13T08:40:34Z</time>
      </trkpt>
      <trkpt lat="43.41324" lon="6.70627">
        <ele>6</ele>
        <time>2013-10-13T08:40:36Z</time>
      </trkpt>
      <trkpt lat="43.41314" lon="6.70613">
        <ele>6</ele>
        <time>2013-10-13T08:40:39Z</time>
      </trkpt>
      <trkpt lat="43.41305" lon="6.70602">
        <ele>6</ele>
        <time>2013-10-13T08:40:41Z</time>
      </trkpt>
      <trkpt lat="43.41295" lon="6.70592">
        <ele>6</ele>
        <time>2013-10-13T08:40:43Z</time>
      </trkpt>
      <trkpt lat="43.41286" lon="6.70584">
        <ele>6</ele>
        <time>2013-10-13T08:40:45Z</time>
      </trkpt>
      <trkpt lat="43.41277" lon="6.70576">
        <ele>6</ele>
        <time>2013-10-13T08:40:47Z</time>
      </trkpt>
      <trkpt lat="43.41268" lon="6.70569">
        <ele>6</ele>
        <time>2013-10-13T08:40:49Z</time>
      </trkpt>
      <trkpt lat="43.41261" lon="6.70562">
        <ele>6</ele>
        <time>2013-10-13T08:40:51Z</time>
      </trkpt>
      <trkpt lat="43.41255" lon="6.70545">
        <ele>6</ele>
        <time>2013-10-13T08:40:54Z</time>
      </trkpt>
      <trkpt lat="43.41258" lon="6.70532">
        <ele>6</ele>
        <time>2013-10-13T08:40:56Z</time>
      </trkpt>
      <trkpt lat="43.41265" lon="6.70514">
        <ele>6</ele>
        <time>2013-10-13T08:40:59Z</time>
      </trkpt>
      <trkpt lat="43.4127" lon="6.70501">
        <ele>6</ele>
        <time>2013-10-13T08:41:01Z</time>
      </trkpt>
      <trkpt lat="43.41277" lon="6.70487">
        <ele>6</ele>
        <time>2013-10-13T08:41:03Z</time>
      </trkpt>
      <trkpt lat="43.41283" lon="6.70473">
        <ele>6</ele>
        <time>2013-10-13T08:41:05Z</time>
      </trkpt>
      <trkpt lat="43.41289" lon="6.70459">
        <ele>6</ele>
        <time>2013-10-13T08:41:07Z</time>
      </trkpt>
      <trkpt lat="43.41295" lon="6.70444">
        <ele>6</ele>
        <time>2013-10-13T08:41:09Z</time>
      </trkpt>
      <trkpt lat="43.41301" lon="6.7043">
        <ele>6</ele>
        <time>2013-10-13T08:41:11Z</time>
      </trkpt>
      <trkpt lat="43.41306" lon="6.70415">
        <ele>6</ele>
        <time>2013-10-13T08:41:13Z</time>
      </trkpt>
      <trkpt lat="43.41312" lon="6.704">
        <ele>6</ele>
        <time>2013-10-13T08:41:15Z</time>
      </trkpt>
      <trkpt lat="43.41318" lon="6.70385">
        <ele>6</ele>
        <time>2013-10-13T08:41:17Z</time>
      </trkpt>
      <trkpt lat="43.41324" lon="6.70369">
        <ele>6</ele>
        <time>2013-10-13T08:41:19Z</time>
      </trkpt>
      <trkpt lat="43.41328" lon="6.70354">
        <ele>6</ele>
        <time>2013-10-13T08:41:21Z</time>
      </trkpt>
      <trkpt lat="43.41331" lon="6.70337">
        <ele>6</ele>
        <time>2013-10-13T08:41:23Z</time>
      </trkpt>
      <trkpt lat="43.41333" lon="6.70321">
        <ele>6</ele>
        <time>2013-10-13T08:41:25Z</time>
      </trkpt>
      <trkpt lat="43.41334" lon="6.70312">
        <ele>6</ele>
        <time>2013-10-13T08:41:26Z</time>
      </trkpt>
      <trkpt lat="43.41334" lon="6.70295">
        <ele>6</ele>
        <time>2013-10-13T08:41:28Z</time>
      </trkpt>
      <trkpt lat="43.41333" lon="6.7027">
        <ele>6</ele>
        <time>2013-10-13T08:41:31Z</time>
      </trkpt>
      <trkpt lat="43.41332" lon="6.70262">
        <ele>6</ele>
        <time>2013-10-13T08:41:32Z</time>
      </trkpt>
      <trkpt lat="43.4133" lon="6.70247">
        <ele>6</ele>
        <time>2013-10-13T08:41:34Z</time>
      </trkpt>
      <trkpt lat="43.41328" lon="6.70232">
        <ele>6</ele>
        <time>2013-10-13T08:41:36Z</time>
      </trkpt>
      <trkpt lat="43.41326" lon="6.70225">
        <ele>6</ele>
        <time>2013-10-13T08:41:37Z</time>
      </trkpt>
      <trkpt lat="43.41325" lon="6.70217">
        <ele>6</ele>
        <time>2013-10-13T08:41:38Z</time>
      </trkpt>
      <trkpt lat="43.41323" lon="6.70202">
        <ele>6</ele>
        <time>2013-10-13T08:41:40Z</time>
      </trkpt>
      <trkpt lat="43.41321" lon="6.70195">
        <ele>6</ele>
        <time>2013-10-13T08:41:41Z</time>
      </trkpt>
      <trkpt lat="43.41316" lon="6.70172">
        <ele>6</ele>
        <time>2013-10-13T08:41:44Z</time>
      </trkpt>
      <trkpt lat="43.41311" lon="6.70159">
        <ele>6</ele>
        <time>2013-10-13T08:41:46Z</time>
      </trkpt>
      <trkpt lat="43.41303" lon="6.70149">
        <ele>6</ele>
        <time>2013-10-13T08:41:48Z</time>
      </trkpt>
      <trkpt lat="43.41296" lon="6.70138">
        <ele>6</ele>
        <time>2013-10-13T08:41:50Z</time>
      </trkpt>
      <trkpt lat="43.41294" lon="6.70123">
        <ele>6</ele>
        <time>2013-10-13T08:41:52Z</time>
      </trkpt>
      <trkpt lat="43.41289" lon="6.7011">
        <ele>6</ele>
        <time>2013-10-13T08:41:54Z</time>
      </trkpt>
      <trkpt lat="43.41283" lon="6.70097">
        <ele>6</ele>
        <time>2013-10-13T08:41:56Z</time>
      </trkpt>
      <trkpt lat="43.41278" lon="6.70085">
        <ele>6</ele>
        <time>2013-10-13T08:41:58Z</time>
      </trkpt>
      <trkpt lat="43.4128" lon="6.7007">
        <ele>11</ele>
        <time>2013-10-13T08:42:01Z</time>
      </trkpt>
      <trkpt lat="43.41281" lon="6.70048">
        <ele>11</ele>
        <time>2013-10-13T08:42:04Z</time>
      </trkpt>
      <trkpt lat="43.41279" lon="6.70029">
        <ele>10</ele>
        <time>2013-10-13T08:42:06Z</time>
      </trkpt>
      <trkpt lat="43.41277" lon="6.7002">
        <ele>10</ele>
        <time>2013-10-13T08:42:07Z</time>
      </trkpt>
      <trkpt lat="43.41275" lon="6.7001">
        <ele>10</ele>
        <time>2013-10-13T08:42:08Z</time>
      </trkpt>
      <trkpt lat="43.41273" lon="6.7">
        <ele>10</ele>
        <time>2013-10-13T08:42:09Z</time>
      </trkpt>
      <trkpt lat="43.41272" lon="6.6999">
        <ele>10</ele>
        <time>2013-10-13T08:42:10Z</time>
      </trkpt>
      <trkpt lat="43.4127" lon="6.69981">
        <ele>10</ele>
        <time>2013-10-13T08:42:11Z</time>
      </trkpt>
      <trkpt lat="43.41267" lon="6.69963">
        <ele>10</ele>
        <time>2013-10-13T08:42:13Z</time>
      </trkpt>
      <trkpt lat="43.41265" lon="6.69954">
        <ele>10</ele>
        <time>2013-10-13T08:42:14Z</time>
      </trkpt>
      <trkpt lat="43.41263" lon="6.69944">
        <ele>10</ele>
        <time>2013-10-13T08:42:15Z</time>
      </trkpt>
      <trkpt lat="43.41261" lon="6.69935">
        <ele>10</ele>
        <time>2013-10-13T08:42:16Z</time>
      </trkpt>
      <trkpt lat="43.4126" lon="6.69927">
        <ele>10</ele>
        <time>2013-10-13T08:42:17Z</time>
      </trkpt>
      <trkpt lat="43.41258" lon="6.69918">
        <ele>10</ele>
        <time>2013-10-13T08:42:18Z</time>
      </trkpt>
      <trkpt lat="43.41256" lon="6.6991">
        <ele>10</ele>
        <time>2013-10-13T08:42:19Z</time>
      </trkpt>
      <trkpt lat="43.41254" lon="6.69901">
        <ele>9.3900032043457</ele>
        <time>2013-10-13T08:42:20Z</time>
      </trkpt>
      <trkpt lat="43.41252" lon="6.69893">
        <ele>9</ele>
        <time>2013-10-13T08:42:21Z</time>
      </trkpt>
      <trkpt lat="43.4125" lon="6.69885">
        <ele>9</ele>
        <time>2013-10-13T08:42:22Z</time>
      </trkpt>
      <trkpt lat="43.41248" lon="6.69876">
        <ele>9</ele>
        <time>2013-10-13T08:42:23Z</time>
      </trkpt>
      <trkpt lat="43.41245" lon="6.69867">
        <ele>9</ele>
        <time>2013-10-13T08:42:24Z</time>
      </trkpt>
      <trkpt lat="43.4124" lon="6.69851">
        <ele>9</ele>
        <time>2013-10-13T08:42:26Z</time>
      </trkpt>
      <trkpt lat="43.41233" lon="6.69836">
        <ele>9</ele>
        <time>2013-10-13T08:42:28Z</time>
      </trkpt>
      <trkpt lat="43.41224" lon="6.69823">
        <ele>9</ele>
        <time>2013-10-13T08:42:30Z</time>
      </trkpt>
      <trkpt lat="43.41218" lon="6.69811">
        <ele>9</ele>
        <time>2013-10-13T08:42:32Z</time>
      </trkpt>
      <trkpt lat="43.41214" lon="6.69798">
        <ele>9</ele>
        <time>2013-10-13T08:42:34Z</time>
      </trkpt>
      <trkpt lat="43.41209" lon="6.69784">
        <ele>9</ele>
        <time>2013-10-13T08:42:36Z</time>
      </trkpt>
      <trkpt lat="43.41206" lon="6.6977">
        <ele>9</ele>
        <time>2013-10-13T08:42:38Z</time>
      </trkpt>
      <trkpt lat="43.41201" lon="6.69756">
        <ele>8.4099969863892</ele>
        <time>2013-10-13T08:42:40Z</time>
      </trkpt>
      <trkpt lat="43.41197" lon="6.69742">
        <ele>8</ele>
        <time>2013-10-13T08:42:42Z</time>
      </trkpt>
      <trkpt lat="43.4119" lon="6.69729">
        <ele>8</ele>
        <time>2013-10-13T08:42:44Z</time>
      </trkpt>
      <trkpt lat="43.41183" lon="6.69717">
        <ele>8</ele>
        <time>2013-10-13T08:42:46Z</time>
      </trkpt>
      <trkpt lat="43.41176" lon="6.69705">
        <ele>8</ele>
        <time>2013-10-13T08:42:48Z</time>
      </trkpt>
      <trkpt lat="43.41169" lon="6.69695">
        <ele>8</ele>
        <time>2013-10-13T08:42:50Z</time>
      </trkpt>
      <trkpt lat="43.41162" lon="6.6969">
        <ele>8</ele>
        <time>2013-10-13T08:42:52Z</time>
      </trkpt>
      <trkpt lat="43.41154" lon="6.69687">
        <ele>8</ele>
        <time>2013-10-13T08:42:54Z</time>
      </trkpt>
      <trkpt lat="43.41145" lon="6.69689">
        <ele>8</ele>
        <time>2013-10-13T08:42:56Z</time>
      </trkpt>
      <trkpt lat="43.41136" lon="6.69696">
        <ele>8</ele>
        <time>2013-10-13T08:42:58Z</time>
      </trkpt>
      <trkpt lat="43.4113" lon="6.69707">
        <ele>8</ele>
        <time>2013-10-13T08:43:00Z</time>
      </trkpt>
      <trkpt lat="43.41125" lon="6.69719">
        <ele>8</ele>
        <time>2013-10-13T08:43:02Z</time>
      </trkpt>
      <trkpt lat="43.41121" lon="6.6973">
        <ele>8</ele>
        <time>2013-10-13T08:43:04Z</time>
      </trkpt>
      <trkpt lat="43.41117" lon="6.69741">
        <ele>8</ele>
        <time>2013-10-13T08:43:06Z</time>
      </trkpt>
      <trkpt lat="43.41113" lon="6.69751">
        <ele>8</ele>
        <time>2013-10-13T08:43:08Z</time>
      </trkpt>
      <trkpt lat="43.41109" lon="6.6976">
        <ele>9.8299903869629</ele>
        <time>2013-10-13T08:43:10Z</time>
      </trkpt>
      <trkpt lat="43.41103" lon="6.69767">
        <ele>11</ele>
        <time>2013-10-13T08:43:12Z</time>
      </trkpt>
      <trkpt lat="43.41098" lon="6.69773">
        <ele>11</ele>
        <time>2013-10-13T08:43:14Z</time>
      </trkpt>
      <trkpt lat="43.41092" lon="6.69783">
        <ele>14</ele>
        <time>2013-10-13T08:43:17Z</time>
      </trkpt>
      <trkpt lat="43.41088" lon="6.69791">
        <ele>14</ele>
        <time>2013-10-13T08:43:19Z</time>
      </trkpt>
      <trkpt lat="43.41085" lon="6.698">
        <ele>17.571430206299</ele>
        <time>2013-10-13T08:43:21Z</time>
      </trkpt>
      <trkpt lat="43.4108" lon="6.69809">
        <ele>18</ele>
        <time>2013-10-13T08:43:23Z</time>
      </trkpt>
      <trkpt lat="43.41077" lon="6.69817">
        <ele>18.510004043579</ele>
        <time>2013-10-13T08:43:25Z</time>
      </trkpt>
      <trkpt lat="43.41073" lon="6.69826">
        <ele>19.510004043579</ele>
        <time>2013-10-13T08:43:27Z</time>
      </trkpt>
      <trkpt lat="43.41069" lon="6.69834">
        <ele>20</ele>
        <time>2013-10-13T08:43:29Z</time>
      </trkpt>
      <trkpt lat="43.41066" lon="6.69843">
        <ele>20</ele>
        <time>2013-10-13T08:43:31Z</time>
      </trkpt>
      <trkpt lat="43.41063" lon="6.69851">
        <ele>20</ele>
        <time>2013-10-13T08:43:33Z</time>
      </trkpt>
      <trkpt lat="43.41061" lon="6.6986">
        <ele>21.02000617981</ele>
        <time>2013-10-13T08:43:35Z</time>
      </trkpt>
      <trkpt lat="43.41057" lon="6.69867">
        <ele>22</ele>
        <time>2013-10-13T08:43:37Z</time>
      </trkpt>
      <trkpt lat="43.41052" lon="6.69874">
        <ele>22</ele>
        <time>2013-10-13T08:43:39Z</time>
      </trkpt>
      <trkpt lat="43.41048" lon="6.6988">
        <ele>23</ele>
        <time>2013-10-13T08:43:41Z</time>
      </trkpt>
      <trkpt lat="43.41043" lon="6.69889">
        <ele>23</ele>
        <time>2013-10-13T08:43:44Z</time>
      </trkpt>
      <trkpt lat="43.41043" lon="6.69899">
        <ele>26</ele>
        <time>2013-10-13T08:43:47Z</time>
      </trkpt>
      <trkpt lat="43.41045" lon="6.69909">
        <ele>26.510004043579</ele>
        <time>2013-10-13T08:43:50Z</time>
      </trkpt>
      <trkpt lat="43.41046" lon="6.69916">
        <ele>27</ele>
        <time>2013-10-13T08:43:52Z</time>
      </trkpt>
      <trkpt lat="43.41045" lon="6.69926">
        <ele>27.485719680786</ele>
        <time>2013-10-13T08:43:55Z</time>
      </trkpt>
      <trkpt lat="43.41042" lon="6.69933">
        <ele>28</ele>
        <time>2013-10-13T08:43:58Z</time>
      </trkpt>
      <trkpt lat="43.4104" lon="6.6994">
        <ele>29</ele>
        <time>2013-10-13T08:44:01Z</time>
      </trkpt>
      <trkpt lat="43.41036" lon="6.69947">
        <ele>29</ele>
        <time>2013-10-13T08:44:04Z</time>
      </trkpt>
      <trkpt lat="43.41034" lon="6.69954">
        <ele>29</ele>
        <time>2013-10-13T08:44:07Z</time>
      </trkpt>
      <trkpt lat="43.41032" lon="6.69963">
        <ele>31</ele>
        <time>2013-10-13T08:44:11Z</time>
      </trkpt>
      <trkpt lat="43.41031" lon="6.69972">
        <ele>31</ele>
        <time>2013-10-13T08:44:15Z</time>
      </trkpt>
      <trkpt lat="43.41029" lon="6.69982">
        <ele>31</ele>
        <time>2013-10-13T08:44:19Z</time>
      </trkpt>
      <trkpt lat="43.4103" lon="6.69991">
        <ele>34</ele>
        <time>2013-10-13T08:44:22Z</time>
      </trkpt>
      <trkpt lat="43.41032" lon="6.70001">
        <ele>35</ele>
        <time>2013-10-13T08:44:27Z</time>
      </trkpt>
      <trkpt lat="43.41033" lon="6.70013">
        <ele>36</ele>
        <time>2013-10-13T08:44:33Z</time>
      </trkpt>
      <trkpt lat="43.41032" lon="6.70024">
        <ele>36</ele>
        <time>2013-10-13T08:44:37Z</time>
      </trkpt>
      <trkpt lat="43.41033" lon="6.70037">
        <ele>38</ele>
        <time>2013-10-13T08:44:41Z</time>
      </trkpt>
      <trkpt lat="43.41035" lon="6.70049">
        <ele>38</ele>
        <time>2013-10-13T08:44:45Z</time>
      </trkpt>
      <trkpt lat="43.41036" lon="6.70057">
        <ele>38</ele>
        <time>2013-10-13T08:44:48Z</time>
      </trkpt>
      <trkpt lat="43.41038" lon="6.70065">
        <ele>40</ele>
        <time>2013-10-13T08:44:51Z</time>
      </trkpt>
      <trkpt lat="43.4104" lon="6.70073">
        <ele>40</ele>
        <time>2013-10-13T08:44:54Z</time>
      </trkpt>
      <trkpt lat="43.41042" lon="6.70081">
        <ele>40</ele>
        <time>2013-10-13T08:44:57Z</time>
      </trkpt>
      <trkpt lat="43.41045" lon="6.70091">
        <ele>43</ele>
        <time>2013-10-13T08:45:01Z</time>
      </trkpt>
      <trkpt lat="43.41046" lon="6.70098">
        <ele>43</ele>
        <time>2013-10-13T08:45:05Z</time>
      </trkpt>
      <trkpt lat="43.41043" lon="6.70104">
        <ele>43</ele>
        <time>2013-10-13T08:45:09Z</time>
      </trkpt>
      <trkpt lat="43.4104" lon="6.70113">
        <ele>43</ele>
        <time>2013-10-13T08:45:15Z</time>
      </trkpt>
      <trkpt lat="43.41038" lon="6.70122">
        <ele>43.48571395874</ele>
        <time>2013-10-13T08:45:20Z</time>
      </trkpt>
      <trkpt lat="43.41029" lon="6.70126">
        <ele>44</ele>
        <time>2013-10-13T08:45:26Z</time>
      </trkpt>
      <trkpt lat="43.41022" lon="6.7013">
        <ele>46.439987182617</ele>
        <time>2013-10-13T08:45:30Z</time>
      </trkpt>
      <trkpt lat="43.41015" lon="6.70134">
        <ele>48</ele>
        <time>2013-10-13T08:45:34Z</time>
      </trkpt>
      <trkpt lat="43.4101" lon="6.70145">
        <ele>51.42000579834</ele>
        <time>2013-10-13T08:45:40Z</time>
      </trkpt>
      <trkpt lat="43.41005" lon="6.70152">
        <ele>52</ele>
        <time>2013-10-13T08:45:43Z</time>
      </trkpt>
      <trkpt lat="43.40998" lon="6.70151">
        <ele>52</ele>
        <time>2013-10-13T08:45:46Z</time>
      </trkpt>
      <trkpt lat="43.40991" lon="6.70147">
        <ele>52</ele>
        <time>2013-10-13T08:45:48Z</time>
      </trkpt>
      <trkpt lat="43.40984" lon="6.70143">
        <ele>51.48999786377</ele>
        <time>2013-10-13T08:45:50Z</time>
      </trkpt>
      <trkpt lat="43.40974" lon="6.70138">
        <ele>51</ele>
        <time>2013-10-13T08:45:53Z</time>
      </trkpt>
      <trkpt lat="43.40965" lon="6.70138">
        <ele>51</ele>
        <time>2013-10-13T08:45:56Z</time>
      </trkpt>
      <trkpt lat="43.40957" lon="6.70146">
        <ele>52.020008087158</ele>
        <time>2013-10-13T08:46:00Z</time>
      </trkpt>
      <trkpt lat="43.40952" lon="6.70151">
        <ele>53</ele>
        <time>2013-10-13T08:46:03Z</time>
      </trkpt>
      <trkpt lat="43.40946" lon="6.70158">
        <ele>53</ele>
        <time>2013-10-13T08:46:08Z</time>
      </trkpt>
      <trkpt lat="43.4094" lon="6.70165">
        <ele>57</ele>
        <time>2013-10-13T08:46:12Z</time>
      </trkpt>
      <trkpt lat="43.40934" lon="6.70167">
        <ele>58.020008087158</ele>
        <time>2013-10-13T08:46:15Z</time>
      </trkpt>
      <trkpt lat="43.40926" lon="6.70169">
        <ele>59</ele>
        <time>2013-10-13T08:46:18Z</time>
      </trkpt>
      <trkpt lat="43.40919" lon="6.70168">
        <ele>60</ele>
        <time>2013-10-13T08:46:21Z</time>
      </trkpt>
      <trkpt lat="43.40914" lon="6.70166">
        <ele>60</ele>
        <time>2013-10-13T08:46:23Z</time>
      </trkpt>
      <trkpt lat="43.40905" lon="6.70166">
        <ele>60</ele>
        <time>2013-10-13T08:46:26Z</time>
      </trkpt>
      <trkpt lat="43.40899" lon="6.70168">
        <ele>60</ele>
        <time>2013-10-13T08:46:28Z</time>
      </trkpt>
      <trkpt lat="43.40892" lon="6.70175">
        <ele>60</ele>
        <time>2013-10-13T08:46:31Z</time>
      </trkpt>
      <trkpt lat="43.40887" lon="6.70182">
        <ele>60</ele>
        <time>2013-10-13T08:46:34Z</time>
      </trkpt>
      <trkpt lat="43.40883" lon="6.70193">
        <ele>60</ele>
        <time>2013-10-13T08:46:37Z</time>
      </trkpt>
      <trkpt lat="43.4088" lon="6.70204">
        <ele>60</ele>
        <time>2013-10-13T08:46:39Z</time>
      </trkpt>
      <trkpt lat="43.40876" lon="6.70217">
        <ele>60</ele>
        <time>2013-10-13T08:46:41Z</time>
      </trkpt>
      <trkpt lat="43.40871" lon="6.70223">
        <ele>60</ele>
        <time>2013-10-13T08:46:42Z</time>
      </trkpt>
      <trkpt lat="43.40867" lon="6.70227">
        <ele>60</ele>
        <time>2013-10-13T08:46:43Z</time>
      </trkpt>
      <trkpt lat="43.40862" lon="6.70232">
        <ele>60</ele>
        <time>2013-10-13T08:46:44Z</time>
      </trkpt>
      <trkpt lat="43.40856" lon="6.70235">
        <ele>60</ele>
        <time>2013-10-13T08:46:45Z</time>
      </trkpt>
      <trkpt lat="43.4085" lon="6.70237">
        <ele>60</ele>
        <time>2013-10-13T08:46:46Z</time>
      </trkpt>
      <trkpt lat="43.40843" lon="6.70238">
        <ele>60</ele>
        <time>2013-10-13T08:46:47Z</time>
      </trkpt>
      <trkpt lat="43.40836" lon="6.70239">
        <ele>60</ele>
        <time>2013-10-13T08:46:48Z</time>
      </trkpt>
      <trkpt lat="43.40829" lon="6.70241">
        <ele>60</ele>
        <time>2013-10-13T08:46:49Z</time>
      </trkpt>
      <trkpt lat="43.40823" lon="6.70242">
        <ele>58.780006408691</ele>
        <time>2013-10-13T08:46:50Z</time>
      </trkpt>
      <trkpt lat="43.40816" lon="6.70243">
        <ele>58</ele>
        <time>2013-10-13T08:46:51Z</time>
      </trkpt>
      <trkpt lat="43.4081" lon="6.70244">
        <ele>58</ele>
        <time>2013-10-13T08:46:52Z</time>
      </trkpt>
      <trkpt lat="43.40804" lon="6.70244">
        <ele>58</ele>
        <time>2013-10-13T08:46:53Z</time>
      </trkpt>
      <trkpt lat="43.40798" lon="6.70242">
        <ele>58</ele>
        <time>2013-10-13T08:46:54Z</time>
      </trkpt>
      <trkpt lat="43.40788" lon="6.70235">
        <ele>58</ele>
        <time>2013-10-13T08:46:56Z</time>
      </trkpt>
      <trkpt lat="43.40779" lon="6.7023">
        <ele>58</ele>
        <time>2013-10-13T08:46:58Z</time>
      </trkpt>
      <trkpt lat="43.40771" lon="6.70225">
        <ele>58</ele>
        <time>2013-10-13T08:47:00Z</time>
      </trkpt>
      <trkpt lat="43.40763" lon="6.70218">
        <ele>58</ele>
        <time>2013-10-13T08:47:02Z</time>
      </trkpt>
      <trkpt lat="43.40757" lon="6.70208">
        <ele>58</ele>
        <time>2013-10-13T08:47:04Z</time>
      </trkpt>
      <trkpt lat="43.40751" lon="6.702">
        <ele>58</ele>
        <time>2013-10-13T08:47:06Z</time>
      </trkpt>
      <trkpt lat="43.40744" lon="6.70196">
        <ele>58</ele>
        <time>2013-10-13T08:47:08Z</time>
      </trkpt>
      <trkpt lat="43.40738" lon="6.70193">
        <ele>59.829990386963</ele>
        <time>2013-10-13T08:47:10Z</time>
      </trkpt>
      <trkpt lat="43.40732" lon="6.7019">
        <ele>61</ele>
        <time>2013-10-13T08:47:12Z</time>
      </trkpt>
      <trkpt lat="43.40727" lon="6.70189">
        <ele>61</ele>
        <time>2013-10-13T08:47:14Z</time>
      </trkpt>
      <trkpt lat="43.40719" lon="6.70183">
        <ele>63</ele>
        <time>2013-10-13T08:47:17Z</time>
      </trkpt>
      <trkpt lat="43.40714" lon="6.7018">
        <ele>63</ele>
        <time>2013-10-13T08:47:19Z</time>
      </trkpt>
      <trkpt lat="43.40709" lon="6.70176">
        <ele>65</ele>
        <time>2013-10-13T08:47:21Z</time>
      </trkpt>
      <trkpt lat="43.40701" lon="6.70171">
        <ele>65</ele>
        <time>2013-10-13T08:47:24Z</time>
      </trkpt>
      <trkpt lat="43.40696" lon="6.70167">
        <ele>66</ele>
        <time>2013-10-13T08:47:26Z</time>
      </trkpt>
      <trkpt lat="43.4069" lon="6.70163">
        <ele>66</ele>
        <time>2013-10-13T08:47:28Z</time>
      </trkpt>
      <trkpt lat="43.40684" lon="6.70161">
        <ele>66.51000213623</ele>
        <time>2013-10-13T08:47:30Z</time>
      </trkpt>
      <trkpt lat="43.40678" lon="6.7016">
        <ele>67</ele>
        <time>2013-10-13T08:47:32Z</time>
      </trkpt>
      <trkpt lat="43.4067" lon="6.70158">
        <ele>67</ele>
        <time>2013-10-13T08:47:34Z</time>
      </trkpt>
      <trkpt lat="43.40664" lon="6.70156">
        <ele>67</ele>
        <time>2013-10-13T08:47:36Z</time>
      </trkpt>
      <trkpt lat="43.40657" lon="6.70153">
        <ele>67</ele>
        <time>2013-10-13T08:47:38Z</time>
      </trkpt>
      <trkpt lat="43.40651" lon="6.7015">
        <ele>68.020004272461</ele>
        <time>2013-10-13T08:47:40Z</time>
      </trkpt>
      <trkpt lat="43.40644" lon="6.70147">
        <ele>69</ele>
        <time>2013-10-13T08:47:42Z</time>
      </trkpt>
      <trkpt lat="43.40637" lon="6.70144">
        <ele>69</ele>
        <time>2013-10-13T08:47:44Z</time>
      </trkpt>
      <trkpt lat="43.40629" lon="6.70139">
        <ele>69</ele>
        <time>2013-10-13T08:47:46Z</time>
      </trkpt>
      <trkpt lat="43.40621" lon="6.70134">
        <ele>69</ele>
        <time>2013-10-13T08:47:48Z</time>
      </trkpt>
      <trkpt lat="43.40612" lon="6.70129">
        <ele>69</ele>
        <time>2013-10-13T08:47:50Z</time>
      </trkpt>
      <trkpt lat="43.40603" lon="6.70124">
        <ele>69</ele>
        <time>2013-10-13T08:47:52Z</time>
      </trkpt>
      <trkpt lat="43.40598" lon="6.70121">
        <ele>69</ele>
        <time>2013-10-13T08:47:53Z</time>
      </trkpt>
      <trkpt lat="43.40592" lon="6.70119">
        <ele>69</ele>
        <time>2013-10-13T08:47:54Z</time>
      </trkpt>
      <trkpt lat="43.40586" lon="6.70117">
        <ele>69</ele>
        <time>2013-10-13T08:47:55Z</time>
      </trkpt>
      <trkpt lat="43.4058" lon="6.70116">
        <ele>69</ele>
        <time>2013-10-13T08:47:56Z</time>
      </trkpt>
      <trkpt lat="43.40574" lon="6.70116">
        <ele>69</ele>
        <time>2013-10-13T08:47:57Z</time>
      </trkpt>
      <trkpt lat="43.40568" lon="6.70115">
        <ele>69</ele>
        <time>2013-10-13T08:47:58Z</time>
      </trkpt>
      <trkpt lat="43.40562" lon="6.70114">
        <ele>69</ele>
        <time>2013-10-13T08:47:59Z</time>
      </trkpt>
      <trkpt lat="43.40555" lon="6.70113">
        <ele>67.469993591309</ele>
        <time>2013-10-13T08:48:00Z</time>
      </trkpt>
      <trkpt lat="43.40543" lon="6.7011">
        <ele>66</ele>
        <time>2013-10-13T08:48:02Z</time>
      </trkpt>
      <trkpt lat="43.40532" lon="6.70107">
        <ele>67</ele>
        <time>2013-10-13T08:48:04Z</time>
      </trkpt>
      <trkpt lat="43.4052" lon="6.70103">
        <ele>68</ele>
        <time>2013-10-13T08:48:06Z</time>
      </trkpt>
      <trkpt lat="43.40509" lon="6.70102">
        <ele>68</ele>
        <time>2013-10-13T08:48:08Z</time>
      </trkpt>
      <trkpt lat="43.405" lon="6.70102">
        <ele>68.67618560791</ele>
        <time>2013-10-13T08:48:10Z</time>
      </trkpt>
      <trkpt lat="43.40491" lon="6.70102">
        <ele>69</ele>
        <time>2013-10-13T08:48:12Z</time>
      </trkpt>
      <trkpt lat="43.40483" lon="6.70103">
        <ele>69</ele>
        <time>2013-10-13T08:48:14Z</time>
      </trkpt>
      <trkpt lat="43.40477" lon="6.70104">
        <ele>69</ele>
        <time>2013-10-13T08:48:16Z</time>
      </trkpt>
      <trkpt lat="43.40471" lon="6.70105">
        <ele>69</ele>
        <time>2013-10-13T08:48:18Z</time>
      </trkpt>
      <trkpt lat="43.40463" lon="6.70105">
        <ele>71</ele>
        <time>2013-10-13T08:48:21Z</time>
      </trkpt>
      <trkpt lat="43.40459" lon="6.70104">
        <ele>71</ele>
        <time>2013-10-13T08:48:23Z</time>
      </trkpt>
      <trkpt lat="43.40451" lon="6.70104">
        <ele>71</ele>
        <time>2013-10-13T08:48:26Z</time>
      </trkpt>
      <trkpt lat="43.40446" lon="6.70102">
        <ele>71</ele>
        <time>2013-10-13T08:48:29Z</time>
      </trkpt>
      <trkpt lat="43.4044" lon="6.70098">
        <ele>75</ele>
        <time>2013-10-13T08:48:32Z</time>
      </trkpt>
      <trkpt lat="43.40433" lon="6.70093">
        <ele>78</ele>
        <time>2013-10-13T08:48:36Z</time>
      </trkpt>
      <trkpt lat="43.40427" lon="6.70089">
        <ele>78</ele>
        <time>2013-10-13T08:48:39Z</time>
      </trkpt>
      <trkpt lat="43.4042" lon="6.70085">
        <ele>79</ele>
        <time>2013-10-13T08:48:42Z</time>
      </trkpt>
      <trkpt lat="43.40413" lon="6.70081">
        <ele>79</ele>
        <time>2013-10-13T08:48:45Z</time>
      </trkpt>
      <trkpt lat="43.40406" lon="6.70076">
        <ele>79</ele>
        <time>2013-10-13T08:48:48Z</time>
      </trkpt>
      <trkpt lat="43.40401" lon="6.70074">
        <ele>80.020004272461</ele>
        <time>2013-10-13T08:48:50Z</time>
      </trkpt>
      <trkpt lat="43.40394" lon="6.70072">
        <ele>81</ele>
        <time>2013-10-13T08:48:53Z</time>
      </trkpt>
      <trkpt lat="43.40388" lon="6.7007">
        <ele>81</ele>
        <time>2013-10-13T08:48:55Z</time>
      </trkpt>
      <trkpt lat="43.40383" lon="6.70068">
        <ele>81</ele>
        <time>2013-10-13T08:48:57Z</time>
      </trkpt>
      <trkpt lat="43.40377" lon="6.70065">
        <ele>81</ele>
        <time>2013-10-13T08:48:59Z</time>
      </trkpt>
      <trkpt lat="43.40371" lon="6.70063">
        <ele>82</ele>
        <time>2013-10-13T08:49:01Z</time>
      </trkpt>
      <trkpt lat="43.40365" lon="6.70061">
        <ele>82</ele>
        <time>2013-10-13T08:49:03Z</time>
      </trkpt>
      <trkpt lat="43.40359" lon="6.70058">
        <ele>82</ele>
        <time>2013-10-13T08:49:05Z</time>
      </trkpt>
      <trkpt lat="43.40353" lon="6.70053">
        <ele>82</ele>
        <time>2013-10-13T08:49:07Z</time>
      </trkpt>
      <trkpt lat="43.40347" lon="6.70048">
        <ele>82</ele>
        <time>2013-10-13T08:49:09Z</time>
      </trkpt>
      <trkpt lat="43.40341" lon="6.70044">
        <ele>83</ele>
        <time>2013-10-13T08:49:11Z</time>
      </trkpt>
      <trkpt lat="43.40334" lon="6.70039">
        <ele>83</ele>
        <time>2013-10-13T08:49:13Z</time>
      </trkpt>
      <trkpt lat="43.40327" lon="6.70034">
        <ele>83</ele>
        <time>2013-10-13T08:49:15Z</time>
      </trkpt>
      <trkpt lat="43.40321" lon="6.70029">
        <ele>83</ele>
        <time>2013-10-13T08:49:17Z</time>
      </trkpt>
      <trkpt lat="43.40313" lon="6.70024">
        <ele>83</ele>
        <time>2013-10-13T08:49:19Z</time>
      </trkpt>
      <trkpt lat="43.40305" lon="6.70017">
        <ele>83</ele>
        <time>2013-10-13T08:49:21Z</time>
      </trkpt>
      <trkpt lat="43.40297" lon="6.70008">
        <ele>83</ele>
        <time>2013-10-13T08:49:23Z</time>
      </trkpt>
      <trkpt lat="43.4029" lon="6.69999">
        <ele>83</ele>
        <time>2013-10-13T08:49:25Z</time>
      </trkpt>
      <trkpt lat="43.40281" lon="6.69989">
        <ele>83</ele>
        <time>2013-10-13T08:49:27Z</time>
      </trkpt>
      <trkpt lat="43.40277" lon="6.69984">
        <ele>83</ele>
        <time>2013-10-13T08:49:28Z</time>
      </trkpt>
      <trkpt lat="43.40273" lon="6.69979">
        <ele>83</ele>
        <time>2013-10-13T08:49:29Z</time>
      </trkpt>
      <trkpt lat="43.40269" lon="6.69974">
        <ele>83</ele>
        <time>2013-10-13T08:49:30Z</time>
      </trkpt>
      <trkpt lat="43.40265" lon="6.69969">
        <ele>83</ele>
        <time>2013-10-13T08:49:31Z</time>
      </trkpt>
      <trkpt lat="43.4026" lon="6.69964">
        <ele>83</ele>
        <time>2013-10-13T08:49:32Z</time>
      </trkpt>
      <trkpt lat="43.40255" lon="6.69959">
        <ele>83</ele>
        <time>2013-10-13T08:49:33Z</time>
      </trkpt>
      <trkpt lat="43.40249" lon="6.69955">
        <ele>83</ele>
        <time>2013-10-13T08:49:34Z</time>
      </trkpt>
      <trkpt lat="43.40243" lon="6.69951">
        <ele>83</ele>
        <time>2013-10-13T08:49:35Z</time>
      </trkpt>
      <trkpt lat="43.40237" lon="6.69947">
        <ele>83</ele>
        <time>2013-10-13T08:49:36Z</time>
      </trkpt>
      <trkpt lat="43.4023" lon="6.69945">
        <ele>83</ele>
        <time>2013-10-13T08:49:37Z</time>
      </trkpt>
      <trkpt lat="43.40218" lon="6.69948">
        <ele>83</ele>
        <time>2013-10-13T08:49:39Z</time>
      </trkpt>
      <trkpt lat="43.40203" lon="6.69959">
        <ele>74.199996948242</ele>
        <time>2013-10-13T08:49:41Z</time>
      </trkpt>
      <trkpt lat="43.40195" lon="6.69965">
        <ele>72.389999389648</ele>
        <time>2013-10-13T08:49:42Z</time>
      </trkpt>
      <trkpt lat="43.40187" lon="6.69973">
        <ele>71.389991760254</ele>
        <time>2013-10-13T08:49:43Z</time>
      </trkpt>
      <trkpt lat="43.40179" lon="6.69981">
        <ele>70.389999389648</ele>
        <time>2013-10-13T08:49:44Z</time>
      </trkpt>
      <trkpt lat="43.40171" lon="6.6999">
        <ele>68.779983520508</ele>
        <time>2013-10-13T08:49:45Z</time>
      </trkpt>
      <trkpt lat="43.40163" lon="6.7">
        <ele>67.389999389648</ele>
        <time>2013-10-13T08:49:46Z</time>
      </trkpt>
      <trkpt lat="43.40155" lon="6.70009">
        <ele>66.389991760254</ele>
        <time>2013-10-13T08:49:47Z</time>
      </trkpt>
      <trkpt lat="43.40147" lon="6.70018">
        <ele>66</ele>
        <time>2013-10-13T08:49:48Z</time>
      </trkpt>
      <trkpt lat="43.40139" lon="6.70026">
        <ele>65.389991760254</ele>
        <time>2013-10-13T08:49:49Z</time>
      </trkpt>
      <trkpt lat="43.40132" lon="6.70034">
        <ele>65</ele>
        <time>2013-10-13T08:49:50Z</time>
      </trkpt>
      <trkpt lat="43.40125" lon="6.70041">
        <ele>65</ele>
        <time>2013-10-13T08:49:51Z</time>
      </trkpt>
      <trkpt lat="43.40119" lon="6.70049">
        <ele>65.580940246582</ele>
        <time>2013-10-13T08:49:52Z</time>
      </trkpt>
      <trkpt lat="43.40114" lon="6.70056">
        <ele>66.410522460938</ele>
        <time>2013-10-13T08:49:53Z</time>
      </trkpt>
      <trkpt lat="43.40107" lon="6.70069">
        <ele>68</ele>
        <time>2013-10-13T08:49:55Z</time>
      </trkpt>
      <trkpt lat="43.40101" lon="6.7008">
        <ele>69</ele>
        <time>2013-10-13T08:49:57Z</time>
      </trkpt>
      <trkpt lat="43.40094" lon="6.70091">
        <ele>70</ele>
        <time>2013-10-13T08:50:00Z</time>
      </trkpt>
      <trkpt lat="43.40088" lon="6.70103">
        <ele>70</ele>
        <time>2013-10-13T08:50:04Z</time>
      </trkpt>
      <trkpt lat="43.40084" lon="6.70111">
        <ele>71</ele>
        <time>2013-10-13T08:50:07Z</time>
      </trkpt>
      <trkpt lat="43.40078" lon="6.70119">
        <ele>72.389511108398</ele>
        <time>2013-10-13T08:50:10Z</time>
      </trkpt>
      <trkpt lat="43.40071" lon="6.70126">
        <ele>74.610008239746</ele>
        <time>2013-10-13T08:50:15Z</time>
      </trkpt>
      <trkpt lat="43.40065" lon="6.70129">
        <ele>75</ele>
        <time>2013-10-13T08:50:19Z</time>
      </trkpt>
      <trkpt lat="43.40057" lon="6.70128">
        <ele>77</ele>
        <time>2013-10-13T08:50:23Z</time>
      </trkpt>
      <trkpt lat="43.40052" lon="6.70127">
        <ele>77.610008239746</ele>
        <time>2013-10-13T08:50:25Z</time>
      </trkpt>
      <trkpt lat="43.40047" lon="6.70123">
        <ele>78</ele>
        <time>2013-10-13T08:50:28Z</time>
      </trkpt>
      <trkpt lat="43.40041" lon="6.7012">
        <ele>79</ele>
        <time>2013-10-13T08:50:32Z</time>
      </trkpt>
      <trkpt lat="43.40035" lon="6.70118">
        <ele>79</ele>
        <time>2013-10-13T08:50:35Z</time>
      </trkpt>
      <trkpt lat="43.4003" lon="6.70115">
        <ele>79</ele>
        <time>2013-10-13T08:50:38Z</time>
      </trkpt>
      <trkpt lat="43.40024" lon="6.70112">
        <ele>82</ele>
        <time>2013-10-13T08:50:42Z</time>
      </trkpt>
      <trkpt lat="43.40018" lon="6.70108">
        <ele>83</ele>
        <time>2013-10-13T08:50:46Z</time>
      </trkpt>
      <trkpt lat="43.40013" lon="6.70106">
        <ele>83</ele>
        <time>2013-10-13T08:50:49Z</time>
      </trkpt>
      <trkpt lat="43.40007" lon="6.70105">
        <ele>85</ele>
        <time>2013-10-13T08:50:52Z</time>
      </trkpt>
      <trkpt lat="43.40002" lon="6.70106">
        <ele>86.220016479492</ele>
        <time>2013-10-13T08:50:55Z</time>
      </trkpt>
      <trkpt lat="43.39997" lon="6.70106">
        <ele>87</ele>
        <time>2013-10-13T08:50:58Z</time>
      </trkpt>
      <trkpt lat="43.39993" lon="6.70107">
        <ele>88</ele>
        <time>2013-10-13T08:51:01Z</time>
      </trkpt>
      <trkpt lat="43.39989" lon="6.70109">
        <ele>88</ele>
        <time>2013-10-13T08:51:04Z</time>
      </trkpt>
      <trkpt lat="43.39984" lon="6.70111">
        <ele>89</ele>
        <time>2013-10-13T08:51:07Z</time>
      </trkpt>
      <trkpt lat="43.39979" lon="6.70114">
        <ele>89.610000610352</ele>
        <time>2013-10-13T08:51:10Z</time>
      </trkpt>
      <trkpt lat="43.39972" lon="6.70116">
        <ele>90</ele>
        <time>2013-10-13T08:51:13Z</time>
      </trkpt>
      <trkpt lat="43.39967" lon="6.70118">
        <ele>90</ele>
        <time>2013-10-13T08:51:16Z</time>
      </trkpt>
      <trkpt lat="43.39962" lon="6.7012">
        <ele>90</ele>
        <time>2013-10-13T08:51:19Z</time>
      </trkpt>
      <trkpt lat="43.39957" lon="6.70121">
        <ele>92</ele>
        <time>2013-10-13T08:51:22Z</time>
      </trkpt>
      <trkpt lat="43.39952" lon="6.70123">
        <ele>92</ele>
        <time>2013-10-13T08:51:26Z</time>
      </trkpt>
      <trkpt lat="43.39946" lon="6.70125">
        <ele>93.82999420166</ele>
        <time>2013-10-13T08:51:30Z</time>
      </trkpt>
      <trkpt lat="43.3994" lon="6.70127">
        <ele>95</ele>
        <time>2013-10-13T08:51:34Z</time>
      </trkpt>
      <trkpt lat="43.39935" lon="6.70129">
        <ele>97</ele>
        <time>2013-10-13T08:51:38Z</time>
      </trkpt>
      <trkpt lat="43.3993" lon="6.7013">
        <ele>98</ele>
        <time>2013-10-13T08:51:42Z</time>
      </trkpt>
      <trkpt lat="43.39924" lon="6.70132">
        <ele>99</ele>
        <time>2013-10-13T08:51:47Z</time>
      </trkpt>
      <trkpt lat="43.3992" lon="6.70132">
        <ele>100</ele>
        <time>2013-10-13T08:51:51Z</time>
      </trkpt>
      <trkpt lat="43.39915" lon="6.70133">
        <ele>100</ele>
        <time>2013-10-13T08:51:54Z</time>
      </trkpt>
      <trkpt lat="43.3991" lon="6.70134">
        <ele>100</ele>
        <time>2013-10-13T08:51:58Z</time>
      </trkpt>
      <trkpt lat="43.39905" lon="6.70136">
        <ele>102</ele>
        <time>2013-10-13T08:52:02Z</time>
      </trkpt>
      <trkpt lat="43.399" lon="6.70139">
        <ele>102</ele>
        <time>2013-10-13T08:52:06Z</time>
      </trkpt>
      <trkpt lat="43.39896" lon="6.70141">
        <ele>102</ele>
        <time>2013-10-13T08:52:09Z</time>
      </trkpt>
      <trkpt lat="43.39891" lon="6.70145">
        <ele>104</ele>
        <time>2013-10-13T08:52:12Z</time>
      </trkpt>
      <trkpt lat="43.39887" lon="6.70149">
        <ele>104</ele>
        <time>2013-10-13T08:52:15Z</time>
      </trkpt>
      <trkpt lat="43.39882" lon="6.70153">
        <ele>104</ele>
        <time>2013-10-13T08:52:18Z</time>
      </trkpt>
      <trkpt lat="43.39876" lon="6.70159">
        <ele>105</ele>
        <time>2013-10-13T08:52:21Z</time>
      </trkpt>
      <trkpt lat="43.3987" lon="6.70165">
        <ele>105</ele>
        <time>2013-10-13T08:52:24Z</time>
      </trkpt>
      <trkpt lat="43.39864" lon="6.70175">
        <ele>105</ele>
        <time>2013-10-13T08:52:28Z</time>
      </trkpt>
      <trkpt lat="43.39857" lon="6.70181">
        <ele>106</ele>
        <time>2013-10-13T08:52:31Z</time>
      </trkpt>
      <trkpt lat="43.39851" lon="6.70185">
        <ele>106</ele>
        <time>2013-10-13T08:52:33Z</time>
      </trkpt>
      <trkpt lat="43.39842" lon="6.70186">
        <ele>106</ele>
        <time>2013-10-13T08:52:35Z</time>
      </trkpt>
      <trkpt lat="43.39834" lon="6.70185">
        <ele>106</ele>
        <time>2013-10-13T08:52:37Z</time>
      </trkpt>
      <trkpt lat="43.39826" lon="6.70185">
        <ele>106</ele>
        <time>2013-10-13T08:52:39Z</time>
      </trkpt>
      <trkpt lat="43.39818" lon="6.70183">
        <ele>106</ele>
        <time>2013-10-13T08:52:41Z</time>
      </trkpt>
      <trkpt lat="43.3981" lon="6.70182">
        <ele>106</ele>
        <time>2013-10-13T08:52:43Z</time>
      </trkpt>
      <trkpt lat="43.39801" lon="6.70181">
        <ele>106</ele>
        <time>2013-10-13T08:52:45Z</time>
      </trkpt>
      <trkpt lat="43.39793" lon="6.70181">
        <ele>106</ele>
        <time>2013-10-13T08:52:47Z</time>
      </trkpt>
      <trkpt lat="43.39784" lon="6.7018">
        <ele>106</ele>
        <time>2013-10-13T08:52:49Z</time>
      </trkpt>
      <trkpt lat="43.39775" lon="6.70179">
        <ele>105</ele>
        <time>2013-10-13T08:52:51Z</time>
      </trkpt>
      <trkpt lat="43.39766" lon="6.70178">
        <ele>105</ele>
        <time>2013-10-13T08:52:53Z</time>
      </trkpt>
      <trkpt lat="43.39756" lon="6.70176">
        <ele>105</ele>
        <time>2013-10-13T08:52:55Z</time>
      </trkpt>
      <trkpt lat="43.39751" lon="6.70176">
        <ele>105</ele>
        <time>2013-10-13T08:52:56Z</time>
      </trkpt>
      <trkpt lat="43.39746" lon="6.70175">
        <ele>105</ele>
        <time>2013-10-13T08:52:57Z</time>
      </trkpt>
      <trkpt lat="43.39741" lon="6.70174">
        <ele>105</ele>
        <time>2013-10-13T08:52:58Z</time>
      </trkpt>
      <trkpt lat="43.39736" lon="6.70173">
        <ele>105</ele>
        <time>2013-10-13T08:52:59Z</time>
      </trkpt>
      <trkpt lat="43.39725" lon="6.7017">
        <ele>105</ele>
        <time>2013-10-13T08:53:01Z</time>
      </trkpt>
      <trkpt lat="43.3972" lon="6.70168">
        <ele>105</ele>
        <time>2013-10-13T08:53:02Z</time>
      </trkpt>
      <trkpt lat="43.39709" lon="6.70163">
        <ele>105</ele>
        <time>2013-10-13T08:53:04Z</time>
      </trkpt>
      <trkpt lat="43.39703" lon="6.70161">
        <ele>105</ele>
        <time>2013-10-13T08:53:05Z</time>
      </trkpt>
      <trkpt lat="43.39698" lon="6.70158">
        <ele>105</ele>
        <time>2013-10-13T08:53:06Z</time>
      </trkpt>
      <trkpt lat="43.39692" lon="6.70155">
        <ele>105</ele>
        <time>2013-10-13T08:53:07Z</time>
      </trkpt>
      <trkpt lat="43.39682" lon="6.70148">
        <ele>105</ele>
        <time>2013-10-13T08:53:09Z</time>
      </trkpt>
      <trkpt lat="43.39674" lon="6.7014">
        <ele>105</ele>
        <time>2013-10-13T08:53:11Z</time>
      </trkpt>
      <trkpt lat="43.39666" lon="6.70132">
        <ele>105</ele>
        <time>2013-10-13T08:53:13Z</time>
      </trkpt>
      <trkpt lat="43.3966" lon="6.70125">
        <ele>105</ele>
        <time>2013-10-13T08:53:15Z</time>
      </trkpt>
      <trkpt lat="43.39654" lon="6.70119">
        <ele>105</ele>
        <time>2013-10-13T08:53:17Z</time>
      </trkpt>
      <trkpt lat="43.39648" lon="6.7011">
        <ele>105.61000061035</ele>
        <time>2013-10-13T08:53:20Z</time>
      </trkpt>
      <trkpt lat="43.39644" lon="6.70104">
        <ele>106</ele>
        <time>2013-10-13T08:53:22Z</time>
      </trkpt>
      <trkpt lat="43.39641" lon="6.70097">
        <ele>106</ele>
        <time>2013-10-13T08:53:24Z</time>
      </trkpt>
      <trkpt lat="43.39637" lon="6.7009">
        <ele>106</ele>
        <time>2013-10-13T08:53:26Z</time>
      </trkpt>
      <trkpt lat="43.39633" lon="6.70082">
        <ele>106</ele>
        <time>2013-10-13T08:53:29Z</time>
      </trkpt>
      <trkpt lat="43.39627" lon="6.70073">
        <ele>110</ele>
        <time>2013-10-13T08:53:32Z</time>
      </trkpt>
      <trkpt lat="43.39618" lon="6.70067">
        <ele>115</ele>
        <time>2013-10-13T08:53:36Z</time>
      </trkpt>
      <trkpt lat="43.39609" lon="6.70064">
        <ele>115</ele>
        <time>2013-10-13T08:53:39Z</time>
      </trkpt>
      <trkpt lat="43.39599" lon="6.70063">
        <ele>117</ele>
        <time>2013-10-13T08:53:42Z</time>
      </trkpt>
      <trkpt lat="43.39593" lon="6.70065">
        <ele>117</ele>
        <time>2013-10-13T08:53:44Z</time>
      </trkpt>
      <trkpt lat="43.39587" lon="6.70067">
        <ele>117</ele>
        <time>2013-10-13T08:53:46Z</time>
      </trkpt>
      <trkpt lat="43.3958" lon="6.70071">
        <ele>116</ele>
        <time>2013-10-13T08:53:48Z</time>
      </trkpt>
      <trkpt lat="43.39573" lon="6.70074">
        <ele>117</ele>
        <time>2013-10-13T08:53:50Z</time>
      </trkpt>
      <trkpt lat="43.39565" lon="6.70078">
        <ele>117</ele>
        <time>2013-10-13T08:53:52Z</time>
      </trkpt>
      <trkpt lat="43.39557" lon="6.70082">
        <ele>117</ele>
        <time>2013-10-13T08:53:54Z</time>
      </trkpt>
      <trkpt lat="43.39548" lon="6.70086">
        <ele>117</ele>
        <time>2013-10-13T08:53:56Z</time>
      </trkpt>
      <trkpt lat="43.39537" lon="6.70092">
        <ele>117</ele>
        <time>2013-10-13T08:53:58Z</time>
      </trkpt>
      <trkpt lat="43.39531" lon="6.70095">
        <ele>117</ele>
        <time>2013-10-13T08:53:59Z</time>
      </trkpt>
      <trkpt lat="43.39526" lon="6.70099">
        <ele>112.12002563477</ele>
        <time>2013-10-13T08:54:00Z</time>
      </trkpt>
      <trkpt lat="43.39519" lon="6.70102">
        <ele>109</ele>
        <time>2013-10-13T08:54:01Z</time>
      </trkpt>
      <trkpt lat="43.39513" lon="6.70104">
        <ele>109</ele>
        <time>2013-10-13T08:54:02Z</time>
      </trkpt>
      <trkpt lat="43.39506" lon="6.70106">
        <ele>109</ele>
        <time>2013-10-13T08:54:03Z</time>
      </trkpt>
      <trkpt lat="43.39499" lon="6.70107">
        <ele>109</ele>
        <time>2013-10-13T08:54:04Z</time>
      </trkpt>
      <trkpt lat="43.39492" lon="6.70107">
        <ele>109</ele>
        <time>2013-10-13T08:54:05Z</time>
      </trkpt>
      <trkpt lat="43.39486" lon="6.70108">
        <ele>109</ele>
        <time>2013-10-13T08:54:06Z</time>
      </trkpt>
      <trkpt lat="43.3948" lon="6.70108">
        <ele>109</ele>
        <time>2013-10-13T08:54:07Z</time>
      </trkpt>
      <trkpt lat="43.39474" lon="6.70108">
        <ele>109</ele>
        <time>2013-10-13T08:54:08Z</time>
      </trkpt>
      <trkpt lat="43.39468" lon="6.70107">
        <ele>109</ele>
        <time>2013-10-13T08:54:09Z</time>
      </trkpt>
      <trkpt lat="43.39455" lon="6.70104">
        <ele>109</ele>
        <time>2013-10-13T08:54:11Z</time>
      </trkpt>
      <trkpt lat="43.39449" lon="6.70103">
        <ele>109</ele>
        <time>2013-10-13T08:54:12Z</time>
      </trkpt>
      <trkpt lat="43.39442" lon="6.70101">
        <ele>109</ele>
        <time>2013-10-13T08:54:13Z</time>
      </trkpt>
      <trkpt lat="43.39434" lon="6.70099">
        <ele>109</ele>
        <time>2013-10-13T08:54:14Z</time>
      </trkpt>
      <trkpt lat="43.39427" lon="6.70098">
        <ele>109</ele>
        <time>2013-10-13T08:54:15Z</time>
      </trkpt>
      <trkpt lat="43.39412" lon="6.70095">
        <ele>109</ele>
        <time>2013-10-13T08:54:17Z</time>
      </trkpt>
      <trkpt lat="43.39398" lon="6.7009">
        <ele>109</ele>
        <time>2013-10-13T08:54:19Z</time>
      </trkpt>
      <trkpt lat="43.39392" lon="6.70088">
        <ele>108.28999328613</ele>
        <time>2013-10-13T08:54:20Z</time>
      </trkpt>
      <trkpt lat="43.39374" lon="6.70079">
        <ele>108</ele>
        <time>2013-10-13T08:54:23Z</time>
      </trkpt>
      <trkpt lat="43.39369" lon="6.70075">
        <ele>108</ele>
        <time>2013-10-13T08:54:24Z</time>
      </trkpt>
      <trkpt lat="43.39364" lon="6.70071">
        <ele>108</ele>
        <time>2013-10-13T08:54:25Z</time>
      </trkpt>
      <trkpt lat="43.39359" lon="6.70066">
        <ele>108</ele>
        <time>2013-10-13T08:54:26Z</time>
      </trkpt>
      <trkpt lat="43.39355" lon="6.7006">
        <ele>108</ele>
        <time>2013-10-13T08:54:27Z</time>
      </trkpt>
      <trkpt lat="43.3935" lon="6.70055">
        <ele>108</ele>
        <time>2013-10-13T08:54:28Z</time>
      </trkpt>
      <trkpt lat="43.3934" lon="6.70042">
        <ele>106.46999359131</ele>
        <time>2013-10-13T08:54:30Z</time>
      </trkpt>
      <trkpt lat="43.39335" lon="6.70035">
        <ele>105</ele>
        <time>2013-10-13T08:54:31Z</time>
      </trkpt>
      <trkpt lat="43.3933" lon="6.70028">
        <ele>105</ele>
        <time>2013-10-13T08:54:32Z</time>
      </trkpt>
      <trkpt lat="43.39324" lon="6.70022">
        <ele>105</ele>
        <time>2013-10-13T08:54:33Z</time>
      </trkpt>
      <trkpt lat="43.39319" lon="6.70015">
        <ele>105</ele>
        <time>2013-10-13T08:54:34Z</time>
      </trkpt>
      <trkpt lat="43.39314" lon="6.70009">
        <ele>104.48999786377</ele>
        <time>2013-10-13T08:54:35Z</time>
      </trkpt>
      <trkpt lat="43.39309" lon="6.70002">
        <ele>104</ele>
        <time>2013-10-13T08:54:36Z</time>
      </trkpt>
      <trkpt lat="43.39304" lon="6.69996">
        <ele>104</ele>
        <time>2013-10-13T08:54:37Z</time>
      </trkpt>
      <trkpt lat="43.393" lon="6.6999">
        <ele>104</ele>
        <time>2013-10-13T08:54:38Z</time>
      </trkpt>
      <trkpt lat="43.39291" lon="6.69979">
        <ele>104.51000213623</ele>
        <time>2013-10-13T08:54:40Z</time>
      </trkpt>
      <trkpt lat="43.39283" lon="6.6997">
        <ele>105</ele>
        <time>2013-10-13T08:54:42Z</time>
      </trkpt>
      <trkpt lat="43.39275" lon="6.69961">
        <ele>105</ele>
        <time>2013-10-13T08:54:44Z</time>
      </trkpt>
      <trkpt lat="43.39268" lon="6.69951">
        <ele>105</ele>
        <time>2013-10-13T08:54:46Z</time>
      </trkpt>
      <trkpt lat="43.39261" lon="6.69943">
        <ele>105</ele>
        <time>2013-10-13T08:54:48Z</time>
      </trkpt>
      <trkpt lat="43.39251" lon="6.69937">
        <ele>106.21999359131</ele>
        <time>2013-10-13T08:54:50Z</time>
      </trkpt>
      <trkpt lat="43.39239" lon="6.69933">
        <ele>107</ele>
        <time>2013-10-13T08:54:52Z</time>
      </trkpt>
      <trkpt lat="43.39226" lon="6.69928">
        <ele>107</ele>
        <time>2013-10-13T08:54:54Z</time>
      </trkpt>
      <trkpt lat="43.39219" lon="6.69923">
        <ele>107</ele>
        <time>2013-10-13T08:54:55Z</time>
      </trkpt>
      <trkpt lat="43.39209" lon="6.6991">
        <ele>107</ele>
        <time>2013-10-13T08:54:57Z</time>
      </trkpt>
      <trkpt lat="43.39199" lon="6.69894">
        <ele>107</ele>
        <time>2013-10-13T08:54:59Z</time>
      </trkpt>
      <trkpt lat="43.39188" lon="6.6988">
        <ele>104</ele>
        <time>2013-10-13T08:55:01Z</time>
      </trkpt>
      <trkpt lat="43.3918" lon="6.6987">
        <ele>104</ele>
        <time>2013-10-13T08:55:03Z</time>
      </trkpt>
      <trkpt lat="43.39168" lon="6.69863">
        <ele>106</ele>
        <time>2013-10-13T08:55:06Z</time>
      </trkpt>
      <trkpt lat="43.39157" lon="6.69857">
        <ele>107.53000640869</ele>
        <time>2013-10-13T08:55:10Z</time>
      </trkpt>
      <trkpt lat="43.39148" lon="6.69853">
        <ele>109</ele>
        <time>2013-10-13T08:55:14Z</time>
      </trkpt>
      <trkpt lat="43.39143" lon="6.69847">
        <ele>111</ele>
        <time>2013-10-13T08:55:18Z</time>
      </trkpt>
      <trkpt lat="43.39138" lon="6.6984">
        <ele>115</ele>
        <time>2013-10-13T08:55:21Z</time>
      </trkpt>
      <trkpt lat="43.39134" lon="6.69833">
        <ele>116</ele>
        <time>2013-10-13T08:55:24Z</time>
      </trkpt>
      <trkpt lat="43.39132" lon="6.69822">
        <ele>117</ele>
        <time>2013-10-13T08:55:28Z</time>
      </trkpt>
      <trkpt lat="43.39132" lon="6.69813">
        <ele>117</ele>
        <time>2013-10-13T08:55:32Z</time>
      </trkpt>
      <trkpt lat="43.39132" lon="6.69801">
        <ele>117</ele>
        <time>2013-10-13T08:55:36Z</time>
      </trkpt>
      <trkpt lat="43.39132" lon="6.69791">
        <ele>118.42000579834</ele>
        <time>2013-10-13T08:55:40Z</time>
      </trkpt>
      <trkpt lat="43.39131" lon="6.69781">
        <ele>119</ele>
        <time>2013-10-13T08:55:44Z</time>
      </trkpt>
      <trkpt lat="43.3913" lon="6.69773">
        <ele>119</ele>
        <time>2013-10-13T08:55:47Z</time>
      </trkpt>
      <trkpt lat="43.39128" lon="6.69764">
        <ele>121</ele>
        <time>2013-10-13T08:55:51Z</time>
      </trkpt>
      <trkpt lat="43.39128" lon="6.69754">
        <ele>121</ele>
        <time>2013-10-13T08:55:55Z</time>
      </trkpt>
      <trkpt lat="43.39128" lon="6.69746">
        <ele>121</ele>
        <time>2013-10-13T08:55:59Z</time>
      </trkpt>
      <trkpt lat="43.39128" lon="6.69732">
        <ele>125</ele>
        <time>2013-10-13T08:56:06Z</time>
      </trkpt>
      <trkpt lat="43.39127" lon="6.69721">
        <ele>127</ele>
        <time>2013-10-13T08:56:12Z</time>
      </trkpt>
      <trkpt lat="43.39125" lon="6.69712">
        <ele>127</ele>
        <time>2013-10-13T08:56:17Z</time>
      </trkpt>
      <trkpt lat="43.39123" lon="6.69702">
        <ele>129</ele>
        <time>2013-10-13T08:56:22Z</time>
      </trkpt>
      <trkpt lat="43.39121" lon="6.69695">
        <ele>129</ele>
        <time>2013-10-13T08:56:26Z</time>
      </trkpt>
      <trkpt lat="43.39119" lon="6.69687">
        <ele>129.02000427246</ele>
        <time>2013-10-13T08:56:30Z</time>
      </trkpt>
      <trkpt lat="43.39116" lon="6.6968">
        <ele>130</ele>
        <time>2013-10-13T08:56:34Z</time>
      </trkpt>
      <trkpt lat="43.39114" lon="6.69673">
        <ele>130</ele>
        <time>2013-10-13T08:56:38Z</time>
      </trkpt>
      <trkpt lat="43.39111" lon="6.69664">
        <ele>133</ele>
        <time>2013-10-13T08:56:43Z</time>
      </trkpt>
      <trkpt lat="43.3911" lon="6.69655">
        <ele>134</ele>
        <time>2013-10-13T08:56:47Z</time>
      </trkpt>
      <trkpt lat="43.39109" lon="6.69645">
        <ele>135</ele>
        <time>2013-10-13T08:56:52Z</time>
      </trkpt>
      <trkpt lat="43.39108" lon="6.69636">
        <ele>135</ele>
        <time>2013-10-13T08:56:55Z</time>
      </trkpt>
      <trkpt lat="43.39107" lon="6.69627">
        <ele>135</ele>
        <time>2013-10-13T08:56:59Z</time>
      </trkpt>
      <trkpt lat="43.39106" lon="6.69619">
        <ele>137</ele>
        <time>2013-10-13T08:57:03Z</time>
      </trkpt>
      <trkpt lat="43.39104" lon="6.69612">
        <ele>137</ele>
        <time>2013-10-13T08:57:07Z</time>
      </trkpt>
      <trkpt lat="43.39101" lon="6.69603">
        <ele>139</ele>
        <time>2013-10-13T08:57:12Z</time>
      </trkpt>
      <trkpt lat="43.39098" lon="6.69595">
        <ele>139</ele>
        <time>2013-10-13T08:57:16Z</time>
      </trkpt>
      <trkpt lat="43.39096" lon="6.69588">
        <ele>140.02000427246</ele>
        <time>2013-10-13T08:57:20Z</time>
      </trkpt>
      <trkpt lat="43.39095" lon="6.69581">
        <ele>141</ele>
        <time>2013-10-13T08:57:24Z</time>
      </trkpt>
      <trkpt lat="43.39091" lon="6.69569">
        <ele>144</ele>
        <time>2013-10-13T08:57:31Z</time>
      </trkpt>
      <trkpt lat="43.39087" lon="6.6956">
        <ele>147</ele>
        <time>2013-10-13T08:57:37Z</time>
      </trkpt>
      <trkpt lat="43.39085" lon="6.6955">
        <ele>147</ele>
        <time>2013-10-13T08:57:41Z</time>
      </trkpt>
      <trkpt lat="43.39082" lon="6.69543">
        <ele>147</ele>
        <time>2013-10-13T08:57:44Z</time>
      </trkpt>
      <trkpt lat="43.39077" lon="6.69539">
        <ele>148</ele>
        <time>2013-10-13T08:57:48Z</time>
      </trkpt>
      <trkpt lat="43.39072" lon="6.69534">
        <ele>150</ele>
        <time>2013-10-13T08:57:52Z</time>
      </trkpt>
      <trkpt lat="43.39067" lon="6.69529">
        <ele>151</ele>
        <time>2013-10-13T08:57:56Z</time>
      </trkpt>
      <trkpt lat="43.39061" lon="6.69527">
        <ele>151.51000976562</ele>
        <time>2013-10-13T08:58:00Z</time>
      </trkpt>
      <trkpt lat="43.39056" lon="6.69525">
        <ele>152</ele>
        <time>2013-10-13T08:58:04Z</time>
      </trkpt>
      <trkpt lat="43.3905" lon="6.69522">
        <ele>152</ele>
        <time>2013-10-13T08:58:08Z</time>
      </trkpt>
      <trkpt lat="43.39044" lon="6.69519">
        <ele>153</ele>
        <time>2013-10-13T08:58:12Z</time>
      </trkpt>
      <trkpt lat="43.39038" lon="6.69514">
        <ele>153</ele>
        <time>2013-10-13T08:58:17Z</time>
      </trkpt>
      <trkpt lat="43.39032" lon="6.6951">
        <ele>155.38998413086</ele>
        <time>2013-10-13T08:58:21Z</time>
      </trkpt>
      <trkpt lat="43.39027" lon="6.69505">
        <ele>155.51000976562</ele>
        <time>2013-10-13T08:58:25Z</time>
      </trkpt>
      <trkpt lat="43.39022" lon="6.69499">
        <ele>157.02000427246</ele>
        <time>2013-10-13T08:58:30Z</time>
      </trkpt>
      <trkpt lat="43.39018" lon="6.69495">
        <ele>158</ele>
        <time>2013-10-13T08:58:34Z</time>
      </trkpt>
      <trkpt lat="43.39013" lon="6.6949">
        <ele>158</ele>
        <time>2013-10-13T08:58:37Z</time>
      </trkpt>
      <trkpt lat="43.39009" lon="6.69486">
        <ele>158.42105102539</ele>
        <time>2013-10-13T08:58:40Z</time>
      </trkpt>
      <trkpt lat="43.39005" lon="6.69483">
        <ele>159</ele>
        <time>2013-10-13T08:58:43Z</time>
      </trkpt>
      <trkpt lat="43.38999" lon="6.69479">
        <ele>159</ele>
        <time>2013-10-13T08:58:47Z</time>
      </trkpt>
      <trkpt lat="43.38993" lon="6.69474">
        <ele>161</ele>
        <time>2013-10-13T08:58:51Z</time>
      </trkpt>
      <trkpt lat="43.38989" lon="6.6947">
        <ele>161</ele>
        <time>2013-10-13T08:58:55Z</time>
      </trkpt>
      <trkpt lat="43.38984" lon="6.69466">
        <ele>161</ele>
        <time>2013-10-13T08:58:59Z</time>
      </trkpt>
      <trkpt lat="43.3898" lon="6.69461">
        <ele>164</ele>
        <time>2013-10-13T08:59:03Z</time>
      </trkpt>
      <trkpt lat="43.38974" lon="6.69454">
        <ele>164</ele>
        <time>2013-10-13T08:59:08Z</time>
      </trkpt>
      <trkpt lat="43.38971" lon="6.69448">
        <ele>165</ele>
        <time>2013-10-13T08:59:12Z</time>
      </trkpt>
      <trkpt lat="43.38967" lon="6.69441">
        <ele>165</ele>
        <time>2013-10-13T08:59:16Z</time>
      </trkpt>
      <trkpt lat="43.38964" lon="6.69433">
        <ele>166.02000427246</ele>
        <time>2013-10-13T08:59:20Z</time>
      </trkpt>
      <trkpt lat="43.3896" lon="6.69423">
        <ele>167</ele>
        <time>2013-10-13T08:59:26Z</time>
      </trkpt>
      <trkpt lat="43.38958" lon="6.69416">
        <ele>168.45713806152</ele>
        <time>2013-10-13T08:59:30Z</time>
      </trkpt>
      <trkpt lat="43.38956" lon="6.69409">
        <ele>170</ele>
        <time>2013-10-13T08:59:34Z</time>
      </trkpt>
      <trkpt lat="43.38954" lon="6.69402">
        <ele>172</ele>
        <time>2013-10-13T08:59:37Z</time>
      </trkpt>
      <trkpt lat="43.38951" lon="6.69395">
        <ele>173</ele>
        <time>2013-10-13T08:59:41Z</time>
      </trkpt>
      <trkpt lat="43.38949" lon="6.69387">
        <ele>173</ele>
        <time>2013-10-13T08:59:45Z</time>
      </trkpt>
      <trkpt lat="43.38946" lon="6.69381">
        <ele>173</ele>
        <time>2013-10-13T08:59:49Z</time>
      </trkpt>
      <trkpt lat="43.38943" lon="6.69373">
        <ele>175</ele>
        <time>2013-10-13T08:59:53Z</time>
      </trkpt>
      <trkpt lat="43.3894" lon="6.69366">
        <ele>175</ele>
        <time>2013-10-13T08:59:57Z</time>
      </trkpt>
      <trkpt lat="43.38937" lon="6.69358">
        <ele>177</ele>
        <time>2013-10-13T09:00:02Z</time>
      </trkpt>
      <trkpt lat="43.38934" lon="6.69352">
        <ele>177</ele>
        <time>2013-10-13T09:00:06Z</time>
      </trkpt>
      <trkpt lat="43.38931" lon="6.69345">
        <ele>178.02000427246</ele>
        <time>2013-10-13T09:00:10Z</time>
      </trkpt>
      <trkpt lat="43.38928" lon="6.6934">
        <ele>179</ele>
        <time>2013-10-13T09:00:13Z</time>
      </trkpt>
      <trkpt lat="43.38925" lon="6.69334">
        <ele>179</ele>
        <time>2013-10-13T09:00:16Z</time>
      </trkpt>
      <trkpt lat="43.38922" lon="6.6933">
        <ele>179</ele>
        <time>2013-10-13T09:00:19Z</time>
      </trkpt>
      <trkpt lat="43.38921" lon="6.69328">
        <ele>183</ele>
        <time>2013-10-13T09:00:23Z</time>
      </trkpt>
      <trkpt lat="43.3892" lon="6.69326">
        <ele>183</ele>
        <time>2013-10-13T09:00:25Z</time>
      </trkpt>
      <trkpt lat="43.38918" lon="6.69323">
        <ele>183</ele>
        <time>2013-10-13T09:00:28Z</time>
      </trkpt>
      <trkpt lat="43.38915" lon="6.69318">
        <ele>185</ele>
        <time>2013-10-13T09:00:33Z</time>
      </trkpt>
      <trkpt lat="43.38911" lon="6.6931">
        <ele>186.02000427246</ele>
        <time>2013-10-13T09:00:40Z</time>
      </trkpt>
      <trkpt lat="43.38906" lon="6.69306">
        <ele>187</ele>
        <time>2013-10-13T09:00:43Z</time>
      </trkpt>
      <trkpt lat="43.38901" lon="6.69303">
        <ele>187</ele>
        <time>2013-10-13T09:00:47Z</time>
      </trkpt>
      <trkpt lat="43.38891" lon="6.693">
        <ele>189</ele>
        <time>2013-10-13T09:00:55Z</time>
      </trkpt>
      <trkpt lat="43.38881" lon="6.69295">
        <ele>190</ele>
        <time>2013-10-13T09:01:04Z</time>
      </trkpt>
      <trkpt lat="43.38874" lon="6.69291">
        <ele>191.2200012207</ele>
        <time>2013-10-13T09:01:10Z</time>
      </trkpt>
      <trkpt lat="43.38864" lon="6.69287">
        <ele>192</ele>
        <time>2013-10-13T09:01:18Z</time>
      </trkpt>
      <trkpt lat="43.38856" lon="6.69282">
        <ele>195.61001586914</ele>
        <time>2013-10-13T09:01:25Z</time>
      </trkpt>
      <trkpt lat="43.38846" lon="6.69276">
        <ele>197</ele>
        <time>2013-10-13T09:01:34Z</time>
      </trkpt>
      <trkpt lat="43.38839" lon="6.69272">
        <ele>198.82998657227</ele>
        <time>2013-10-13T09:01:40Z</time>
      </trkpt>
      <trkpt lat="43.38831" lon="6.69267">
        <ele>201</ele>
        <time>2013-10-13T09:01:46Z</time>
      </trkpt>
      <trkpt lat="43.38823" lon="6.69261">
        <ele>201</ele>
        <time>2013-10-13T09:01:52Z</time>
      </trkpt>
      <trkpt lat="43.38817" lon="6.69254">
        <ele>201</ele>
        <time>2013-10-13T09:01:58Z</time>
      </trkpt>
      <trkpt lat="43.38811" lon="6.69246">
        <ele>204</ele>
        <time>2013-10-13T09:02:04Z</time>
      </trkpt>
      <trkpt lat="43.38807" lon="6.69239">
        <ele>205</ele>
        <time>2013-10-13T09:02:09Z</time>
      </trkpt>
      <trkpt lat="43.38804" lon="6.69232">
        <ele>206</ele>
        <time>2013-10-13T09:02:14Z</time>
      </trkpt>
      <trkpt lat="43.388" lon="6.69224">
        <ele>206</ele>
        <time>2013-10-13T09:02:19Z</time>
      </trkpt>
      <trkpt lat="43.38795" lon="6.69218">
        <ele>207</ele>
        <time>2013-10-13T09:02:23Z</time>
      </trkpt>
      <trkpt lat="43.38791" lon="6.69213">
        <ele>207</ele>
        <time>2013-10-13T09:02:27Z</time>
      </trkpt>
      <trkpt lat="43.38785" lon="6.69207">
        <ele>210</ele>
        <time>2013-10-13T09:02:32Z</time>
      </trkpt>
      <trkpt lat="43.38776" lon="6.69199">
        <ele>213</ele>
        <time>2013-10-13T09:02:38Z</time>
      </trkpt>
      <trkpt lat="43.3877" lon="6.69192">
        <ele>213</ele>
        <time>2013-10-13T09:02:42Z</time>
      </trkpt>
      <trkpt lat="43.38763" lon="6.69186">
        <ele>213</ele>
        <time>2013-10-13T09:02:46Z</time>
      </trkpt>
      <trkpt lat="43.38757" lon="6.69179">
        <ele>213.61000061035</ele>
        <time>2013-10-13T09:02:50Z</time>
      </trkpt>
      <trkpt lat="43.38749" lon="6.69172">
        <ele>214</ele>
        <time>2013-10-13T09:02:54Z</time>
      </trkpt>
      <trkpt lat="43.38742" lon="6.69163">
        <ele>214</ele>
        <time>2013-10-13T09:02:58Z</time>
      </trkpt>
      <trkpt lat="43.38736" lon="6.69158">
        <ele>216</ele>
        <time>2013-10-13T09:03:01Z</time>
      </trkpt>
      <trkpt lat="43.3873" lon="6.69153">
        <ele>216</ele>
        <time>2013-10-13T09:03:04Z</time>
      </trkpt>
      <trkpt lat="43.38723" lon="6.69148">
        <ele>216</ele>
        <time>2013-10-13T09:03:07Z</time>
      </trkpt>
      <trkpt lat="43.38717" lon="6.69143">
        <ele>216</ele>
        <time>2013-10-13T09:03:10Z</time>
      </trkpt>
      <trkpt lat="43.38712" lon="6.69137">
        <ele>216</ele>
        <time>2013-10-13T09:03:13Z</time>
      </trkpt>
      <trkpt lat="43.38712" lon="6.69128">
        <ele>216</ele>
        <time>2013-10-13T09:03:17Z</time>
      </trkpt>
      <trkpt lat="43.38718" lon="6.69116">
        <ele>218</ele>
        <time>2013-10-13T09:03:25Z</time>
      </trkpt>
      <trkpt lat="43.38725" lon="6.69112">
        <ele>220.04000854492</ele>
        <time>2013-10-13T09:03:30Z</time>
      </trkpt>
      <trkpt lat="43.38732" lon="6.69107">
        <ele>224</ele>
        <time>2013-10-13T09:03:36Z</time>
      </trkpt>
      <trkpt lat="43.38739" lon="6.69105">
        <ele>225</ele>
        <time>2013-10-13T09:03:41Z</time>
      </trkpt>
      <trkpt lat="43.38747" lon="6.69108">
        <ele>226</ele>
        <time>2013-10-13T09:03:47Z</time>
      </trkpt>
      <trkpt lat="43.38757" lon="6.69115">
        <ele>226</ele>
        <time>2013-10-13T09:03:53Z</time>
      </trkpt>
      <trkpt lat="43.38765" lon="6.69121">
        <ele>226</ele>
        <time>2013-10-13T09:03:57Z</time>
      </trkpt>
      <trkpt lat="43.38776" lon="6.69123">
        <ele>228</ele>
        <time>2013-10-13T09:04:02Z</time>
      </trkpt>
      <trkpt lat="43.38786" lon="6.69127">
        <ele>228</ele>
        <time>2013-10-13T09:04:06Z</time>
      </trkpt>
      <trkpt lat="43.38796" lon="6.69134">
        <ele>228</ele>
        <time>2013-10-13T09:04:09Z</time>
      </trkpt>
      <trkpt lat="43.38805" lon="6.69141">
        <ele>228</ele>
        <time>2013-10-13T09:04:12Z</time>
      </trkpt>
      <trkpt lat="43.38815" lon="6.69143">
        <ele>228</ele>
        <time>2013-10-13T09:04:15Z</time>
      </trkpt>
      <trkpt lat="43.38827" lon="6.69133">
        <ele>228</ele>
        <time>2013-10-13T09:04:19Z</time>
      </trkpt>
      <trkpt lat="43.3884" lon="6.69123">
        <ele>227</ele>
        <time>2013-10-13T09:04:22Z</time>
      </trkpt>
      <trkpt lat="43.38851" lon="6.69115">
        <ele>227</ele>
        <time>2013-10-13T09:04:24Z</time>
      </trkpt>
      <trkpt lat="43.38863" lon="6.69104">
        <ele>227</ele>
        <time>2013-10-13T09:04:26Z</time>
      </trkpt>
      <trkpt lat="43.38876" lon="6.69097">
        <ele>227</ele>
        <time>2013-10-13T09:04:28Z</time>
      </trkpt>
      <trkpt lat="43.38887" lon="6.69089">
        <ele>224.44998168945</ele>
        <time>2013-10-13T09:04:30Z</time>
      </trkpt>
      <trkpt lat="43.38897" lon="6.69081">
        <ele>222</ele>
        <time>2013-10-13T09:04:32Z</time>
      </trkpt>
      <trkpt lat="43.38907" lon="6.69071">
        <ele>222</ele>
        <time>2013-10-13T09:04:34Z</time>
      </trkpt>
      <trkpt lat="43.38917" lon="6.69063">
        <ele>218</ele>
        <time>2013-10-13T09:04:36Z</time>
      </trkpt>
      <trkpt lat="43.3893" lon="6.69056">
        <ele>218</ele>
        <time>2013-10-13T09:04:38Z</time>
      </trkpt>
      <trkpt lat="43.38942" lon="6.69052">
        <ele>214.95001220703</ele>
        <time>2013-10-13T09:04:40Z</time>
      </trkpt>
      <trkpt lat="43.38954" lon="6.69049">
        <ele>211</ele>
        <time>2013-10-13T09:04:42Z</time>
      </trkpt>
      <trkpt lat="43.38966" lon="6.69046">
        <ele>209.48999023438</ele>
        <time>2013-10-13T09:04:44Z</time>
      </trkpt>
      <trkpt lat="43.38977" lon="6.69045">
        <ele>208.48999023438</ele>
        <time>2013-10-13T09:04:46Z</time>
      </trkpt>
      <trkpt lat="43.38992" lon="6.69043">
        <ele>206.48999023438</ele>
        <time>2013-10-13T09:04:49Z</time>
      </trkpt>
      <trkpt lat="43.39003" lon="6.6904">
        <ele>204.48999023438</ele>
        <time>2013-10-13T09:04:51Z</time>
      </trkpt>
      <trkpt lat="43.39013" lon="6.69036">
        <ele>202.5</ele>
        <time>2013-10-13T09:04:53Z</time>
      </trkpt>
      <trkpt lat="43.39022" lon="6.69031">
        <ele>200.48999023438</ele>
        <time>2013-10-13T09:04:55Z</time>
      </trkpt>
      <trkpt lat="43.39032" lon="6.69026">
        <ele>199</ele>
        <time>2013-10-13T09:04:57Z</time>
      </trkpt>
      <trkpt lat="43.39043" lon="6.6902">
        <ele>196.56121826172</ele>
        <time>2013-10-13T09:04:59Z</time>
      </trkpt>
      <trkpt lat="43.39053" lon="6.69017">
        <ele>194.5</ele>
        <time>2013-10-13T09:05:01Z</time>
      </trkpt>
      <trkpt lat="43.39062" lon="6.69008">
        <ele>192.48999023438</ele>
        <time>2013-10-13T09:05:04Z</time>
      </trkpt>
      <trkpt lat="43.39071" lon="6.69001">
        <ele>189.48999023438</ele>
        <time>2013-10-13T09:05:06Z</time>
      </trkpt>
      <trkpt lat="43.3908" lon="6.68997">
        <ele>188.48999023438</ele>
        <time>2013-10-13T09:05:08Z</time>
      </trkpt>
      <trkpt lat="43.39091" lon="6.68993">
        <ele>184.3571472168</ele>
        <time>2013-10-13T09:05:11Z</time>
      </trkpt>
      <trkpt lat="43.39101" lon="6.68987">
        <ele>183</ele>
        <time>2013-10-13T09:05:14Z</time>
      </trkpt>
      <trkpt lat="43.3911" lon="6.68974">
        <ele>180.5</ele>
        <time>2013-10-13T09:05:17Z</time>
      </trkpt>
      <trkpt lat="43.39121" lon="6.68963">
        <ele>177.97999572754</ele>
        <time>2013-10-13T09:05:20Z</time>
      </trkpt>
      <trkpt lat="43.39131" lon="6.68957">
        <ele>174.48999023438</ele>
        <time>2013-10-13T09:05:23Z</time>
      </trkpt>
      <trkpt lat="43.39144" lon="6.6895">
        <ele>171.48999023438</ele>
        <time>2013-10-13T09:05:26Z</time>
      </trkpt>
      <trkpt lat="43.39156" lon="6.68951">
        <ele>170</ele>
        <time>2013-10-13T09:05:28Z</time>
      </trkpt>
      <trkpt lat="43.39165" lon="6.68945">
        <ele>167.51000976562</ele>
        <time>2013-10-13T09:05:30Z</time>
      </trkpt>
      <trkpt lat="43.39175" lon="6.68935">
        <ele>167.51960754394</ele>
        <time>2013-10-13T09:05:32Z</time>
      </trkpt>
      <trkpt lat="43.39185" lon="6.68926">
        <ele>165.48999023438</ele>
        <time>2013-10-13T09:05:34Z</time>
      </trkpt>
      <trkpt lat="43.39198" lon="6.6892">
        <ele>163.48999023438</ele>
        <time>2013-10-13T09:05:36Z</time>
      </trkpt>
      <trkpt lat="43.39214" lon="6.68921">
        <ele>161.48999023438</ele>
        <time>2013-10-13T09:05:38Z</time>
      </trkpt>
      <trkpt lat="43.39231" lon="6.68918">
        <ele>159.48999023438</ele>
        <time>2013-10-13T09:05:40Z</time>
      </trkpt>
      <trkpt lat="43.39247" lon="6.68916">
        <ele>158</ele>
        <time>2013-10-13T09:05:42Z</time>
      </trkpt>
      <trkpt lat="43.39261" lon="6.6892">
        <ele>157.52777099609</ele>
        <time>2013-10-13T09:05:44Z</time>
      </trkpt>
      <trkpt lat="43.39273" lon="6.68925">
        <ele>156.41000366211</ele>
        <time>2013-10-13T09:05:46Z</time>
      </trkpt>
      <trkpt lat="43.39285" lon="6.68924">
        <ele>153.40196228027</ele>
        <time>2013-10-13T09:05:49Z</time>
      </trkpt>
      <trkpt lat="43.39297" lon="6.68914">
        <ele>151.38999938965</ele>
        <time>2013-10-13T09:05:52Z</time>
      </trkpt>
      <trkpt lat="43.39309" lon="6.68907">
        <ele>148.7799987793</ele>
        <time>2013-10-13T09:05:54Z</time>
      </trkpt>
      <trkpt lat="43.3932" lon="6.68898">
        <ele>146.38999938965</ele>
        <time>2013-10-13T09:05:56Z</time>
      </trkpt>
      <trkpt lat="43.39326" lon="6.68893">
        <ele>146</ele>
        <time>2013-10-13T09:05:57Z</time>
      </trkpt>
      <trkpt lat="43.39333" lon="6.68888">
        <ele>145.38999938965</ele>
        <time>2013-10-13T09:05:58Z</time>
      </trkpt>
      <trkpt lat="43.39346" lon="6.68885">
        <ele>142.7799987793</ele>
        <time>2013-10-13T09:06:00Z</time>
      </trkpt>
      <trkpt lat="43.3936" lon="6.6889">
        <ele>140.91836547852</ele>
        <time>2013-10-13T09:06:02Z</time>
      </trkpt>
      <trkpt lat="43.39376" lon="6.68895">
        <ele>138.38999938965</ele>
        <time>2013-10-13T09:06:04Z</time>
      </trkpt>
      <trkpt lat="43.39389" lon="6.68903">
        <ele>136.40196228027</ele>
        <time>2013-10-13T09:06:06Z</time>
      </trkpt>
      <trkpt lat="43.39402" lon="6.68909">
        <ele>133.38999938965</ele>
        <time>2013-10-13T09:06:08Z</time>
      </trkpt>
      <trkpt lat="43.39415" lon="6.68915">
        <ele>131.38999938965</ele>
        <time>2013-10-13T09:06:10Z</time>
      </trkpt>
      <trkpt lat="43.39426" lon="6.68923">
        <ele>129.39999389648</ele>
        <time>2013-10-13T09:06:12Z</time>
      </trkpt>
      <trkpt lat="43.39436" lon="6.68928">
        <ele>127.38999938965</ele>
        <time>2013-10-13T09:06:14Z</time>
      </trkpt>
      <trkpt lat="43.39446" lon="6.68931">
        <ele>127</ele>
        <time>2013-10-13T09:06:16Z</time>
      </trkpt>
      <trkpt lat="43.39455" lon="6.68925">
        <ele>125.43518829346</ele>
        <time>2013-10-13T09:06:18Z</time>
      </trkpt>
      <trkpt lat="43.39466" lon="6.68917">
        <ele>124</ele>
        <time>2013-10-13T09:06:20Z</time>
      </trkpt>
      <trkpt lat="43.39477" lon="6.68907">
        <ele>122.48999786377</ele>
        <time>2013-10-13T09:06:22Z</time>
      </trkpt>
      <trkpt lat="43.39488" lon="6.68896">
        <ele>120.56123352051</ele>
        <time>2013-10-13T09:06:24Z</time>
      </trkpt>
      <trkpt lat="43.39497" lon="6.68888">
        <ele>117.48999786377</ele>
        <time>2013-10-13T09:06:26Z</time>
      </trkpt>
      <trkpt lat="43.39507" lon="6.68881">
        <ele>115.48999786377</ele>
        <time>2013-10-13T09:06:28Z</time>
      </trkpt>
      <trkpt lat="43.39519" lon="6.68868">
        <ele>110.95998382568</ele>
        <time>2013-10-13T09:06:30Z</time>
      </trkpt>
      <trkpt lat="43.39529" lon="6.68853">
        <ele>107</ele>
        <time>2013-10-13T09:06:32Z</time>
      </trkpt>
      <trkpt lat="43.39537" lon="6.68838">
        <ele>106.48999786377</ele>
        <time>2013-10-13T09:06:34Z</time>
      </trkpt>
      <trkpt lat="43.39539" lon="6.68824">
        <ele>103.56123352051</ele>
        <time>2013-10-13T09:06:36Z</time>
      </trkpt>
      <trkpt lat="43.39535" lon="6.68813">
        <ele>103</ele>
        <time>2013-10-13T09:06:38Z</time>
      </trkpt>
      <trkpt lat="43.3953" lon="6.68801">
        <ele>103</ele>
        <time>2013-10-13T09:06:40Z</time>
      </trkpt>
      <trkpt lat="43.39523" lon="6.68788">
        <ele>103</ele>
        <time>2013-10-13T09:06:42Z</time>
      </trkpt>
      <trkpt lat="43.39518" lon="6.68777">
        <ele>103</ele>
        <time>2013-10-13T09:06:44Z</time>
      </trkpt>
      <trkpt lat="43.39508" lon="6.68764">
        <ele>103</ele>
        <time>2013-10-13T09:06:47Z</time>
      </trkpt>
      <trkpt lat="43.39499" lon="6.68753">
        <ele>102.38999176025</ele>
        <time>2013-10-13T09:06:49Z</time>
      </trkpt>
      <trkpt lat="43.39487" lon="6.68743">
        <ele>101</ele>
        <time>2013-10-13T09:06:51Z</time>
      </trkpt>
      <trkpt lat="43.3948" lon="6.68727">
        <ele>101</ele>
        <time>2013-10-13T09:06:53Z</time>
      </trkpt>
      <trkpt lat="43.39474" lon="6.68708">
        <ele>101</ele>
        <time>2013-10-13T09:06:55Z</time>
      </trkpt>
      <trkpt lat="43.39467" lon="6.68691">
        <ele>101</ele>
        <time>2013-10-13T09:06:57Z</time>
      </trkpt>
      <trkpt lat="43.39466" lon="6.68674">
        <ele>101</ele>
        <time>2013-10-13T09:06:59Z</time>
      </trkpt>
      <trkpt lat="43.39467" lon="6.68656">
        <ele>100</ele>
        <time>2013-10-13T09:07:01Z</time>
      </trkpt>
      <trkpt lat="43.3947" lon="6.68636">
        <ele>100</ele>
        <time>2013-10-13T09:07:03Z</time>
      </trkpt>
      <trkpt lat="43.39474" lon="6.68614">
        <ele>100</ele>
        <time>2013-10-13T09:07:05Z</time>
      </trkpt>
      <trkpt lat="43.39479" lon="6.68593">
        <ele>100</ele>
        <time>2013-10-13T09:07:07Z</time>
      </trkpt>
      <trkpt lat="43.39482" lon="6.68571">
        <ele>100</ele>
        <time>2013-10-13T09:07:09Z</time>
      </trkpt>
      <trkpt lat="43.39486" lon="6.68551">
        <ele>97</ele>
        <time>2013-10-13T09:07:11Z</time>
      </trkpt>
      <trkpt lat="43.39485" lon="6.68536">
        <ele>97</ele>
        <time>2013-10-13T09:07:13Z</time>
      </trkpt>
      <trkpt lat="43.39475" lon="6.68524">
        <ele>93</ele>
        <time>2013-10-13T09:07:16Z</time>
      </trkpt>
      <trkpt lat="43.39463" lon="6.68521">
        <ele>93</ele>
        <time>2013-10-13T09:07:18Z</time>
      </trkpt>
      <trkpt lat="43.39457" lon="6.68521">
        <ele>93</ele>
        <time>2013-10-13T09:07:19Z</time>
      </trkpt>
      <trkpt lat="43.39445" lon="6.68517">
        <ele>87.779983520508</ele>
        <time>2013-10-13T09:07:21Z</time>
      </trkpt>
      <trkpt lat="43.39434" lon="6.68506">
        <ele>84.939979553223</ele>
        <time>2013-10-13T09:07:23Z</time>
      </trkpt>
      <trkpt lat="43.39422" lon="6.68491">
        <ele>82.389991760254</ele>
        <time>2013-10-13T09:07:25Z</time>
      </trkpt>
      <trkpt lat="43.3941" lon="6.68476">
        <ele>81</ele>
        <time>2013-10-13T09:07:27Z</time>
      </trkpt>
      <trkpt lat="43.39404" lon="6.68467">
        <ele>80.389999389648</ele>
        <time>2013-10-13T09:07:28Z</time>
      </trkpt>
      <trkpt lat="43.39399" lon="6.68457">
        <ele>79.389991760254</ele>
        <time>2013-10-13T09:07:29Z</time>
      </trkpt>
      <trkpt lat="43.39391" lon="6.68439">
        <ele>79</ele>
        <time>2013-10-13T09:07:31Z</time>
      </trkpt>
      <trkpt lat="43.39385" lon="6.68429">
        <ele>78.389991760254</ele>
        <time>2013-10-13T09:07:33Z</time>
      </trkpt>
      <trkpt lat="43.39377" lon="6.68422">
        <ele>77</ele>
        <time>2013-10-13T09:07:35Z</time>
      </trkpt>
      <trkpt lat="43.39369" lon="6.68409">
        <ele>77</ele>
        <time>2013-10-13T09:07:37Z</time>
      </trkpt>
      <trkpt lat="43.39367" lon="6.684">
        <ele>77</ele>
        <time>2013-10-13T09:07:38Z</time>
      </trkpt>
      <trkpt lat="43.39365" lon="6.68391">
        <ele>76.389991760254</ele>
        <time>2013-10-13T09:07:39Z</time>
      </trkpt>
      <trkpt lat="43.39364" lon="6.68381">
        <ele>75.389999389648</ele>
        <time>2013-10-13T09:07:40Z</time>
      </trkpt>
      <trkpt lat="43.3936" lon="6.68364">
        <ele>75</ele>
        <time>2013-10-13T09:07:42Z</time>
      </trkpt>
      <trkpt lat="43.39357" lon="6.68355">
        <ele>75</ele>
        <time>2013-10-13T09:07:43Z</time>
      </trkpt>
      <trkpt lat="43.39353" lon="6.68346">
        <ele>75</ele>
        <time>2013-10-13T09:07:44Z</time>
      </trkpt>
      <trkpt lat="43.39346" lon="6.68334">
        <ele>69</ele>
        <time>2013-10-13T09:07:46Z</time>
      </trkpt>
      <trkpt lat="43.39333" lon="6.68335">
        <ele>69</ele>
        <time>2013-10-13T09:07:49Z</time>
      </trkpt>
      <trkpt lat="43.3932" lon="6.68334">
        <ele>68.51000213623</ele>
        <time>2013-10-13T09:07:52Z</time>
      </trkpt>
      <trkpt lat="43.3931" lon="6.68331">
        <ele>68.289993286133</ele>
        <time>2013-10-13T09:07:54Z</time>
      </trkpt>
      <trkpt lat="43.39306" lon="6.68319">
        <ele>68</ele>
        <time>2013-10-13T09:07:56Z</time>
      </trkpt>
      <trkpt lat="43.39314" lon="6.68302">
        <ele>68.51000213623</ele>
        <time>2013-10-13T09:07:59Z</time>
      </trkpt>
      <trkpt lat="43.39317" lon="6.68289">
        <ele>68</ele>
        <time>2013-10-13T09:08:01Z</time>
      </trkpt>
      <trkpt lat="43.39314" lon="6.68276">
        <ele>68</ele>
        <time>2013-10-13T09:08:03Z</time>
      </trkpt>
      <trkpt lat="43.39311" lon="6.68268">
        <ele>68</ele>
        <time>2013-10-13T09:08:05Z</time>
      </trkpt>
      <trkpt lat="43.39306" lon="6.68262">
        <ele>68</ele>
        <time>2013-10-13T09:08:08Z</time>
      </trkpt>
      <trkpt lat="43.39299" lon="6.68257">
        <ele>72</ele>
        <time>2013-10-13T09:08:11Z</time>
      </trkpt>
      <trkpt lat="43.39293" lon="6.68251">
        <ele>72</ele>
        <time>2013-10-13T09:08:14Z</time>
      </trkpt>
      <trkpt lat="43.39287" lon="6.68247">
        <ele>74</ele>
        <time>2013-10-13T09:08:16Z</time>
      </trkpt>
      <trkpt lat="43.39281" lon="6.68242">
        <ele>74</ele>
        <time>2013-10-13T09:08:19Z</time>
      </trkpt>
      <trkpt lat="43.39275" lon="6.68239">
        <ele>76</ele>
        <time>2013-10-13T09:08:22Z</time>
      </trkpt>
      <trkpt lat="43.39272" lon="6.68228">
        <ele>77</ele>
        <time>2013-10-13T09:08:26Z</time>
      </trkpt>
      <trkpt lat="43.39272" lon="6.68219">
        <ele>77</ele>
        <time>2013-10-13T09:08:28Z</time>
      </trkpt>
      <trkpt lat="43.39271" lon="6.68211">
        <ele>77.610000610352</ele>
        <time>2013-10-13T09:08:30Z</time>
      </trkpt>
      <trkpt lat="43.39272" lon="6.68201">
        <ele>78</ele>
        <time>2013-10-13T09:08:32Z</time>
      </trkpt>
      <trkpt lat="43.39275" lon="6.68191">
        <ele>78</ele>
        <time>2013-10-13T09:08:34Z</time>
      </trkpt>
      <trkpt lat="43.39278" lon="6.68181">
        <ele>78</ele>
        <time>2013-10-13T09:08:36Z</time>
      </trkpt>
      <trkpt lat="43.39281" lon="6.68171">
        <ele>78</ele>
        <time>2013-10-13T09:08:38Z</time>
      </trkpt>
      <trkpt lat="43.39285" lon="6.68162">
        <ele>78</ele>
        <time>2013-10-13T09:08:40Z</time>
      </trkpt>
      <trkpt lat="43.39288" lon="6.68154">
        <ele>78</ele>
        <time>2013-10-13T09:08:42Z</time>
      </trkpt>
      <trkpt lat="43.39292" lon="6.68146">
        <ele>78</ele>
        <time>2013-10-13T09:08:44Z</time>
      </trkpt>
      <trkpt lat="43.39297" lon="6.68137">
        <ele>78</ele>
        <time>2013-10-13T09:08:46Z</time>
      </trkpt>
      <trkpt lat="43.39302" lon="6.68129">
        <ele>78</ele>
        <time>2013-10-13T09:08:48Z</time>
      </trkpt>
      <trkpt lat="43.39308" lon="6.68123">
        <ele>78.51000213623</ele>
        <time>2013-10-13T09:08:50Z</time>
      </trkpt>
      <trkpt lat="43.39313" lon="6.68116">
        <ele>79</ele>
        <time>2013-10-13T09:08:52Z</time>
      </trkpt>
      <trkpt lat="43.39317" lon="6.68109">
        <ele>79</ele>
        <time>2013-10-13T09:08:54Z</time>
      </trkpt>
      <trkpt lat="43.39322" lon="6.68103">
        <ele>79</ele>
        <time>2013-10-13T09:08:56Z</time>
      </trkpt>
      <trkpt lat="43.39325" lon="6.68094">
        <ele>79</ele>
        <time>2013-10-13T09:08:59Z</time>
      </trkpt>
      <trkpt lat="43.39326" lon="6.68084">
        <ele>82</ele>
        <time>2013-10-13T09:09:02Z</time>
      </trkpt>
      <trkpt lat="43.39325" lon="6.68075">
        <ele>82.51000213623</ele>
        <time>2013-10-13T09:09:05Z</time>
      </trkpt>
      <trkpt lat="43.39326" lon="6.68064">
        <ele>83</ele>
        <time>2013-10-13T09:09:08Z</time>
      </trkpt>
      <trkpt lat="43.39326" lon="6.68055">
        <ele>85</ele>
        <time>2013-10-13T09:09:11Z</time>
      </trkpt>
      <trkpt lat="43.39326" lon="6.68044">
        <ele>85</ele>
        <time>2013-10-13T09:09:14Z</time>
      </trkpt>
      <trkpt lat="43.39326" lon="6.68035">
        <ele>85</ele>
        <time>2013-10-13T09:09:17Z</time>
      </trkpt>
      <trkpt lat="43.39331" lon="6.68022">
        <ele>84.389999389648</ele>
        <time>2013-10-13T09:09:20Z</time>
      </trkpt>
      <trkpt lat="43.39335" lon="6.6801">
        <ele>84</ele>
        <time>2013-10-13T09:09:22Z</time>
      </trkpt>
      <trkpt lat="43.39335" lon="6.67997">
        <ele>84</ele>
        <time>2013-10-13T09:09:24Z</time>
      </trkpt>
      <trkpt lat="43.39334" lon="6.67983">
        <ele>84</ele>
        <time>2013-10-13T09:09:26Z</time>
      </trkpt>
      <trkpt lat="43.39331" lon="6.67972">
        <ele>84</ele>
        <time>2013-10-13T09:09:28Z</time>
      </trkpt>
      <trkpt lat="43.39328" lon="6.67964">
        <ele>81.607872009277</ele>
        <time>2013-10-13T09:09:30Z</time>
      </trkpt>
      <trkpt lat="43.39323" lon="6.67953">
        <ele>80</ele>
        <time>2013-10-13T09:09:32Z</time>
      </trkpt>
      <trkpt lat="43.39321" lon="6.67943">
        <ele>80</ele>
        <time>2013-10-13T09:09:34Z</time>
      </trkpt>
      <trkpt lat="43.39319" lon="6.67933">
        <ele>77</ele>
        <time>2013-10-13T09:09:36Z</time>
      </trkpt>
      <trkpt lat="43.39318" lon="6.67924">
        <ele>77</ele>
        <time>2013-10-13T09:09:38Z</time>
      </trkpt>
      <trkpt lat="43.39314" lon="6.67911">
        <ele>73</ele>
        <time>2013-10-13T09:09:41Z</time>
      </trkpt>
      <trkpt lat="43.39312" lon="6.67901">
        <ele>72.622451782227</ele>
        <time>2013-10-13T09:09:43Z</time>
      </trkpt>
      <trkpt lat="43.39309" lon="6.67894">
        <ele>71.48999786377</ele>
        <time>2013-10-13T09:09:45Z</time>
      </trkpt>
      <trkpt lat="43.39304" lon="6.67885">
        <ele>70</ele>
        <time>2013-10-13T09:09:49Z</time>
      </trkpt>
      <trkpt lat="43.39302" lon="6.67878">
        <ele>69</ele>
        <time>2013-10-13T09:09:52Z</time>
      </trkpt>
      <trkpt lat="43.39304" lon="6.67867">
        <ele>67</ele>
        <time>2013-10-13T09:09:56Z</time>
      </trkpt>
      <trkpt lat="43.3931" lon="6.6786">
        <ele>67</ele>
        <time>2013-10-13T09:09:58Z</time>
      </trkpt>
      <trkpt lat="43.39315" lon="6.67849">
        <ele>63</ele>
        <time>2013-10-13T09:10:02Z</time>
      </trkpt>
      <trkpt lat="43.3932" lon="6.67842">
        <ele>61</ele>
        <time>2013-10-13T09:10:07Z</time>
      </trkpt>
      <trkpt lat="43.3932" lon="6.67834">
        <ele>59</ele>
        <time>2013-10-13T09:10:11Z</time>
      </trkpt>
      <trkpt lat="43.39322" lon="6.67825">
        <ele>57.57999420166</ele>
        <time>2013-10-13T09:10:15Z</time>
      </trkpt>
      <trkpt lat="43.39317" lon="6.67818">
        <ele>57</ele>
        <time>2013-10-13T09:10:18Z</time>
      </trkpt>
      <trkpt lat="43.39314" lon="6.6781">
        <ele>55</ele>
        <time>2013-10-13T09:10:21Z</time>
      </trkpt>
      <trkpt lat="43.39313" lon="6.67802">
        <ele>53</ele>
        <time>2013-10-13T09:10:27Z</time>
      </trkpt>
      <trkpt lat="43.39314" lon="6.67792">
        <ele>51</ele>
        <time>2013-10-13T09:10:32Z</time>
      </trkpt>
      <trkpt lat="43.39318" lon="6.67785">
        <ele>50</ele>
        <time>2013-10-13T09:10:36Z</time>
      </trkpt>
      <trkpt lat="43.39324" lon="6.67781">
        <ele>48</ele>
        <time>2013-10-13T09:10:42Z</time>
      </trkpt>
      <trkpt lat="43.3933" lon="6.67776">
        <ele>47</ele>
        <time>2013-10-13T09:10:48Z</time>
      </trkpt>
      <trkpt lat="43.3933" lon="6.67767">
        <ele>47</ele>
        <time>2013-10-13T09:10:51Z</time>
      </trkpt>
      <trkpt lat="43.39333" lon="6.67758">
        <ele>47</ele>
        <time>2013-10-13T09:10:54Z</time>
      </trkpt>
      <trkpt lat="43.39334" lon="6.67749">
        <ele>47</ele>
        <time>2013-10-13T09:10:57Z</time>
      </trkpt>
      <trkpt lat="43.3933" lon="6.67743">
        <ele>45.81999206543</ele>
        <time>2013-10-13T09:11:00Z</time>
      </trkpt>
      <trkpt lat="43.39328" lon="6.67736">
        <ele>45</ele>
        <time>2013-10-13T09:11:05Z</time>
      </trkpt>
      <trkpt lat="43.39327" lon="6.67729">
        <ele>45</ele>
        <time>2013-10-13T09:11:08Z</time>
      </trkpt>
      <trkpt lat="43.39323" lon="6.67722">
        <ele>43</ele>
        <time>2013-10-13T09:11:11Z</time>
      </trkpt>
      <trkpt lat="43.39315" lon="6.67716">
        <ele>43</ele>
        <time>2013-10-13T09:11:14Z</time>
      </trkpt>
      <trkpt lat="43.39309" lon="6.67714">
        <ele>43</ele>
        <time>2013-10-13T09:11:16Z</time>
      </trkpt>
      <trkpt lat="43.39305" lon="6.6771">
        <ele>43</ele>
        <time>2013-10-13T09:11:18Z</time>
      </trkpt>
      <trkpt lat="43.39303" lon="6.67705">
        <ele>39.429977416992</ele>
        <time>2013-10-13T09:11:20Z</time>
      </trkpt>
      <trkpt lat="43.39298" lon="6.67702">
        <ele>33.48999786377</ele>
        <time>2013-10-13T09:11:23Z</time>
      </trkpt>
      <trkpt lat="43.39293" lon="6.67699">
        <ele>32.561218261719</ele>
        <time>2013-10-13T09:11:25Z</time>
      </trkpt>
      <trkpt lat="43.39288" lon="6.67696">
        <ele>30.489995956421</ele>
        <time>2013-10-13T09:11:27Z</time>
      </trkpt>
      <trkpt lat="43.39283" lon="6.67689">
        <ele>29.5</ele>
        <time>2013-10-13T09:11:29Z</time>
      </trkpt>
      <trkpt lat="43.39281" lon="6.67683">
        <ele>27.389989852905</ele>
        <time>2013-10-13T09:11:31Z</time>
      </trkpt>
      <trkpt lat="43.39278" lon="6.67676">
        <ele>26</ele>
        <time>2013-10-13T09:11:33Z</time>
      </trkpt>
      <trkpt lat="43.39272" lon="6.67667">
        <ele>23.389989852905</ele>
        <time>2013-10-13T09:11:35Z</time>
      </trkpt>
      <trkpt lat="43.39264" lon="6.67662">
        <ele>22</ele>
        <time>2013-10-13T09:11:37Z</time>
      </trkpt>
      <trkpt lat="43.39252" lon="6.67663">
        <ele>22</ele>
        <time>2013-10-13T09:11:40Z</time>
      </trkpt>
      <trkpt lat="43.39243" lon="6.67665">
        <ele>22</ele>
        <time>2013-10-13T09:11:43Z</time>
      </trkpt>
      <trkpt lat="43.39234" lon="6.67667">
        <ele>22</ele>
        <time>2013-10-13T09:11:45Z</time>
      </trkpt>
      <trkpt lat="43.39224" lon="6.67666">
        <ele>20.459182739258</ele>
        <time>2013-10-13T09:11:47Z</time>
      </trkpt>
      <trkpt lat="43.3922" lon="6.67659">
        <ele>20</ele>
        <time>2013-10-13T09:11:49Z</time>
      </trkpt>
      <trkpt lat="43.39224" lon="6.6765">
        <ele>21</ele>
        <time>2013-10-13T09:11:52Z</time>
      </trkpt>
      <trkpt lat="43.39219" lon="6.67641">
        <ele>21</ele>
        <time>2013-10-13T09:11:55Z</time>
      </trkpt>
      <trkpt lat="43.39219" lon="6.67626">
        <ele>21</ele>
        <time>2013-10-13T09:11:59Z</time>
      </trkpt>
      <trkpt lat="43.39231" lon="6.67626">
        <ele>18</ele>
        <time>2013-10-13T09:12:04Z</time>
      </trkpt>
      <trkpt lat="43.39242" lon="6.67624">
        <ele>18</ele>
        <time>2013-10-13T09:12:07Z</time>
      </trkpt>
      <trkpt lat="43.39253" lon="6.67625">
        <ele>18</ele>
        <time>2013-10-13T09:12:10Z</time>
      </trkpt>
      <trkpt lat="43.39264" lon="6.67624">
        <ele>18</ele>
        <time>2013-10-13T09:12:13Z</time>
      </trkpt>
      <trkpt lat="43.39277" lon="6.67619">
        <ele>18</ele>
        <time>2013-10-13T09:12:16Z</time>
      </trkpt>
      <trkpt lat="43.39287" lon="6.67615">
        <ele>18</ele>
        <time>2013-10-13T09:12:18Z</time>
      </trkpt>
      <trkpt lat="43.39301" lon="6.67615">
        <ele>19</ele>
        <time>2013-10-13T09:12:21Z</time>
      </trkpt>
      <trkpt lat="43.39314" lon="6.67614">
        <ele>19</ele>
        <time>2013-10-13T09:12:24Z</time>
      </trkpt>
      <trkpt lat="43.39323" lon="6.67613">
        <ele>19</ele>
        <time>2013-10-13T09:12:26Z</time>
      </trkpt>
      <trkpt lat="43.39335" lon="6.67614">
        <ele>19</ele>
        <time>2013-10-13T09:12:29Z</time>
      </trkpt>
      <trkpt lat="43.39343" lon="6.67608">
        <ele>18</ele>
        <time>2013-10-13T09:12:31Z</time>
      </trkpt>
      <trkpt lat="43.39354" lon="6.676">
        <ele>18</ele>
        <time>2013-10-13T09:12:33Z</time>
      </trkpt>
      <trkpt lat="43.39367" lon="6.67595">
        <ele>18</ele>
        <time>2013-10-13T09:12:35Z</time>
      </trkpt>
      <trkpt lat="43.39374" lon="6.67591">
        <ele>18</ele>
        <time>2013-10-13T09:12:36Z</time>
      </trkpt>
      <trkpt lat="43.39381" lon="6.67587">
        <ele>18</ele>
        <time>2013-10-13T09:12:37Z</time>
      </trkpt>
      <trkpt lat="43.39391" lon="6.6758">
        <ele>18</ele>
        <time>2013-10-13T09:12:39Z</time>
      </trkpt>
      <trkpt lat="43.394" lon="6.67572">
        <ele>19</ele>
        <time>2013-10-13T09:12:41Z</time>
      </trkpt>
      <trkpt lat="43.39413" lon="6.67575">
        <ele>19</ele>
        <time>2013-10-13T09:12:44Z</time>
      </trkpt>
      <trkpt lat="43.39426" lon="6.67581">
        <ele>19</ele>
        <time>2013-10-13T09:12:47Z</time>
      </trkpt>
      <trkpt lat="43.39437" lon="6.67582">
        <ele>19</ele>
        <time>2013-10-13T09:12:50Z</time>
      </trkpt>
      <trkpt lat="43.39452" lon="6.6758">
        <ele>19</ele>
        <time>2013-10-13T09:12:53Z</time>
      </trkpt>
      <trkpt lat="43.39466" lon="6.67575">
        <ele>19</ele>
        <time>2013-10-13T09:12:56Z</time>
      </trkpt>
      <trkpt lat="43.39474" lon="6.67567">
        <ele>19</ele>
        <time>2013-10-13T09:12:58Z</time>
      </trkpt>
      <trkpt lat="43.39482" lon="6.67558">
        <ele>18.489995956421</ele>
        <time>2013-10-13T09:13:00Z</time>
      </trkpt>
      <trkpt lat="43.39493" lon="6.67553">
        <ele>18</ele>
        <time>2013-10-13T09:13:02Z</time>
      </trkpt>
      <trkpt lat="43.39505" lon="6.67552">
        <ele>18</ele>
        <time>2013-10-13T09:13:04Z</time>
      </trkpt>
      <trkpt lat="43.39516" lon="6.67547">
        <ele>18</ele>
        <time>2013-10-13T09:13:08Z</time>
      </trkpt>
      <trkpt lat="43.39523" lon="6.67535">
        <ele>18</ele>
        <time>2013-10-13T09:13:10Z</time>
      </trkpt>
      <trkpt lat="43.39532" lon="6.67525">
        <ele>18</ele>
        <time>2013-10-13T09:13:12Z</time>
      </trkpt>
      <trkpt lat="43.39544" lon="6.67518">
        <ele>18</ele>
        <time>2013-10-13T09:13:14Z</time>
      </trkpt>
      <trkpt lat="43.39556" lon="6.67511">
        <ele>18</ele>
        <time>2013-10-13T09:13:16Z</time>
      </trkpt>
      <trkpt lat="43.39568" lon="6.67503">
        <ele>18</ele>
        <time>2013-10-13T09:13:18Z</time>
      </trkpt>
      <trkpt lat="43.3958" lon="6.67498">
        <ele>17.390003204346</ele>
        <time>2013-10-13T09:13:20Z</time>
      </trkpt>
      <trkpt lat="43.39593" lon="6.67494">
        <ele>17</ele>
        <time>2013-10-13T09:13:22Z</time>
      </trkpt>
      <trkpt lat="43.39606" lon="6.67489">
        <ele>17</ele>
        <time>2013-10-13T09:13:24Z</time>
      </trkpt>
      <trkpt lat="43.39618" lon="6.67485">
        <ele>17</ele>
        <time>2013-10-13T09:13:26Z</time>
      </trkpt>
      <trkpt lat="43.39631" lon="6.67481">
        <ele>17</ele>
        <time>2013-10-13T09:13:28Z</time>
      </trkpt>
      <trkpt lat="43.39638" lon="6.6748">
        <ele>17</ele>
        <time>2013-10-13T09:13:29Z</time>
      </trkpt>
      <trkpt lat="43.39652" lon="6.67477">
        <ele>18</ele>
        <time>2013-10-13T09:13:31Z</time>
      </trkpt>
      <trkpt lat="43.39659" lon="6.67476">
        <ele>18</ele>
        <time>2013-10-13T09:13:32Z</time>
      </trkpt>
      <trkpt lat="43.39666" lon="6.67475">
        <ele>18</ele>
        <time>2013-10-13T09:13:33Z</time>
      </trkpt>
      <trkpt lat="43.39672" lon="6.67474">
        <ele>18</ele>
        <time>2013-10-13T09:13:34Z</time>
      </trkpt>
      <trkpt lat="43.39677" lon="6.67473">
        <ele>18</ele>
        <time>2013-10-13T09:13:35Z</time>
      </trkpt>
      <trkpt lat="43.39684" lon="6.67473">
        <ele>18</ele>
        <time>2013-10-13T09:13:36Z</time>
      </trkpt>
      <trkpt lat="43.3969" lon="6.67474">
        <ele>18</ele>
        <time>2013-10-13T09:13:37Z</time>
      </trkpt>
      <trkpt lat="43.39703" lon="6.67475">
        <ele>18</ele>
        <time>2013-10-13T09:13:39Z</time>
      </trkpt>
      <trkpt lat="43.39713" lon="6.67483">
        <ele>17</ele>
        <time>2013-10-13T09:13:41Z</time>
      </trkpt>
      <trkpt lat="43.39721" lon="6.67493">
        <ele>17</ele>
        <time>2013-10-13T09:13:43Z</time>
      </trkpt>
      <trkpt lat="43.3973" lon="6.6749">
        <ele>17</ele>
        <time>2013-10-13T09:13:48Z</time>
      </trkpt>
      <trkpt lat="43.39733" lon="6.67471">
        <ele>15</ele>
        <time>2013-10-13T09:13:51Z</time>
      </trkpt>
      <trkpt lat="43.39734" lon="6.67455">
        <ele>15</ele>
        <time>2013-10-13T09:13:53Z</time>
      </trkpt>
      <trkpt lat="43.39734" lon="6.67443">
        <ele>15</ele>
        <time>2013-10-13T09:13:55Z</time>
      </trkpt>
      <trkpt lat="43.39736" lon="6.6743">
        <ele>15</ele>
        <time>2013-10-13T09:13:57Z</time>
      </trkpt>
      <trkpt lat="43.39738" lon="6.67415">
        <ele>15</ele>
        <time>2013-10-13T09:13:59Z</time>
      </trkpt>
      <trkpt lat="43.39741" lon="6.67399">
        <ele>17</ele>
        <time>2013-10-13T09:14:01Z</time>
      </trkpt>
      <trkpt lat="43.39742" lon="6.67391">
        <ele>17</ele>
        <time>2013-10-13T09:14:02Z</time>
      </trkpt>
      <trkpt lat="43.39745" lon="6.67374">
        <ele>17</ele>
        <time>2013-10-13T09:14:04Z</time>
      </trkpt>
      <trkpt lat="43.39746" lon="6.67366">
        <ele>17</ele>
        <time>2013-10-13T09:14:05Z</time>
      </trkpt>
      <trkpt lat="43.39747" lon="6.67358">
        <ele>17</ele>
        <time>2013-10-13T09:14:06Z</time>
      </trkpt>
      <trkpt lat="43.39747" lon="6.67349">
        <ele>17</ele>
        <time>2013-10-13T09:14:07Z</time>
      </trkpt>
      <trkpt lat="43.39747" lon="6.67341">
        <ele>17</ele>
        <time>2013-10-13T09:14:08Z</time>
      </trkpt>
      <trkpt lat="43.39747" lon="6.67332">
        <ele>17</ele>
        <time>2013-10-13T09:14:09Z</time>
      </trkpt>
      <trkpt lat="43.39747" lon="6.67324">
        <ele>17</ele>
        <time>2013-10-13T09:14:10Z</time>
      </trkpt>
      <trkpt lat="43.39746" lon="6.67316">
        <ele>17</ele>
        <time>2013-10-13T09:14:11Z</time>
      </trkpt>
      <trkpt lat="43.39745" lon="6.67308">
        <ele>17</ele>
        <time>2013-10-13T09:14:12Z</time>
      </trkpt>
      <trkpt lat="43.39741" lon="6.67293">
        <ele>17</ele>
        <time>2013-10-13T09:14:14Z</time>
      </trkpt>
      <trkpt lat="43.39737" lon="6.67279">
        <ele>17</ele>
        <time>2013-10-13T09:14:16Z</time>
      </trkpt>
      <trkpt lat="43.39732" lon="6.67267">
        <ele>17</ele>
        <time>2013-10-13T09:14:18Z</time>
      </trkpt>
      <trkpt lat="43.39726" lon="6.67256">
        <ele>17.438768386841</ele>
        <time>2013-10-13T09:14:20Z</time>
      </trkpt>
      <trkpt lat="43.39718" lon="6.67246">
        <ele>18</ele>
        <time>2013-10-13T09:14:22Z</time>
      </trkpt>
      <trkpt lat="43.3971" lon="6.6724">
        <ele>18</ele>
        <time>2013-10-13T09:14:24Z</time>
      </trkpt>
      <trkpt lat="43.39703" lon="6.67237">
        <ele>18</ele>
        <time>2013-10-13T09:14:27Z</time>
      </trkpt>
      <trkpt lat="43.39696" lon="6.67232">
        <ele>18</ele>
        <time>2013-10-13T09:14:33Z</time>
      </trkpt>
      <trkpt lat="43.3969" lon="6.67226">
        <ele>18</ele>
        <time>2013-10-13T09:14:37Z</time>
      </trkpt>
      <trkpt lat="43.39685" lon="6.6722">
        <ele>18</ele>
        <time>2013-10-13T09:14:42Z</time>
      </trkpt>
      <trkpt lat="43.39685" lon="6.6722">
        <ele>18</ele>
        <time>2013-10-13T09:14:43Z</time>
      </trkpt>
      <trkpt lat="43.39684" lon="6.67217">
        <ele>18</ele>
        <time>2013-10-13T09:15:46Z</time>
      </trkpt>
      <trkpt lat="43.39681" lon="6.67216">
        <ele>18</ele>
        <time>2013-10-13T09:15:53Z</time>
      </trkpt>
      <trkpt lat="43.39681" lon="6.67215">
        <ele>18</ele>
        <time>2013-10-13T09:15:57Z</time>
      </trkpt>
      <trkpt lat="43.39681" lon="6.67214">
        <ele>18</ele>
        <time>2013-10-13T09:15:59Z</time>
      </trkpt>
      <trkpt lat="43.3968" lon="6.67213">
        <ele>18</ele>
        <time>2013-10-13T09:16:01Z</time>
      </trkpt>
      <trkpt lat="43.39675" lon="6.67206">
        <ele>18</ele>
        <time>2013-10-13T09:16:04Z</time>
      </trkpt>
      <trkpt lat="43.39668" lon="6.67202">
        <ele>18</ele>
        <time>2013-10-13T09:16:06Z</time>
      </trkpt>
      <trkpt lat="43.39659" lon="6.672">
        <ele>18</ele>
        <time>2013-10-13T09:16:08Z</time>
      </trkpt>
      <trkpt lat="43.39648" lon="6.67199">
        <ele>18</ele>
        <time>2013-10-13T09:16:10Z</time>
      </trkpt>
      <trkpt lat="43.39637" lon="6.67201">
        <ele>18</ele>
        <time>2013-10-13T09:16:12Z</time>
      </trkpt>
      <trkpt lat="43.39628" lon="6.67205">
        <ele>18</ele>
        <time>2013-10-13T09:16:14Z</time>
      </trkpt>
      <trkpt lat="43.39618" lon="6.67209">
        <ele>18</ele>
        <time>2013-10-13T09:16:16Z</time>
      </trkpt>
      <trkpt lat="43.39609" lon="6.67214">
        <ele>18</ele>
        <time>2013-10-13T09:16:18Z</time>
      </trkpt>
      <trkpt lat="43.396" lon="6.67219">
        <ele>17.630002975464</ele>
        <time>2013-10-13T09:16:20Z</time>
      </trkpt>
      <trkpt lat="43.39591" lon="6.67224">
        <ele>17</ele>
        <time>2013-10-13T09:16:22Z</time>
      </trkpt>
      <trkpt lat="43.39581" lon="6.67227">
        <ele>17</ele>
        <time>2013-10-13T09:16:24Z</time>
      </trkpt>
      <trkpt lat="43.39572" lon="6.67224">
        <ele>17</ele>
        <time>2013-10-13T09:16:26Z</time>
      </trkpt>
      <trkpt lat="43.39563" lon="6.67215">
        <ele>17</ele>
        <time>2013-10-13T09:16:28Z</time>
      </trkpt>
      <trkpt lat="43.39557" lon="6.67203">
        <ele>17</ele>
        <time>2013-10-13T09:16:30Z</time>
      </trkpt>
      <trkpt lat="43.3955" lon="6.67191">
        <ele>17</ele>
        <time>2013-10-13T09:16:32Z</time>
      </trkpt>
      <trkpt lat="43.39543" lon="6.67178">
        <ele>17</ele>
        <time>2013-10-13T09:16:34Z</time>
      </trkpt>
      <trkpt lat="43.39536" lon="6.67165">
        <ele>17</ele>
        <time>2013-10-13T09:16:36Z</time>
      </trkpt>
      <trkpt lat="43.39528" lon="6.67155">
        <ele>17</ele>
        <time>2013-10-13T09:16:38Z</time>
      </trkpt>
      <trkpt lat="43.39518" lon="6.67147">
        <ele>17</ele>
        <time>2013-10-13T09:16:40Z</time>
      </trkpt>
      <trkpt lat="43.39507" lon="6.67141">
        <ele>17</ele>
        <time>2013-10-13T09:16:42Z</time>
      </trkpt>
      <trkpt lat="43.39502" lon="6.67138">
        <ele>17</ele>
        <time>2013-10-13T09:16:43Z</time>
      </trkpt>
      <trkpt lat="43.39496" lon="6.67127">
        <ele>17</ele>
        <time>2013-10-13T09:16:45Z</time>
      </trkpt>
      <trkpt lat="43.39491" lon="6.67113">
        <ele>17</ele>
        <time>2013-10-13T09:16:47Z</time>
      </trkpt>
      <trkpt lat="43.39484" lon="6.67104">
        <ele>17</ele>
        <time>2013-10-13T09:16:49Z</time>
      </trkpt>
      <trkpt lat="43.39475" lon="6.67099">
        <ele>18</ele>
        <time>2013-10-13T09:16:51Z</time>
      </trkpt>
      <trkpt lat="43.39464" lon="6.67094">
        <ele>18</ele>
        <time>2013-10-13T09:16:53Z</time>
      </trkpt>
      <trkpt lat="43.39454" lon="6.67085">
        <ele>18</ele>
        <time>2013-10-13T09:16:55Z</time>
      </trkpt>
      <trkpt lat="43.39445" lon="6.67073">
        <ele>18</ele>
        <time>2013-10-13T09:16:57Z</time>
      </trkpt>
      <trkpt lat="43.39439" lon="6.6706">
        <ele>18</ele>
        <time>2013-10-13T09:16:59Z</time>
      </trkpt>
      <trkpt lat="43.39434" lon="6.67046">
        <ele>19</ele>
        <time>2013-10-13T09:17:01Z</time>
      </trkpt>
      <trkpt lat="43.39426" lon="6.67034">
        <ele>19</ele>
        <time>2013-10-13T09:17:03Z</time>
      </trkpt>
      <trkpt lat="43.39417" lon="6.67023">
        <ele>19</ele>
        <time>2013-10-13T09:17:05Z</time>
      </trkpt>
      <trkpt lat="43.39411" lon="6.6701">
        <ele>19</ele>
        <time>2013-10-13T09:17:07Z</time>
      </trkpt>
      <trkpt lat="43.39405" lon="6.66996">
        <ele>19</ele>
        <time>2013-10-13T09:17:09Z</time>
      </trkpt>
      <trkpt lat="43.39399" lon="6.66983">
        <ele>20</ele>
        <time>2013-10-13T09:17:11Z</time>
      </trkpt>
      <trkpt lat="43.39393" lon="6.66972">
        <ele>20</ele>
        <time>2013-10-13T09:17:13Z</time>
      </trkpt>
      <trkpt lat="43.39385" lon="6.66963">
        <ele>20</ele>
        <time>2013-10-13T09:17:15Z</time>
      </trkpt>
      <trkpt lat="43.39377" lon="6.66956">
        <ele>20</ele>
        <time>2013-10-13T09:17:17Z</time>
      </trkpt>
      <trkpt lat="43.39368" lon="6.66948">
        <ele>20</ele>
        <time>2013-10-13T09:17:19Z</time>
      </trkpt>
      <trkpt lat="43.39358" lon="6.6694">
        <ele>20</ele>
        <time>2013-10-13T09:17:21Z</time>
      </trkpt>
      <trkpt lat="43.39346" lon="6.66932">
        <ele>20</ele>
        <time>2013-10-13T09:17:23Z</time>
      </trkpt>
      <trkpt lat="43.39335" lon="6.66924">
        <ele>20</ele>
        <time>2013-10-13T09:17:25Z</time>
      </trkpt>
      <trkpt lat="43.39323" lon="6.66917">
        <ele>20</ele>
        <time>2013-10-13T09:17:27Z</time>
      </trkpt>
      <trkpt lat="43.39318" lon="6.66912">
        <ele>20</ele>
        <time>2013-10-13T09:17:28Z</time>
      </trkpt>
      <trkpt lat="43.39312" lon="6.66908">
        <ele>20</ele>
        <time>2013-10-13T09:17:29Z</time>
      </trkpt>
      <trkpt lat="43.39307" lon="6.66903">
        <ele>20.510004043579</ele>
        <time>2013-10-13T09:17:30Z</time>
      </trkpt>
      <trkpt lat="43.39302" lon="6.66898">
        <ele>21</ele>
        <time>2013-10-13T09:17:31Z</time>
      </trkpt>
      <trkpt lat="43.39297" lon="6.66892">
        <ele>21</ele>
        <time>2013-10-13T09:17:32Z</time>
      </trkpt>
      <trkpt lat="43.39292" lon="6.66887">
        <ele>21</ele>
        <time>2013-10-13T09:17:33Z</time>
      </trkpt>
      <trkpt lat="43.39287" lon="6.66882">
        <ele>21</ele>
        <time>2013-10-13T09:17:34Z</time>
      </trkpt>
      <trkpt lat="43.39282" lon="6.66876">
        <ele>21</ele>
        <time>2013-10-13T09:17:35Z</time>
      </trkpt>
      <trkpt lat="43.39278" lon="6.66869">
        <ele>21</ele>
        <time>2013-10-13T09:17:36Z</time>
      </trkpt>
      <trkpt lat="43.39275" lon="6.66862">
        <ele>21</ele>
        <time>2013-10-13T09:17:37Z</time>
      </trkpt>
      <trkpt lat="43.39273" lon="6.66854">
        <ele>21</ele>
        <time>2013-10-13T09:17:38Z</time>
      </trkpt>
      <trkpt lat="43.39271" lon="6.66846">
        <ele>21</ele>
        <time>2013-10-13T09:17:39Z</time>
      </trkpt>
      <trkpt lat="43.39271" lon="6.66837">
        <ele>21</ele>
        <time>2013-10-13T09:17:40Z</time>
      </trkpt>
      <trkpt lat="43.3927" lon="6.66829">
        <ele>21</ele>
        <time>2013-10-13T09:17:41Z</time>
      </trkpt>
      <trkpt lat="43.39271" lon="6.66813">
        <ele>21</ele>
        <time>2013-10-13T09:17:43Z</time>
      </trkpt>
      <trkpt lat="43.39275" lon="6.66799">
        <ele>21</ele>
        <time>2013-10-13T09:17:45Z</time>
      </trkpt>
      <trkpt lat="43.39281" lon="6.66786">
        <ele>21</ele>
        <time>2013-10-13T09:17:47Z</time>
      </trkpt>
      <trkpt lat="43.39287" lon="6.66774">
        <ele>21</ele>
        <time>2013-10-13T09:17:49Z</time>
      </trkpt>
      <trkpt lat="43.39291" lon="6.66763">
        <ele>22</ele>
        <time>2013-10-13T09:17:51Z</time>
      </trkpt>
      <trkpt lat="43.39294" lon="6.66753">
        <ele>22</ele>
        <time>2013-10-13T09:17:53Z</time>
      </trkpt>
      <trkpt lat="43.39297" lon="6.66744">
        <ele>22</ele>
        <time>2013-10-13T09:17:55Z</time>
      </trkpt>
      <trkpt lat="43.39301" lon="6.66732">
        <ele>22</ele>
        <time>2013-10-13T09:17:58Z</time>
      </trkpt>
      <trkpt lat="43.39303" lon="6.66723">
        <ele>24.13000869751</ele>
        <time>2013-10-13T09:18:00Z</time>
      </trkpt>
      <trkpt lat="43.39305" lon="6.66715">
        <ele>25</ele>
        <time>2013-10-13T09:18:02Z</time>
      </trkpt>
      <trkpt lat="43.39306" lon="6.66707">
        <ele>25</ele>
        <time>2013-10-13T09:18:04Z</time>
      </trkpt>
      <trkpt lat="43.39307" lon="6.66699">
        <ele>26</ele>
        <time>2013-10-13T09:18:06Z</time>
      </trkpt>
      <trkpt lat="43.39309" lon="6.6669">
        <ele>26</ele>
        <time>2013-10-13T09:18:08Z</time>
      </trkpt>
      <trkpt lat="43.3931" lon="6.66681">
        <ele>27.219993591309</ele>
        <time>2013-10-13T09:18:10Z</time>
      </trkpt>
      <trkpt lat="43.39312" lon="6.66673">
        <ele>28</ele>
        <time>2013-10-13T09:18:12Z</time>
      </trkpt>
      <trkpt lat="43.39314" lon="6.66665">
        <ele>27</ele>
        <time>2013-10-13T09:18:14Z</time>
      </trkpt>
      <trkpt lat="43.39315" lon="6.66658">
        <ele>29</ele>
        <time>2013-10-13T09:18:16Z</time>
      </trkpt>
      <trkpt lat="43.39317" lon="6.6665">
        <ele>29</ele>
        <time>2013-10-13T09:18:18Z</time>
      </trkpt>
      <trkpt lat="43.39318" lon="6.66644">
        <ele>29</ele>
        <time>2013-10-13T09:18:20Z</time>
      </trkpt>
      <trkpt lat="43.39319" lon="6.66637">
        <ele>29</ele>
        <time>2013-10-13T09:18:22Z</time>
      </trkpt>
      <trkpt lat="43.3932" lon="6.66629">
        <ele>29</ele>
        <time>2013-10-13T09:18:24Z</time>
      </trkpt>
      <trkpt lat="43.39323" lon="6.66621">
        <ele>29</ele>
        <time>2013-10-13T09:18:26Z</time>
      </trkpt>
      <trkpt lat="43.39326" lon="6.66613">
        <ele>29</ele>
        <time>2013-10-13T09:18:28Z</time>
      </trkpt>
      <trkpt lat="43.39329" lon="6.66605">
        <ele>30.219993591309</ele>
        <time>2013-10-13T09:18:30Z</time>
      </trkpt>
      <trkpt lat="43.39331" lon="6.66601">
        <ele>31</ele>
        <time>2013-10-13T09:18:31Z</time>
      </trkpt>
      <trkpt lat="43.39333" lon="6.66597">
        <ele>31</ele>
        <time>2013-10-13T09:18:32Z</time>
      </trkpt>
      <trkpt lat="43.39336" lon="6.66588">
        <ele>31</ele>
        <time>2013-10-13T09:18:34Z</time>
      </trkpt>
      <trkpt lat="43.39338" lon="6.66578">
        <ele>31</ele>
        <time>2013-10-13T09:18:36Z</time>
      </trkpt>
      <trkpt lat="43.3934" lon="6.66569">
        <ele>31</ele>
        <time>2013-10-13T09:18:38Z</time>
      </trkpt>
      <trkpt lat="43.3934" lon="6.66562">
        <ele>32.219993591309</ele>
        <time>2013-10-13T09:18:40Z</time>
      </trkpt>
      <trkpt lat="43.3934" lon="6.66554">
        <ele>33</ele>
        <time>2013-10-13T09:18:42Z</time>
      </trkpt>
      <trkpt lat="43.39341" lon="6.66542">
        <ele>33</ele>
        <time>2013-10-13T09:18:45Z</time>
      </trkpt>
      <trkpt lat="43.39341" lon="6.66535">
        <ele>33</ele>
        <time>2013-10-13T09:18:47Z</time>
      </trkpt>
      <trkpt lat="43.39343" lon="6.66524">
        <ele>33.609996795654</ele>
        <time>2013-10-13T09:18:50Z</time>
      </trkpt>
      <trkpt lat="43.39346" lon="6.66517">
        <ele>34</ele>
        <time>2013-10-13T09:18:52Z</time>
      </trkpt>
      <trkpt lat="43.3935" lon="6.66512">
        <ele>34</ele>
        <time>2013-10-13T09:18:54Z</time>
      </trkpt>
      <trkpt lat="43.39354" lon="6.66507">
        <ele>34</ele>
        <time>2013-10-13T09:18:56Z</time>
      </trkpt>
      <trkpt lat="43.39359" lon="6.66503">
        <ele>34</ele>
        <time>2013-10-13T09:18:58Z</time>
      </trkpt>
      <trkpt lat="43.39364" lon="6.66499">
        <ele>35.829990386963</ele>
        <time>2013-10-13T09:19:00Z</time>
      </trkpt>
      <trkpt lat="43.39368" lon="6.66496">
        <ele>37</ele>
        <time>2013-10-13T09:19:02Z</time>
      </trkpt>
      <trkpt lat="43.39373" lon="6.66493">
        <ele>37</ele>
        <time>2013-10-13T09:19:04Z</time>
      </trkpt>
      <trkpt lat="43.39379" lon="6.66491">
        <ele>38</ele>
        <time>2013-10-13T09:19:06Z</time>
      </trkpt>
      <trkpt lat="43.39384" lon="6.66488">
        <ele>38</ele>
        <time>2013-10-13T09:19:08Z</time>
      </trkpt>
      <trkpt lat="43.39389" lon="6.66486">
        <ele>38</ele>
        <time>2013-10-13T09:19:10Z</time>
      </trkpt>
      <trkpt lat="43.39394" lon="6.66484">
        <ele>38</ele>
        <time>2013-10-13T09:19:12Z</time>
      </trkpt>
      <trkpt lat="43.39399" lon="6.66482">
        <ele>38</ele>
        <time>2013-10-13T09:19:14Z</time>
      </trkpt>
      <trkpt lat="43.39405" lon="6.6648">
        <ele>38</ele>
        <time>2013-10-13T09:19:16Z</time>
      </trkpt>
      <trkpt lat="43.3941" lon="6.66478">
        <ele>38</ele>
        <time>2013-10-13T09:19:18Z</time>
      </trkpt>
      <trkpt lat="43.39416" lon="6.66476">
        <ele>38.51000213623</ele>
        <time>2013-10-13T09:19:20Z</time>
      </trkpt>
      <trkpt lat="43.39421" lon="6.66474">
        <ele>39</ele>
        <time>2013-10-13T09:19:22Z</time>
      </trkpt>
      <trkpt lat="43.39426" lon="6.66472">
        <ele>39</ele>
        <time>2013-10-13T09:19:24Z</time>
      </trkpt>
      <trkpt lat="43.39431" lon="6.66469">
        <ele>39</ele>
        <time>2013-10-13T09:19:26Z</time>
      </trkpt>
      <trkpt lat="43.39436" lon="6.66467">
        <ele>39</ele>
        <time>2013-10-13T09:19:28Z</time>
      </trkpt>
      <trkpt lat="43.3944" lon="6.66465">
        <ele>40.020008087158</ele>
        <time>2013-10-13T09:19:30Z</time>
      </trkpt>
      <trkpt lat="43.39445" lon="6.66462">
        <ele>41</ele>
        <time>2013-10-13T09:19:32Z</time>
      </trkpt>
      <trkpt lat="43.3945" lon="6.6646">
        <ele>41</ele>
        <time>2013-10-13T09:19:34Z</time>
      </trkpt>
      <trkpt lat="43.39455" lon="6.66458">
        <ele>41</ele>
        <time>2013-10-13T09:19:36Z</time>
      </trkpt>
      <trkpt lat="43.3946" lon="6.66457">
        <ele>41</ele>
        <time>2013-10-13T09:19:38Z</time>
      </trkpt>
      <trkpt lat="43.39465" lon="6.66456">
        <ele>42.020008087158</ele>
        <time>2013-10-13T09:19:40Z</time>
      </trkpt>
      <trkpt lat="43.39469" lon="6.66454">
        <ele>43</ele>
        <time>2013-10-13T09:19:42Z</time>
      </trkpt>
      <trkpt lat="43.39473" lon="6.66452">
        <ele>43</ele>
        <time>2013-10-13T09:19:44Z</time>
      </trkpt>
      <trkpt lat="43.39478" lon="6.6645">
        <ele>43</ele>
        <time>2013-10-13T09:19:46Z</time>
      </trkpt>
      <trkpt lat="43.39482" lon="6.66449">
        <ele>43</ele>
        <time>2013-10-13T09:19:48Z</time>
      </trkpt>
      <trkpt lat="43.39486" lon="6.66448">
        <ele>44.829990386963</ele>
        <time>2013-10-13T09:19:50Z</time>
      </trkpt>
      <trkpt lat="43.3949" lon="6.66446">
        <ele>46</ele>
        <time>2013-10-13T09:19:52Z</time>
      </trkpt>
      <trkpt lat="43.39495" lon="6.66445">
        <ele>46</ele>
        <time>2013-10-13T09:19:54Z</time>
      </trkpt>
      <trkpt lat="43.395" lon="6.66443">
        <ele>46</ele>
        <time>2013-10-13T09:19:56Z</time>
      </trkpt>
      <trkpt lat="43.39504" lon="6.66442">
        <ele>46</ele>
        <time>2013-10-13T09:19:58Z</time>
      </trkpt>
      <trkpt lat="43.39509" lon="6.66441">
        <ele>47.196063995361</ele>
        <time>2013-10-13T09:20:00Z</time>
      </trkpt>
      <trkpt lat="43.39515" lon="6.66439">
        <ele>48</ele>
        <time>2013-10-13T09:20:02Z</time>
      </trkpt>
      <trkpt lat="43.3952" lon="6.66437">
        <ele>48</ele>
        <time>2013-10-13T09:20:04Z</time>
      </trkpt>
      <trkpt lat="43.39526" lon="6.66436">
        <ele>48</ele>
        <time>2013-10-13T09:20:06Z</time>
      </trkpt>
      <trkpt lat="43.39531" lon="6.66435">
        <ele>48</ele>
        <time>2013-10-13T09:20:08Z</time>
      </trkpt>
      <trkpt lat="43.39536" lon="6.66434">
        <ele>49.42000579834</ele>
        <time>2013-10-13T09:20:10Z</time>
      </trkpt>
      <trkpt lat="43.39542" lon="6.66434">
        <ele>50</ele>
        <time>2013-10-13T09:20:12Z</time>
      </trkpt>
      <trkpt lat="43.39549" lon="6.66434">
        <ele>50</ele>
        <time>2013-10-13T09:20:14Z</time>
      </trkpt>
      <trkpt lat="43.39555" lon="6.66434">
        <ele>50</ele>
        <time>2013-10-13T09:20:16Z</time>
      </trkpt>
      <trkpt lat="43.39561" lon="6.66435">
        <ele>50</ele>
        <time>2013-10-13T09:20:18Z</time>
      </trkpt>
      <trkpt lat="43.39566" lon="6.66437">
        <ele>51.829990386963</ele>
        <time>2013-10-13T09:20:20Z</time>
      </trkpt>
      <trkpt lat="43.39573" lon="6.66438">
        <ele>53</ele>
        <time>2013-10-13T09:20:22Z</time>
      </trkpt>
      <trkpt lat="43.39579" lon="6.6644">
        <ele>53</ele>
        <time>2013-10-13T09:20:24Z</time>
      </trkpt>
      <trkpt lat="43.39587" lon="6.66442">
        <ele>54</ele>
        <time>2013-10-13T09:20:26Z</time>
      </trkpt>
      <trkpt lat="43.39595" lon="6.66443">
        <ele>54</ele>
        <time>2013-10-13T09:20:28Z</time>
      </trkpt>
      <trkpt lat="43.39602" lon="6.66443">
        <ele>54</ele>
        <time>2013-10-13T09:20:30Z</time>
      </trkpt>
      <trkpt lat="43.39608" lon="6.66443">
        <ele>54</ele>
        <time>2013-10-13T09:20:32Z</time>
      </trkpt>
      <trkpt lat="43.39617" lon="6.6644">
        <ele>54</ele>
        <time>2013-10-13T09:20:35Z</time>
      </trkpt>
      <trkpt lat="43.39626" lon="6.66436">
        <ele>54</ele>
        <time>2013-10-13T09:20:38Z</time>
      </trkpt>
      <trkpt lat="43.39632" lon="6.66435">
        <ele>54.609996795654</ele>
        <time>2013-10-13T09:20:40Z</time>
      </trkpt>
      <trkpt lat="43.39638" lon="6.66434">
        <ele>55</ele>
        <time>2013-10-13T09:20:42Z</time>
      </trkpt>
      <trkpt lat="43.39643" lon="6.66431">
        <ele>55</ele>
        <time>2013-10-13T09:20:44Z</time>
      </trkpt>
      <trkpt lat="43.39648" lon="6.66427">
        <ele>55</ele>
        <time>2013-10-13T09:20:46Z</time>
      </trkpt>
      <trkpt lat="43.39654" lon="6.66423">
        <ele>55</ele>
        <time>2013-10-13T09:20:49Z</time>
      </trkpt>
      <trkpt lat="43.3966" lon="6.6642">
        <ele>57</ele>
        <time>2013-10-13T09:20:52Z</time>
      </trkpt>
      <trkpt lat="43.39666" lon="6.66418">
        <ele>57</ele>
        <time>2013-10-13T09:20:55Z</time>
      </trkpt>
      <trkpt lat="43.39672" lon="6.66419">
        <ele>57</ele>
        <time>2013-10-13T09:20:58Z</time>
      </trkpt>
      <trkpt lat="43.3968" lon="6.66425">
        <ele>60</ele>
        <time>2013-10-13T09:21:02Z</time>
      </trkpt>
      <trkpt lat="43.39684" lon="6.66433">
        <ele>61.220020294189</ele>
        <time>2013-10-13T09:21:05Z</time>
      </trkpt>
      <trkpt lat="43.39691" lon="6.66443">
        <ele>62</ele>
        <time>2013-10-13T09:21:09Z</time>
      </trkpt>
      <trkpt lat="43.397" lon="6.66447">
        <ele>62</ele>
        <time>2013-10-13T09:21:13Z</time>
      </trkpt>
      <trkpt lat="43.39701" lon="6.66434">
        <ele>62</ele>
        <time>2013-10-13T09:21:17Z</time>
      </trkpt>
      <trkpt lat="43.397" lon="6.66423">
        <ele>62.51000213623</ele>
        <time>2013-10-13T09:21:20Z</time>
      </trkpt>
      <trkpt lat="43.39699" lon="6.66415">
        <ele>63</ele>
        <time>2013-10-13T09:21:22Z</time>
      </trkpt>
      <trkpt lat="43.397" lon="6.66408">
        <ele>63</ele>
        <time>2013-10-13T09:21:24Z</time>
      </trkpt>
      <trkpt lat="43.39702" lon="6.66397">
        <ele>63</ele>
        <time>2013-10-13T09:21:27Z</time>
      </trkpt>
      <trkpt lat="43.39708" lon="6.66391">
        <ele>64.219993591309</ele>
        <time>2013-10-13T09:21:30Z</time>
      </trkpt>
      <trkpt lat="43.39712" lon="6.66389">
        <ele>65</ele>
        <time>2013-10-13T09:21:32Z</time>
      </trkpt>
      <trkpt lat="43.39717" lon="6.66388">
        <ele>65</ele>
        <time>2013-10-13T09:21:34Z</time>
      </trkpt>
      <trkpt lat="43.39726" lon="6.6639">
        <ele>65</ele>
        <time>2013-10-13T09:21:38Z</time>
      </trkpt>
      <trkpt lat="43.39733" lon="6.66394">
        <ele>67</ele>
        <time>2013-10-13T09:21:41Z</time>
      </trkpt>
      <trkpt lat="43.39738" lon="6.66398">
        <ele>67</ele>
        <time>2013-10-13T09:21:44Z</time>
      </trkpt>
      <trkpt lat="43.39744" lon="6.66401">
        <ele>67</ele>
        <time>2013-10-13T09:21:47Z</time>
      </trkpt>
      <trkpt lat="43.39753" lon="6.66405">
        <ele>70</ele>
        <time>2013-10-13T09:21:51Z</time>
      </trkpt>
      <trkpt lat="43.39761" lon="6.66409">
        <ele>71.220016479492</ele>
        <time>2013-10-13T09:21:55Z</time>
      </trkpt>
      <trkpt lat="43.39766" lon="6.66411">
        <ele>72</ele>
        <time>2013-10-13T09:21:58Z</time>
      </trkpt>
      <trkpt lat="43.39773" lon="6.6641">
        <ele>72</ele>
        <time>2013-10-13T09:22:02Z</time>
      </trkpt>
      <trkpt lat="43.39778" lon="6.66405">
        <ele>72</ele>
        <time>2013-10-13T09:22:05Z</time>
      </trkpt>
      <trkpt lat="43.39784" lon="6.66397">
        <ele>72</ele>
        <time>2013-10-13T09:22:09Z</time>
      </trkpt>
      <trkpt lat="43.3979" lon="6.66389">
        <ele>74</ele>
        <time>2013-10-13T09:22:13Z</time>
      </trkpt>
      <trkpt lat="43.39793" lon="6.6638">
        <ele>74</ele>
        <time>2013-10-13T09:22:17Z</time>
      </trkpt>
      <trkpt lat="43.39795" lon="6.6637">
        <ele>75.020004272461</ele>
        <time>2013-10-13T09:22:20Z</time>
      </trkpt>
      <trkpt lat="43.39797" lon="6.66359">
        <ele>77</ele>
        <time>2013-10-13T09:22:23Z</time>
      </trkpt>
      <trkpt lat="43.39799" lon="6.66349">
        <ele>77</ele>
        <time>2013-10-13T09:22:26Z</time>
      </trkpt>
      <trkpt lat="43.39799" lon="6.66337">
        <ele>77</ele>
        <time>2013-10-13T09:22:29Z</time>
      </trkpt>
      <trkpt lat="43.39798" lon="6.66328">
        <ele>77</ele>
        <time>2013-10-13T09:22:31Z</time>
      </trkpt>
      <trkpt lat="43.39795" lon="6.66319">
        <ele>77</ele>
        <time>2013-10-13T09:22:33Z</time>
      </trkpt>
      <trkpt lat="43.39791" lon="6.66312">
        <ele>77</ele>
        <time>2013-10-13T09:22:35Z</time>
      </trkpt>
      <trkpt lat="43.39787" lon="6.66306">
        <ele>77</ele>
        <time>2013-10-13T09:22:37Z</time>
      </trkpt>
      <trkpt lat="43.39782" lon="6.663">
        <ele>77</ele>
        <time>2013-10-13T09:22:39Z</time>
      </trkpt>
      <trkpt lat="43.39778" lon="6.66294">
        <ele>79</ele>
        <time>2013-10-13T09:22:41Z</time>
      </trkpt>
      <trkpt lat="43.39774" lon="6.66289">
        <ele>79</ele>
        <time>2013-10-13T09:22:43Z</time>
      </trkpt>
      <trkpt lat="43.3977" lon="6.66283">
        <ele>79</ele>
        <time>2013-10-13T09:22:45Z</time>
      </trkpt>
      <trkpt lat="43.39767" lon="6.66276">
        <ele>79</ele>
        <time>2013-10-13T09:22:47Z</time>
      </trkpt>
      <trkpt lat="43.39769" lon="6.66268">
        <ele>80</ele>
        <time>2013-10-13T09:22:50Z</time>
      </trkpt>
      <trkpt lat="43.39775" lon="6.66268">
        <ele>81</ele>
        <time>2013-10-13T09:22:54Z</time>
      </trkpt>
      <trkpt lat="43.39782" lon="6.66269">
        <ele>81</ele>
        <time>2013-10-13T09:22:58Z</time>
      </trkpt>
      <trkpt lat="43.39788" lon="6.66266">
        <ele>86</ele>
        <time>2013-10-13T09:23:02Z</time>
      </trkpt>
      <trkpt lat="43.3979" lon="6.66259">
        <ele>86.51000213623</ele>
        <time>2013-10-13T09:23:05Z</time>
      </trkpt>
      <trkpt lat="43.39788" lon="6.6625">
        <ele>87</ele>
        <time>2013-10-13T09:23:08Z</time>
      </trkpt>
      <trkpt lat="43.39784" lon="6.66243">
        <ele>87</ele>
        <time>2013-10-13T09:23:11Z</time>
      </trkpt>
      <trkpt lat="43.3978" lon="6.66236">
        <ele>87</ele>
        <time>2013-10-13T09:23:14Z</time>
      </trkpt>
      <trkpt lat="43.39774" lon="6.6623">
        <ele>87</ele>
        <time>2013-10-13T09:23:17Z</time>
      </trkpt>
      <trkpt lat="43.3977" lon="6.66218">
        <ele>89</ele>
        <time>2013-10-13T09:23:21Z</time>
      </trkpt>
      <trkpt lat="43.39773" lon="6.66207">
        <ele>89</ele>
        <time>2013-10-13T09:23:25Z</time>
      </trkpt>
      <trkpt lat="43.39782" lon="6.66209">
        <ele>89.51000213623</ele>
        <time>2013-10-13T09:23:30Z</time>
      </trkpt>
      <trkpt lat="43.39787" lon="6.66211">
        <ele>90</ele>
        <time>2013-10-13T09:23:33Z</time>
      </trkpt>
      <trkpt lat="43.39795" lon="6.66213">
        <ele>90</ele>
        <time>2013-10-13T09:23:37Z</time>
      </trkpt>
      <trkpt lat="43.39801" lon="6.66212">
        <ele>90.980018615723</ele>
        <time>2013-10-13T09:23:40Z</time>
      </trkpt>
      <trkpt lat="43.39806" lon="6.66204">
        <ele>92</ele>
        <time>2013-10-13T09:23:44Z</time>
      </trkpt>
      <trkpt lat="43.39809" lon="6.66197">
        <ele>92</ele>
        <time>2013-10-13T09:23:47Z</time>
      </trkpt>
      <trkpt lat="43.39812" lon="6.66188">
        <ele>94</ele>
        <time>2013-10-13T09:23:51Z</time>
      </trkpt>
      <trkpt lat="43.39815" lon="6.66181">
        <ele>94</ele>
        <time>2013-10-13T09:23:55Z</time>
      </trkpt>
      <trkpt lat="43.39818" lon="6.66175">
        <ele>94</ele>
        <time>2013-10-13T09:23:58Z</time>
      </trkpt>
      <trkpt lat="43.39823" lon="6.66169">
        <ele>98</ele>
        <time>2013-10-13T09:24:01Z</time>
      </trkpt>
      <trkpt lat="43.39827" lon="6.66162">
        <ele>98</ele>
        <time>2013-10-13T09:24:04Z</time>
      </trkpt>
      <trkpt lat="43.39831" lon="6.66156">
        <ele>98</ele>
        <time>2013-10-13T09:24:07Z</time>
      </trkpt>
      <trkpt lat="43.39835" lon="6.66151">
        <ele>98.51000213623</ele>
        <time>2013-10-13T09:24:10Z</time>
      </trkpt>
      <trkpt lat="43.3984" lon="6.66144">
        <ele>99</ele>
        <time>2013-10-13T09:24:13Z</time>
      </trkpt>
      <trkpt lat="43.39843" lon="6.66139">
        <ele>99</ele>
        <time>2013-10-13T09:24:15Z</time>
      </trkpt>
      <trkpt lat="43.39848" lon="6.66132">
        <ele>99</ele>
        <time>2013-10-13T09:24:18Z</time>
      </trkpt>
      <trkpt lat="43.39853" lon="6.66125">
        <ele>100</ele>
        <time>2013-10-13T09:24:21Z</time>
      </trkpt>
      <trkpt lat="43.39861" lon="6.66116">
        <ele>100</ele>
        <time>2013-10-13T09:24:26Z</time>
      </trkpt>
      <trkpt lat="43.39867" lon="6.66109">
        <ele>101.02000427246</ele>
        <time>2013-10-13T09:24:30Z</time>
      </trkpt>
      <trkpt lat="43.39872" lon="6.66102">
        <ele>102</ele>
        <time>2013-10-13T09:24:34Z</time>
      </trkpt>
      <trkpt lat="43.39876" lon="6.66094">
        <ele>102</ele>
        <time>2013-10-13T09:24:37Z</time>
      </trkpt>
      <trkpt lat="43.3988" lon="6.66086">
        <ele>103.02000427246</ele>
        <time>2013-10-13T09:24:40Z</time>
      </trkpt>
      <trkpt lat="43.39884" lon="6.66079">
        <ele>104</ele>
        <time>2013-10-13T09:24:44Z</time>
      </trkpt>
      <trkpt lat="43.39888" lon="6.6607">
        <ele>104</ele>
        <time>2013-10-13T09:24:49Z</time>
      </trkpt>
      <trkpt lat="43.39893" lon="6.66062">
        <ele>106</ele>
        <time>2013-10-13T09:24:53Z</time>
      </trkpt>
      <trkpt lat="43.39896" lon="6.66054">
        <ele>106</ele>
        <time>2013-10-13T09:24:56Z</time>
      </trkpt>
      <trkpt lat="43.39899" lon="6.66046">
        <ele>106</ele>
        <time>2013-10-13T09:24:59Z</time>
      </trkpt>
      <trkpt lat="43.39901" lon="6.66036">
        <ele>108</ele>
        <time>2013-10-13T09:25:03Z</time>
      </trkpt>
      <trkpt lat="43.39904" lon="6.66026">
        <ele>108</ele>
        <time>2013-10-13T09:25:07Z</time>
      </trkpt>
      <trkpt lat="43.39906" lon="6.66018">
        <ele>111.04998779297</ele>
        <time>2013-10-13T09:25:10Z</time>
      </trkpt>
      <trkpt lat="43.39906" lon="6.66008">
        <ele>113</ele>
        <time>2013-10-13T09:25:14Z</time>
      </trkpt>
      <trkpt lat="43.39907" lon="6.65999">
        <ele>114</ele>
        <time>2013-10-13T09:25:17Z</time>
      </trkpt>
      <trkpt lat="43.39909" lon="6.6599">
        <ele>114.61000061035</ele>
        <time>2013-10-13T09:25:20Z</time>
      </trkpt>
      <trkpt lat="43.3991" lon="6.6598">
        <ele>115</ele>
        <time>2013-10-13T09:25:23Z</time>
      </trkpt>
      <trkpt lat="43.39912" lon="6.65971">
        <ele>115</ele>
        <time>2013-10-13T09:25:26Z</time>
      </trkpt>
      <trkpt lat="43.39914" lon="6.65962">
        <ele>115</ele>
        <time>2013-10-13T09:25:29Z</time>
      </trkpt>
      <trkpt lat="43.39914" lon="6.65952">
        <ele>116</ele>
        <time>2013-10-13T09:25:32Z</time>
      </trkpt>
      <trkpt lat="43.39913" lon="6.65943">
        <ele>116</ele>
        <time>2013-10-13T09:25:35Z</time>
      </trkpt>
      <trkpt lat="43.39914" lon="6.65934">
        <ele>116</ele>
        <time>2013-10-13T09:25:38Z</time>
      </trkpt>
      <trkpt lat="43.39913" lon="6.65924">
        <ele>118</ele>
        <time>2013-10-13T09:25:41Z</time>
      </trkpt>
      <trkpt lat="43.39914" lon="6.65914">
        <ele>118</ele>
        <time>2013-10-13T09:25:44Z</time>
      </trkpt>
      <trkpt lat="43.39913" lon="6.65905">
        <ele>118</ele>
        <time>2013-10-13T09:25:47Z</time>
      </trkpt>
      <trkpt lat="43.39913" lon="6.65898">
        <ele>118</ele>
        <time>2013-10-13T09:25:49Z</time>
      </trkpt>
      <trkpt lat="43.39912" lon="6.65892">
        <ele>121</ele>
        <time>2013-10-13T09:25:51Z</time>
      </trkpt>
      <trkpt lat="43.39912" lon="6.65885">
        <ele>121</ele>
        <time>2013-10-13T09:25:53Z</time>
      </trkpt>
      <trkpt lat="43.3991" lon="6.65877">
        <ele>122</ele>
        <time>2013-10-13T09:25:56Z</time>
      </trkpt>
      <trkpt lat="43.39909" lon="6.65868">
        <ele>122</ele>
        <time>2013-10-13T09:25:59Z</time>
      </trkpt>
      <trkpt lat="43.39909" lon="6.65861">
        <ele>123</ele>
        <time>2013-10-13T09:26:01Z</time>
      </trkpt>
      <trkpt lat="43.39911" lon="6.65855">
        <ele>123</ele>
        <time>2013-10-13T09:26:03Z</time>
      </trkpt>
      <trkpt lat="43.39913" lon="6.65846">
        <ele>123</ele>
        <time>2013-10-13T09:26:06Z</time>
      </trkpt>
      <trkpt lat="43.39915" lon="6.65841">
        <ele>123</ele>
        <time>2013-10-13T09:26:08Z</time>
      </trkpt>
      <trkpt lat="43.3992" lon="6.65832">
        <ele>126</ele>
        <time>2013-10-13T09:26:12Z</time>
      </trkpt>
      <trkpt lat="43.39928" lon="6.65825">
        <ele>127</ele>
        <time>2013-10-13T09:26:16Z</time>
      </trkpt>
      <trkpt lat="43.39933" lon="6.65819">
        <ele>127</ele>
        <time>2013-10-13T09:26:19Z</time>
      </trkpt>
      <trkpt lat="43.39941" lon="6.65813">
        <ele>128</ele>
        <time>2013-10-13T09:26:23Z</time>
      </trkpt>
      <trkpt lat="43.39947" lon="6.65809">
        <ele>128</ele>
        <time>2013-10-13T09:26:26Z</time>
      </trkpt>
      <trkpt lat="43.39953" lon="6.65805">
        <ele>128</ele>
        <time>2013-10-13T09:26:29Z</time>
      </trkpt>
      <trkpt lat="43.39959" lon="6.65802">
        <ele>130</ele>
        <time>2013-10-13T09:26:32Z</time>
      </trkpt>
      <trkpt lat="43.39966" lon="6.65799">
        <ele>130</ele>
        <time>2013-10-13T09:26:35Z</time>
      </trkpt>
      <trkpt lat="43.39973" lon="6.65796">
        <ele>130</ele>
        <time>2013-10-13T09:26:39Z</time>
      </trkpt>
      <trkpt lat="43.39979" lon="6.65793">
        <ele>132</ele>
        <time>2013-10-13T09:26:42Z</time>
      </trkpt>
      <trkpt lat="43.39985" lon="6.6579">
        <ele>132</ele>
        <time>2013-10-13T09:26:45Z</time>
      </trkpt>
      <trkpt lat="43.39993" lon="6.65785">
        <ele>131</ele>
        <time>2013-10-13T09:26:49Z</time>
      </trkpt>
      <trkpt lat="43.40002" lon="6.65776">
        <ele>132</ele>
        <time>2013-10-13T09:26:54Z</time>
      </trkpt>
      <trkpt lat="43.40005" lon="6.65769">
        <ele>132</ele>
        <time>2013-10-13T09:26:57Z</time>
      </trkpt>
      <trkpt lat="43.40009" lon="6.65762">
        <ele>133.2200012207</ele>
        <time>2013-10-13T09:27:00Z</time>
      </trkpt>
      <trkpt lat="43.40015" lon="6.6575">
        <ele>134</ele>
        <time>2013-10-13T09:27:05Z</time>
      </trkpt>
      <trkpt lat="43.40017" lon="6.65742">
        <ele>134</ele>
        <time>2013-10-13T09:27:08Z</time>
      </trkpt>
      <trkpt lat="43.40019" lon="6.65734">
        <ele>136</ele>
        <time>2013-10-13T09:27:11Z</time>
      </trkpt>
      <trkpt lat="43.40021" lon="6.65727">
        <ele>136</ele>
        <time>2013-10-13T09:27:14Z</time>
      </trkpt>
      <trkpt lat="43.40024" lon="6.65716">
        <ele>136</ele>
        <time>2013-10-13T09:27:18Z</time>
      </trkpt>
      <trkpt lat="43.40027" lon="6.65704">
        <ele>139</ele>
        <time>2013-10-13T09:27:22Z</time>
      </trkpt>
      <trkpt lat="43.40029" lon="6.65696">
        <ele>139</ele>
        <time>2013-10-13T09:27:25Z</time>
      </trkpt>
      <trkpt lat="43.4003" lon="6.65684">
        <ele>139</ele>
        <time>2013-10-13T09:27:29Z</time>
      </trkpt>
      <trkpt lat="43.40031" lon="6.65676">
        <ele>140</ele>
        <time>2013-10-13T09:27:32Z</time>
      </trkpt>
      <trkpt lat="43.40033" lon="6.65665">
        <ele>140</ele>
        <time>2013-10-13T09:27:36Z</time>
      </trkpt>
      <trkpt lat="43.40032" lon="6.65655">
        <ele>141.05999755859</ele>
        <time>2013-10-13T09:27:40Z</time>
      </trkpt>
      <trkpt lat="43.40031" lon="6.65645">
        <ele>142</ele>
        <time>2013-10-13T09:27:44Z</time>
      </trkpt>
      <trkpt lat="43.40029" lon="6.65632">
        <ele>142</ele>
        <time>2013-10-13T09:27:48Z</time>
      </trkpt>
      <trkpt lat="43.40028" lon="6.65623">
        <ele>144</ele>
        <time>2013-10-13T09:27:52Z</time>
      </trkpt>
      <trkpt lat="43.40026" lon="6.65612">
        <ele>144</ele>
        <time>2013-10-13T09:27:56Z</time>
      </trkpt>
      <trkpt lat="43.40024" lon="6.65597">
        <ele>146</ele>
        <time>2013-10-13T09:28:02Z</time>
      </trkpt>
      <trkpt lat="43.4002" lon="6.65584">
        <ele>146</ele>
        <time>2013-10-13T09:28:07Z</time>
      </trkpt>
      <trkpt lat="43.40018" lon="6.65575">
        <ele>148</ele>
        <time>2013-10-13T09:28:11Z</time>
      </trkpt>
      <trkpt lat="43.40016" lon="6.65566">
        <ele>148</ele>
        <time>2013-10-13T09:28:15Z</time>
      </trkpt>
      <trkpt lat="43.40011" lon="6.65553">
        <ele>150</ele>
        <time>2013-10-13T09:28:22Z</time>
      </trkpt>
      <trkpt lat="43.40008" lon="6.65542">
        <ele>150</ele>
        <time>2013-10-13T09:28:26Z</time>
      </trkpt>
      <trkpt lat="43.40002" lon="6.6553">
        <ele>152</ele>
        <time>2013-10-13T09:28:31Z</time>
      </trkpt>
      <trkpt lat="43.39994" lon="6.6552">
        <ele>152</ele>
        <time>2013-10-13T09:28:36Z</time>
      </trkpt>
      <trkpt lat="43.39988" lon="6.65513">
        <ele>153.53001403809</ele>
        <time>2013-10-13T09:28:40Z</time>
      </trkpt>
      <trkpt lat="43.39981" lon="6.65505">
        <ele>155</ele>
        <time>2013-10-13T09:28:44Z</time>
      </trkpt>
      <trkpt lat="43.39973" lon="6.65498">
        <ele>155</ele>
        <time>2013-10-13T09:28:48Z</time>
      </trkpt>
      <trkpt lat="43.39966" lon="6.65493">
        <ele>157</ele>
        <time>2013-10-13T09:28:51Z</time>
      </trkpt>
      <trkpt lat="43.39959" lon="6.6549">
        <ele>157</ele>
        <time>2013-10-13T09:28:54Z</time>
      </trkpt>
      <trkpt lat="43.39951" lon="6.65485">
        <ele>157</ele>
        <time>2013-10-13T09:28:58Z</time>
      </trkpt>
      <trkpt lat="43.39945" lon="6.65483">
        <ele>158</ele>
        <time>2013-10-13T09:29:01Z</time>
      </trkpt>
      <trkpt lat="43.39937" lon="6.6548">
        <ele>158</ele>
        <time>2013-10-13T09:29:05Z</time>
      </trkpt>
      <trkpt lat="43.39931" lon="6.65479">
        <ele>158</ele>
        <time>2013-10-13T09:29:08Z</time>
      </trkpt>
      <trkpt lat="43.39925" lon="6.65475">
        <ele>160</ele>
        <time>2013-10-13T09:29:11Z</time>
      </trkpt>
      <trkpt lat="43.39917" lon="6.6547">
        <ele>160</ele>
        <time>2013-10-13T09:29:15Z</time>
      </trkpt>
      <trkpt lat="43.39909" lon="6.65463">
        <ele>160.61000061035</ele>
        <time>2013-10-13T09:29:20Z</time>
      </trkpt>
      <trkpt lat="43.39901" lon="6.65455">
        <ele>161</ele>
        <time>2013-10-13T09:29:25Z</time>
      </trkpt>
      <trkpt lat="43.39896" lon="6.65445">
        <ele>161</ele>
        <time>2013-10-13T09:29:29Z</time>
      </trkpt>
      <trkpt lat="43.39893" lon="6.65433">
        <ele>163</ele>
        <time>2013-10-13T09:29:33Z</time>
      </trkpt>
      <trkpt lat="43.39891" lon="6.65422">
        <ele>163</ele>
        <time>2013-10-13T09:29:36Z</time>
      </trkpt>
      <trkpt lat="43.39891" lon="6.65413">
        <ele>163</ele>
        <time>2013-10-13T09:29:39Z</time>
      </trkpt>
      <trkpt lat="43.39891" lon="6.65403">
        <ele>165</ele>
        <time>2013-10-13T09:29:42Z</time>
      </trkpt>
      <trkpt lat="43.39891" lon="6.65396">
        <ele>165</ele>
        <time>2013-10-13T09:29:44Z</time>
      </trkpt>
      <trkpt lat="43.39889" lon="6.65387">
        <ele>165</ele>
        <time>2013-10-13T09:29:47Z</time>
      </trkpt>
      <trkpt lat="43.39886" lon="6.65378">
        <ele>166.2200012207</ele>
        <time>2013-10-13T09:29:50Z</time>
      </trkpt>
      <trkpt lat="43.39885" lon="6.65366">
        <ele>167</ele>
        <time>2013-10-13T09:29:54Z</time>
      </trkpt>
      <trkpt lat="43.39883" lon="6.6536">
        <ele>167</ele>
        <time>2013-10-13T09:29:56Z</time>
      </trkpt>
      <trkpt lat="43.3988" lon="6.65354">
        <ele>167</ele>
        <time>2013-10-13T09:29:58Z</time>
      </trkpt>
      <trkpt lat="43.39874" lon="6.65349">
        <ele>169</ele>
        <time>2013-10-13T09:30:01Z</time>
      </trkpt>
      <trkpt lat="43.39868" lon="6.65346">
        <ele>169</ele>
        <time>2013-10-13T09:30:04Z</time>
      </trkpt>
      <trkpt lat="43.39861" lon="6.65345">
        <ele>169</ele>
        <time>2013-10-13T09:30:07Z</time>
      </trkpt>
      <trkpt lat="43.39855" lon="6.65344">
        <ele>169.51000976562</ele>
        <time>2013-10-13T09:30:10Z</time>
      </trkpt>
      <trkpt lat="43.3985" lon="6.65341">
        <ele>170</ele>
        <time>2013-10-13T09:30:12Z</time>
      </trkpt>
      <trkpt lat="43.39845" lon="6.65337">
        <ele>170</ele>
        <time>2013-10-13T09:30:15Z</time>
      </trkpt>
      <trkpt lat="43.39839" lon="6.65332">
        <ele>170</ele>
        <time>2013-10-13T09:30:18Z</time>
      </trkpt>
      <trkpt lat="43.39833" lon="6.65326">
        <ele>171</ele>
        <time>2013-10-13T09:30:21Z</time>
      </trkpt>
      <trkpt lat="43.39828" lon="6.65317">
        <ele>171</ele>
        <time>2013-10-13T09:30:25Z</time>
      </trkpt>
      <trkpt lat="43.39825" lon="6.65309">
        <ele>171</ele>
        <time>2013-10-13T09:30:28Z</time>
      </trkpt>
      <trkpt lat="43.39823" lon="6.65301">
        <ele>173</ele>
        <time>2013-10-13T09:30:31Z</time>
      </trkpt>
      <trkpt lat="43.39817" lon="6.65293">
        <ele>173</ele>
        <time>2013-10-13T09:30:34Z</time>
      </trkpt>
      <trkpt lat="43.39813" lon="6.65291">
        <ele>173</ele>
        <time>2013-10-13T09:30:36Z</time>
      </trkpt>
      <trkpt lat="43.39806" lon="6.6529">
        <ele>173</ele>
        <time>2013-10-13T09:30:39Z</time>
      </trkpt>
      <trkpt lat="43.39798" lon="6.65292">
        <ele>175</ele>
        <time>2013-10-13T09:30:42Z</time>
      </trkpt>
      <trkpt lat="43.39792" lon="6.65299">
        <ele>175</ele>
        <time>2013-10-13T09:30:45Z</time>
      </trkpt>
      <trkpt lat="43.39788" lon="6.65305">
        <ele>175</ele>
        <time>2013-10-13T09:30:47Z</time>
      </trkpt>
      <trkpt lat="43.39784" lon="6.65312">
        <ele>175</ele>
        <time>2013-10-13T09:30:49Z</time>
      </trkpt>
      <trkpt lat="43.39779" lon="6.65318">
        <ele>176</ele>
        <time>2013-10-13T09:30:51Z</time>
      </trkpt>
      <trkpt lat="43.39773" lon="6.65322">
        <ele>176</ele>
        <time>2013-10-13T09:30:53Z</time>
      </trkpt>
      <trkpt lat="43.39766" lon="6.65325">
        <ele>176</ele>
        <time>2013-10-13T09:30:55Z</time>
      </trkpt>
      <trkpt lat="43.39759" lon="6.65328">
        <ele>176</ele>
        <time>2013-10-13T09:30:57Z</time>
      </trkpt>
      <trkpt lat="43.39749" lon="6.65334">
        <ele>176.5299987793</ele>
        <time>2013-10-13T09:31:00Z</time>
      </trkpt>
      <trkpt lat="43.3974" lon="6.6534">
        <ele>177</ele>
        <time>2013-10-13T09:31:03Z</time>
      </trkpt>
      <trkpt lat="43.39734" lon="6.65344">
        <ele>177</ele>
        <time>2013-10-13T09:31:05Z</time>
      </trkpt>
      <trkpt lat="43.39729" lon="6.65349">
        <ele>177</ele>
        <time>2013-10-13T09:31:07Z</time>
      </trkpt>
      <trkpt lat="43.39724" lon="6.65355">
        <ele>177</ele>
        <time>2013-10-13T09:31:09Z</time>
      </trkpt>
      <trkpt lat="43.3972" lon="6.65363">
        <ele>179</ele>
        <time>2013-10-13T09:31:11Z</time>
      </trkpt>
      <trkpt lat="43.39714" lon="6.65374">
        <ele>179</ele>
        <time>2013-10-13T09:31:14Z</time>
      </trkpt>
      <trkpt lat="43.39708" lon="6.65383">
        <ele>179</ele>
        <time>2013-10-13T09:31:17Z</time>
      </trkpt>
      <trkpt lat="43.39701" lon="6.65392">
        <ele>180</ele>
        <time>2013-10-13T09:31:20Z</time>
      </trkpt>
      <trkpt lat="43.39691" lon="6.65401">
        <ele>181</ele>
        <time>2013-10-13T09:31:24Z</time>
      </trkpt>
      <trkpt lat="43.39683" lon="6.65406">
        <ele>181</ele>
        <time>2013-10-13T09:31:27Z</time>
      </trkpt>
      <trkpt lat="43.39674" lon="6.65408">
        <ele>181.51000976562</ele>
        <time>2013-10-13T09:31:30Z</time>
      </trkpt>
      <trkpt lat="43.39666" lon="6.65407">
        <ele>182</ele>
        <time>2013-10-13T09:31:33Z</time>
      </trkpt>
      <trkpt lat="43.39657" lon="6.65404">
        <ele>182</ele>
        <time>2013-10-13T09:31:36Z</time>
      </trkpt>
      <trkpt lat="43.3965" lon="6.65399">
        <ele>182</ele>
        <time>2013-10-13T09:31:39Z</time>
      </trkpt>
      <trkpt lat="43.39642" lon="6.65392">
        <ele>184</ele>
        <time>2013-10-13T09:31:42Z</time>
      </trkpt>
      <trkpt lat="43.39634" lon="6.65384">
        <ele>184</ele>
        <time>2013-10-13T09:31:45Z</time>
      </trkpt>
      <trkpt lat="43.39626" lon="6.65376">
        <ele>184</ele>
        <time>2013-10-13T09:31:48Z</time>
      </trkpt>
      <trkpt lat="43.39621" lon="6.6537">
        <ele>185.2200012207</ele>
        <time>2013-10-13T09:31:50Z</time>
      </trkpt>
      <trkpt lat="43.39616" lon="6.65363">
        <ele>186</ele>
        <time>2013-10-13T09:31:52Z</time>
      </trkpt>
      <trkpt lat="43.3961" lon="6.65356">
        <ele>186</ele>
        <time>2013-10-13T09:31:54Z</time>
      </trkpt>
      <trkpt lat="43.39603" lon="6.65349">
        <ele>186</ele>
        <time>2013-10-13T09:31:56Z</time>
      </trkpt>
      <trkpt lat="43.39597" lon="6.6534">
        <ele>186</ele>
        <time>2013-10-13T09:31:58Z</time>
      </trkpt>
      <trkpt lat="43.3959" lon="6.65331">
        <ele>185.38999938965</ele>
        <time>2013-10-13T09:32:00Z</time>
      </trkpt>
      <trkpt lat="43.39582" lon="6.65323">
        <ele>185</ele>
        <time>2013-10-13T09:32:02Z</time>
      </trkpt>
      <trkpt lat="43.39575" lon="6.65316">
        <ele>185</ele>
        <time>2013-10-13T09:32:04Z</time>
      </trkpt>
      <trkpt lat="43.39568" lon="6.65309">
        <ele>185</ele>
        <time>2013-10-13T09:32:06Z</time>
      </trkpt>
      <trkpt lat="43.3956" lon="6.65304">
        <ele>185</ele>
        <time>2013-10-13T09:32:08Z</time>
      </trkpt>
      <trkpt lat="43.39552" lon="6.653">
        <ele>185</ele>
        <time>2013-10-13T09:32:10Z</time>
      </trkpt>
      <trkpt lat="43.39543" lon="6.65298">
        <ele>185</ele>
        <time>2013-10-13T09:32:12Z</time>
      </trkpt>
      <trkpt lat="43.39535" lon="6.65295">
        <ele>185</ele>
        <time>2013-10-13T09:32:14Z</time>
      </trkpt>
      <trkpt lat="43.39529" lon="6.65289">
        <ele>185</ele>
        <time>2013-10-13T09:32:16Z</time>
      </trkpt>
      <trkpt lat="43.39522" lon="6.65285">
        <ele>185</ele>
        <time>2013-10-13T09:32:18Z</time>
      </trkpt>
      <trkpt lat="43.39515" lon="6.65281">
        <ele>186.2200012207</ele>
        <time>2013-10-13T09:32:20Z</time>
      </trkpt>
      <trkpt lat="43.39509" lon="6.65276">
        <ele>187</ele>
        <time>2013-10-13T09:32:22Z</time>
      </trkpt>
      <trkpt lat="43.39503" lon="6.65272">
        <ele>187</ele>
        <time>2013-10-13T09:32:24Z</time>
      </trkpt>
      <trkpt lat="43.39498" lon="6.65268">
        <ele>187</ele>
        <time>2013-10-13T09:32:26Z</time>
      </trkpt>
      <trkpt lat="43.39492" lon="6.65264">
        <ele>187</ele>
        <time>2013-10-13T09:32:28Z</time>
      </trkpt>
      <trkpt lat="43.39487" lon="6.6526">
        <ele>188.62245178223</ele>
        <time>2013-10-13T09:32:30Z</time>
      </trkpt>
      <trkpt lat="43.39481" lon="6.65255">
        <ele>190</ele>
        <time>2013-10-13T09:32:32Z</time>
      </trkpt>
      <trkpt lat="43.39476" lon="6.6525">
        <ele>190</ele>
        <time>2013-10-13T09:32:34Z</time>
      </trkpt>
      <trkpt lat="43.39467" lon="6.65244">
        <ele>192</ele>
        <time>2013-10-13T09:32:37Z</time>
      </trkpt>
      <trkpt lat="43.39458" lon="6.65238">
        <ele>193.2200012207</ele>
        <time>2013-10-13T09:32:40Z</time>
      </trkpt>
      <trkpt lat="43.39449" lon="6.65233">
        <ele>194</ele>
        <time>2013-10-13T09:32:43Z</time>
      </trkpt>
      <trkpt lat="43.39442" lon="6.65228">
        <ele>194</ele>
        <time>2013-10-13T09:32:45Z</time>
      </trkpt>
      <trkpt lat="43.39439" lon="6.65225">
        <ele>194</ele>
        <time>2013-10-13T09:32:46Z</time>
      </trkpt>
      <trkpt lat="43.39433" lon="6.65219">
        <ele>194</ele>
        <time>2013-10-13T09:32:48Z</time>
      </trkpt>
      <trkpt lat="43.39427" lon="6.65212">
        <ele>194</ele>
        <time>2013-10-13T09:32:50Z</time>
      </trkpt>
      <trkpt lat="43.39424" lon="6.65208">
        <ele>193.30999755859</ele>
        <time>2013-10-13T09:32:51Z</time>
      </trkpt>
      <trkpt lat="43.39418" lon="6.652">
        <ele>193</ele>
        <time>2013-10-13T09:32:53Z</time>
      </trkpt>
      <trkpt lat="43.39412" lon="6.65192">
        <ele>193</ele>
        <time>2013-10-13T09:32:55Z</time>
      </trkpt>
      <trkpt lat="43.39406" lon="6.65183">
        <ele>193</ele>
        <time>2013-10-13T09:32:57Z</time>
      </trkpt>
      <trkpt lat="43.394" lon="6.65174">
        <ele>193</ele>
        <time>2013-10-13T09:32:59Z</time>
      </trkpt>
      <trkpt lat="43.39393" lon="6.65163">
        <ele>193</ele>
        <time>2013-10-13T09:33:01Z</time>
      </trkpt>
      <trkpt lat="43.39387" lon="6.6515">
        <ele>193</ele>
        <time>2013-10-13T09:33:03Z</time>
      </trkpt>
      <trkpt lat="43.39378" lon="6.65142">
        <ele>193</ele>
        <time>2013-10-13T09:33:05Z</time>
      </trkpt>
      <trkpt lat="43.39367" lon="6.65146">
        <ele>193</ele>
        <time>2013-10-13T09:33:07Z</time>
      </trkpt>
      <trkpt lat="43.3936" lon="6.65157">
        <ele>193</ele>
        <time>2013-10-13T09:33:09Z</time>
      </trkpt>
      <trkpt lat="43.3935" lon="6.65165">
        <ele>191</ele>
        <time>2013-10-13T09:33:11Z</time>
      </trkpt>
      <trkpt lat="43.39343" lon="6.6518">
        <ele>191</ele>
        <time>2013-10-13T09:33:13Z</time>
      </trkpt>
      <trkpt lat="43.39337" lon="6.65196">
        <ele>191</ele>
        <time>2013-10-13T09:33:15Z</time>
      </trkpt>
      <trkpt lat="43.39329" lon="6.65213">
        <ele>191</ele>
        <time>2013-10-13T09:33:17Z</time>
      </trkpt>
      <trkpt lat="43.3932" lon="6.65229">
        <ele>191</ele>
        <time>2013-10-13T09:33:19Z</time>
      </trkpt>
      <trkpt lat="43.39309" lon="6.65241">
        <ele>187</ele>
        <time>2013-10-13T09:33:21Z</time>
      </trkpt>
      <trkpt lat="43.39301" lon="6.65251">
        <ele>187</ele>
        <time>2013-10-13T09:33:23Z</time>
      </trkpt>
      <trkpt lat="43.39297" lon="6.65265">
        <ele>184.55996704102</ele>
        <time>2013-10-13T09:33:25Z</time>
      </trkpt>
      <trkpt lat="43.39297" lon="6.65281">
        <ele>183</ele>
        <time>2013-10-13T09:33:27Z</time>
      </trkpt>
      <trkpt lat="43.39298" lon="6.65296">
        <ele>183</ele>
        <time>2013-10-13T09:33:29Z</time>
      </trkpt>
      <trkpt lat="43.39298" lon="6.65304">
        <ele>178.73002624512</ele>
        <time>2013-10-13T09:33:30Z</time>
      </trkpt>
      <trkpt lat="43.39297" lon="6.65312">
        <ele>174.80000305176</ele>
        <time>2013-10-13T09:33:31Z</time>
      </trkpt>
      <trkpt lat="43.39291" lon="6.65326">
        <ele>170.16996765137</ele>
        <time>2013-10-13T09:33:33Z</time>
      </trkpt>
      <trkpt lat="43.39286" lon="6.65343">
        <ele>166.38998413086</ele>
        <time>2013-10-13T09:33:35Z</time>
      </trkpt>
      <trkpt lat="43.39282" lon="6.65359">
        <ele>163.60636901856</ele>
        <time>2013-10-13T09:33:37Z</time>
      </trkpt>
      <trkpt lat="43.39275" lon="6.65374">
        <ele>161.38998413086</ele>
        <time>2013-10-13T09:33:39Z</time>
      </trkpt>
      <trkpt lat="43.39267" lon="6.65385">
        <ele>160</ele>
        <time>2013-10-13T09:33:41Z</time>
      </trkpt>
      <trkpt lat="43.39264" lon="6.65401">
        <ele>157.77998352051</ele>
        <time>2013-10-13T09:33:43Z</time>
      </trkpt>
      <trkpt lat="43.39259" lon="6.65417">
        <ele>156</ele>
        <time>2013-10-13T09:33:45Z</time>
      </trkpt>
      <trkpt lat="43.39254" lon="6.65434">
        <ele>156</ele>
        <time>2013-10-13T09:33:47Z</time>
      </trkpt>
      <trkpt lat="43.39248" lon="6.65449">
        <ele>156</ele>
        <time>2013-10-13T09:33:49Z</time>
      </trkpt>
      <trkpt lat="43.39238" lon="6.65459">
        <ele>155</ele>
        <time>2013-10-13T09:33:51Z</time>
      </trkpt>
      <trkpt lat="43.39227" lon="6.65469">
        <ele>155</ele>
        <time>2013-10-13T09:33:53Z</time>
      </trkpt>
      <trkpt lat="43.39216" lon="6.65481">
        <ele>154.45918273926</ele>
        <time>2013-10-13T09:33:55Z</time>
      </trkpt>
      <trkpt lat="43.39207" lon="6.65494">
        <ele>154</ele>
        <time>2013-10-13T09:33:57Z</time>
      </trkpt>
      <trkpt lat="43.39197" lon="6.65505">
        <ele>154</ele>
        <time>2013-10-13T09:33:59Z</time>
      </trkpt>
      <trkpt lat="43.39187" lon="6.6551">
        <ele>154</ele>
        <time>2013-10-13T09:34:01Z</time>
      </trkpt>
      <trkpt lat="43.3918" lon="6.65515">
        <ele>154</ele>
        <time>2013-10-13T09:34:03Z</time>
      </trkpt>
      <trkpt lat="43.39172" lon="6.65522">
        <ele>154</ele>
        <time>2013-10-13T09:34:06Z</time>
      </trkpt>
      <trkpt lat="43.39167" lon="6.65529">
        <ele>154</ele>
        <time>2013-10-13T09:34:08Z</time>
      </trkpt>
      <trkpt lat="43.39161" lon="6.65536">
        <ele>155.79409790039</ele>
        <time>2013-10-13T09:34:10Z</time>
      </trkpt>
      <trkpt lat="43.39154" lon="6.65543">
        <ele>157</ele>
        <time>2013-10-13T09:34:12Z</time>
      </trkpt>
      <trkpt lat="43.39148" lon="6.65549">
        <ele>159.04000854492</ele>
        <time>2013-10-13T09:34:15Z</time>
      </trkpt>
      <trkpt lat="43.3915" lon="6.6556">
        <ele>161</ele>
        <time>2013-10-13T09:34:18Z</time>
      </trkpt>
      <trkpt lat="43.39156" lon="6.65569">
        <ele>162</ele>
        <time>2013-10-13T09:34:21Z</time>
      </trkpt>
      <trkpt lat="43.39162" lon="6.65579">
        <ele>162</ele>
        <time>2013-10-13T09:34:24Z</time>
      </trkpt>
      <trkpt lat="43.39165" lon="6.6559">
        <ele>163</ele>
        <time>2013-10-13T09:34:27Z</time>
      </trkpt>
      <trkpt lat="43.39166" lon="6.65598">
        <ele>163</ele>
        <time>2013-10-13T09:34:29Z</time>
      </trkpt>
      <trkpt lat="43.39166" lon="6.65606">
        <ele>164</ele>
        <time>2013-10-13T09:34:31Z</time>
      </trkpt>
      <trkpt lat="43.39164" lon="6.65616">
        <ele>164</ele>
        <time>2013-10-13T09:34:34Z</time>
      </trkpt>
      <trkpt lat="43.39161" lon="6.65628">
        <ele>164</ele>
        <time>2013-10-13T09:34:38Z</time>
      </trkpt>
      <trkpt lat="43.39159" lon="6.65638">
        <ele>166</ele>
        <time>2013-10-13T09:34:41Z</time>
      </trkpt>
      <trkpt lat="43.39156" lon="6.65652">
        <ele>166</ele>
        <time>2013-10-13T09:34:45Z</time>
      </trkpt>
      <trkpt lat="43.39157" lon="6.6566">
        <ele>166</ele>
        <time>2013-10-13T09:34:48Z</time>
      </trkpt>
      <trkpt lat="43.39165" lon="6.65667">
        <ele>167</ele>
        <time>2013-10-13T09:34:51Z</time>
      </trkpt>
      <trkpt lat="43.39173" lon="6.65676">
        <ele>167</ele>
        <time>2013-10-13T09:34:54Z</time>
      </trkpt>
      <trkpt lat="43.3918" lon="6.65682">
        <ele>167</ele>
        <time>2013-10-13T09:34:56Z</time>
      </trkpt>
      <trkpt lat="43.39185" lon="6.65689">
        <ele>167</ele>
        <time>2013-10-13T09:34:58Z</time>
      </trkpt>
      <trkpt lat="43.39188" lon="6.657">
        <ele>166.38999938965</ele>
        <time>2013-10-13T09:35:00Z</time>
      </trkpt>
      <trkpt lat="43.39191" lon="6.65709">
        <ele>166</ele>
        <time>2013-10-13T09:35:02Z</time>
      </trkpt>
      <trkpt lat="43.39194" lon="6.65717">
        <ele>166</ele>
        <time>2013-10-13T09:35:04Z</time>
      </trkpt>
      <trkpt lat="43.39198" lon="6.65725">
        <ele>166</ele>
        <time>2013-10-13T09:35:06Z</time>
      </trkpt>
      <trkpt lat="43.39198" lon="6.65738">
        <ele>166</ele>
        <time>2013-10-13T09:35:09Z</time>
      </trkpt>
      <trkpt lat="43.39199" lon="6.65749">
        <ele>168</ele>
        <time>2013-10-13T09:35:11Z</time>
      </trkpt>
      <trkpt lat="43.39203" lon="6.65758">
        <ele>168</ele>
        <time>2013-10-13T09:35:13Z</time>
      </trkpt>
      <trkpt lat="43.39208" lon="6.65767">
        <ele>168</ele>
        <time>2013-10-13T09:35:16Z</time>
      </trkpt>
      <trkpt lat="43.39212" lon="6.65774">
        <ele>168</ele>
        <time>2013-10-13T09:35:19Z</time>
      </trkpt>
      <trkpt lat="43.39216" lon="6.65782">
        <ele>164</ele>
        <time>2013-10-13T09:35:23Z</time>
      </trkpt>
      <trkpt lat="43.39219" lon="6.65792">
        <ele>160</ele>
        <time>2013-10-13T09:35:26Z</time>
      </trkpt>
      <trkpt lat="43.39219" lon="6.65804">
        <ele>160</ele>
        <time>2013-10-13T09:35:29Z</time>
      </trkpt>
      <trkpt lat="43.39221" lon="6.65812">
        <ele>156.38998413086</ele>
        <time>2013-10-13T09:35:31Z</time>
      </trkpt>
      <trkpt lat="43.39223" lon="6.6582">
        <ele>153.38998413086</ele>
        <time>2013-10-13T09:35:33Z</time>
      </trkpt>
      <trkpt lat="43.39225" lon="6.65828">
        <ele>151.43518066406</ele>
        <time>2013-10-13T09:35:35Z</time>
      </trkpt>
      <trkpt lat="43.39227" lon="6.65837">
        <ele>150.52041625977</ele>
        <time>2013-10-13T09:35:37Z</time>
      </trkpt>
      <trkpt lat="43.3923" lon="6.65848">
        <ele>149.41000366211</ele>
        <time>2013-10-13T09:35:39Z</time>
      </trkpt>
      <trkpt lat="43.39232" lon="6.65861">
        <ele>147.38998413086</ele>
        <time>2013-10-13T09:35:41Z</time>
      </trkpt>
      <trkpt lat="43.39231" lon="6.65874">
        <ele>146</ele>
        <time>2013-10-13T09:35:43Z</time>
      </trkpt>
      <trkpt lat="43.3923" lon="6.65886">
        <ele>144</ele>
        <time>2013-10-13T09:35:46Z</time>
      </trkpt>
      <trkpt lat="43.3923" lon="6.65897">
        <ele>144</ele>
        <time>2013-10-13T09:35:50Z</time>
      </trkpt>
      <trkpt lat="43.39228" lon="6.65905">
        <ele>144</ele>
        <time>2013-10-13T09:35:54Z</time>
      </trkpt>
      <trkpt lat="43.39225" lon="6.65915">
        <ele>141</ele>
        <time>2013-10-13T09:35:57Z</time>
      </trkpt>
      <trkpt lat="43.39222" lon="6.65928">
        <ele>136.73002624512</ele>
        <time>2013-10-13T09:36:00Z</time>
      </trkpt>
      <trkpt lat="43.39218" lon="6.65939">
        <ele>133.38999938965</ele>
        <time>2013-10-13T09:36:02Z</time>
      </trkpt>
      <trkpt lat="43.39211" lon="6.65946">
        <ele>131.38998413086</ele>
        <time>2013-10-13T09:36:05Z</time>
      </trkpt>
      <trkpt lat="43.39206" lon="6.65953">
        <ele>128.41345214844</ele>
        <time>2013-10-13T09:36:09Z</time>
      </trkpt>
      <trkpt lat="43.39206" lon="6.6596">
        <ele>126.38999938965</ele>
        <time>2013-10-13T09:36:12Z</time>
      </trkpt>
      <trkpt lat="43.39209" lon="6.65966">
        <ele>125</ele>
        <time>2013-10-13T09:36:16Z</time>
      </trkpt>
      <trkpt lat="43.39211" lon="6.65973">
        <ele>124</ele>
        <time>2013-10-13T09:36:21Z</time>
      </trkpt>
      <trkpt lat="43.39209" lon="6.65989">
        <ele>121</ele>
        <time>2013-10-13T09:36:27Z</time>
      </trkpt>
      <trkpt lat="43.39212" lon="6.66003">
        <ele>114.77998352051</ele>
        <time>2013-10-13T09:36:31Z</time>
      </trkpt>
      <trkpt lat="43.39207" lon="6.66016">
        <ele>107</ele>
        <time>2013-10-13T09:36:37Z</time>
      </trkpt>
      <trkpt lat="43.3921" lon="6.66031">
        <ele>105</ele>
        <time>2013-10-13T09:36:44Z</time>
      </trkpt>
      <trkpt lat="43.39217" lon="6.66039">
        <ele>102.48999786377</ele>
        <time>2013-10-13T09:36:48Z</time>
      </trkpt>
      <trkpt lat="43.39222" lon="6.66052">
        <ele>102</ele>
        <time>2013-10-13T09:36:52Z</time>
      </trkpt>
      <trkpt lat="43.39216" lon="6.66066">
        <ele>98</ele>
        <time>2013-10-13T09:36:59Z</time>
      </trkpt>
      <trkpt lat="43.39217" lon="6.66079">
        <ele>91.48999786377</ele>
        <time>2013-10-13T09:37:06Z</time>
      </trkpt>
      <trkpt lat="43.39212" lon="6.66092">
        <ele>88</ele>
        <time>2013-10-13T09:37:13Z</time>
      </trkpt>
      <trkpt lat="43.39202" lon="6.66103">
        <ele>87</ele>
        <time>2013-10-13T09:37:17Z</time>
      </trkpt>
      <trkpt lat="43.39205" lon="6.66117">
        <ele>85.979995727539</ele>
        <time>2013-10-13T09:37:20Z</time>
      </trkpt>
      <trkpt lat="43.39209" lon="6.66132">
        <ele>85</ele>
        <time>2013-10-13T09:37:23Z</time>
      </trkpt>
      <trkpt lat="43.3921" lon="6.66146">
        <ele>83</ele>
        <time>2013-10-13T09:37:26Z</time>
      </trkpt>
      <trkpt lat="43.39211" lon="6.66157">
        <ele>81.979995727539</ele>
        <time>2013-10-13T09:37:30Z</time>
      </trkpt>
      <trkpt lat="43.39211" lon="6.66172">
        <ele>81</ele>
        <time>2013-10-13T09:37:34Z</time>
      </trkpt>
      <trkpt lat="43.3921" lon="6.66182">
        <ele>79</ele>
        <time>2013-10-13T09:37:36Z</time>
      </trkpt>
      <trkpt lat="43.39209" lon="6.66196">
        <ele>79</ele>
        <time>2013-10-13T09:37:39Z</time>
      </trkpt>
      <trkpt lat="43.39208" lon="6.66209">
        <ele>76</ele>
        <time>2013-10-13T09:37:42Z</time>
      </trkpt>
      <trkpt lat="43.39209" lon="6.66219">
        <ele>76</ele>
        <time>2013-10-13T09:37:44Z</time>
      </trkpt>
      <trkpt lat="43.39209" lon="6.66227">
        <ele>72</ele>
        <time>2013-10-13T09:37:46Z</time>
      </trkpt>
      <trkpt lat="43.39206" lon="6.66235">
        <ele>72</ele>
        <time>2013-10-13T09:37:48Z</time>
      </trkpt>
      <trkpt lat="43.39204" lon="6.66248">
        <ele>69.959983825684</ele>
        <time>2013-10-13T09:37:50Z</time>
      </trkpt>
      <trkpt lat="43.39204" lon="6.66262">
        <ele>66.140022277832</ele>
        <time>2013-10-13T09:37:52Z</time>
      </trkpt>
      <trkpt lat="43.39209" lon="6.66276">
        <ele>63</ele>
        <time>2013-10-13T09:37:55Z</time>
      </trkpt>
      <trkpt lat="43.39209" lon="6.66287">
        <ele>61.48999786377</ele>
        <time>2013-10-13T09:37:58Z</time>
      </trkpt>
      <trkpt lat="43.39209" lon="6.66299">
        <ele>59.550003051758</ele>
        <time>2013-10-13T09:38:00Z</time>
      </trkpt>
      <trkpt lat="43.39206" lon="6.66313">
        <ele>59</ele>
        <time>2013-10-13T09:38:02Z</time>
      </trkpt>
      <trkpt lat="43.39206" lon="6.6633">
        <ele>58.48999786377</ele>
        <time>2013-10-13T09:38:04Z</time>
      </trkpt>
      <trkpt lat="43.39208" lon="6.66348">
        <ele>56.48999786377</ele>
        <time>2013-10-13T09:38:06Z</time>
      </trkpt>
      <trkpt lat="43.39209" lon="6.66361">
        <ele>57</ele>
        <time>2013-10-13T09:38:08Z</time>
      </trkpt>
      <trkpt lat="43.3921" lon="6.66375">
        <ele>57</ele>
        <time>2013-10-13T09:38:11Z</time>
      </trkpt>
      <trkpt lat="43.392" lon="6.66369">
        <ele>57</ele>
        <time>2013-10-13T09:38:15Z</time>
      </trkpt>
      <trkpt lat="43.39195" lon="6.66357">
        <ele>57</ele>
        <time>2013-10-13T09:38:17Z</time>
      </trkpt>
      <trkpt lat="43.39187" lon="6.66346">
        <ele>57</ele>
        <time>2013-10-13T09:38:19Z</time>
      </trkpt>
      <trkpt lat="43.39177" lon="6.66339">
        <ele>56</ele>
        <time>2013-10-13T09:38:21Z</time>
      </trkpt>
      <trkpt lat="43.39166" lon="6.66334">
        <ele>56</ele>
        <time>2013-10-13T09:38:23Z</time>
      </trkpt>
      <trkpt lat="43.39156" lon="6.66329">
        <ele>56</ele>
        <time>2013-10-13T09:38:25Z</time>
      </trkpt>
      <trkpt lat="43.39152" lon="6.66327">
        <ele>56</ele>
        <time>2013-10-13T09:38:26Z</time>
      </trkpt>
      <trkpt lat="43.39143" lon="6.66323">
        <ele>56</ele>
        <time>2013-10-13T09:38:28Z</time>
      </trkpt>
      <trkpt lat="43.39135" lon="6.6632">
        <ele>56.609996795654</ele>
        <time>2013-10-13T09:38:30Z</time>
      </trkpt>
      <trkpt lat="43.39128" lon="6.66316">
        <ele>57</ele>
        <time>2013-10-13T09:38:32Z</time>
      </trkpt>
      <trkpt lat="43.39121" lon="6.66312">
        <ele>57</ele>
        <time>2013-10-13T09:38:34Z</time>
      </trkpt>
      <trkpt lat="43.39116" lon="6.66306">
        <ele>57</ele>
        <time>2013-10-13T09:38:36Z</time>
      </trkpt>
      <trkpt lat="43.3911" lon="6.66299">
        <ele>57</ele>
        <time>2013-10-13T09:38:38Z</time>
      </trkpt>
      <trkpt lat="43.39103" lon="6.66287">
        <ele>59</ele>
        <time>2013-10-13T09:38:41Z</time>
      </trkpt>
      <trkpt lat="43.39095" lon="6.66275">
        <ele>59</ele>
        <time>2013-10-13T09:38:44Z</time>
      </trkpt>
      <trkpt lat="43.39087" lon="6.66263">
        <ele>59</ele>
        <time>2013-10-13T09:38:47Z</time>
      </trkpt>
      <trkpt lat="43.39079" lon="6.66251">
        <ele>59.980018615723</ele>
        <time>2013-10-13T09:38:50Z</time>
      </trkpt>
      <trkpt lat="43.39073" lon="6.66244">
        <ele>61</ele>
        <time>2013-10-13T09:38:52Z</time>
      </trkpt>
      <trkpt lat="43.39067" lon="6.66238">
        <ele>61</ele>
        <time>2013-10-13T09:38:54Z</time>
      </trkpt>
      <trkpt lat="43.39061" lon="6.66232">
        <ele>61</ele>
        <time>2013-10-13T09:38:56Z</time>
      </trkpt>
      <trkpt lat="43.39055" lon="6.66227">
        <ele>61</ele>
        <time>2013-10-13T09:38:58Z</time>
      </trkpt>
      <trkpt lat="43.39049" lon="6.66223">
        <ele>62.260005950928</ele>
        <time>2013-10-13T09:39:00Z</time>
      </trkpt>
      <trkpt lat="43.39042" lon="6.66219">
        <ele>63</ele>
        <time>2013-10-13T09:39:03Z</time>
      </trkpt>
      <trkpt lat="43.39035" lon="6.66218">
        <ele>63</ele>
        <time>2013-10-13T09:39:06Z</time>
      </trkpt>
      <trkpt lat="43.39028" lon="6.66217">
        <ele>63</ele>
        <time>2013-10-13T09:39:09Z</time>
      </trkpt>
      <trkpt lat="43.39023" lon="6.66215">
        <ele>66</ele>
        <time>2013-10-13T09:39:12Z</time>
      </trkpt>
      <trkpt lat="43.39019" lon="6.6621">
        <ele>66.51000213623</ele>
        <time>2013-10-13T09:39:15Z</time>
      </trkpt>
      <trkpt lat="43.39014" lon="6.66199">
        <ele>68.219993591309</ele>
        <time>2013-10-13T09:39:20Z</time>
      </trkpt>
      <trkpt lat="43.39011" lon="6.66189">
        <ele>69</ele>
        <time>2013-10-13T09:39:23Z</time>
      </trkpt>
      <trkpt lat="43.39011" lon="6.66178">
        <ele>71</ele>
        <time>2013-10-13T09:39:26Z</time>
      </trkpt>
      <trkpt lat="43.39012" lon="6.66166">
        <ele>71</ele>
        <time>2013-10-13T09:39:29Z</time>
      </trkpt>
      <trkpt lat="43.39013" lon="6.66154">
        <ele>71</ele>
        <time>2013-10-13T09:39:32Z</time>
      </trkpt>
      <trkpt lat="43.39014" lon="6.66146">
        <ele>71</ele>
        <time>2013-10-13T09:39:34Z</time>
      </trkpt>
      <trkpt lat="43.39014" lon="6.66137">
        <ele>71</ele>
        <time>2013-10-13T09:39:36Z</time>
      </trkpt>
      <trkpt lat="43.39014" lon="6.66127">
        <ele>71</ele>
        <time>2013-10-13T09:39:38Z</time>
      </trkpt>
      <trkpt lat="43.39013" lon="6.66118">
        <ele>71.710006713867</ele>
        <time>2013-10-13T09:39:40Z</time>
      </trkpt>
      <trkpt lat="43.39013" lon="6.66108">
        <ele>72</ele>
        <time>2013-10-13T09:39:42Z</time>
      </trkpt>
      <trkpt lat="43.39013" lon="6.66098">
        <ele>72</ele>
        <time>2013-10-13T09:39:44Z</time>
      </trkpt>
      <trkpt lat="43.39014" lon="6.66088">
        <ele>72</ele>
        <time>2013-10-13T09:39:46Z</time>
      </trkpt>
      <trkpt lat="43.39016" lon="6.66078">
        <ele>72</ele>
        <time>2013-10-13T09:39:48Z</time>
      </trkpt>
      <trkpt lat="43.39016" lon="6.66067">
        <ele>72.5</ele>
        <time>2013-10-13T09:39:50Z</time>
      </trkpt>
      <trkpt lat="43.39016" lon="6.66056">
        <ele>73</ele>
        <time>2013-10-13T09:39:52Z</time>
      </trkpt>
      <trkpt lat="43.39016" lon="6.66051">
        <ele>73</ele>
        <time>2013-10-13T09:39:53Z</time>
      </trkpt>
      <trkpt lat="43.39016" lon="6.6604">
        <ele>73</ele>
        <time>2013-10-13T09:39:55Z</time>
      </trkpt>
      <trkpt lat="43.39015" lon="6.66035">
        <ele>73</ele>
        <time>2013-10-13T09:39:56Z</time>
      </trkpt>
      <trkpt lat="43.39013" lon="6.6603">
        <ele>73</ele>
        <time>2013-10-13T09:39:57Z</time>
      </trkpt>
      <trkpt lat="43.39008" lon="6.66023">
        <ele>73</ele>
        <time>2013-10-13T09:39:59Z</time>
      </trkpt>
      <trkpt lat="43.39" lon="6.66018">
        <ele>74</ele>
        <time>2013-10-13T09:40:01Z</time>
      </trkpt>
      <trkpt lat="43.38993" lon="6.66014">
        <ele>74</ele>
        <time>2013-10-13T09:40:03Z</time>
      </trkpt>
      <trkpt lat="43.38985" lon="6.66011">
        <ele>74</ele>
        <time>2013-10-13T09:40:05Z</time>
      </trkpt>
      <trkpt lat="43.38981" lon="6.66009">
        <ele>74</ele>
        <time>2013-10-13T09:40:06Z</time>
      </trkpt>
      <trkpt lat="43.38972" lon="6.66007">
        <ele>74</ele>
        <time>2013-10-13T09:40:08Z</time>
      </trkpt>
      <trkpt lat="43.38964" lon="6.66004">
        <ele>74</ele>
        <time>2013-10-13T09:40:10Z</time>
      </trkpt>
      <trkpt lat="43.38957" lon="6.66">
        <ele>74</ele>
        <time>2013-10-13T09:40:12Z</time>
      </trkpt>
      <trkpt lat="43.38947" lon="6.65992">
        <ele>74</ele>
        <time>2013-10-13T09:40:15Z</time>
      </trkpt>
      <trkpt lat="43.38941" lon="6.65985">
        <ele>74</ele>
        <time>2013-10-13T09:40:17Z</time>
      </trkpt>
      <trkpt lat="43.38935" lon="6.65978">
        <ele>74</ele>
        <time>2013-10-13T09:40:19Z</time>
      </trkpt>
      <trkpt lat="43.3893" lon="6.65971">
        <ele>76</ele>
        <time>2013-10-13T09:40:21Z</time>
      </trkpt>
      <trkpt lat="43.38924" lon="6.65964">
        <ele>76</ele>
        <time>2013-10-13T09:40:23Z</time>
      </trkpt>
      <trkpt lat="43.38917" lon="6.65957">
        <ele>76</ele>
        <time>2013-10-13T09:40:25Z</time>
      </trkpt>
      <trkpt lat="43.3891" lon="6.65951">
        <ele>76</ele>
        <time>2013-10-13T09:40:27Z</time>
      </trkpt>
      <trkpt lat="43.38902" lon="6.65946">
        <ele>76</ele>
        <time>2013-10-13T09:40:29Z</time>
      </trkpt>
      <trkpt lat="43.38895" lon="6.6594">
        <ele>79</ele>
        <time>2013-10-13T09:40:31Z</time>
      </trkpt>
      <trkpt lat="43.38887" lon="6.65933">
        <ele>79</ele>
        <time>2013-10-13T09:40:33Z</time>
      </trkpt>
      <trkpt lat="43.3888" lon="6.65927">
        <ele>79</ele>
        <time>2013-10-13T09:40:35Z</time>
      </trkpt>
      <trkpt lat="43.38873" lon="6.65921">
        <ele>79</ele>
        <time>2013-10-13T09:40:37Z</time>
      </trkpt>
      <trkpt lat="43.38865" lon="6.65915">
        <ele>79</ele>
        <time>2013-10-13T09:40:39Z</time>
      </trkpt>
      <trkpt lat="43.38856" lon="6.65912">
        <ele>80</ele>
        <time>2013-10-13T09:40:41Z</time>
      </trkpt>
      <trkpt lat="43.38846" lon="6.6591">
        <ele>80</ele>
        <time>2013-10-13T09:40:43Z</time>
      </trkpt>
      <trkpt lat="43.38836" lon="6.65909">
        <ele>80</ele>
        <time>2013-10-13T09:40:45Z</time>
      </trkpt>
      <trkpt lat="43.38826" lon="6.65909">
        <ele>80</ele>
        <time>2013-10-13T09:40:47Z</time>
      </trkpt>
      <trkpt lat="43.38817" lon="6.65908">
        <ele>80</ele>
        <time>2013-10-13T09:40:49Z</time>
      </trkpt>
      <trkpt lat="43.38812" lon="6.65908">
        <ele>80</ele>
        <time>2013-10-13T09:40:50Z</time>
      </trkpt>
      <trkpt lat="43.38807" lon="6.65909">
        <ele>80</ele>
        <time>2013-10-13T09:40:51Z</time>
      </trkpt>
      <trkpt lat="43.38802" lon="6.65911">
        <ele>80</ele>
        <time>2013-10-13T09:40:52Z</time>
      </trkpt>
      <trkpt lat="43.38788" lon="6.65922">
        <ele>80</ele>
        <time>2013-10-13T09:40:55Z</time>
      </trkpt>
      <trkpt lat="43.3878" lon="6.65935">
        <ele>80</ele>
        <time>2013-10-13T09:40:57Z</time>
      </trkpt>
      <trkpt lat="43.38773" lon="6.65952">
        <ele>80</ele>
        <time>2013-10-13T09:40:59Z</time>
      </trkpt>
      <trkpt lat="43.3877" lon="6.65962">
        <ele>78.377548217773</ele>
        <time>2013-10-13T09:41:00Z</time>
      </trkpt>
      <trkpt lat="43.38767" lon="6.65972">
        <ele>77</ele>
        <time>2013-10-13T09:41:01Z</time>
      </trkpt>
      <trkpt lat="43.38763" lon="6.65981">
        <ele>77</ele>
        <time>2013-10-13T09:41:02Z</time>
      </trkpt>
      <trkpt lat="43.38759" lon="6.6599">
        <ele>77</ele>
        <time>2013-10-13T09:41:03Z</time>
      </trkpt>
      <trkpt lat="43.38754" lon="6.65998">
        <ele>77</ele>
        <time>2013-10-13T09:41:04Z</time>
      </trkpt>
      <trkpt lat="43.38749" lon="6.66006">
        <ele>76.389991760254</ele>
        <time>2013-10-13T09:41:05Z</time>
      </trkpt>
      <trkpt lat="43.38737" lon="6.66019">
        <ele>76</ele>
        <time>2013-10-13T09:41:07Z</time>
      </trkpt>
      <trkpt lat="43.38726" lon="6.66031">
        <ele>76</ele>
        <time>2013-10-13T09:41:09Z</time>
      </trkpt>
      <trkpt lat="43.38718" lon="6.66045">
        <ele>76</ele>
        <time>2013-10-13T09:41:11Z</time>
      </trkpt>
      <trkpt lat="43.3871" lon="6.66058">
        <ele>76</ele>
        <time>2013-10-13T09:41:13Z</time>
      </trkpt>
      <trkpt lat="43.38701" lon="6.66069">
        <ele>76</ele>
        <time>2013-10-13T09:41:15Z</time>
      </trkpt>
      <trkpt lat="43.38694" lon="6.6608">
        <ele>76</ele>
        <time>2013-10-13T09:41:17Z</time>
      </trkpt>
      <trkpt lat="43.38687" lon="6.66092">
        <ele>76</ele>
        <time>2013-10-13T09:41:19Z</time>
      </trkpt>
      <trkpt lat="43.38682" lon="6.66105">
        <ele>77</ele>
        <time>2013-10-13T09:41:21Z</time>
      </trkpt>
      <trkpt lat="43.38676" lon="6.66122">
        <ele>77</ele>
        <time>2013-10-13T09:41:24Z</time>
      </trkpt>
      <trkpt lat="43.38671" lon="6.66133">
        <ele>77</ele>
        <time>2013-10-13T09:41:26Z</time>
      </trkpt>
      <trkpt lat="43.38666" lon="6.66144">
        <ele>77</ele>
        <time>2013-10-13T09:41:28Z</time>
      </trkpt>
      <trkpt lat="43.38662" lon="6.66155">
        <ele>78.020004272461</ele>
        <time>2013-10-13T09:41:30Z</time>
      </trkpt>
      <trkpt lat="43.38659" lon="6.66165">
        <ele>79</ele>
        <time>2013-10-13T09:41:32Z</time>
      </trkpt>
      <trkpt lat="43.38655" lon="6.66179">
        <ele>79</ele>
        <time>2013-10-13T09:41:35Z</time>
      </trkpt>
      <trkpt lat="43.3865" lon="6.66188">
        <ele>79</ele>
        <time>2013-10-13T09:41:38Z</time>
      </trkpt>
      <trkpt lat="43.38644" lon="6.66193">
        <ele>80.219993591309</ele>
        <time>2013-10-13T09:41:40Z</time>
      </trkpt>
      <trkpt lat="43.38636" lon="6.66196">
        <ele>81</ele>
        <time>2013-10-13T09:41:42Z</time>
      </trkpt>
      <trkpt lat="43.38628" lon="6.66198">
        <ele>81</ele>
        <time>2013-10-13T09:41:44Z</time>
      </trkpt>
      <trkpt lat="43.38618" lon="6.66198">
        <ele>81</ele>
        <time>2013-10-13T09:41:46Z</time>
      </trkpt>
      <trkpt lat="43.38609" lon="6.66197">
        <ele>81</ele>
        <time>2013-10-13T09:41:48Z</time>
      </trkpt>
      <trkpt lat="43.38598" lon="6.66193">
        <ele>81</ele>
        <time>2013-10-13T09:41:50Z</time>
      </trkpt>
      <trkpt lat="43.38588" lon="6.66187">
        <ele>81</ele>
        <time>2013-10-13T09:41:52Z</time>
      </trkpt>
      <trkpt lat="43.38583" lon="6.66184">
        <ele>81</ele>
        <time>2013-10-13T09:41:53Z</time>
      </trkpt>
      <trkpt lat="43.38579" lon="6.66179">
        <ele>81</ele>
        <time>2013-10-13T09:41:54Z</time>
      </trkpt>
      <trkpt lat="43.38575" lon="6.66174">
        <ele>81</ele>
        <time>2013-10-13T09:41:55Z</time>
      </trkpt>
      <trkpt lat="43.38572" lon="6.66167">
        <ele>81</ele>
        <time>2013-10-13T09:41:56Z</time>
      </trkpt>
      <trkpt lat="43.3857" lon="6.6616">
        <ele>81</ele>
        <time>2013-10-13T09:41:57Z</time>
      </trkpt>
      <trkpt lat="43.38567" lon="6.66153">
        <ele>81</ele>
        <time>2013-10-13T09:41:58Z</time>
      </trkpt>
      <trkpt lat="43.38565" lon="6.66145">
        <ele>81</ele>
        <time>2013-10-13T09:41:59Z</time>
      </trkpt>
      <trkpt lat="43.38563" lon="6.66127">
        <ele>80</ele>
        <time>2013-10-13T09:42:01Z</time>
      </trkpt>
      <trkpt lat="43.38559" lon="6.6611">
        <ele>80</ele>
        <time>2013-10-13T09:42:03Z</time>
      </trkpt>
      <trkpt lat="43.38557" lon="6.66102">
        <ele>80</ele>
        <time>2013-10-13T09:42:04Z</time>
      </trkpt>
      <trkpt lat="43.38556" lon="6.66094">
        <ele>80</ele>
        <time>2013-10-13T09:42:05Z</time>
      </trkpt>
      <trkpt lat="43.38556" lon="6.66085">
        <ele>80</ele>
        <time>2013-10-13T09:42:06Z</time>
      </trkpt>
      <trkpt lat="43.38558" lon="6.66077">
        <ele>80</ele>
        <time>2013-10-13T09:42:07Z</time>
      </trkpt>
      <trkpt lat="43.38562" lon="6.66071">
        <ele>80</ele>
        <time>2013-10-13T09:42:08Z</time>
      </trkpt>
      <trkpt lat="43.38567" lon="6.66064">
        <ele>80</ele>
        <time>2013-10-13T09:42:09Z</time>
      </trkpt>
      <trkpt lat="43.38571" lon="6.66048">
        <ele>79</ele>
        <time>2013-10-13T09:42:11Z</time>
      </trkpt>
      <trkpt lat="43.38566" lon="6.66036">
        <ele>79</ele>
        <time>2013-10-13T09:42:13Z</time>
      </trkpt>
      <trkpt lat="43.38554" lon="6.66029">
        <ele>79</ele>
        <time>2013-10-13T09:42:15Z</time>
      </trkpt>
      <trkpt lat="43.38543" lon="6.66019">
        <ele>79</ele>
        <time>2013-10-13T09:42:17Z</time>
      </trkpt>
      <trkpt lat="43.38533" lon="6.66009">
        <ele>79</ele>
        <time>2013-10-13T09:42:19Z</time>
      </trkpt>
      <trkpt lat="43.38524" lon="6.65997">
        <ele>79</ele>
        <time>2013-10-13T09:42:21Z</time>
      </trkpt>
      <trkpt lat="43.38514" lon="6.65986">
        <ele>79</ele>
        <time>2013-10-13T09:42:23Z</time>
      </trkpt>
      <trkpt lat="43.38503" lon="6.65974">
        <ele>79</ele>
        <time>2013-10-13T09:42:25Z</time>
      </trkpt>
      <trkpt lat="43.38494" lon="6.65958">
        <ele>79</ele>
        <time>2013-10-13T09:42:27Z</time>
      </trkpt>
      <trkpt lat="43.38491" lon="6.65949">
        <ele>79</ele>
        <time>2013-10-13T09:42:28Z</time>
      </trkpt>
      <trkpt lat="43.38489" lon="6.65939">
        <ele>79</ele>
        <time>2013-10-13T09:42:29Z</time>
      </trkpt>
      <trkpt lat="43.38488" lon="6.65929">
        <ele>77.17000579834</ele>
        <time>2013-10-13T09:42:30Z</time>
      </trkpt>
      <trkpt lat="43.38486" lon="6.65919">
        <ele>76</ele>
        <time>2013-10-13T09:42:31Z</time>
      </trkpt>
      <trkpt lat="43.38485" lon="6.6591">
        <ele>76</ele>
        <time>2013-10-13T09:42:32Z</time>
      </trkpt>
      <trkpt lat="43.38485" lon="6.659">
        <ele>76</ele>
        <time>2013-10-13T09:42:33Z</time>
      </trkpt>
      <trkpt lat="43.38484" lon="6.6589">
        <ele>76</ele>
        <time>2013-10-13T09:42:34Z</time>
      </trkpt>
      <trkpt lat="43.38485" lon="6.6588">
        <ele>74.779983520508</ele>
        <time>2013-10-13T09:42:35Z</time>
      </trkpt>
      <trkpt lat="43.38486" lon="6.65871">
        <ele>74</ele>
        <time>2013-10-13T09:42:36Z</time>
      </trkpt>
      <trkpt lat="43.3849" lon="6.65864">
        <ele>74</ele>
        <time>2013-10-13T09:42:37Z</time>
      </trkpt>
      <trkpt lat="43.38501" lon="6.65855">
        <ele>74</ele>
        <time>2013-10-13T09:42:39Z</time>
      </trkpt>
      <trkpt lat="43.38512" lon="6.65845">
        <ele>73</ele>
        <time>2013-10-13T09:42:41Z</time>
      </trkpt>
      <trkpt lat="43.38516" lon="6.6583">
        <ele>73</ele>
        <time>2013-10-13T09:42:43Z</time>
      </trkpt>
      <trkpt lat="43.38506" lon="6.6582">
        <ele>71.779983520508</ele>
        <time>2013-10-13T09:42:45Z</time>
      </trkpt>
      <trkpt lat="43.38491" lon="6.65817">
        <ele>71</ele>
        <time>2013-10-13T09:42:47Z</time>
      </trkpt>
      <trkpt lat="43.38479" lon="6.65815">
        <ele>71</ele>
        <time>2013-10-13T09:42:49Z</time>
      </trkpt>
      <trkpt lat="43.38473" lon="6.65813">
        <ele>71.610000610352</ele>
        <time>2013-10-13T09:42:50Z</time>
      </trkpt>
      <trkpt lat="43.38467" lon="6.65812">
        <ele>72</ele>
        <time>2013-10-13T09:42:51Z</time>
      </trkpt>
      <trkpt lat="43.38461" lon="6.65812">
        <ele>72</ele>
        <time>2013-10-13T09:42:52Z</time>
      </trkpt>
      <trkpt lat="43.38455" lon="6.65812">
        <ele>72</ele>
        <time>2013-10-13T09:42:53Z</time>
      </trkpt>
      <trkpt lat="43.38449" lon="6.65811">
        <ele>72</ele>
        <time>2013-10-13T09:42:54Z</time>
      </trkpt>
      <trkpt lat="43.38439" lon="6.65804">
        <ele>72</ele>
        <time>2013-10-13T09:42:56Z</time>
      </trkpt>
      <trkpt lat="43.38438" lon="6.65788">
        <ele>72</ele>
        <time>2013-10-13T09:42:58Z</time>
      </trkpt>
      <trkpt lat="43.38439" lon="6.65769">
        <ele>69.560012817383</ele>
        <time>2013-10-13T09:43:00Z</time>
      </trkpt>
      <trkpt lat="43.38439" lon="6.65759">
        <ele>68</ele>
        <time>2013-10-13T09:43:01Z</time>
      </trkpt>
      <trkpt lat="43.38441" lon="6.6574">
        <ele>68</ele>
        <time>2013-10-13T09:43:03Z</time>
      </trkpt>
      <trkpt lat="43.38446" lon="6.65731">
        <ele>68</ele>
        <time>2013-10-13T09:43:04Z</time>
      </trkpt>
      <trkpt lat="43.3845" lon="6.65723">
        <ele>67.389991760254</ele>
        <time>2013-10-13T09:43:05Z</time>
      </trkpt>
      <trkpt lat="43.3846" lon="6.65708">
        <ele>67</ele>
        <time>2013-10-13T09:43:07Z</time>
      </trkpt>
      <trkpt lat="43.3847" lon="6.65694">
        <ele>67</ele>
        <time>2013-10-13T09:43:09Z</time>
      </trkpt>
      <trkpt lat="43.38479" lon="6.65677">
        <ele>67</ele>
        <time>2013-10-13T09:43:11Z</time>
      </trkpt>
      <trkpt lat="43.38486" lon="6.65658">
        <ele>67</ele>
        <time>2013-10-13T09:43:13Z</time>
      </trkpt>
      <trkpt lat="43.3849" lon="6.65638">
        <ele>67</ele>
        <time>2013-10-13T09:43:15Z</time>
      </trkpt>
      <trkpt lat="43.38493" lon="6.65619">
        <ele>67</ele>
        <time>2013-10-13T09:43:17Z</time>
      </trkpt>
      <trkpt lat="43.38493" lon="6.65608">
        <ele>67</ele>
        <time>2013-10-13T09:43:18Z</time>
      </trkpt>
      <trkpt lat="43.38493" lon="6.65588">
        <ele>65.780006408691</ele>
        <time>2013-10-13T09:43:20Z</time>
      </trkpt>
      <trkpt lat="43.38495" lon="6.65569">
        <ele>65</ele>
        <time>2013-10-13T09:43:22Z</time>
      </trkpt>
      <trkpt lat="43.38497" lon="6.65559">
        <ele>65</ele>
        <time>2013-10-13T09:43:23Z</time>
      </trkpt>
      <trkpt lat="43.385" lon="6.6555">
        <ele>65</ele>
        <time>2013-10-13T09:43:24Z</time>
      </trkpt>
      <trkpt lat="43.38504" lon="6.65542">
        <ele>65</ele>
        <time>2013-10-13T09:43:25Z</time>
      </trkpt>
      <trkpt lat="43.38507" lon="6.65534">
        <ele>65</ele>
        <time>2013-10-13T09:43:26Z</time>
      </trkpt>
      <trkpt lat="43.38515" lon="6.65523">
        <ele>65</ele>
        <time>2013-10-13T09:43:28Z</time>
      </trkpt>
      <trkpt lat="43.38507" lon="6.65513">
        <ele>63</ele>
        <time>2013-10-13T09:43:32Z</time>
      </trkpt>
      <trkpt lat="43.38498" lon="6.65517">
        <ele>63</ele>
        <time>2013-10-13T09:43:34Z</time>
      </trkpt>
      <trkpt lat="43.3849" lon="6.65518">
        <ele>63</ele>
        <time>2013-10-13T09:43:36Z</time>
      </trkpt>
      <trkpt lat="43.38481" lon="6.65518">
        <ele>63</ele>
        <time>2013-10-13T09:43:38Z</time>
      </trkpt>
      <trkpt lat="43.38473" lon="6.65519">
        <ele>63</ele>
        <time>2013-10-13T09:43:40Z</time>
      </trkpt>
      <trkpt lat="43.38466" lon="6.65519">
        <ele>63</ele>
        <time>2013-10-13T09:43:42Z</time>
      </trkpt>
      <trkpt lat="43.38459" lon="6.65511">
        <ele>63</ele>
        <time>2013-10-13T09:43:45Z</time>
      </trkpt>
      <trkpt lat="43.38459" lon="6.65502">
        <ele>63</ele>
        <time>2013-10-13T09:43:47Z</time>
      </trkpt>
      <trkpt lat="43.38464" lon="6.65495">
        <ele>63</ele>
        <time>2013-10-13T09:43:49Z</time>
      </trkpt>
      <trkpt lat="43.38472" lon="6.65488">
        <ele>66</ele>
        <time>2013-10-13T09:43:52Z</time>
      </trkpt>
      <trkpt lat="43.38479" lon="6.6548">
        <ele>67.020004272461</ele>
        <time>2013-10-13T09:43:55Z</time>
      </trkpt>
      <trkpt lat="43.38483" lon="6.65474">
        <ele>68</ele>
        <time>2013-10-13T09:43:57Z</time>
      </trkpt>
      <trkpt lat="43.38488" lon="6.65469">
        <ele>68</ele>
        <time>2013-10-13T09:43:59Z</time>
      </trkpt>
      <trkpt lat="43.38493" lon="6.65463">
        <ele>69</ele>
        <time>2013-10-13T09:44:01Z</time>
      </trkpt>
      <trkpt lat="43.38497" lon="6.65458">
        <ele>69</ele>
        <time>2013-10-13T09:44:03Z</time>
      </trkpt>
      <trkpt lat="43.38502" lon="6.65453">
        <ele>69.944450378418</ele>
        <time>2013-10-13T09:44:05Z</time>
      </trkpt>
      <trkpt lat="43.38507" lon="6.65449">
        <ele>71</ele>
        <time>2013-10-13T09:44:07Z</time>
      </trkpt>
      <trkpt lat="43.38512" lon="6.65443">
        <ele>71</ele>
        <time>2013-10-13T09:44:09Z</time>
      </trkpt>
      <trkpt lat="43.38517" lon="6.65433">
        <ele>71</ele>
        <time>2013-10-13T09:44:11Z</time>
      </trkpt>
      <trkpt lat="43.38521" lon="6.6542">
        <ele>71</ele>
        <time>2013-10-13T09:44:13Z</time>
      </trkpt>
      <trkpt lat="43.3852" lon="6.65409">
        <ele>71</ele>
        <time>2013-10-13T09:44:15Z</time>
      </trkpt>
      <trkpt lat="43.38516" lon="6.65399">
        <ele>71</ele>
        <time>2013-10-13T09:44:17Z</time>
      </trkpt>
      <trkpt lat="43.38511" lon="6.65389">
        <ele>71</ele>
        <time>2013-10-13T09:44:20Z</time>
      </trkpt>
      <trkpt lat="43.38508" lon="6.65383">
        <ele>71</ele>
        <time>2013-10-13T09:44:23Z</time>
      </trkpt>
      <trkpt lat="43.38503" lon="6.65378">
        <ele>71</ele>
        <time>2013-10-13T09:44:26Z</time>
      </trkpt>
      <trkpt lat="43.38498" lon="6.65374">
        <ele>71</ele>
        <time>2013-10-13T09:44:28Z</time>
      </trkpt>
      <trkpt lat="43.38494" lon="6.6537">
        <ele>72.020004272461</ele>
        <time>2013-10-13T09:44:30Z</time>
      </trkpt>
      <trkpt lat="43.38489" lon="6.65363">
        <ele>73</ele>
        <time>2013-10-13T09:44:33Z</time>
      </trkpt>
      <trkpt lat="43.38486" lon="6.65355">
        <ele>73</ele>
        <time>2013-10-13T09:44:36Z</time>
      </trkpt>
      <trkpt lat="43.38485" lon="6.65344">
        <ele>74.5</ele>
        <time>2013-10-13T09:44:40Z</time>
      </trkpt>
      <trkpt lat="43.38484" lon="6.65336">
        <ele>76</ele>
        <time>2013-10-13T09:44:43Z</time>
      </trkpt>
      <trkpt lat="43.38484" lon="6.65329">
        <ele>79</ele>
        <time>2013-10-13T09:44:46Z</time>
      </trkpt>
      <trkpt lat="43.38484" lon="6.65322">
        <ele>79</ele>
        <time>2013-10-13T09:44:49Z</time>
      </trkpt>
      <trkpt lat="43.38484" lon="6.65315">
        <ele>80</ele>
        <time>2013-10-13T09:44:52Z</time>
      </trkpt>
      <trkpt lat="43.38483" lon="6.65308">
        <ele>81</ele>
        <time>2013-10-13T09:44:56Z</time>
      </trkpt>
      <trkpt lat="43.38484" lon="6.65302">
        <ele>81</ele>
        <time>2013-10-13T09:44:59Z</time>
      </trkpt>
      <trkpt lat="43.38484" lon="6.65295">
        <ele>83</ele>
        <time>2013-10-13T09:45:03Z</time>
      </trkpt>
      <trkpt lat="43.38485" lon="6.65287">
        <ele>84</ele>
        <time>2013-10-13T09:45:07Z</time>
      </trkpt>
      <trkpt lat="43.38485" lon="6.65281">
        <ele>84.610000610352</ele>
        <time>2013-10-13T09:45:10Z</time>
      </trkpt>
      <trkpt lat="43.38486" lon="6.65275">
        <ele>85</ele>
        <time>2013-10-13T09:45:13Z</time>
      </trkpt>
      <trkpt lat="43.38487" lon="6.65271">
        <ele>85</ele>
        <time>2013-10-13T09:45:15Z</time>
      </trkpt>
      <trkpt lat="43.38488" lon="6.65267">
        <ele>85</ele>
        <time>2013-10-13T09:45:17Z</time>
      </trkpt>
      <trkpt lat="43.38489" lon="6.65262">
        <ele>85</ele>
        <time>2013-10-13T09:45:19Z</time>
      </trkpt>
      <trkpt lat="43.3849" lon="6.65257">
        <ele>86</ele>
        <time>2013-10-13T09:45:21Z</time>
      </trkpt>
      <trkpt lat="43.3849" lon="6.65251">
        <ele>86</ele>
        <time>2013-10-13T09:45:24Z</time>
      </trkpt>
      <trkpt lat="43.3849" lon="6.65245">
        <ele>86</ele>
        <time>2013-10-13T09:45:27Z</time>
      </trkpt>
      <trkpt lat="43.38489" lon="6.6524">
        <ele>87.5</ele>
        <time>2013-10-13T09:45:30Z</time>
      </trkpt>
      <trkpt lat="43.38489" lon="6.65231">
        <ele>89</ele>
        <time>2013-10-13T09:45:34Z</time>
      </trkpt>
      <trkpt lat="43.3849" lon="6.65226">
        <ele>90</ele>
        <time>2013-10-13T09:45:36Z</time>
      </trkpt>
      <trkpt lat="43.38491" lon="6.65215">
        <ele>90.51000213623</ele>
        <time>2013-10-13T09:45:40Z</time>
      </trkpt>
      <trkpt lat="43.38493" lon="6.65205">
        <ele>91</ele>
        <time>2013-10-13T09:45:43Z</time>
      </trkpt>
      <trkpt lat="43.38493" lon="6.65196">
        <ele>91</ele>
        <time>2013-10-13T09:45:46Z</time>
      </trkpt>
      <trkpt lat="43.38497" lon="6.65186">
        <ele>92.219993591309</ele>
        <time>2013-10-13T09:45:50Z</time>
      </trkpt>
      <trkpt lat="43.38503" lon="6.65179">
        <ele>93</ele>
        <time>2013-10-13T09:45:54Z</time>
      </trkpt>
      <trkpt lat="43.38508" lon="6.65173">
        <ele>93</ele>
        <time>2013-10-13T09:45:57Z</time>
      </trkpt>
      <trkpt lat="43.38512" lon="6.6517">
        <ele>93</ele>
        <time>2013-10-13T09:45:59Z</time>
      </trkpt>
      <trkpt lat="43.38515" lon="6.65166">
        <ele>94</ele>
        <time>2013-10-13T09:46:01Z</time>
      </trkpt>
      <trkpt lat="43.38519" lon="6.65162">
        <ele>94</ele>
        <time>2013-10-13T09:46:03Z</time>
      </trkpt>
      <trkpt lat="43.38522" lon="6.65157">
        <ele>94</ele>
        <time>2013-10-13T09:46:05Z</time>
      </trkpt>
      <trkpt lat="43.38526" lon="6.65153">
        <ele>94</ele>
        <time>2013-10-13T09:46:07Z</time>
      </trkpt>
      <trkpt lat="43.3853" lon="6.65144">
        <ele>95.219993591309</ele>
        <time>2013-10-13T09:46:10Z</time>
      </trkpt>
      <trkpt lat="43.38533" lon="6.65136">
        <ele>96</ele>
        <time>2013-10-13T09:46:13Z</time>
      </trkpt>
      <trkpt lat="43.38535" lon="6.65131">
        <ele>96</ele>
        <time>2013-10-13T09:46:15Z</time>
      </trkpt>
      <trkpt lat="43.38537" lon="6.65125">
        <ele>96</ele>
        <time>2013-10-13T09:46:17Z</time>
      </trkpt>
      <trkpt lat="43.3854" lon="6.65119">
        <ele>96</ele>
        <time>2013-10-13T09:46:19Z</time>
      </trkpt>
      <trkpt lat="43.38543" lon="6.65115">
        <ele>97</ele>
        <time>2013-10-13T09:46:21Z</time>
      </trkpt>
      <trkpt lat="43.38546" lon="6.65111">
        <ele>97</ele>
        <time>2013-10-13T09:46:23Z</time>
      </trkpt>
      <trkpt lat="43.38549" lon="6.65107">
        <ele>97</ele>
        <time>2013-10-13T09:46:25Z</time>
      </trkpt>
      <trkpt lat="43.38552" lon="6.65101">
        <ele>97</ele>
        <time>2013-10-13T09:46:28Z</time>
      </trkpt>
      <trkpt lat="43.38556" lon="6.65098">
        <ele>98.219993591309</ele>
        <time>2013-10-13T09:46:30Z</time>
      </trkpt>
      <trkpt lat="43.3856" lon="6.65096">
        <ele>99</ele>
        <time>2013-10-13T09:46:32Z</time>
      </trkpt>
      <trkpt lat="43.38565" lon="6.65092">
        <ele>99</ele>
        <time>2013-10-13T09:46:34Z</time>
      </trkpt>
      <trkpt lat="43.38569" lon="6.65089">
        <ele>99</ele>
        <time>2013-10-13T09:46:36Z</time>
      </trkpt>
      <trkpt lat="43.38574" lon="6.65084">
        <ele>99</ele>
        <time>2013-10-13T09:46:38Z</time>
      </trkpt>
      <trkpt lat="43.38578" lon="6.65079">
        <ele>100.08163452148</ele>
        <time>2013-10-13T09:46:40Z</time>
      </trkpt>
      <trkpt lat="43.38581" lon="6.65074">
        <ele>101</ele>
        <time>2013-10-13T09:46:42Z</time>
      </trkpt>
      <trkpt lat="43.38586" lon="6.6506">
        <ele>101</ele>
        <time>2013-10-13T09:46:47Z</time>
      </trkpt>
      <trkpt lat="43.38587" lon="6.65047">
        <ele>102</ele>
        <time>2013-10-13T09:46:52Z</time>
      </trkpt>
      <trkpt lat="43.38586" lon="6.65034">
        <ele>102</ele>
        <time>2013-10-13T09:46:57Z</time>
      </trkpt>
      <trkpt lat="43.38586" lon="6.65019">
        <ele>106</ele>
        <time>2013-10-13T09:47:02Z</time>
      </trkpt>
      <trkpt lat="43.38586" lon="6.65004">
        <ele>107</ele>
        <time>2013-10-13T09:47:07Z</time>
      </trkpt>
      <trkpt lat="43.38585" lon="6.64995">
        <ele>112.61000823975</ele>
        <time>2013-10-13T09:47:11Z</time>
      </trkpt>
      <trkpt lat="43.38583" lon="6.64983">
        <ele>113.51000213623</ele>
        <time>2013-10-13T09:47:16Z</time>
      </trkpt>
      <trkpt lat="43.38583" lon="6.64971">
        <ele>114</ele>
        <time>2013-10-13T09:47:21Z</time>
      </trkpt>
      <trkpt lat="43.38584" lon="6.64961">
        <ele>114</ele>
        <time>2013-10-13T09:47:25Z</time>
      </trkpt>
      <trkpt lat="43.38584" lon="6.64956">
        <ele>114</ele>
        <time>2013-10-13T09:47:27Z</time>
      </trkpt>
      <trkpt lat="43.38585" lon="6.64952">
        <ele>114</ele>
        <time>2013-10-13T09:47:29Z</time>
      </trkpt>
      <trkpt lat="43.38585" lon="6.64945">
        <ele>116</ele>
        <time>2013-10-13T09:47:32Z</time>
      </trkpt>
      <trkpt lat="43.38585" lon="6.64939">
        <ele>116</ele>
        <time>2013-10-13T09:47:34Z</time>
      </trkpt>
      <trkpt lat="43.38585" lon="6.64932">
        <ele>116</ele>
        <time>2013-10-13T09:47:37Z</time>
      </trkpt>
      <trkpt lat="43.38585" lon="6.64926">
        <ele>117.02000427246</ele>
        <time>2013-10-13T09:47:40Z</time>
      </trkpt>
      <trkpt lat="43.38585" lon="6.64918">
        <ele>118</ele>
        <time>2013-10-13T09:47:44Z</time>
      </trkpt>
      <trkpt lat="43.38587" lon="6.64913">
        <ele>118</ele>
        <time>2013-10-13T09:47:47Z</time>
      </trkpt>
      <trkpt lat="43.38591" lon="6.64908">
        <ele>120</ele>
        <time>2013-10-13T09:47:51Z</time>
      </trkpt>
      <trkpt lat="43.38596" lon="6.64902">
        <ele>120</ele>
        <time>2013-10-13T09:47:55Z</time>
      </trkpt>
      <trkpt lat="43.38602" lon="6.64897">
        <ele>120</ele>
        <time>2013-10-13T09:47:59Z</time>
      </trkpt>
      <trkpt lat="43.38606" lon="6.64893">
        <ele>122</ele>
        <time>2013-10-13T09:48:02Z</time>
      </trkpt>
      <trkpt lat="43.38612" lon="6.64888">
        <ele>122</ele>
        <time>2013-10-13T09:48:06Z</time>
      </trkpt>
      <trkpt lat="43.38618" lon="6.64885">
        <ele>122</ele>
        <time>2013-10-13T09:48:09Z</time>
      </trkpt>
      <trkpt lat="43.38624" lon="6.64881">
        <ele>125</ele>
        <time>2013-10-13T09:48:12Z</time>
      </trkpt>
      <trkpt lat="43.3863" lon="6.64878">
        <ele>125.61000823975</ele>
        <time>2013-10-13T09:48:15Z</time>
      </trkpt>
      <trkpt lat="43.38638" lon="6.64873">
        <ele>126</ele>
        <time>2013-10-13T09:48:18Z</time>
      </trkpt>
      <trkpt lat="43.38643" lon="6.64869">
        <ele>126</ele>
        <time>2013-10-13T09:48:20Z</time>
      </trkpt>
      <trkpt lat="43.38648" lon="6.64866">
        <ele>126</ele>
        <time>2013-10-13T09:48:22Z</time>
      </trkpt>
      <trkpt lat="43.38655" lon="6.64861">
        <ele>126</ele>
        <time>2013-10-13T09:48:25Z</time>
      </trkpt>
      <trkpt lat="43.38663" lon="6.64859">
        <ele>126</ele>
        <time>2013-10-13T09:48:28Z</time>
      </trkpt>
      <trkpt lat="43.3867" lon="6.64857">
        <ele>127</ele>
        <time>2013-10-13T09:48:31Z</time>
      </trkpt>
      <trkpt lat="43.38677" lon="6.64856">
        <ele>127</ele>
        <time>2013-10-13T09:48:34Z</time>
      </trkpt>
      <trkpt lat="43.38684" lon="6.64856">
        <ele>127</ele>
        <time>2013-10-13T09:48:37Z</time>
      </trkpt>
      <trkpt lat="43.38691" lon="6.64856">
        <ele>128.02000427246</ele>
        <time>2013-10-13T09:48:40Z</time>
      </trkpt>
      <trkpt lat="43.38699" lon="6.64854">
        <ele>129</ele>
        <time>2013-10-13T09:48:44Z</time>
      </trkpt>
      <trkpt lat="43.38705" lon="6.64851">
        <ele>131</ele>
        <time>2013-10-13T09:48:47Z</time>
      </trkpt>
      <trkpt lat="43.38713" lon="6.64849">
        <ele>131</ele>
        <time>2013-10-13T09:48:51Z</time>
      </trkpt>
      <trkpt lat="43.38721" lon="6.64847">
        <ele>131</ele>
        <time>2013-10-13T09:48:55Z</time>
      </trkpt>
      <trkpt lat="43.38728" lon="6.64844">
        <ele>131</ele>
        <time>2013-10-13T09:48:59Z</time>
      </trkpt>
      <trkpt lat="43.38736" lon="6.64841">
        <ele>134</ele>
        <time>2013-10-13T09:49:03Z</time>
      </trkpt>
      <trkpt lat="43.38745" lon="6.64834">
        <ele>135</ele>
        <time>2013-10-13T09:49:08Z</time>
      </trkpt>
      <trkpt lat="43.38753" lon="6.64822">
        <ele>136</ele>
        <time>2013-10-13T09:49:12Z</time>
      </trkpt>
      <trkpt lat="43.38756" lon="6.64812">
        <ele>136</ele>
        <time>2013-10-13T09:49:14Z</time>
      </trkpt>
      <trkpt lat="43.38758" lon="6.64802">
        <ele>136</ele>
        <time>2013-10-13T09:49:16Z</time>
      </trkpt>
      <trkpt lat="43.3876" lon="6.64794">
        <ele>136</ele>
        <time>2013-10-13T09:49:18Z</time>
      </trkpt>
      <trkpt lat="43.38761" lon="6.64786">
        <ele>136.51000976562</ele>
        <time>2013-10-13T09:49:20Z</time>
      </trkpt>
      <trkpt lat="43.38762" lon="6.64778">
        <ele>137</ele>
        <time>2013-10-13T09:49:22Z</time>
      </trkpt>
      <trkpt lat="43.38765" lon="6.64768">
        <ele>137</ele>
        <time>2013-10-13T09:49:25Z</time>
      </trkpt>
      <trkpt lat="43.38766" lon="6.64762">
        <ele>137</ele>
        <time>2013-10-13T09:49:27Z</time>
      </trkpt>
      <trkpt lat="43.3877" lon="6.64754">
        <ele>137.5108795166</ele>
        <time>2013-10-13T09:49:30Z</time>
      </trkpt>
      <trkpt lat="43.38773" lon="6.64749">
        <ele>138</ele>
        <time>2013-10-13T09:49:33Z</time>
      </trkpt>
      <trkpt lat="43.38781" lon="6.64743">
        <ele>138</ele>
        <time>2013-10-13T09:49:38Z</time>
      </trkpt>
      <trkpt lat="43.38789" lon="6.64742">
        <ele>142</ele>
        <time>2013-10-13T09:49:43Z</time>
      </trkpt>
      <trkpt lat="43.38799" lon="6.64741">
        <ele>144</ele>
        <time>2013-10-13T09:49:49Z</time>
      </trkpt>
      <trkpt lat="43.38808" lon="6.6474">
        <ele>144</ele>
        <time>2013-10-13T09:49:53Z</time>
      </trkpt>
      <trkpt lat="43.38818" lon="6.6474">
        <ele>144</ele>
        <time>2013-10-13T09:49:57Z</time>
      </trkpt>
      <trkpt lat="43.38825" lon="6.64741">
        <ele>145.2200012207</ele>
        <time>2013-10-13T09:50:00Z</time>
      </trkpt>
      <trkpt lat="43.38832" lon="6.64743">
        <ele>146</ele>
        <time>2013-10-13T09:50:03Z</time>
      </trkpt>
      <trkpt lat="43.38838" lon="6.64746">
        <ele>146</ele>
        <time>2013-10-13T09:50:06Z</time>
      </trkpt>
      <trkpt lat="43.38844" lon="6.64749">
        <ele>147.05999755859</ele>
        <time>2013-10-13T09:50:10Z</time>
      </trkpt>
      <trkpt lat="43.38851" lon="6.64752">
        <ele>148</ele>
        <time>2013-10-13T09:50:14Z</time>
      </trkpt>
      <trkpt lat="43.38859" lon="6.64753">
        <ele>148</ele>
        <time>2013-10-13T09:50:18Z</time>
      </trkpt>
      <trkpt lat="43.38866" lon="6.64754">
        <ele>150</ele>
        <time>2013-10-13T09:50:22Z</time>
      </trkpt>
      <trkpt lat="43.38873" lon="6.64752">
        <ele>150</ele>
        <time>2013-10-13T09:50:26Z</time>
      </trkpt>
      <trkpt lat="43.38878" lon="6.64748">
        <ele>150</ele>
        <time>2013-10-13T09:50:29Z</time>
      </trkpt>
      <trkpt lat="43.38884" lon="6.64744">
        <ele>153</ele>
        <time>2013-10-13T09:50:32Z</time>
      </trkpt>
      <trkpt lat="43.38894" lon="6.64737">
        <ele>154</ele>
        <time>2013-10-13T09:50:37Z</time>
      </trkpt>
      <trkpt lat="43.38901" lon="6.64731">
        <ele>155</ele>
        <time>2013-10-13T09:50:41Z</time>
      </trkpt>
      <trkpt lat="43.38906" lon="6.64728">
        <ele>155</ele>
        <time>2013-10-13T09:50:44Z</time>
      </trkpt>
      <trkpt lat="43.38913" lon="6.64723">
        <ele>155</ele>
        <time>2013-10-13T09:50:48Z</time>
      </trkpt>
      <trkpt lat="43.38921" lon="6.64719">
        <ele>156</ele>
        <time>2013-10-13T09:50:52Z</time>
      </trkpt>
      <trkpt lat="43.38927" lon="6.64716">
        <ele>156</ele>
        <time>2013-10-13T09:50:55Z</time>
      </trkpt>
      <trkpt lat="43.38936" lon="6.64713">
        <ele>156</ele>
        <time>2013-10-13T09:50:59Z</time>
      </trkpt>
      <trkpt lat="43.38944" lon="6.6471">
        <ele>158</ele>
        <time>2013-10-13T09:51:02Z</time>
      </trkpt>
      <trkpt lat="43.38951" lon="6.64706">
        <ele>158</ele>
        <time>2013-10-13T09:51:05Z</time>
      </trkpt>
      <trkpt lat="43.38958" lon="6.64703">
        <ele>158</ele>
        <time>2013-10-13T09:51:08Z</time>
      </trkpt>
      <trkpt lat="43.38964" lon="6.64699">
        <ele>158</ele>
        <time>2013-10-13T09:51:11Z</time>
      </trkpt>
      <trkpt lat="43.38971" lon="6.64694">
        <ele>158</ele>
        <time>2013-10-13T09:51:16Z</time>
      </trkpt>
      <trkpt lat="43.38979" lon="6.64689">
        <ele>160</ele>
        <time>2013-10-13T09:51:22Z</time>
      </trkpt>
      <trkpt lat="43.38984" lon="6.64684">
        <ele>160</ele>
        <time>2013-10-13T09:51:26Z</time>
      </trkpt>
      <trkpt lat="43.38991" lon="6.64678">
        <ele>162</ele>
        <time>2013-10-13T09:51:31Z</time>
      </trkpt>
      <trkpt lat="43.38995" lon="6.64671">
        <ele>162</ele>
        <time>2013-10-13T09:51:35Z</time>
      </trkpt>
      <trkpt lat="43.39001" lon="6.64662">
        <ele>163.82998657227</ele>
        <time>2013-10-13T09:51:40Z</time>
      </trkpt>
      <trkpt lat="43.39006" lon="6.64654">
        <ele>165</ele>
        <time>2013-10-13T09:51:44Z</time>
      </trkpt>
      <trkpt lat="43.39013" lon="6.64647">
        <ele>167</ele>
        <time>2013-10-13T09:51:48Z</time>
      </trkpt>
      <trkpt lat="43.39019" lon="6.6464">
        <ele>168</ele>
        <time>2013-10-13T09:51:52Z</time>
      </trkpt>
      <trkpt lat="43.39025" lon="6.64633">
        <ele>168</ele>
        <time>2013-10-13T09:51:56Z</time>
      </trkpt>
      <trkpt lat="43.39033" lon="6.64629">
        <ele>169.2200012207</ele>
        <time>2013-10-13T09:52:00Z</time>
      </trkpt>
      <trkpt lat="43.3904" lon="6.64625">
        <ele>170</ele>
        <time>2013-10-13T09:52:04Z</time>
      </trkpt>
      <trkpt lat="43.39048" lon="6.64624">
        <ele>170</ele>
        <time>2013-10-13T09:52:08Z</time>
      </trkpt>
      <trkpt lat="43.39055" lon="6.64622">
        <ele>172</ele>
        <time>2013-10-13T09:52:12Z</time>
      </trkpt>
      <trkpt lat="43.39064" lon="6.64621">
        <ele>172</ele>
        <time>2013-10-13T09:52:17Z</time>
      </trkpt>
      <trkpt lat="43.39072" lon="6.6462">
        <ele>173</ele>
        <time>2013-10-13T09:52:21Z</time>
      </trkpt>
      <trkpt lat="43.39079" lon="6.64618">
        <ele>173</ele>
        <time>2013-10-13T09:52:25Z</time>
      </trkpt>
      <trkpt lat="43.39086" lon="6.64616">
        <ele>173</ele>
        <time>2013-10-13T09:52:29Z</time>
      </trkpt>
      <trkpt lat="43.39093" lon="6.64614">
        <ele>174</ele>
        <time>2013-10-13T09:52:33Z</time>
      </trkpt>
      <trkpt lat="43.391" lon="6.64611">
        <ele>174</ele>
        <time>2013-10-13T09:52:38Z</time>
      </trkpt>
      <trkpt lat="43.39109" lon="6.64608">
        <ele>177</ele>
        <time>2013-10-13T09:52:43Z</time>
      </trkpt>
      <trkpt lat="43.39117" lon="6.64608">
        <ele>178</ele>
        <time>2013-10-13T09:52:47Z</time>
      </trkpt>
      <trkpt lat="43.39124" lon="6.64609">
        <ele>179.42001342773</ele>
        <time>2013-10-13T09:52:50Z</time>
      </trkpt>
      <trkpt lat="43.3913" lon="6.64611">
        <ele>180</ele>
        <time>2013-10-13T09:52:53Z</time>
      </trkpt>
      <trkpt lat="43.39138" lon="6.64612">
        <ele>181</ele>
        <time>2013-10-13T09:52:56Z</time>
      </trkpt>
      <trkpt lat="43.39145" lon="6.64612">
        <ele>181</ele>
        <time>2013-10-13T09:52:59Z</time>
      </trkpt>
      <trkpt lat="43.39152" lon="6.64613">
        <ele>181</ele>
        <time>2013-10-13T09:53:02Z</time>
      </trkpt>
      <trkpt lat="43.39159" lon="6.64612">
        <ele>181</ele>
        <time>2013-10-13T09:53:05Z</time>
      </trkpt>
      <trkpt lat="43.39165" lon="6.64611">
        <ele>181</ele>
        <time>2013-10-13T09:53:08Z</time>
      </trkpt>
      <trkpt lat="43.39172" lon="6.64609">
        <ele>181</ele>
        <time>2013-10-13T09:53:11Z</time>
      </trkpt>
      <trkpt lat="43.39178" lon="6.64607">
        <ele>181</ele>
        <time>2013-10-13T09:53:14Z</time>
      </trkpt>
      <trkpt lat="43.39185" lon="6.64605">
        <ele>181</ele>
        <time>2013-10-13T09:53:17Z</time>
      </trkpt>
      <trkpt lat="43.39192" lon="6.64602">
        <ele>185</ele>
        <time>2013-10-13T09:53:21Z</time>
      </trkpt>
      <trkpt lat="43.392" lon="6.646">
        <ele>186.22001647949</ele>
        <time>2013-10-13T09:53:25Z</time>
      </trkpt>
      <trkpt lat="43.39207" lon="6.64597">
        <ele>187</ele>
        <time>2013-10-13T09:53:29Z</time>
      </trkpt>
      <trkpt lat="43.39213" lon="6.64595">
        <ele>187</ele>
        <time>2013-10-13T09:53:32Z</time>
      </trkpt>
      <trkpt lat="43.3922" lon="6.64593">
        <ele>187</ele>
        <time>2013-10-13T09:53:35Z</time>
      </trkpt>
      <trkpt lat="43.39227" lon="6.64591">
        <ele>187</ele>
        <time>2013-10-13T09:53:38Z</time>
      </trkpt>
      <trkpt lat="43.39234" lon="6.64589">
        <ele>189</ele>
        <time>2013-10-13T09:53:41Z</time>
      </trkpt>
      <trkpt lat="43.39241" lon="6.64585">
        <ele>189</ele>
        <time>2013-10-13T09:53:44Z</time>
      </trkpt>
      <trkpt lat="43.39247" lon="6.64581">
        <ele>189</ele>
        <time>2013-10-13T09:53:47Z</time>
      </trkpt>
      <trkpt lat="43.39252" lon="6.64579">
        <ele>189</ele>
        <time>2013-10-13T09:53:49Z</time>
      </trkpt>
      <trkpt lat="43.3926" lon="6.64577">
        <ele>190</ele>
        <time>2013-10-13T09:53:52Z</time>
      </trkpt>
      <trkpt lat="43.39268" lon="6.64577">
        <ele>190</ele>
        <time>2013-10-13T09:53:55Z</time>
      </trkpt>
      <trkpt lat="43.39277" lon="6.64578">
        <ele>190</ele>
        <time>2013-10-13T09:53:58Z</time>
      </trkpt>
      <trkpt lat="43.39285" lon="6.6458">
        <ele>191</ele>
        <time>2013-10-13T09:54:01Z</time>
      </trkpt>
      <trkpt lat="43.39292" lon="6.64582">
        <ele>191</ele>
        <time>2013-10-13T09:54:04Z</time>
      </trkpt>
      <trkpt lat="43.393" lon="6.64583">
        <ele>191</ele>
        <time>2013-10-13T09:54:07Z</time>
      </trkpt>
      <trkpt lat="43.39307" lon="6.64586">
        <ele>192.2200012207</ele>
        <time>2013-10-13T09:54:10Z</time>
      </trkpt>
      <trkpt lat="43.39311" lon="6.64588">
        <ele>193</ele>
        <time>2013-10-13T09:54:12Z</time>
      </trkpt>
      <trkpt lat="43.39316" lon="6.64591">
        <ele>193</ele>
        <time>2013-10-13T09:54:14Z</time>
      </trkpt>
      <trkpt lat="43.3932" lon="6.64595">
        <ele>193</ele>
        <time>2013-10-13T09:54:16Z</time>
      </trkpt>
      <trkpt lat="43.39325" lon="6.64601">
        <ele>193</ele>
        <time>2013-10-13T09:54:18Z</time>
      </trkpt>
      <trkpt lat="43.39328" lon="6.64606">
        <ele>194.2200012207</ele>
        <time>2013-10-13T09:54:20Z</time>
      </trkpt>
      <trkpt lat="43.39331" lon="6.64612">
        <ele>195</ele>
        <time>2013-10-13T09:54:22Z</time>
      </trkpt>
      <trkpt lat="43.39334" lon="6.64619">
        <ele>195</ele>
        <time>2013-10-13T09:54:24Z</time>
      </trkpt>
      <trkpt lat="43.39336" lon="6.64627">
        <ele>195</ele>
        <time>2013-10-13T09:54:26Z</time>
      </trkpt>
      <trkpt lat="43.39339" lon="6.64633">
        <ele>195</ele>
        <time>2013-10-13T09:54:28Z</time>
      </trkpt>
      <trkpt lat="43.39345" lon="6.64637">
        <ele>195.61000061035</ele>
        <time>2013-10-13T09:54:30Z</time>
      </trkpt>
      <trkpt lat="43.39351" lon="6.64634">
        <ele>196</ele>
        <time>2013-10-13T09:54:33Z</time>
      </trkpt>
      <trkpt lat="43.39358" lon="6.64632">
        <ele>196</ele>
        <time>2013-10-13T09:54:37Z</time>
      </trkpt>
      <trkpt lat="43.39363" lon="6.64633">
        <ele>197.82998657227</ele>
        <time>2013-10-13T09:54:40Z</time>
      </trkpt>
      <trkpt lat="43.3937" lon="6.64636">
        <ele>199</ele>
        <time>2013-10-13T09:54:43Z</time>
      </trkpt>
      <trkpt lat="43.39375" lon="6.64637">
        <ele>199</ele>
        <time>2013-10-13T09:54:46Z</time>
      </trkpt>
      <trkpt lat="43.3938" lon="6.64638">
        <ele>199</ele>
        <time>2013-10-13T09:54:49Z</time>
      </trkpt>
      <trkpt lat="43.39385" lon="6.64638">
        <ele>200</ele>
        <time>2013-10-13T09:54:52Z</time>
      </trkpt>
      <trkpt lat="43.3939" lon="6.64639">
        <ele>200</ele>
        <time>2013-10-13T09:54:55Z</time>
      </trkpt>
      <trkpt lat="43.39395" lon="6.64641">
        <ele>200</ele>
        <time>2013-10-13T09:54:58Z</time>
      </trkpt>
      <trkpt lat="43.394" lon="6.64645">
        <ele>203</ele>
        <time>2013-10-13T09:55:01Z</time>
      </trkpt>
      <trkpt lat="43.39405" lon="6.64649">
        <ele>203</ele>
        <time>2013-10-13T09:55:04Z</time>
      </trkpt>
      <trkpt lat="43.3941" lon="6.64652">
        <ele>204</ele>
        <time>2013-10-13T09:55:07Z</time>
      </trkpt>
      <trkpt lat="43.39417" lon="6.64654">
        <ele>204.43876647949</ele>
        <time>2013-10-13T09:55:10Z</time>
      </trkpt>
      <trkpt lat="43.39421" lon="6.64655">
        <ele>205</ele>
        <time>2013-10-13T09:55:12Z</time>
      </trkpt>
      <trkpt lat="43.39425" lon="6.64656">
        <ele>205</ele>
        <time>2013-10-13T09:55:14Z</time>
      </trkpt>
      <trkpt lat="43.3943" lon="6.64656">
        <ele>205</ele>
        <time>2013-10-13T09:55:16Z</time>
      </trkpt>
      <trkpt lat="43.39434" lon="6.64655">
        <ele>205</ele>
        <time>2013-10-13T09:55:18Z</time>
      </trkpt>
      <trkpt lat="43.39439" lon="6.64654">
        <ele>205.51000976562</ele>
        <time>2013-10-13T09:55:20Z</time>
      </trkpt>
      <trkpt lat="43.39443" lon="6.64652">
        <ele>206</ele>
        <time>2013-10-13T09:55:22Z</time>
      </trkpt>
      <trkpt lat="43.39449" lon="6.64649">
        <ele>206</ele>
        <time>2013-10-13T09:55:25Z</time>
      </trkpt>
      <trkpt lat="43.39456" lon="6.64646">
        <ele>206</ele>
        <time>2013-10-13T09:55:29Z</time>
      </trkpt>
      <trkpt lat="43.39464" lon="6.6464">
        <ele>207</ele>
        <time>2013-10-13T09:55:33Z</time>
      </trkpt>
      <trkpt lat="43.39472" lon="6.64636">
        <ele>207</ele>
        <time>2013-10-13T09:55:37Z</time>
      </trkpt>
      <trkpt lat="43.39481" lon="6.64632">
        <ele>208</ele>
        <time>2013-10-13T09:55:42Z</time>
      </trkpt>
      <trkpt lat="43.39489" lon="6.64627">
        <ele>208</ele>
        <time>2013-10-13T09:55:47Z</time>
      </trkpt>
      <trkpt lat="43.39496" lon="6.64623">
        <ele>210</ele>
        <time>2013-10-13T09:55:52Z</time>
      </trkpt>
      <trkpt lat="43.39502" lon="6.6462">
        <ele>210</ele>
        <time>2013-10-13T09:55:57Z</time>
      </trkpt>
      <trkpt lat="43.3951" lon="6.64615">
        <ele>212</ele>
        <time>2013-10-13T09:56:02Z</time>
      </trkpt>
      <trkpt lat="43.39516" lon="6.64612">
        <ele>212</ele>
        <time>2013-10-13T09:56:07Z</time>
      </trkpt>
      <trkpt lat="43.39524" lon="6.64609">
        <ele>214</ele>
        <time>2013-10-13T09:56:12Z</time>
      </trkpt>
      <trkpt lat="43.39531" lon="6.64605">
        <ele>214</ele>
        <time>2013-10-13T09:56:17Z</time>
      </trkpt>
      <trkpt lat="43.39539" lon="6.64601">
        <ele>217</ele>
        <time>2013-10-13T09:56:24Z</time>
      </trkpt>
      <trkpt lat="43.39545" lon="6.646">
        <ele>218</ele>
        <time>2013-10-13T09:56:29Z</time>
      </trkpt>
      <trkpt lat="43.39552" lon="6.64599">
        <ele>221.08163452148</ele>
        <time>2013-10-13T09:56:35Z</time>
      </trkpt>
      <trkpt lat="43.39558" lon="6.64596">
        <ele>222</ele>
        <time>2013-10-13T09:56:39Z</time>
      </trkpt>
      <trkpt lat="43.39563" lon="6.64592">
        <ele>222</ele>
        <time>2013-10-13T09:56:44Z</time>
      </trkpt>
      <trkpt lat="43.39568" lon="6.6459">
        <ele>222</ele>
        <time>2013-10-13T09:56:48Z</time>
      </trkpt>
      <trkpt lat="43.39573" lon="6.64586">
        <ele>224</ele>
        <time>2013-10-13T09:56:53Z</time>
      </trkpt>
      <trkpt lat="43.39579" lon="6.64582">
        <ele>224</ele>
        <time>2013-10-13T09:56:59Z</time>
      </trkpt>
      <trkpt lat="43.39584" lon="6.64576">
        <ele>226</ele>
        <time>2013-10-13T09:57:05Z</time>
      </trkpt>
      <trkpt lat="43.3959" lon="6.64571">
        <ele>228</ele>
        <time>2013-10-13T09:57:11Z</time>
      </trkpt>
      <trkpt lat="43.39596" lon="6.64562">
        <ele>228</ele>
        <time>2013-10-13T09:57:18Z</time>
      </trkpt>
      <trkpt lat="43.39602" lon="6.64554">
        <ele>230</ele>
        <time>2013-10-13T09:57:25Z</time>
      </trkpt>
      <trkpt lat="43.39607" lon="6.64548">
        <ele>231.53001403809</ele>
        <time>2013-10-13T09:57:30Z</time>
      </trkpt>
      <trkpt lat="43.39614" lon="6.64544">
        <ele>233</ele>
        <time>2013-10-13T09:57:36Z</time>
      </trkpt>
      <trkpt lat="43.39621" lon="6.64539">
        <ele>235</ele>
        <time>2013-10-13T09:57:42Z</time>
      </trkpt>
      <trkpt lat="43.3963" lon="6.64535">
        <ele>235</ele>
        <time>2013-10-13T09:57:47Z</time>
      </trkpt>
      <trkpt lat="43.3964" lon="6.64532">
        <ele>236</ele>
        <time>2013-10-13T09:57:53Z</time>
      </trkpt>
      <trkpt lat="43.39647" lon="6.64531">
        <ele>236</ele>
        <time>2013-10-13T09:57:57Z</time>
      </trkpt>
      <trkpt lat="43.39655" lon="6.64529">
        <ele>236</ele>
        <time>2013-10-13T09:58:02Z</time>
      </trkpt>
      <trkpt lat="43.39663" lon="6.64528">
        <ele>236</ele>
        <time>2013-10-13T09:58:07Z</time>
      </trkpt>
      <trkpt lat="43.3967" lon="6.64526">
        <ele>238</ele>
        <time>2013-10-13T09:58:12Z</time>
      </trkpt>
      <trkpt lat="43.39676" lon="6.64526">
        <ele>238</ele>
        <time>2013-10-13T09:58:16Z</time>
      </trkpt>
      <trkpt lat="43.39685" lon="6.64526">
        <ele>242</ele>
        <time>2013-10-13T09:58:22Z</time>
      </trkpt>
      <trkpt lat="43.39693" lon="6.64524">
        <ele>243</ele>
        <time>2013-10-13T09:58:27Z</time>
      </trkpt>
      <trkpt lat="43.39698" lon="6.64518">
        <ele>243</ele>
        <time>2013-10-13T09:58:31Z</time>
      </trkpt>
      <trkpt lat="43.39705" lon="6.6451">
        <ele>243</ele>
        <time>2013-10-13T09:58:35Z</time>
      </trkpt>
      <trkpt lat="43.39712" lon="6.64506">
        <ele>243</ele>
        <time>2013-10-13T09:58:38Z</time>
      </trkpt>
      <trkpt lat="43.3972" lon="6.64507">
        <ele>244</ele>
        <time>2013-10-13T09:58:41Z</time>
      </trkpt>
      <trkpt lat="43.39729" lon="6.64509">
        <ele>244</ele>
        <time>2013-10-13T09:58:45Z</time>
      </trkpt>
      <trkpt lat="43.39737" lon="6.64512">
        <ele>244</ele>
        <time>2013-10-13T09:58:49Z</time>
      </trkpt>
      <trkpt lat="43.39747" lon="6.64514">
        <ele>245</ele>
        <time>2013-10-13T09:58:53Z</time>
      </trkpt>
      <trkpt lat="43.39757" lon="6.64516">
        <ele>245</ele>
        <time>2013-10-13T09:58:56Z</time>
      </trkpt>
      <trkpt lat="43.39767" lon="6.64517">
        <ele>245</ele>
        <time>2013-10-13T09:58:59Z</time>
      </trkpt>
      <trkpt lat="43.39775" lon="6.64519">
        <ele>244</ele>
        <time>2013-10-13T09:59:01Z</time>
      </trkpt>
      <trkpt lat="43.39783" lon="6.64523">
        <ele>244</ele>
        <time>2013-10-13T09:59:03Z</time>
      </trkpt>
      <trkpt lat="43.39791" lon="6.64529">
        <ele>244</ele>
        <time>2013-10-13T09:59:05Z</time>
      </trkpt>
      <trkpt lat="43.39806" lon="6.64527">
        <ele>244</ele>
        <time>2013-10-13T09:59:08Z</time>
      </trkpt>
      <trkpt lat="43.39816" lon="6.64519">
        <ele>242.97999572754</ele>
        <time>2013-10-13T09:59:10Z</time>
      </trkpt>
      <trkpt lat="43.39827" lon="6.64511">
        <ele>242</ele>
        <time>2013-10-13T09:59:12Z</time>
      </trkpt>
      <trkpt lat="43.3984" lon="6.64503">
        <ele>242</ele>
        <time>2013-10-13T09:59:14Z</time>
      </trkpt>
      <trkpt lat="43.39848" lon="6.64492">
        <ele>242</ele>
        <time>2013-10-13T09:59:16Z</time>
      </trkpt>
      <trkpt lat="43.39857" lon="6.6448">
        <ele>242</ele>
        <time>2013-10-13T09:59:18Z</time>
      </trkpt>
      <trkpt lat="43.39867" lon="6.64468">
        <ele>236.31997680664</ele>
        <time>2013-10-13T09:59:20Z</time>
      </trkpt>
      <trkpt lat="43.39877" lon="6.64456">
        <ele>230</ele>
        <time>2013-10-13T09:59:22Z</time>
      </trkpt>
      <trkpt lat="43.3989" lon="6.64447">
        <ele>229.57000732422</ele>
        <time>2013-10-13T09:59:24Z</time>
      </trkpt>
      <trkpt lat="43.39902" lon="6.64442">
        <ele>227.48999023438</ele>
        <time>2013-10-13T09:59:26Z</time>
      </trkpt>
      <trkpt lat="43.39912" lon="6.64441">
        <ele>227</ele>
        <time>2013-10-13T09:59:28Z</time>
      </trkpt>
      <trkpt lat="43.39923" lon="6.64439">
        <ele>224.48999023438</ele>
        <time>2013-10-13T09:59:30Z</time>
      </trkpt>
      <trkpt lat="43.39933" lon="6.64433">
        <ele>224</ele>
        <time>2013-10-13T09:59:32Z</time>
      </trkpt>
      <trkpt lat="43.39939" lon="6.64423">
        <ele>224</ele>
        <time>2013-10-13T09:59:34Z</time>
      </trkpt>
      <trkpt lat="43.39946" lon="6.64414">
        <ele>224</ele>
        <time>2013-10-13T09:59:36Z</time>
      </trkpt>
      <trkpt lat="43.3995" lon="6.64402">
        <ele>224</ele>
        <time>2013-10-13T09:59:38Z</time>
      </trkpt>
      <trkpt lat="43.39954" lon="6.64393">
        <ele>225</ele>
        <time>2013-10-13T09:59:40Z</time>
      </trkpt>
      <trkpt lat="43.39957" lon="6.64383">
        <ele>226</ele>
        <time>2013-10-13T09:59:42Z</time>
      </trkpt>
      <trkpt lat="43.39962" lon="6.64371">
        <ele>226</ele>
        <time>2013-10-13T09:59:45Z</time>
      </trkpt>
      <trkpt lat="43.39968" lon="6.64365">
        <ele>226</ele>
        <time>2013-10-13T09:59:47Z</time>
      </trkpt>
      <trkpt lat="43.39976" lon="6.6436">
        <ele>226</ele>
        <time>2013-10-13T09:59:49Z</time>
      </trkpt>
      <trkpt lat="43.39985" lon="6.64356">
        <ele>227</ele>
        <time>2013-10-13T09:59:51Z</time>
      </trkpt>
      <trkpt lat="43.39997" lon="6.64348">
        <ele>227</ele>
        <time>2013-10-13T09:59:53Z</time>
      </trkpt>
      <trkpt lat="43.40004" lon="6.64344">
        <ele>227</ele>
        <time>2013-10-13T09:59:54Z</time>
      </trkpt>
      <trkpt lat="43.40017" lon="6.64341">
        <ele>227</ele>
        <time>2013-10-13T09:59:56Z</time>
      </trkpt>
      <trkpt lat="43.4003" lon="6.64341">
        <ele>227</ele>
        <time>2013-10-13T09:59:58Z</time>
      </trkpt>
      <trkpt lat="43.40041" lon="6.64337">
        <ele>217</ele>
        <time>2013-10-13T10:00:02Z</time>
      </trkpt>
      <trkpt lat="43.40051" lon="6.64324">
        <ele>213.48999023438</ele>
        <time>2013-10-13T10:00:06Z</time>
      </trkpt>
      <trkpt lat="43.40058" lon="6.64309">
        <ele>210</ele>
        <time>2013-10-13T10:00:09Z</time>
      </trkpt>
      <trkpt lat="43.40065" lon="6.64293">
        <ele>207</ele>
        <time>2013-10-13T10:00:12Z</time>
      </trkpt>
      <trkpt lat="43.40071" lon="6.64282">
        <ele>205.56999206543</ele>
        <time>2013-10-13T10:00:15Z</time>
      </trkpt>
      <trkpt lat="43.40071" lon="6.64271">
        <ele>204.48999023438</ele>
        <time>2013-10-13T10:00:18Z</time>
      </trkpt>
      <trkpt lat="43.40073" lon="6.64258">
        <ele>201.48999023438</ele>
        <time>2013-10-13T10:00:21Z</time>
      </trkpt>
      <trkpt lat="43.40067" lon="6.64247">
        <ele>199</ele>
        <time>2013-10-13T10:00:24Z</time>
      </trkpt>
      <trkpt lat="43.40055" lon="6.64234">
        <ele>196.97999572754</ele>
        <time>2013-10-13T10:00:27Z</time>
      </trkpt>
      <trkpt lat="43.40049" lon="6.64223">
        <ele>195</ele>
        <time>2013-10-13T10:00:29Z</time>
      </trkpt>
      <trkpt lat="43.40044" lon="6.64208">
        <ele>194.5</ele>
        <time>2013-10-13T10:00:31Z</time>
      </trkpt>
      <trkpt lat="43.40044" lon="6.64189">
        <ele>193</ele>
        <time>2013-10-13T10:00:34Z</time>
      </trkpt>
      <trkpt lat="43.40045" lon="6.64173">
        <ele>193</ele>
        <time>2013-10-13T10:00:37Z</time>
      </trkpt>
      <trkpt lat="43.40046" lon="6.64173">
        <ele>192</ele>
        <time>2013-10-13T10:00:43Z</time>
      </trkpt>
      <trkpt lat="43.40046" lon="6.64177">
        <ele>191.00010681152</ele>
        <time>2013-10-13T10:02:12Z</time>
      </trkpt>
      <trkpt lat="43.40044" lon="6.64179">
        <ele>191</ele>
        <time>2013-10-13T10:02:17Z</time>
      </trkpt>
      <trkpt lat="43.40043" lon="6.64176">
        <ele>192</ele>
        <time>2013-10-13T10:03:35Z</time>
      </trkpt>
      <trkpt lat="43.40039" lon="6.64167">
        <ele>192</ele>
        <time>2013-10-13T10:03:39Z</time>
      </trkpt>
      <trkpt lat="43.40038" lon="6.64153">
        <ele>192</ele>
        <time>2013-10-13T10:03:43Z</time>
      </trkpt>
      <trkpt lat="43.40041" lon="6.64145">
        <ele>192</ele>
        <time>2013-10-13T10:03:46Z</time>
      </trkpt>
      <trkpt lat="43.40048" lon="6.64136">
        <ele>192</ele>
        <time>2013-10-13T10:03:50Z</time>
      </trkpt>
      <trkpt lat="43.40053" lon="6.64128">
        <ele>192</ele>
        <time>2013-10-13T10:03:53Z</time>
      </trkpt>
      <trkpt lat="43.40058" lon="6.64121">
        <ele>192</ele>
        <time>2013-10-13T10:03:55Z</time>
      </trkpt>
      <trkpt lat="43.40063" lon="6.64115">
        <ele>192</ele>
        <time>2013-10-13T10:03:57Z</time>
      </trkpt>
      <trkpt lat="43.4007" lon="6.64109">
        <ele>192</ele>
        <time>2013-10-13T10:03:59Z</time>
      </trkpt>
      <trkpt lat="43.40079" lon="6.64103">
        <ele>189</ele>
        <time>2013-10-13T10:04:01Z</time>
      </trkpt>
      <trkpt lat="43.40084" lon="6.641">
        <ele>189</ele>
        <time>2013-10-13T10:04:02Z</time>
      </trkpt>
      <trkpt lat="43.40089" lon="6.64097">
        <ele>189</ele>
        <time>2013-10-13T10:04:03Z</time>
      </trkpt>
      <trkpt lat="43.40095" lon="6.64095">
        <ele>189</ele>
        <time>2013-10-13T10:04:04Z</time>
      </trkpt>
      <trkpt lat="43.40101" lon="6.64093">
        <ele>187.81999206543</ele>
        <time>2013-10-13T10:04:05Z</time>
      </trkpt>
      <trkpt lat="43.40114" lon="6.64086">
        <ele>187</ele>
        <time>2013-10-13T10:04:07Z</time>
      </trkpt>
      <trkpt lat="43.40129" lon="6.6408">
        <ele>187</ele>
        <time>2013-10-13T10:04:09Z</time>
      </trkpt>
      <trkpt lat="43.40145" lon="6.64071">
        <ele>185</ele>
        <time>2013-10-13T10:04:11Z</time>
      </trkpt>
      <trkpt lat="43.40157" lon="6.64059">
        <ele>185</ele>
        <time>2013-10-13T10:04:13Z</time>
      </trkpt>
      <trkpt lat="43.40169" lon="6.64046">
        <ele>182.95999145508</ele>
        <time>2013-10-13T10:04:15Z</time>
      </trkpt>
      <trkpt lat="43.40178" lon="6.64035">
        <ele>181</ele>
        <time>2013-10-13T10:04:17Z</time>
      </trkpt>
      <trkpt lat="43.40187" lon="6.64035">
        <ele>181</ele>
        <time>2013-10-13T10:04:19Z</time>
      </trkpt>
      <trkpt lat="43.402" lon="6.64045">
        <ele>177</ele>
        <time>2013-10-13T10:04:22Z</time>
      </trkpt>
      <trkpt lat="43.40212" lon="6.64051">
        <ele>177</ele>
        <time>2013-10-13T10:04:24Z</time>
      </trkpt>
      <trkpt lat="43.40226" lon="6.64057">
        <ele>176</ele>
        <time>2013-10-13T10:04:26Z</time>
      </trkpt>
      <trkpt lat="43.40242" lon="6.6406">
        <ele>174.36840820312</ele>
        <time>2013-10-13T10:04:28Z</time>
      </trkpt>
      <trkpt lat="43.40258" lon="6.64051">
        <ele>172.46998596191</ele>
        <time>2013-10-13T10:04:30Z</time>
      </trkpt>
      <trkpt lat="43.40276" lon="6.64049">
        <ele>170</ele>
        <time>2013-10-13T10:04:32Z</time>
      </trkpt>
      <trkpt lat="43.40295" lon="6.64054">
        <ele>170</ele>
        <time>2013-10-13T10:04:34Z</time>
      </trkpt>
      <trkpt lat="43.40313" lon="6.64053">
        <ele>169</ele>
        <time>2013-10-13T10:04:36Z</time>
      </trkpt>
      <trkpt lat="43.40329" lon="6.6405">
        <ele>169</ele>
        <time>2013-10-13T10:04:38Z</time>
      </trkpt>
      <trkpt lat="43.40347" lon="6.64045">
        <ele>167.48999023438</ele>
        <time>2013-10-13T10:04:40Z</time>
      </trkpt>
      <trkpt lat="43.40363" lon="6.64044">
        <ele>167</ele>
        <time>2013-10-13T10:04:42Z</time>
      </trkpt>
      <trkpt lat="43.40377" lon="6.64045">
        <ele>167</ele>
        <time>2013-10-13T10:04:44Z</time>
      </trkpt>
      <trkpt lat="43.40393" lon="6.64045">
        <ele>166</ele>
        <time>2013-10-13T10:04:46Z</time>
      </trkpt>
      <trkpt lat="43.40408" lon="6.64039">
        <ele>166</ele>
        <time>2013-10-13T10:04:48Z</time>
      </trkpt>
      <trkpt lat="43.40419" lon="6.64034">
        <ele>166</ele>
        <time>2013-10-13T10:04:50Z</time>
      </trkpt>
      <trkpt lat="43.4043" lon="6.64029">
        <ele>166</ele>
        <time>2013-10-13T10:04:52Z</time>
      </trkpt>
      <trkpt lat="43.40442" lon="6.64025">
        <ele>166</ele>
        <time>2013-10-13T10:04:54Z</time>
      </trkpt>
      <trkpt lat="43.40453" lon="6.64021">
        <ele>166</ele>
        <time>2013-10-13T10:04:56Z</time>
      </trkpt>
      <trkpt lat="43.40465" lon="6.64016">
        <ele>166</ele>
        <time>2013-10-13T10:04:59Z</time>
      </trkpt>
      <trkpt lat="43.40475" lon="6.64011">
        <ele>169</ele>
        <time>2013-10-13T10:05:02Z</time>
      </trkpt>
      <trkpt lat="43.40485" lon="6.64005">
        <ele>170.22001647949</ele>
        <time>2013-10-13T10:05:05Z</time>
      </trkpt>
      <trkpt lat="43.40495" lon="6.63998">
        <ele>171</ele>
        <time>2013-10-13T10:05:08Z</time>
      </trkpt>
      <trkpt lat="43.40506" lon="6.63991">
        <ele>173</ele>
        <time>2013-10-13T10:05:12Z</time>
      </trkpt>
      <trkpt lat="43.40516" lon="6.63985">
        <ele>173.61001586914</ele>
        <time>2013-10-13T10:05:15Z</time>
      </trkpt>
      <trkpt lat="43.40525" lon="6.63984">
        <ele>174</ele>
        <time>2013-10-13T10:05:18Z</time>
      </trkpt>
      <trkpt lat="43.40536" lon="6.6398">
        <ele>175</ele>
        <time>2013-10-13T10:05:22Z</time>
      </trkpt>
      <trkpt lat="43.40545" lon="6.63976">
        <ele>175</ele>
        <time>2013-10-13T10:05:25Z</time>
      </trkpt>
      <trkpt lat="43.40551" lon="6.63971">
        <ele>175</ele>
        <time>2013-10-13T10:05:28Z</time>
      </trkpt>
      <trkpt lat="43.40556" lon="6.63964">
        <ele>177</ele>
        <time>2013-10-13T10:05:31Z</time>
      </trkpt>
      <trkpt lat="43.4056" lon="6.63956">
        <ele>177</ele>
        <time>2013-10-13T10:05:34Z</time>
      </trkpt>
      <trkpt lat="43.40561" lon="6.63946">
        <ele>177</ele>
        <time>2013-10-13T10:05:37Z</time>
      </trkpt>
      <trkpt lat="43.40561" lon="6.63935">
        <ele>178.2200012207</ele>
        <time>2013-10-13T10:05:40Z</time>
      </trkpt>
      <trkpt lat="43.40561" lon="6.63924">
        <ele>179</ele>
        <time>2013-10-13T10:05:43Z</time>
      </trkpt>
      <trkpt lat="43.40558" lon="6.63914">
        <ele>179</ele>
        <time>2013-10-13T10:05:47Z</time>
      </trkpt>
      <trkpt lat="43.40552" lon="6.63901">
        <ele>180</ele>
        <time>2013-10-13T10:05:51Z</time>
      </trkpt>
      <trkpt lat="43.40547" lon="6.6389">
        <ele>180</ele>
        <time>2013-10-13T10:05:55Z</time>
      </trkpt>
      <trkpt lat="43.40546" lon="6.63877">
        <ele>181.10000610352</ele>
        <time>2013-10-13T10:06:00Z</time>
      </trkpt>
      <trkpt lat="43.40551" lon="6.63864">
        <ele>182</ele>
        <time>2013-10-13T10:06:05Z</time>
      </trkpt>
      <trkpt lat="43.40557" lon="6.63852">
        <ele>182.60675048828</ele>
        <time>2013-10-13T10:06:10Z</time>
      </trkpt>
      <trkpt lat="43.40557" lon="6.6384">
        <ele>183</ele>
        <time>2013-10-13T10:06:14Z</time>
      </trkpt>
      <trkpt lat="43.40556" lon="6.63827">
        <ele>183</ele>
        <time>2013-10-13T10:06:18Z</time>
      </trkpt>
      <trkpt lat="43.40554" lon="6.63816">
        <ele>185</ele>
        <time>2013-10-13T10:06:22Z</time>
      </trkpt>
      <trkpt lat="43.40551" lon="6.638">
        <ele>185</ele>
        <time>2013-10-13T10:06:27Z</time>
      </trkpt>
      <trkpt lat="43.40549" lon="6.63785">
        <ele>187</ele>
        <time>2013-10-13T10:06:32Z</time>
      </trkpt>
      <trkpt lat="43.4055" lon="6.63773">
        <ele>187</ele>
        <time>2013-10-13T10:06:36Z</time>
      </trkpt>
      <trkpt lat="43.40551" lon="6.6376">
        <ele>187.51000976562</ele>
        <time>2013-10-13T10:06:40Z</time>
      </trkpt>
      <trkpt lat="43.40552" lon="6.63744">
        <ele>188</ele>
        <time>2013-10-13T10:06:45Z</time>
      </trkpt>
      <trkpt lat="43.40552" lon="6.63729">
        <ele>189.02000427246</ele>
        <time>2013-10-13T10:06:50Z</time>
      </trkpt>
      <trkpt lat="43.40552" lon="6.63716">
        <ele>190</ele>
        <time>2013-10-13T10:06:55Z</time>
      </trkpt>
      <trkpt lat="43.4055" lon="6.637">
        <ele>190.48571777344</ele>
        <time>2013-10-13T10:07:00Z</time>
      </trkpt>
      <trkpt lat="43.40548" lon="6.63686">
        <ele>191</ele>
        <time>2013-10-13T10:07:05Z</time>
      </trkpt>
      <trkpt lat="43.40545" lon="6.63671">
        <ele>193</ele>
        <time>2013-10-13T10:07:11Z</time>
      </trkpt>
      <trkpt lat="43.40544" lon="6.63656">
        <ele>193</ele>
        <time>2013-10-13T10:07:17Z</time>
      </trkpt>
      <trkpt lat="43.40545" lon="6.6364">
        <ele>194</ele>
        <time>2013-10-13T10:07:23Z</time>
      </trkpt>
      <trkpt lat="43.40544" lon="6.63626">
        <ele>194</ele>
        <time>2013-10-13T10:07:27Z</time>
      </trkpt>
      <trkpt lat="43.40543" lon="6.63611">
        <ele>197</ele>
        <time>2013-10-13T10:07:32Z</time>
      </trkpt>
      <trkpt lat="43.40543" lon="6.63597">
        <ele>198</ele>
        <time>2013-10-13T10:07:37Z</time>
      </trkpt>
      <trkpt lat="43.40543" lon="6.63583">
        <ele>198</ele>
        <time>2013-10-13T10:07:42Z</time>
      </trkpt>
      <trkpt lat="43.40541" lon="6.63568">
        <ele>198</ele>
        <time>2013-10-13T10:07:47Z</time>
      </trkpt>
      <trkpt lat="43.40537" lon="6.63553">
        <ele>200</ele>
        <time>2013-10-13T10:07:52Z</time>
      </trkpt>
      <trkpt lat="43.40532" lon="6.63538">
        <ele>200</ele>
        <time>2013-10-13T10:07:56Z</time>
      </trkpt>
      <trkpt lat="43.40527" lon="6.63524">
        <ele>200</ele>
        <time>2013-10-13T10:08:00Z</time>
      </trkpt>
      <trkpt lat="43.40525" lon="6.6351">
        <ele>200</ele>
        <time>2013-10-13T10:08:04Z</time>
      </trkpt>
      <trkpt lat="43.40524" lon="6.63494">
        <ele>201.02000427246</ele>
        <time>2013-10-13T10:08:10Z</time>
      </trkpt>
      <trkpt lat="43.40521" lon="6.63481">
        <ele>202</ele>
        <time>2013-10-13T10:08:14Z</time>
      </trkpt>
      <trkpt lat="43.40515" lon="6.63467">
        <ele>202</ele>
        <time>2013-10-13T10:08:18Z</time>
      </trkpt>
      <trkpt lat="43.40512" lon="6.63453">
        <ele>205</ele>
        <time>2013-10-13T10:08:23Z</time>
      </trkpt>
      <trkpt lat="43.40512" lon="6.63438">
        <ele>205</ele>
        <time>2013-10-13T10:08:29Z</time>
      </trkpt>
      <trkpt lat="43.40522" lon="6.63442">
        <ele>206</ele>
        <time>2013-10-13T10:08:38Z</time>
      </trkpt>
      <trkpt lat="43.40531" lon="6.6345">
        <ele>207</ele>
        <time>2013-10-13T10:08:43Z</time>
      </trkpt>
      <trkpt lat="43.40539" lon="6.63459">
        <ele>207</ele>
        <time>2013-10-13T10:08:48Z</time>
      </trkpt>
      <trkpt lat="43.40549" lon="6.63466">
        <ele>209</ele>
        <time>2013-10-13T10:08:53Z</time>
      </trkpt>
      <trkpt lat="43.40559" lon="6.63474">
        <ele>209</ele>
        <time>2013-10-13T10:08:59Z</time>
      </trkpt>
      <trkpt lat="43.40568" lon="6.63481">
        <ele>211</ele>
        <time>2013-10-13T10:09:04Z</time>
      </trkpt>
      <trkpt lat="43.40577" lon="6.63486">
        <ele>211</ele>
        <time>2013-10-13T10:09:09Z</time>
      </trkpt>
      <trkpt lat="43.40588" lon="6.63493">
        <ele>212</ele>
        <time>2013-10-13T10:09:17Z</time>
      </trkpt>
      <trkpt lat="43.40595" lon="6.63499">
        <ele>215</ele>
        <time>2013-10-13T10:09:21Z</time>
      </trkpt>
      <trkpt lat="43.40606" lon="6.63506">
        <ele>216</ele>
        <time>2013-10-13T10:09:26Z</time>
      </trkpt>
      <trkpt lat="43.40613" lon="6.63512">
        <ele>216.61000061035</ele>
        <time>2013-10-13T10:09:30Z</time>
      </trkpt>
      <trkpt lat="43.40621" lon="6.6352">
        <ele>217</ele>
        <time>2013-10-13T10:09:35Z</time>
      </trkpt>
      <trkpt lat="43.40629" lon="6.63529">
        <ele>217.61000061035</ele>
        <time>2013-10-13T10:09:40Z</time>
      </trkpt>
      <trkpt lat="43.40634" lon="6.63537">
        <ele>218</ele>
        <time>2013-10-13T10:09:44Z</time>
      </trkpt>
      <trkpt lat="43.40638" lon="6.63544">
        <ele>218</ele>
        <time>2013-10-13T10:09:48Z</time>
      </trkpt>
      <trkpt lat="43.40644" lon="6.63554">
        <ele>220</ele>
        <time>2013-10-13T10:09:53Z</time>
      </trkpt>
      <trkpt lat="43.40651" lon="6.63563">
        <ele>220</ele>
        <time>2013-10-13T10:09:58Z</time>
      </trkpt>
      <trkpt lat="43.40658" lon="6.63574">
        <ele>222</ele>
        <time>2013-10-13T10:10:04Z</time>
      </trkpt>
      <trkpt lat="43.40668" lon="6.63583">
        <ele>222</ele>
        <time>2013-10-13T10:10:09Z</time>
      </trkpt>
      <trkpt lat="43.40673" lon="6.63589">
        <ele>224</ele>
        <time>2013-10-13T10:10:12Z</time>
      </trkpt>
      <trkpt lat="43.40676" lon="6.63595">
        <ele>224</ele>
        <time>2013-10-13T10:10:15Z</time>
      </trkpt>
      <trkpt lat="43.40682" lon="6.63602">
        <ele>224</ele>
        <time>2013-10-13T10:10:19Z</time>
      </trkpt>
      <trkpt lat="43.4069" lon="6.63609">
        <ele>225</ele>
        <time>2013-10-13T10:10:24Z</time>
      </trkpt>
      <trkpt lat="43.40695" lon="6.63615">
        <ele>225</ele>
        <time>2013-10-13T10:10:27Z</time>
      </trkpt>
      <trkpt lat="43.40701" lon="6.63623">
        <ele>227</ele>
        <time>2013-10-13T10:10:31Z</time>
      </trkpt>
      <trkpt lat="43.40707" lon="6.63629">
        <ele>227</ele>
        <time>2013-10-13T10:10:35Z</time>
      </trkpt>
      <trkpt lat="43.40715" lon="6.63638">
        <ele>228.02000427246</ele>
        <time>2013-10-13T10:10:40Z</time>
      </trkpt>
      <trkpt lat="43.4072" lon="6.63644">
        <ele>229</ele>
        <time>2013-10-13T10:10:44Z</time>
      </trkpt>
      <trkpt lat="43.40727" lon="6.63651">
        <ele>229</ele>
        <time>2013-10-13T10:10:49Z</time>
      </trkpt>
      <trkpt lat="43.40735" lon="6.63653">
        <ele>231</ele>
        <time>2013-10-13T10:10:53Z</time>
      </trkpt>
      <trkpt lat="43.40743" lon="6.63653">
        <ele>231</ele>
        <time>2013-10-13T10:10:57Z</time>
      </trkpt>
      <trkpt lat="43.40748" lon="6.63653">
        <ele>232.2200012207</ele>
        <time>2013-10-13T10:11:00Z</time>
      </trkpt>
      <trkpt lat="43.40757" lon="6.63649">
        <ele>233</ele>
        <time>2013-10-13T10:11:05Z</time>
      </trkpt>
      <trkpt lat="43.40765" lon="6.63647">
        <ele>233</ele>
        <time>2013-10-13T10:11:09Z</time>
      </trkpt>
      <trkpt lat="43.40773" lon="6.63648">
        <ele>235</ele>
        <time>2013-10-13T10:11:13Z</time>
      </trkpt>
      <trkpt lat="43.4078" lon="6.63649">
        <ele>235</ele>
        <time>2013-10-13T10:11:17Z</time>
      </trkpt>
      <trkpt lat="43.40788" lon="6.63649">
        <ele>236</ele>
        <time>2013-10-13T10:11:22Z</time>
      </trkpt>
      <trkpt lat="43.40796" lon="6.63647">
        <ele>236</ele>
        <time>2013-10-13T10:11:26Z</time>
      </trkpt>
      <trkpt lat="43.40803" lon="6.63642">
        <ele>236.61000061035</ele>
        <time>2013-10-13T10:11:30Z</time>
      </trkpt>
      <trkpt lat="43.40809" lon="6.63634">
        <ele>237</ele>
        <time>2013-10-13T10:11:34Z</time>
      </trkpt>
      <trkpt lat="43.40812" lon="6.63627">
        <ele>237</ele>
        <time>2013-10-13T10:11:37Z</time>
      </trkpt>
      <trkpt lat="43.40816" lon="6.6362">
        <ele>238.82998657227</ele>
        <time>2013-10-13T10:11:40Z</time>
      </trkpt>
      <trkpt lat="43.40822" lon="6.63611">
        <ele>240</ele>
        <time>2013-10-13T10:11:44Z</time>
      </trkpt>
      <trkpt lat="43.40828" lon="6.63602">
        <ele>240</ele>
        <time>2013-10-13T10:11:48Z</time>
      </trkpt>
      <trkpt lat="43.40834" lon="6.63594">
        <ele>240</ele>
        <time>2013-10-13T10:11:52Z</time>
      </trkpt>
      <trkpt lat="43.4084" lon="6.63589">
        <ele>240</ele>
        <time>2013-10-13T10:11:56Z</time>
      </trkpt>
      <trkpt lat="43.40845" lon="6.63586">
        <ele>240</ele>
        <time>2013-10-13T10:11:59Z</time>
      </trkpt>
      <trkpt lat="43.40853" lon="6.63584">
        <ele>242</ele>
        <time>2013-10-13T10:12:03Z</time>
      </trkpt>
      <trkpt lat="43.40861" lon="6.63582">
        <ele>242</ele>
        <time>2013-10-13T10:12:07Z</time>
      </trkpt>
      <trkpt lat="43.40868" lon="6.63579">
        <ele>243</ele>
        <time>2013-10-13T10:12:11Z</time>
      </trkpt>
      <trkpt lat="43.40874" lon="6.63575">
        <ele>243</ele>
        <time>2013-10-13T10:12:14Z</time>
      </trkpt>
      <trkpt lat="43.40881" lon="6.63571">
        <ele>243</ele>
        <time>2013-10-13T10:12:17Z</time>
      </trkpt>
      <trkpt lat="43.40886" lon="6.63567">
        <ele>244.42001342773</ele>
        <time>2013-10-13T10:12:20Z</time>
      </trkpt>
      <trkpt lat="43.40891" lon="6.63561">
        <ele>245</ele>
        <time>2013-10-13T10:12:24Z</time>
      </trkpt>
      <trkpt lat="43.40896" lon="6.63558">
        <ele>245</ele>
        <time>2013-10-13T10:12:27Z</time>
      </trkpt>
      <trkpt lat="43.40902" lon="6.63553">
        <ele>247</ele>
        <time>2013-10-13T10:12:32Z</time>
      </trkpt>
      <trkpt lat="43.40907" lon="6.63547">
        <ele>247</ele>
        <time>2013-10-13T10:12:36Z</time>
      </trkpt>
      <trkpt lat="43.40911" lon="6.63541">
        <ele>247</ele>
        <time>2013-10-13T10:12:39Z</time>
      </trkpt>
      <trkpt lat="43.40915" lon="6.63534">
        <ele>248</ele>
        <time>2013-10-13T10:12:42Z</time>
      </trkpt>
      <trkpt lat="43.40921" lon="6.63525">
        <ele>248</ele>
        <time>2013-10-13T10:12:47Z</time>
      </trkpt>
      <trkpt lat="43.40926" lon="6.63514">
        <ele>250</ele>
        <time>2013-10-13T10:12:52Z</time>
      </trkpt>
      <trkpt lat="43.40933" lon="6.63505">
        <ele>250</ele>
        <time>2013-10-13T10:12:57Z</time>
      </trkpt>
      <trkpt lat="43.40939" lon="6.63496">
        <ele>252</ele>
        <time>2013-10-13T10:13:01Z</time>
      </trkpt>
      <trkpt lat="43.40945" lon="6.63488">
        <ele>252</ele>
        <time>2013-10-13T10:13:05Z</time>
      </trkpt>
      <trkpt lat="43.4095" lon="6.63476">
        <ele>253</ele>
        <time>2013-10-13T10:13:11Z</time>
      </trkpt>
      <trkpt lat="43.40953" lon="6.63464">
        <ele>253</ele>
        <time>2013-10-13T10:13:17Z</time>
      </trkpt>
      <trkpt lat="43.40957" lon="6.63456">
        <ele>254</ele>
        <time>2013-10-13T10:13:21Z</time>
      </trkpt>
      <trkpt lat="43.4096" lon="6.63447">
        <ele>254</ele>
        <time>2013-10-13T10:13:25Z</time>
      </trkpt>
      <trkpt lat="43.40963" lon="6.63437">
        <ele>254</ele>
        <time>2013-10-13T10:13:29Z</time>
      </trkpt>
      <trkpt lat="43.40966" lon="6.63426">
        <ele>256</ele>
        <time>2013-10-13T10:13:33Z</time>
      </trkpt>
      <trkpt lat="43.40967" lon="6.63413">
        <ele>256</ele>
        <time>2013-10-13T10:13:37Z</time>
      </trkpt>
      <trkpt lat="43.40966" lon="6.634">
        <ele>259</ele>
        <time>2013-10-13T10:13:42Z</time>
      </trkpt>
      <trkpt lat="43.40965" lon="6.63388">
        <ele>259</ele>
        <time>2013-10-13T10:13:47Z</time>
      </trkpt>
      <trkpt lat="43.40963" lon="6.63373">
        <ele>260</ele>
        <time>2013-10-13T10:13:52Z</time>
      </trkpt>
      <trkpt lat="43.40963" lon="6.63359">
        <ele>260</ele>
        <time>2013-10-13T10:13:57Z</time>
      </trkpt>
      <trkpt lat="43.4097" lon="6.63346">
        <ele>262</ele>
        <time>2013-10-13T10:14:03Z</time>
      </trkpt>
      <trkpt lat="43.40981" lon="6.63343">
        <ele>262</ele>
        <time>2013-10-13T10:14:08Z</time>
      </trkpt>
      <trkpt lat="43.40987" lon="6.63336">
        <ele>264</ele>
        <time>2013-10-13T10:14:12Z</time>
      </trkpt>
      <trkpt lat="43.40995" lon="6.63331">
        <ele>264</ele>
        <time>2013-10-13T10:14:16Z</time>
      </trkpt>
      <trkpt lat="43.41002" lon="6.63325">
        <ele>265.2200012207</ele>
        <time>2013-10-13T10:14:20Z</time>
      </trkpt>
      <trkpt lat="43.41007" lon="6.63317">
        <ele>266</ele>
        <time>2013-10-13T10:14:25Z</time>
      </trkpt>
      <trkpt lat="43.41016" lon="6.63309">
        <ele>266.60998535156</ele>
        <time>2013-10-13T10:14:30Z</time>
      </trkpt>
      <trkpt lat="43.41023" lon="6.63303">
        <ele>267</ele>
        <time>2013-10-13T10:14:34Z</time>
      </trkpt>
      <trkpt lat="43.41032" lon="6.63296">
        <ele>267</ele>
        <time>2013-10-13T10:14:39Z</time>
      </trkpt>
      <trkpt lat="43.41038" lon="6.63289">
        <ele>269</ele>
        <time>2013-10-13T10:14:43Z</time>
      </trkpt>
      <trkpt lat="43.41044" lon="6.63284">
        <ele>269</ele>
        <time>2013-10-13T10:14:47Z</time>
      </trkpt>
      <trkpt lat="43.41051" lon="6.63279">
        <ele>270</ele>
        <time>2013-10-13T10:14:51Z</time>
      </trkpt>
      <trkpt lat="43.41057" lon="6.63275">
        <ele>270</ele>
        <time>2013-10-13T10:14:55Z</time>
      </trkpt>
      <trkpt lat="43.41051" lon="6.63269">
        <ele>273</ele>
        <time>2013-10-13T10:15:03Z</time>
      </trkpt>
      <trkpt lat="43.41045" lon="6.63273">
        <ele>273</ele>
        <time>2013-10-13T10:15:06Z</time>
      </trkpt>
      <trkpt lat="43.41038" lon="6.63278">
        <ele>273</ele>
        <time>2013-10-13T10:15:10Z</time>
      </trkpt>
      <trkpt lat="43.41031" lon="6.6328">
        <ele>273</ele>
        <time>2013-10-13T10:15:13Z</time>
      </trkpt>
      <trkpt lat="43.41021" lon="6.63286">
        <ele>273</ele>
        <time>2013-10-13T10:15:17Z</time>
      </trkpt>
      <trkpt lat="43.41013" lon="6.63291">
        <ele>273.51000976562</ele>
        <time>2013-10-13T10:15:20Z</time>
      </trkpt>
      <trkpt lat="43.41004" lon="6.63294">
        <ele>274</ele>
        <time>2013-10-13T10:15:23Z</time>
      </trkpt>
      <trkpt lat="43.40998" lon="6.63296">
        <ele>274</ele>
        <time>2013-10-13T10:15:25Z</time>
      </trkpt>
      <trkpt lat="43.40992" lon="6.63298">
        <ele>274</ele>
        <time>2013-10-13T10:15:27Z</time>
      </trkpt>
      <trkpt lat="43.40983" lon="6.63301">
        <ele>274.91891479492</ele>
        <time>2013-10-13T10:15:30Z</time>
      </trkpt>
      <trkpt lat="43.40976" lon="6.63304">
        <ele>276</ele>
        <time>2013-10-13T10:15:33Z</time>
      </trkpt>
      <trkpt lat="43.40965" lon="6.63305">
        <ele>276</ele>
        <time>2013-10-13T10:15:37Z</time>
      </trkpt>
      <trkpt lat="43.40955" lon="6.63308">
        <ele>277</ele>
        <time>2013-10-13T10:15:41Z</time>
      </trkpt>
      <trkpt lat="43.40945" lon="6.63313">
        <ele>277</ele>
        <time>2013-10-13T10:15:44Z</time>
      </trkpt>
      <trkpt lat="43.40935" lon="6.63323">
        <ele>277</ele>
        <time>2013-10-13T10:15:48Z</time>
      </trkpt>
      <trkpt lat="43.4093" lon="6.63335">
        <ele>279</ele>
        <time>2013-10-13T10:15:52Z</time>
      </trkpt>
      <trkpt lat="43.40924" lon="6.6335">
        <ele>279</ele>
        <time>2013-10-13T10:15:56Z</time>
      </trkpt>
      <trkpt lat="43.40919" lon="6.63366">
        <ele>279.51000976562</ele>
        <time>2013-10-13T10:16:00Z</time>
      </trkpt>
      <trkpt lat="43.40911" lon="6.63379">
        <ele>280</ele>
        <time>2013-10-13T10:16:04Z</time>
      </trkpt>
      <trkpt lat="43.40902" lon="6.63391">
        <ele>280</ele>
        <time>2013-10-13T10:16:08Z</time>
      </trkpt>
      <trkpt lat="43.40896" lon="6.63399">
        <ele>281</ele>
        <time>2013-10-13T10:16:11Z</time>
      </trkpt>
      <trkpt lat="43.4089" lon="6.63407">
        <ele>281</ele>
        <time>2013-10-13T10:16:14Z</time>
      </trkpt>
      <trkpt lat="43.40883" lon="6.63413">
        <ele>281</ele>
        <time>2013-10-13T10:16:17Z</time>
      </trkpt>
      <trkpt lat="43.40875" lon="6.63419">
        <ele>282.42001342773</ele>
        <time>2013-10-13T10:16:20Z</time>
      </trkpt>
      <trkpt lat="43.40867" lon="6.63422">
        <ele>283</ele>
        <time>2013-10-13T10:16:23Z</time>
      </trkpt>
      <trkpt lat="43.40858" lon="6.63424">
        <ele>283</ele>
        <time>2013-10-13T10:16:26Z</time>
      </trkpt>
      <trkpt lat="43.4085" lon="6.63426">
        <ele>283</ele>
        <time>2013-10-13T10:16:29Z</time>
      </trkpt>
      <trkpt lat="43.40841" lon="6.63428">
        <ele>285</ele>
        <time>2013-10-13T10:16:32Z</time>
      </trkpt>
      <trkpt lat="43.40831" lon="6.63429">
        <ele>285</ele>
        <time>2013-10-13T10:16:36Z</time>
      </trkpt>
      <trkpt lat="43.40822" lon="6.6343">
        <ele>285</ele>
        <time>2013-10-13T10:16:39Z</time>
      </trkpt>
      <trkpt lat="43.40812" lon="6.63432">
        <ele>285</ele>
        <time>2013-10-13T10:16:43Z</time>
      </trkpt>
      <trkpt lat="43.40801" lon="6.63433">
        <ele>285</ele>
        <time>2013-10-13T10:16:47Z</time>
      </trkpt>
      <trkpt lat="43.40791" lon="6.63431">
        <ele>285.51000976562</ele>
        <time>2013-10-13T10:16:50Z</time>
      </trkpt>
      <trkpt lat="43.40782" lon="6.63427">
        <ele>286</ele>
        <time>2013-10-13T10:16:53Z</time>
      </trkpt>
      <trkpt lat="43.40773" lon="6.63422">
        <ele>286</ele>
        <time>2013-10-13T10:16:56Z</time>
      </trkpt>
      <trkpt lat="43.40767" lon="6.63418">
        <ele>286</ele>
        <time>2013-10-13T10:16:58Z</time>
      </trkpt>
      <trkpt lat="43.40762" lon="6.63414">
        <ele>287.2200012207</ele>
        <time>2013-10-13T10:17:00Z</time>
      </trkpt>
      <trkpt lat="43.40757" lon="6.63409">
        <ele>288</ele>
        <time>2013-10-13T10:17:02Z</time>
      </trkpt>
      <trkpt lat="43.40751" lon="6.63402">
        <ele>288</ele>
        <time>2013-10-13T10:17:05Z</time>
      </trkpt>
      <trkpt lat="43.40747" lon="6.63396">
        <ele>288</ele>
        <time>2013-10-13T10:17:07Z</time>
      </trkpt>
      <trkpt lat="43.40742" lon="6.63389">
        <ele>288</ele>
        <time>2013-10-13T10:17:09Z</time>
      </trkpt>
      <trkpt lat="43.40738" lon="6.63379">
        <ele>290</ele>
        <time>2013-10-13T10:17:12Z</time>
      </trkpt>
      <trkpt lat="43.40734" lon="6.63369">
        <ele>290</ele>
        <time>2013-10-13T10:17:15Z</time>
      </trkpt>
      <trkpt lat="43.40732" lon="6.63362">
        <ele>290</ele>
        <time>2013-10-13T10:17:17Z</time>
      </trkpt>
      <trkpt lat="43.40728" lon="6.6335">
        <ele>290.60998535156</ele>
        <time>2013-10-13T10:17:20Z</time>
      </trkpt>
      <trkpt lat="43.40726" lon="6.63342">
        <ele>291</ele>
        <time>2013-10-13T10:17:22Z</time>
      </trkpt>
      <trkpt lat="43.40725" lon="6.6333">
        <ele>291</ele>
        <time>2013-10-13T10:17:25Z</time>
      </trkpt>
      <trkpt lat="43.40724" lon="6.63321">
        <ele>291</ele>
        <time>2013-10-13T10:17:27Z</time>
      </trkpt>
      <trkpt lat="43.40722" lon="6.63311">
        <ele>291</ele>
        <time>2013-10-13T10:17:29Z</time>
      </trkpt>
      <trkpt lat="43.40721" lon="6.63299">
        <ele>292</ele>
        <time>2013-10-13T10:17:32Z</time>
      </trkpt>
      <trkpt lat="43.40718" lon="6.63283">
        <ele>292</ele>
        <time>2013-10-13T10:17:36Z</time>
      </trkpt>
      <trkpt lat="43.40715" lon="6.63273">
        <ele>292</ele>
        <time>2013-10-13T10:17:39Z</time>
      </trkpt>
      <trkpt lat="43.4071" lon="6.63261">
        <ele>294</ele>
        <time>2013-10-13T10:17:43Z</time>
      </trkpt>
      <trkpt lat="43.40707" lon="6.63246">
        <ele>294</ele>
        <time>2013-10-13T10:17:47Z</time>
      </trkpt>
      <trkpt lat="43.40709" lon="6.63231">
        <ele>296</ele>
        <time>2013-10-13T10:17:51Z</time>
      </trkpt>
      <trkpt lat="43.40713" lon="6.63217">
        <ele>296</ele>
        <time>2013-10-13T10:17:55Z</time>
      </trkpt>
      <trkpt lat="43.40717" lon="6.63203">
        <ele>296</ele>
        <time>2013-10-13T10:17:59Z</time>
      </trkpt>
      <trkpt lat="43.40722" lon="6.6319">
        <ele>297</ele>
        <time>2013-10-13T10:18:03Z</time>
      </trkpt>
      <trkpt lat="43.40728" lon="6.63176">
        <ele>297</ele>
        <time>2013-10-13T10:18:07Z</time>
      </trkpt>
      <trkpt lat="43.40734" lon="6.63164">
        <ele>299</ele>
        <time>2013-10-13T10:18:11Z</time>
      </trkpt>
      <trkpt lat="43.40739" lon="6.63154">
        <ele>299</ele>
        <time>2013-10-13T10:18:14Z</time>
      </trkpt>
      <trkpt lat="43.40744" lon="6.63144">
        <ele>299</ele>
        <time>2013-10-13T10:18:17Z</time>
      </trkpt>
      <trkpt lat="43.40752" lon="6.63132">
        <ele>302</ele>
        <time>2013-10-13T10:18:21Z</time>
      </trkpt>
      <trkpt lat="43.40759" lon="6.6312">
        <ele>302</ele>
        <time>2013-10-13T10:18:25Z</time>
      </trkpt>
      <trkpt lat="43.40763" lon="6.63107">
        <ele>302</ele>
        <time>2013-10-13T10:18:29Z</time>
      </trkpt>
      <trkpt lat="43.40767" lon="6.63093">
        <ele>302</ele>
        <time>2013-10-13T10:18:33Z</time>
      </trkpt>
      <trkpt lat="43.40768" lon="6.63078">
        <ele>302</ele>
        <time>2013-10-13T10:18:37Z</time>
      </trkpt>
      <trkpt lat="43.4077" lon="6.63063">
        <ele>303</ele>
        <time>2013-10-13T10:18:41Z</time>
      </trkpt>
      <trkpt lat="43.40772" lon="6.63047">
        <ele>303</ele>
        <time>2013-10-13T10:18:45Z</time>
      </trkpt>
      <trkpt lat="43.40773" lon="6.63032">
        <ele>303</ele>
        <time>2013-10-13T10:18:49Z</time>
      </trkpt>
      <trkpt lat="43.40772" lon="6.6302">
        <ele>305</ele>
        <time>2013-10-13T10:18:52Z</time>
      </trkpt>
      <trkpt lat="43.4077" lon="6.63008">
        <ele>305</ele>
        <time>2013-10-13T10:18:55Z</time>
      </trkpt>
      <trkpt lat="43.40767" lon="6.62998">
        <ele>305</ele>
        <time>2013-10-13T10:18:58Z</time>
      </trkpt>
      <trkpt lat="43.40762" lon="6.62989">
        <ele>306</ele>
        <time>2013-10-13T10:19:01Z</time>
      </trkpt>
      <trkpt lat="43.40755" lon="6.62978">
        <ele>306</ele>
        <time>2013-10-13T10:19:05Z</time>
      </trkpt>
      <trkpt lat="43.40749" lon="6.6297">
        <ele>306</ele>
        <time>2013-10-13T10:19:08Z</time>
      </trkpt>
      <trkpt lat="43.40744" lon="6.62962">
        <ele>308</ele>
        <time>2013-10-13T10:19:11Z</time>
      </trkpt>
      <trkpt lat="43.40739" lon="6.62954">
        <ele>308</ele>
        <time>2013-10-13T10:19:14Z</time>
      </trkpt>
      <trkpt lat="43.40734" lon="6.62946">
        <ele>308</ele>
        <time>2013-10-13T10:19:17Z</time>
      </trkpt>
      <trkpt lat="43.40729" lon="6.62935">
        <ele>308.49002075195</ele>
        <time>2013-10-13T10:19:20Z</time>
      </trkpt>
      <trkpt lat="43.40723" lon="6.62925">
        <ele>309</ele>
        <time>2013-10-13T10:19:23Z</time>
      </trkpt>
      <trkpt lat="43.40718" lon="6.62916">
        <ele>309</ele>
        <time>2013-10-13T10:19:26Z</time>
      </trkpt>
      <trkpt lat="43.40714" lon="6.62911">
        <ele>309</ele>
        <time>2013-10-13T10:19:28Z</time>
      </trkpt>
      <trkpt lat="43.40709" lon="6.62907">
        <ele>309.51000976562</ele>
        <time>2013-10-13T10:19:30Z</time>
      </trkpt>
      <trkpt lat="43.40703" lon="6.62905">
        <ele>310</ele>
        <time>2013-10-13T10:19:32Z</time>
      </trkpt>
      <trkpt lat="43.40697" lon="6.62905">
        <ele>310</ele>
        <time>2013-10-13T10:19:34Z</time>
      </trkpt>
      <trkpt lat="43.40689" lon="6.62905">
        <ele>310</ele>
        <time>2013-10-13T10:19:37Z</time>
      </trkpt>
      <trkpt lat="43.4068" lon="6.62908">
        <ele>311</ele>
        <time>2013-10-13T10:19:41Z</time>
      </trkpt>
      <trkpt lat="43.40668" lon="6.6291">
        <ele>311</ele>
        <time>2013-10-13T10:19:45Z</time>
      </trkpt>
      <trkpt lat="43.40657" lon="6.62911">
        <ele>311.61001586914</ele>
        <time>2013-10-13T10:19:49Z</time>
      </trkpt>
      <trkpt lat="43.40648" lon="6.62911">
        <ele>313</ele>
        <time>2013-10-13T10:19:52Z</time>
      </trkpt>
      <trkpt lat="43.40638" lon="6.62911">
        <ele>313</ele>
        <time>2013-10-13T10:19:55Z</time>
      </trkpt>
      <trkpt lat="43.40628" lon="6.6291">
        <ele>313</ele>
        <time>2013-10-13T10:19:58Z</time>
      </trkpt>
      <trkpt lat="43.40622" lon="6.62909">
        <ele>314.08001708984</ele>
        <time>2013-10-13T10:20:00Z</time>
      </trkpt>
      <trkpt lat="43.40615" lon="6.62909">
        <ele>315</ele>
        <time>2013-10-13T10:20:02Z</time>
      </trkpt>
      <trkpt lat="43.40609" lon="6.62909">
        <ele>315</ele>
        <time>2013-10-13T10:20:04Z</time>
      </trkpt>
      <trkpt lat="43.406" lon="6.62909">
        <ele>315</ele>
        <time>2013-10-13T10:20:07Z</time>
      </trkpt>
      <trkpt lat="43.40591" lon="6.62909">
        <ele>316.42001342773</ele>
        <time>2013-10-13T10:20:10Z</time>
      </trkpt>
      <trkpt lat="43.40585" lon="6.62908">
        <ele>317</ele>
        <time>2013-10-13T10:20:12Z</time>
      </trkpt>
      <trkpt lat="43.40579" lon="6.62908">
        <ele>317</ele>
        <time>2013-10-13T10:20:14Z</time>
      </trkpt>
      <trkpt lat="43.40573" lon="6.62908">
        <ele>317</ele>
        <time>2013-10-13T10:20:16Z</time>
      </trkpt>
      <trkpt lat="43.40564" lon="6.62908">
        <ele>317</ele>
        <time>2013-10-13T10:20:19Z</time>
      </trkpt>
      <trkpt lat="43.40558" lon="6.62907">
        <ele>318</ele>
        <time>2013-10-13T10:20:21Z</time>
      </trkpt>
      <trkpt lat="43.40552" lon="6.62905">
        <ele>318</ele>
        <time>2013-10-13T10:20:23Z</time>
      </trkpt>
      <trkpt lat="43.40546" lon="6.62905">
        <ele>318</ele>
        <time>2013-10-13T10:20:25Z</time>
      </trkpt>
      <trkpt lat="43.4054" lon="6.62905">
        <ele>318</ele>
        <time>2013-10-13T10:20:27Z</time>
      </trkpt>
      <trkpt lat="43.40531" lon="6.62908">
        <ele>318.51000976562</ele>
        <time>2013-10-13T10:20:30Z</time>
      </trkpt>
      <trkpt lat="43.40524" lon="6.62915">
        <ele>319</ele>
        <time>2013-10-13T10:20:33Z</time>
      </trkpt>
      <trkpt lat="43.40517" lon="6.62922">
        <ele>319</ele>
        <time>2013-10-13T10:20:36Z</time>
      </trkpt>
      <trkpt lat="43.40509" lon="6.6293">
        <ele>319</ele>
        <time>2013-10-13T10:20:39Z</time>
      </trkpt>
      <trkpt lat="43.40503" lon="6.62937">
        <ele>321</ele>
        <time>2013-10-13T10:20:42Z</time>
      </trkpt>
      <trkpt lat="43.40495" lon="6.62942">
        <ele>321</ele>
        <time>2013-10-13T10:20:45Z</time>
      </trkpt>
      <trkpt lat="43.40485" lon="6.62943">
        <ele>321</ele>
        <time>2013-10-13T10:20:48Z</time>
      </trkpt>
      <trkpt lat="43.40475" lon="6.62942">
        <ele>322</ele>
        <time>2013-10-13T10:20:51Z</time>
      </trkpt>
      <trkpt lat="43.40467" lon="6.62938">
        <ele>322</ele>
        <time>2013-10-13T10:20:54Z</time>
      </trkpt>
      <trkpt lat="43.40456" lon="6.62935">
        <ele>322</ele>
        <time>2013-10-13T10:20:57Z</time>
      </trkpt>
      <trkpt lat="43.40448" lon="6.62931">
        <ele>322.60998535156</ele>
        <time>2013-10-13T10:21:00Z</time>
      </trkpt>
      <trkpt lat="43.40442" lon="6.62929">
        <ele>323</ele>
        <time>2013-10-13T10:21:02Z</time>
      </trkpt>
      <trkpt lat="43.40433" lon="6.62923">
        <ele>323</ele>
        <time>2013-10-13T10:21:05Z</time>
      </trkpt>
      <trkpt lat="43.40427" lon="6.6292">
        <ele>323</ele>
        <time>2013-10-13T10:21:07Z</time>
      </trkpt>
      <trkpt lat="43.40421" lon="6.62916">
        <ele>323</ele>
        <time>2013-10-13T10:21:09Z</time>
      </trkpt>
      <trkpt lat="43.40416" lon="6.62914">
        <ele>324</ele>
        <time>2013-10-13T10:21:11Z</time>
      </trkpt>
      <trkpt lat="43.40406" lon="6.6291">
        <ele>324</ele>
        <time>2013-10-13T10:21:14Z</time>
      </trkpt>
      <trkpt lat="43.404" lon="6.6291">
        <ele>324</ele>
        <time>2013-10-13T10:21:16Z</time>
      </trkpt>
      <trkpt lat="43.40392" lon="6.62911">
        <ele>324</ele>
        <time>2013-10-13T10:21:19Z</time>
      </trkpt>
      <trkpt lat="43.40383" lon="6.62913">
        <ele>325</ele>
        <time>2013-10-13T10:21:22Z</time>
      </trkpt>
      <trkpt lat="43.40374" lon="6.62915">
        <ele>325</ele>
        <time>2013-10-13T10:21:25Z</time>
      </trkpt>
      <trkpt lat="43.40364" lon="6.62917">
        <ele>325</ele>
        <time>2013-10-13T10:21:28Z</time>
      </trkpt>
      <trkpt lat="43.40355" lon="6.62921">
        <ele>327</ele>
        <time>2013-10-13T10:21:31Z</time>
      </trkpt>
      <trkpt lat="43.40346" lon="6.6293">
        <ele>327</ele>
        <time>2013-10-13T10:21:34Z</time>
      </trkpt>
      <trkpt lat="43.40337" lon="6.62942">
        <ele>327</ele>
        <time>2013-10-13T10:21:38Z</time>
      </trkpt>
      <trkpt lat="43.40331" lon="6.62954">
        <ele>329</ele>
        <time>2013-10-13T10:21:42Z</time>
      </trkpt>
      <trkpt lat="43.40323" lon="6.62968">
        <ele>329</ele>
        <time>2013-10-13T10:21:46Z</time>
      </trkpt>
      <trkpt lat="43.40316" lon="6.62981">
        <ele>329</ele>
        <time>2013-10-13T10:21:50Z</time>
      </trkpt>
      <trkpt lat="43.40308" lon="6.62995">
        <ele>329</ele>
        <time>2013-10-13T10:21:54Z</time>
      </trkpt>
      <trkpt lat="43.403" lon="6.63007">
        <ele>329</ele>
        <time>2013-10-13T10:21:58Z</time>
      </trkpt>
      <trkpt lat="43.40294" lon="6.6302">
        <ele>330</ele>
        <time>2013-10-13T10:22:02Z</time>
      </trkpt>
      <trkpt lat="43.40287" lon="6.63034">
        <ele>330</ele>
        <time>2013-10-13T10:22:07Z</time>
      </trkpt>
      <trkpt lat="43.40278" lon="6.63042">
        <ele>331.2200012207</ele>
        <time>2013-10-13T10:22:10Z</time>
      </trkpt>
      <trkpt lat="43.40269" lon="6.63052">
        <ele>332</ele>
        <time>2013-10-13T10:22:14Z</time>
      </trkpt>
      <trkpt lat="43.40258" lon="6.63059">
        <ele>332</ele>
        <time>2013-10-13T10:22:18Z</time>
      </trkpt>
      <trkpt lat="43.40246" lon="6.63064">
        <ele>333</ele>
        <time>2013-10-13T10:22:22Z</time>
      </trkpt>
      <trkpt lat="43.40236" lon="6.63068">
        <ele>333</ele>
        <time>2013-10-13T10:22:26Z</time>
      </trkpt>
      <trkpt lat="43.40223" lon="6.63072">
        <ele>334.2200012207</ele>
        <time>2013-10-13T10:22:30Z</time>
      </trkpt>
      <trkpt lat="43.40213" lon="6.63075">
        <ele>335</ele>
        <time>2013-10-13T10:22:33Z</time>
      </trkpt>
      <trkpt lat="43.402" lon="6.63081">
        <ele>335</ele>
        <time>2013-10-13T10:22:37Z</time>
      </trkpt>
      <trkpt lat="43.40189" lon="6.63089">
        <ele>335</ele>
        <time>2013-10-13T10:22:41Z</time>
      </trkpt>
      <trkpt lat="43.4018" lon="6.63099">
        <ele>335</ele>
        <time>2013-10-13T10:22:44Z</time>
      </trkpt>
      <trkpt lat="43.40173" lon="6.63113">
        <ele>335</ele>
        <time>2013-10-13T10:22:48Z</time>
      </trkpt>
      <trkpt lat="43.40169" lon="6.63127">
        <ele>335</ele>
        <time>2013-10-13T10:22:51Z</time>
      </trkpt>
      <trkpt lat="43.40167" lon="6.63142">
        <ele>335</ele>
        <time>2013-10-13T10:22:54Z</time>
      </trkpt>
      <trkpt lat="43.40166" lon="6.63159">
        <ele>335</ele>
        <time>2013-10-13T10:22:57Z</time>
      </trkpt>
      <trkpt lat="43.40167" lon="6.63176">
        <ele>336.2200012207</ele>
        <time>2013-10-13T10:23:00Z</time>
      </trkpt>
      <trkpt lat="43.40168" lon="6.63193">
        <ele>337</ele>
        <time>2013-10-13T10:23:03Z</time>
      </trkpt>
      <trkpt lat="43.40169" lon="6.6321">
        <ele>337</ele>
        <time>2013-10-13T10:23:06Z</time>
      </trkpt>
      <trkpt lat="43.4017" lon="6.63227">
        <ele>337</ele>
        <time>2013-10-13T10:23:09Z</time>
      </trkpt>
      <trkpt lat="43.40171" lon="6.63243">
        <ele>337</ele>
        <time>2013-10-13T10:23:12Z</time>
      </trkpt>
      <trkpt lat="43.40171" lon="6.6326">
        <ele>337</ele>
        <time>2013-10-13T10:23:15Z</time>
      </trkpt>
      <trkpt lat="43.40169" lon="6.63276">
        <ele>337</ele>
        <time>2013-10-13T10:23:18Z</time>
      </trkpt>
      <trkpt lat="43.40169" lon="6.63293">
        <ele>339</ele>
        <time>2013-10-13T10:23:21Z</time>
      </trkpt>
      <trkpt lat="43.40168" lon="6.63308">
        <ele>339</ele>
        <time>2013-10-13T10:23:24Z</time>
      </trkpt>
      <trkpt lat="43.40167" lon="6.63323">
        <ele>339</ele>
        <time>2013-10-13T10:23:27Z</time>
      </trkpt>
      <trkpt lat="43.40166" lon="6.63339">
        <ele>339</ele>
        <time>2013-10-13T10:23:30Z</time>
      </trkpt>
      <trkpt lat="43.40164" lon="6.63355">
        <ele>339</ele>
        <time>2013-10-13T10:23:33Z</time>
      </trkpt>
      <trkpt lat="43.40163" lon="6.6337">
        <ele>339</ele>
        <time>2013-10-13T10:23:36Z</time>
      </trkpt>
      <trkpt lat="43.40157" lon="6.63382">
        <ele>339</ele>
        <time>2013-10-13T10:23:39Z</time>
      </trkpt>
      <trkpt lat="43.40149" lon="6.63393">
        <ele>341</ele>
        <time>2013-10-13T10:23:42Z</time>
      </trkpt>
      <trkpt lat="43.40138" lon="6.634">
        <ele>341</ele>
        <time>2013-10-13T10:23:45Z</time>
      </trkpt>
      <trkpt lat="43.40127" lon="6.63403">
        <ele>341</ele>
        <time>2013-10-13T10:23:48Z</time>
      </trkpt>
      <trkpt lat="43.40119" lon="6.63403">
        <ele>341</ele>
        <time>2013-10-13T10:23:50Z</time>
      </trkpt>
      <trkpt lat="43.40111" lon="6.63404">
        <ele>341</ele>
        <time>2013-10-13T10:23:52Z</time>
      </trkpt>
      <trkpt lat="43.401" lon="6.63406">
        <ele>341</ele>
        <time>2013-10-13T10:23:55Z</time>
      </trkpt>
      <trkpt lat="43.40089" lon="6.63409">
        <ele>341</ele>
        <time>2013-10-13T10:23:58Z</time>
      </trkpt>
      <trkpt lat="43.40081" lon="6.63413">
        <ele>341.67617797852</ele>
        <time>2013-10-13T10:24:00Z</time>
      </trkpt>
      <trkpt lat="43.40074" lon="6.63418">
        <ele>342</ele>
        <time>2013-10-13T10:24:02Z</time>
      </trkpt>
      <trkpt lat="43.40063" lon="6.63426">
        <ele>342</ele>
        <time>2013-10-13T10:24:05Z</time>
      </trkpt>
      <trkpt lat="43.40054" lon="6.63435">
        <ele>342</ele>
        <time>2013-10-13T10:24:08Z</time>
      </trkpt>
      <trkpt lat="43.40045" lon="6.63443">
        <ele>343</ele>
        <time>2013-10-13T10:24:11Z</time>
      </trkpt>
      <trkpt lat="43.40038" lon="6.63449">
        <ele>343</ele>
        <time>2013-10-13T10:24:13Z</time>
      </trkpt>
      <trkpt lat="43.40031" lon="6.63455">
        <ele>343</ele>
        <time>2013-10-13T10:24:15Z</time>
      </trkpt>
      <trkpt lat="43.40024" lon="6.63464">
        <ele>343</ele>
        <time>2013-10-13T10:24:18Z</time>
      </trkpt>
      <trkpt lat="43.40017" lon="6.63469">
        <ele>344.42001342773</ele>
        <time>2013-10-13T10:24:20Z</time>
      </trkpt>
      <trkpt lat="43.40009" lon="6.63477">
        <ele>345</ele>
        <time>2013-10-13T10:24:23Z</time>
      </trkpt>
      <trkpt lat="43.40001" lon="6.63485">
        <ele>345</ele>
        <time>2013-10-13T10:24:26Z</time>
      </trkpt>
      <trkpt lat="43.39995" lon="6.6349">
        <ele>345</ele>
        <time>2013-10-13T10:24:28Z</time>
      </trkpt>
      <trkpt lat="43.39988" lon="6.63499">
        <ele>346</ele>
        <time>2013-10-13T10:24:31Z</time>
      </trkpt>
      <trkpt lat="43.39978" lon="6.63508">
        <ele>346</ele>
        <time>2013-10-13T10:24:35Z</time>
      </trkpt>
      <trkpt lat="43.39966" lon="6.63512">
        <ele>346</ele>
        <time>2013-10-13T10:24:39Z</time>
      </trkpt>
      <trkpt lat="43.39952" lon="6.63511">
        <ele>346</ele>
        <time>2013-10-13T10:24:42Z</time>
      </trkpt>
      <trkpt lat="43.39943" lon="6.63508">
        <ele>346</ele>
        <time>2013-10-13T10:24:44Z</time>
      </trkpt>
      <trkpt lat="43.39934" lon="6.63502">
        <ele>346</ele>
        <time>2013-10-13T10:24:46Z</time>
      </trkpt>
      <trkpt lat="43.39926" lon="6.63497">
        <ele>346</ele>
        <time>2013-10-13T10:24:48Z</time>
      </trkpt>
      <trkpt lat="43.39919" lon="6.63492">
        <ele>346.60998535156</ele>
        <time>2013-10-13T10:24:50Z</time>
      </trkpt>
      <trkpt lat="43.39912" lon="6.63487">
        <ele>347</ele>
        <time>2013-10-13T10:24:52Z</time>
      </trkpt>
      <trkpt lat="43.39903" lon="6.6348">
        <ele>347</ele>
        <time>2013-10-13T10:24:55Z</time>
      </trkpt>
      <trkpt lat="43.39893" lon="6.63474">
        <ele>347</ele>
        <time>2013-10-13T10:24:58Z</time>
      </trkpt>
      <trkpt lat="43.39886" lon="6.6347">
        <ele>348.02001953125</ele>
        <time>2013-10-13T10:25:00Z</time>
      </trkpt>
      <trkpt lat="43.39878" lon="6.63465">
        <ele>349</ele>
        <time>2013-10-13T10:25:02Z</time>
      </trkpt>
      <trkpt lat="43.3987" lon="6.63461">
        <ele>349</ele>
        <time>2013-10-13T10:25:04Z</time>
      </trkpt>
      <trkpt lat="43.39862" lon="6.63456">
        <ele>349</ele>
        <time>2013-10-13T10:25:06Z</time>
      </trkpt>
      <trkpt lat="43.39854" lon="6.63453">
        <ele>349</ele>
        <time>2013-10-13T10:25:08Z</time>
      </trkpt>
      <trkpt lat="43.39846" lon="6.63449">
        <ele>349.70999145508</ele>
        <time>2013-10-13T10:25:10Z</time>
      </trkpt>
      <trkpt lat="43.39839" lon="6.63447">
        <ele>350</ele>
        <time>2013-10-13T10:25:12Z</time>
      </trkpt>
      <trkpt lat="43.39831" lon="6.63443">
        <ele>350</ele>
        <time>2013-10-13T10:25:14Z</time>
      </trkpt>
      <trkpt lat="43.39824" lon="6.63442">
        <ele>350</ele>
        <time>2013-10-13T10:25:16Z</time>
      </trkpt>
      <trkpt lat="43.39816" lon="6.6344">
        <ele>350</ele>
        <time>2013-10-13T10:25:18Z</time>
      </trkpt>
      <trkpt lat="43.39809" lon="6.63439">
        <ele>351.02001953125</ele>
        <time>2013-10-13T10:25:20Z</time>
      </trkpt>
      <trkpt lat="43.398" lon="6.63438">
        <ele>352</ele>
        <time>2013-10-13T10:25:22Z</time>
      </trkpt>
      <trkpt lat="43.3979" lon="6.63435">
        <ele>352</ele>
        <time>2013-10-13T10:25:24Z</time>
      </trkpt>
      <trkpt lat="43.3978" lon="6.63432">
        <ele>352</ele>
        <time>2013-10-13T10:25:26Z</time>
      </trkpt>
      <trkpt lat="43.39772" lon="6.63427">
        <ele>352</ele>
        <time>2013-10-13T10:25:28Z</time>
      </trkpt>
      <trkpt lat="43.39765" lon="6.63424">
        <ele>352</ele>
        <time>2013-10-13T10:25:30Z</time>
      </trkpt>
      <trkpt lat="43.39758" lon="6.63421">
        <ele>352</ele>
        <time>2013-10-13T10:25:32Z</time>
      </trkpt>
      <trkpt lat="43.39752" lon="6.63416">
        <ele>352</ele>
        <time>2013-10-13T10:25:34Z</time>
      </trkpt>
      <trkpt lat="43.39745" lon="6.63412">
        <ele>352</ele>
        <time>2013-10-13T10:25:36Z</time>
      </trkpt>
      <trkpt lat="43.39738" lon="6.63406">
        <ele>352</ele>
        <time>2013-10-13T10:25:38Z</time>
      </trkpt>
      <trkpt lat="43.39732" lon="6.63398">
        <ele>352.51000976562</ele>
        <time>2013-10-13T10:25:40Z</time>
      </trkpt>
      <trkpt lat="43.39723" lon="6.63391">
        <ele>353</ele>
        <time>2013-10-13T10:25:43Z</time>
      </trkpt>
      <trkpt lat="43.39713" lon="6.63395">
        <ele>353</ele>
        <time>2013-10-13T10:25:45Z</time>
      </trkpt>
      <trkpt lat="43.397" lon="6.63403">
        <ele>353</ele>
        <time>2013-10-13T10:25:47Z</time>
      </trkpt>
      <trkpt lat="43.39689" lon="6.63414">
        <ele>353</ele>
        <time>2013-10-13T10:25:49Z</time>
      </trkpt>
      <trkpt lat="43.39681" lon="6.63427">
        <ele>346.38998413086</ele>
        <time>2013-10-13T10:25:51Z</time>
      </trkpt>
      <trkpt lat="43.39672" lon="6.63437">
        <ele>346</ele>
        <time>2013-10-13T10:25:53Z</time>
      </trkpt>
      <trkpt lat="43.39664" lon="6.63447">
        <ele>345</ele>
        <time>2013-10-13T10:25:55Z</time>
      </trkpt>
      <trkpt lat="43.39653" lon="6.63455">
        <ele>344.41903686523</ele>
        <time>2013-10-13T10:25:59Z</time>
      </trkpt>
      <trkpt lat="43.39645" lon="6.63464">
        <ele>343</ele>
        <time>2013-10-13T10:26:01Z</time>
      </trkpt>
      <trkpt lat="43.39636" lon="6.63476">
        <ele>343</ele>
        <time>2013-10-13T10:26:03Z</time>
      </trkpt>
      <trkpt lat="43.39627" lon="6.63485">
        <ele>341.77996826172</ele>
        <time>2013-10-13T10:26:05Z</time>
      </trkpt>
      <trkpt lat="43.39615" lon="6.63491">
        <ele>341</ele>
        <time>2013-10-13T10:26:07Z</time>
      </trkpt>
      <trkpt lat="43.39606" lon="6.635">
        <ele>341</ele>
        <time>2013-10-13T10:26:09Z</time>
      </trkpt>
      <trkpt lat="43.39595" lon="6.63506">
        <ele>333.77996826172</ele>
        <time>2013-10-13T10:26:11Z</time>
      </trkpt>
      <trkpt lat="43.39582" lon="6.63509">
        <ele>331.41000366211</ele>
        <time>2013-10-13T10:26:13Z</time>
      </trkpt>
      <trkpt lat="43.39571" lon="6.63511">
        <ele>328.38998413086</ele>
        <time>2013-10-13T10:26:15Z</time>
      </trkpt>
      <trkpt lat="43.39557" lon="6.63514">
        <ele>325.48999023438</ele>
        <time>2013-10-13T10:26:18Z</time>
      </trkpt>
      <trkpt lat="43.39547" lon="6.63515">
        <ele>323.48999023438</ele>
        <time>2013-10-13T10:26:20Z</time>
      </trkpt>
      <trkpt lat="43.39534" lon="6.63509">
        <ele>321.48999023438</ele>
        <time>2013-10-13T10:26:23Z</time>
      </trkpt>
      <trkpt lat="43.39522" lon="6.63514">
        <ele>318.48999023438</ele>
        <time>2013-10-13T10:26:27Z</time>
      </trkpt>
      <trkpt lat="43.39514" lon="6.6352">
        <ele>316.48999023438</ele>
        <time>2013-10-13T10:26:29Z</time>
      </trkpt>
      <trkpt lat="43.39501" lon="6.63524">
        <ele>314.29000854492</ele>
        <time>2013-10-13T10:26:31Z</time>
      </trkpt>
      <trkpt lat="43.39488" lon="6.63527">
        <ele>313.32379150391</ele>
        <time>2013-10-13T10:26:33Z</time>
      </trkpt>
      <trkpt lat="43.39474" lon="6.6353">
        <ele>311.38998413086</ele>
        <time>2013-10-13T10:26:35Z</time>
      </trkpt>
      <trkpt lat="43.39462" lon="6.63536">
        <ele>310.38998413086</ele>
        <time>2013-10-13T10:26:37Z</time>
      </trkpt>
      <trkpt lat="43.39454" lon="6.63547">
        <ele>306.77996826172</ele>
        <time>2013-10-13T10:26:39Z</time>
      </trkpt>
      <trkpt lat="43.39447" lon="6.63558">
        <ele>304.38998413086</ele>
        <time>2013-10-13T10:26:41Z</time>
      </trkpt>
      <trkpt lat="43.39437" lon="6.6357">
        <ele>298.77996826172</ele>
        <time>2013-10-13T10:26:45Z</time>
      </trkpt>
      <trkpt lat="43.39429" lon="6.63575">
        <ele>296.77996826172</ele>
        <time>2013-10-13T10:26:47Z</time>
      </trkpt>
      <trkpt lat="43.3942" lon="6.63587">
        <ele>293.47369384766</ele>
        <time>2013-10-13T10:26:51Z</time>
      </trkpt>
      <trkpt lat="43.39416" lon="6.636">
        <ele>292</ele>
        <time>2013-10-13T10:26:53Z</time>
      </trkpt>
      <trkpt lat="43.39413" lon="6.63614">
        <ele>290.38998413086</ele>
        <time>2013-10-13T10:26:55Z</time>
      </trkpt>
      <trkpt lat="43.39409" lon="6.63629">
        <ele>289</ele>
        <time>2013-10-13T10:26:57Z</time>
      </trkpt>
      <trkpt lat="43.39402" lon="6.63642">
        <ele>286.45999145508</ele>
        <time>2013-10-13T10:27:00Z</time>
      </trkpt>
      <trkpt lat="43.39396" lon="6.63653">
        <ele>286</ele>
        <time>2013-10-13T10:27:03Z</time>
      </trkpt>
      <trkpt lat="43.3939" lon="6.63667">
        <ele>284</ele>
        <time>2013-10-13T10:27:06Z</time>
      </trkpt>
      <trkpt lat="43.39385" lon="6.63679">
        <ele>281</ele>
        <time>2013-10-13T10:27:13Z</time>
      </trkpt>
      <trkpt lat="43.39374" lon="6.63686">
        <ele>281</ele>
        <time>2013-10-13T10:27:18Z</time>
      </trkpt>
      <trkpt lat="43.39367" lon="6.63692">
        <ele>278.95999145508</ele>
        <time>2013-10-13T10:27:20Z</time>
      </trkpt>
      <trkpt lat="43.39355" lon="6.63699">
        <ele>277</ele>
        <time>2013-10-13T10:27:22Z</time>
      </trkpt>
      <trkpt lat="43.39347" lon="6.63709">
        <ele>277</ele>
        <time>2013-10-13T10:27:24Z</time>
      </trkpt>
      <trkpt lat="43.3934" lon="6.63719">
        <ele>270</ele>
        <time>2013-10-13T10:27:26Z</time>
      </trkpt>
      <trkpt lat="43.39334" lon="6.6373">
        <ele>270</ele>
        <time>2013-10-13T10:27:28Z</time>
      </trkpt>
      <trkpt lat="43.39328" lon="6.63739">
        <ele>266.34002685547</ele>
        <time>2013-10-13T10:27:30Z</time>
      </trkpt>
      <trkpt lat="43.39321" lon="6.63751">
        <ele>261</ele>
        <time>2013-10-13T10:27:33Z</time>
      </trkpt>
      <trkpt lat="43.39311" lon="6.63762">
        <ele>257.38998413086</ele>
        <time>2013-10-13T10:27:37Z</time>
      </trkpt>
      <trkpt lat="43.39301" lon="6.63767">
        <ele>254.38999938965</ele>
        <time>2013-10-13T10:27:40Z</time>
      </trkpt>
      <trkpt lat="43.39294" lon="6.63778">
        <ele>250.38999938965</ele>
        <time>2013-10-13T10:27:44Z</time>
      </trkpt>
      <trkpt lat="43.39289" lon="6.63786">
        <ele>248</ele>
        <time>2013-10-13T10:27:49Z</time>
      </trkpt>
      <trkpt lat="43.39289" lon="6.63788">
        <ele>247</ele>
        <time>2013-10-13T10:27:51Z</time>
      </trkpt>
      <trkpt lat="43.39288" lon="6.63789">
        <ele>247</ele>
        <time>2013-10-13T10:27:55Z</time>
      </trkpt>
      <trkpt lat="43.3928" lon="6.6379">
        <ele>244</ele>
        <time>2013-10-13T10:28:03Z</time>
      </trkpt>
      <trkpt lat="43.39278" lon="6.63803">
        <ele>240</ele>
        <time>2013-10-13T10:28:11Z</time>
      </trkpt>
      <trkpt lat="43.39272" lon="6.63819">
        <ele>237</ele>
        <time>2013-10-13T10:28:16Z</time>
      </trkpt>
      <trkpt lat="43.3927" lon="6.63833">
        <ele>237</ele>
        <time>2013-10-13T10:28:19Z</time>
      </trkpt>
      <trkpt lat="43.39267" lon="6.6385">
        <ele>231</ele>
        <time>2013-10-13T10:28:22Z</time>
      </trkpt>
      <trkpt lat="43.39265" lon="6.63868">
        <ele>226.97999572754</ele>
        <time>2013-10-13T10:28:25Z</time>
      </trkpt>
      <trkpt lat="43.39259" lon="6.63879">
        <ele>224.48999023438</ele>
        <time>2013-10-13T10:28:27Z</time>
      </trkpt>
      <trkpt lat="43.39254" lon="6.63891">
        <ele>222.28999328613</ele>
        <time>2013-10-13T10:28:29Z</time>
      </trkpt>
      <trkpt lat="43.39242" lon="6.63905">
        <ele>219.20590209961</ele>
        <time>2013-10-13T10:28:32Z</time>
      </trkpt>
      <trkpt lat="43.39228" lon="6.6391">
        <ele>217.38999938965</ele>
        <time>2013-10-13T10:28:34Z</time>
      </trkpt>
      <trkpt lat="43.39214" lon="6.63917">
        <ele>216</ele>
        <time>2013-10-13T10:28:36Z</time>
      </trkpt>
      <trkpt lat="43.392" lon="6.63925">
        <ele>214.38999938965</ele>
        <time>2013-10-13T10:28:38Z</time>
      </trkpt>
      <trkpt lat="43.39189" lon="6.63932">
        <ele>214.61000061035</ele>
        <time>2013-10-13T10:28:40Z</time>
      </trkpt>
      <trkpt lat="43.39179" lon="6.63938">
        <ele>215</ele>
        <time>2013-10-13T10:28:42Z</time>
      </trkpt>
      <trkpt lat="43.39165" lon="6.63945">
        <ele>216</ele>
        <time>2013-10-13T10:28:45Z</time>
      </trkpt>
      <trkpt lat="43.39156" lon="6.63951">
        <ele>217.54081726074</ele>
        <time>2013-10-13T10:28:48Z</time>
      </trkpt>
      <trkpt lat="43.39146" lon="6.63958">
        <ele>218</ele>
        <time>2013-10-13T10:28:52Z</time>
      </trkpt>
      <trkpt lat="43.39133" lon="6.63961">
        <ele>220</ele>
        <time>2013-10-13T10:28:56Z</time>
      </trkpt>
      <trkpt lat="43.39122" lon="6.63965">
        <ele>221.2200012207</ele>
        <time>2013-10-13T10:29:00Z</time>
      </trkpt>
      <trkpt lat="43.39111" lon="6.63968">
        <ele>222</ele>
        <time>2013-10-13T10:29:03Z</time>
      </trkpt>
      <trkpt lat="43.391" lon="6.63973">
        <ele>222</ele>
        <time>2013-10-13T10:29:06Z</time>
      </trkpt>
      <trkpt lat="43.39091" lon="6.63981">
        <ele>222</ele>
        <time>2013-10-13T10:29:09Z</time>
      </trkpt>
      <trkpt lat="43.39083" lon="6.63991">
        <ele>224</ele>
        <time>2013-10-13T10:29:13Z</time>
      </trkpt>
      <trkpt lat="43.39076" lon="6.63999">
        <ele>224</ele>
        <time>2013-10-13T10:29:16Z</time>
      </trkpt>
      <trkpt lat="43.39066" lon="6.64007">
        <ele>224</ele>
        <time>2013-10-13T10:29:19Z</time>
      </trkpt>
      <trkpt lat="43.39053" lon="6.64016">
        <ele>224</ele>
        <time>2013-10-13T10:29:22Z</time>
      </trkpt>
      <trkpt lat="43.39042" lon="6.64023">
        <ele>224</ele>
        <time>2013-10-13T10:29:24Z</time>
      </trkpt>
      <trkpt lat="43.39029" lon="6.64033">
        <ele>224</ele>
        <time>2013-10-13T10:29:26Z</time>
      </trkpt>
      <trkpt lat="43.39016" lon="6.64043">
        <ele>224</ele>
        <time>2013-10-13T10:29:28Z</time>
      </trkpt>
      <trkpt lat="43.39005" lon="6.64054">
        <ele>221.44998168945</ele>
        <time>2013-10-13T10:29:30Z</time>
      </trkpt>
      <trkpt lat="43.38993" lon="6.64064">
        <ele>219</ele>
        <time>2013-10-13T10:29:32Z</time>
      </trkpt>
      <trkpt lat="43.38979" lon="6.6407">
        <ele>219</ele>
        <time>2013-10-13T10:29:34Z</time>
      </trkpt>
      <trkpt lat="43.38968" lon="6.64074">
        <ele>215</ele>
        <time>2013-10-13T10:29:36Z</time>
      </trkpt>
      <trkpt lat="43.38956" lon="6.64078">
        <ele>215</ele>
        <time>2013-10-13T10:29:38Z</time>
      </trkpt>
      <trkpt lat="43.38945" lon="6.6408">
        <ele>212.5</ele>
        <time>2013-10-13T10:29:40Z</time>
      </trkpt>
      <trkpt lat="43.38934" lon="6.64072">
        <ele>204.48999023438</ele>
        <time>2013-10-13T10:29:43Z</time>
      </trkpt>
      <trkpt lat="43.38931" lon="6.64056">
        <ele>203</ele>
        <time>2013-10-13T10:29:46Z</time>
      </trkpt>
      <trkpt lat="43.38935" lon="6.64042">
        <ele>201.48999023438</ele>
        <time>2013-10-13T10:29:49Z</time>
      </trkpt>
      <trkpt lat="43.3894" lon="6.64025">
        <ele>202</ele>
        <time>2013-10-13T10:29:53Z</time>
      </trkpt>
      <trkpt lat="43.38948" lon="6.64011">
        <ele>200</ele>
        <time>2013-10-13T10:29:56Z</time>
      </trkpt>
      <trkpt lat="43.38957" lon="6.64003">
        <ele>200</ele>
        <time>2013-10-13T10:29:59Z</time>
      </trkpt>
      <trkpt lat="43.38967" lon="6.63995">
        <ele>200</ele>
        <time>2013-10-13T10:30:02Z</time>
      </trkpt>
      <trkpt lat="43.38978" lon="6.63987">
        <ele>200</ele>
        <time>2013-10-13T10:30:05Z</time>
      </trkpt>
      <trkpt lat="43.38985" lon="6.63981">
        <ele>200</ele>
        <time>2013-10-13T10:30:07Z</time>
      </trkpt>
      <trkpt lat="43.38994" lon="6.63974">
        <ele>199.48999023438</ele>
        <time>2013-10-13T10:30:10Z</time>
      </trkpt>
      <trkpt lat="43.39002" lon="6.63964">
        <ele>199</ele>
        <time>2013-10-13T10:30:13Z</time>
      </trkpt>
      <trkpt lat="43.39012" lon="6.63954">
        <ele>199</ele>
        <time>2013-10-13T10:30:16Z</time>
      </trkpt>
      <trkpt lat="43.39021" lon="6.63945">
        <ele>199</ele>
        <time>2013-10-13T10:30:19Z</time>
      </trkpt>
      <trkpt lat="43.39027" lon="6.63934">
        <ele>200</ele>
        <time>2013-10-13T10:30:26Z</time>
      </trkpt>
      <trkpt lat="43.39027" lon="6.63921">
        <ele>200</ele>
        <time>2013-10-13T10:30:29Z</time>
      </trkpt>
      <trkpt lat="43.39024" lon="6.63909">
        <ele>198</ele>
        <time>2013-10-13T10:30:32Z</time>
      </trkpt>
      <trkpt lat="43.39015" lon="6.63896">
        <ele>198</ele>
        <time>2013-10-13T10:30:36Z</time>
      </trkpt>
      <trkpt lat="43.39009" lon="6.63881">
        <ele>198</ele>
        <time>2013-10-13T10:30:39Z</time>
      </trkpt>
      <trkpt lat="43.38997" lon="6.63874">
        <ele>193</ele>
        <time>2013-10-13T10:30:42Z</time>
      </trkpt>
      <trkpt lat="43.38984" lon="6.63867">
        <ele>188.72993469238</ele>
        <time>2013-10-13T10:30:45Z</time>
      </trkpt>
      <trkpt lat="43.38976" lon="6.63859">
        <ele>186</ele>
        <time>2013-10-13T10:30:47Z</time>
      </trkpt>
      <trkpt lat="43.38964" lon="6.63849">
        <ele>181.73002624512</ele>
        <time>2013-10-13T10:30:50Z</time>
      </trkpt>
      <trkpt lat="43.38957" lon="6.63839">
        <ele>174.39999389648</ele>
        <time>2013-10-13T10:30:53Z</time>
      </trkpt>
      <trkpt lat="43.38951" lon="6.63826">
        <ele>171.16996765137</ele>
        <time>2013-10-13T10:30:55Z</time>
      </trkpt>
      <trkpt lat="43.38946" lon="6.63807">
        <ele>166.16996765137</ele>
        <time>2013-10-13T10:30:57Z</time>
      </trkpt>
      <trkpt lat="43.3894" lon="6.63793">
        <ele>164</ele>
        <time>2013-10-13T10:30:59Z</time>
      </trkpt>
      <trkpt lat="43.38931" lon="6.63784">
        <ele>163</ele>
        <time>2013-10-13T10:31:02Z</time>
      </trkpt>
      <trkpt lat="43.38921" lon="6.63772">
        <ele>163</ele>
        <time>2013-10-13T10:31:05Z</time>
      </trkpt>
      <trkpt lat="43.3891" lon="6.63762">
        <ele>163</ele>
        <time>2013-10-13T10:31:08Z</time>
      </trkpt>
      <trkpt lat="43.38899" lon="6.63753">
        <ele>163</ele>
        <time>2013-10-13T10:31:11Z</time>
      </trkpt>
      <trkpt lat="43.38894" lon="6.63739">
        <ele>163</ele>
        <time>2013-10-13T10:31:14Z</time>
      </trkpt>
      <trkpt lat="43.38888" lon="6.6373">
        <ele>163</ele>
        <time>2013-10-13T10:31:16Z</time>
      </trkpt>
      <trkpt lat="43.38882" lon="6.63716">
        <ele>163</ele>
        <time>2013-10-13T10:31:19Z</time>
      </trkpt>
      <trkpt lat="43.38874" lon="6.63703">
        <ele>162</ele>
        <time>2013-10-13T10:31:22Z</time>
      </trkpt>
      <trkpt lat="43.38865" lon="6.63693">
        <ele>162</ele>
        <time>2013-10-13T10:31:24Z</time>
      </trkpt>
      <trkpt lat="43.38857" lon="6.63683">
        <ele>162</ele>
        <time>2013-10-13T10:31:26Z</time>
      </trkpt>
      <trkpt lat="43.38848" lon="6.63672">
        <ele>162</ele>
        <time>2013-10-13T10:31:29Z</time>
      </trkpt>
      <trkpt lat="43.38838" lon="6.63661">
        <ele>148</ele>
        <time>2013-10-13T10:31:34Z</time>
      </trkpt>
      <trkpt lat="43.38827" lon="6.63652">
        <ele>145.39999389648</ele>
        <time>2013-10-13T10:31:36Z</time>
      </trkpt>
      <trkpt lat="43.38818" lon="6.63643">
        <ele>145</ele>
        <time>2013-10-13T10:31:38Z</time>
      </trkpt>
      <trkpt lat="43.3881" lon="6.63632">
        <ele>147</ele>
        <time>2013-10-13T10:31:41Z</time>
      </trkpt>
      <trkpt lat="43.38803" lon="6.63622">
        <ele>147</ele>
        <time>2013-10-13T10:31:43Z</time>
      </trkpt>
      <trkpt lat="43.38799" lon="6.63609">
        <ele>145.48999023438</ele>
        <time>2013-10-13T10:31:45Z</time>
      </trkpt>
      <trkpt lat="43.38794" lon="6.63596">
        <ele>145</ele>
        <time>2013-10-13T10:31:47Z</time>
      </trkpt>
      <trkpt lat="43.38789" lon="6.63583">
        <ele>145.51000976562</ele>
        <time>2013-10-13T10:31:49Z</time>
      </trkpt>
      <trkpt lat="43.38786" lon="6.63571">
        <ele>146</ele>
        <time>2013-10-13T10:31:51Z</time>
      </trkpt>
      <trkpt lat="43.3878" lon="6.63556">
        <ele>146</ele>
        <time>2013-10-13T10:31:54Z</time>
      </trkpt>
      <trkpt lat="43.38775" lon="6.63541">
        <ele>146</ele>
        <time>2013-10-13T10:31:57Z</time>
      </trkpt>
      <trkpt lat="43.38778" lon="6.63525">
        <ele>150</ele>
        <time>2013-10-13T10:32:01Z</time>
      </trkpt>
      <trkpt lat="43.38783" lon="6.63511">
        <ele>150.51000976562</ele>
        <time>2013-10-13T10:32:05Z</time>
      </trkpt>
      <trkpt lat="43.38787" lon="6.63498">
        <ele>151</ele>
        <time>2013-10-13T10:32:09Z</time>
      </trkpt>
      <trkpt lat="43.38777" lon="6.63484">
        <ele>153</ele>
        <time>2013-10-13T10:32:13Z</time>
      </trkpt>
      <trkpt lat="43.38765" lon="6.63481">
        <ele>152.38998413086</ele>
        <time>2013-10-13T10:32:15Z</time>
      </trkpt>
      <trkpt lat="43.38753" lon="6.63479">
        <ele>152</ele>
        <time>2013-10-13T10:32:17Z</time>
      </trkpt>
      <trkpt lat="43.38743" lon="6.63487">
        <ele>152</ele>
        <time>2013-10-13T10:32:19Z</time>
      </trkpt>
      <trkpt lat="43.38733" lon="6.63498">
        <ele>149</ele>
        <time>2013-10-13T10:32:22Z</time>
      </trkpt>
      <trkpt lat="43.38724" lon="6.63507">
        <ele>146.55996704102</ele>
        <time>2013-10-13T10:32:25Z</time>
      </trkpt>
      <trkpt lat="43.38713" lon="6.63502">
        <ele>145</ele>
        <time>2013-10-13T10:32:29Z</time>
      </trkpt>
      <trkpt lat="43.387" lon="6.63492">
        <ele>137.97999572754</ele>
        <time>2013-10-13T10:32:32Z</time>
      </trkpt>
      <trkpt lat="43.38689" lon="6.63486">
        <ele>135.48999023438</ele>
        <time>2013-10-13T10:32:34Z</time>
      </trkpt>
      <trkpt lat="43.38678" lon="6.63482">
        <ele>132.97999572754</ele>
        <time>2013-10-13T10:32:36Z</time>
      </trkpt>
      <trkpt lat="43.38668" lon="6.63475">
        <ele>131.48999023438</ele>
        <time>2013-10-13T10:32:38Z</time>
      </trkpt>
      <trkpt lat="43.38662" lon="6.63462">
        <ele>129.97999572754</ele>
        <time>2013-10-13T10:32:40Z</time>
      </trkpt>
      <trkpt lat="43.38655" lon="6.63449">
        <ele>127.28999328613</ele>
        <time>2013-10-13T10:32:42Z</time>
      </trkpt>
      <trkpt lat="43.38651" lon="6.63436">
        <ele>126</ele>
        <time>2013-10-13T10:32:44Z</time>
      </trkpt>
      <trkpt lat="43.38647" lon="6.6342">
        <ele>124.54081726074</ele>
        <time>2013-10-13T10:32:46Z</time>
      </trkpt>
      <trkpt lat="43.38643" lon="6.63408">
        <ele>122.45918273926</ele>
        <time>2013-10-13T10:32:48Z</time>
      </trkpt>
      <trkpt lat="43.38637" lon="6.63396">
        <ele>120.38999938965</ele>
        <time>2013-10-13T10:32:50Z</time>
      </trkpt>
      <trkpt lat="43.38625" lon="6.63388">
        <ele>119</ele>
        <time>2013-10-13T10:32:53Z</time>
      </trkpt>
      <trkpt lat="43.38615" lon="6.63396">
        <ele>116.38999938965</ele>
        <time>2013-10-13T10:32:56Z</time>
      </trkpt>
      <trkpt lat="43.38602" lon="6.63401">
        <ele>113.38999176025</ele>
        <time>2013-10-13T10:32:59Z</time>
      </trkpt>
      <trkpt lat="43.38592" lon="6.63398">
        <ele>112</ele>
        <time>2013-10-13T10:33:01Z</time>
      </trkpt>
      <trkpt lat="43.38582" lon="6.63395">
        <ele>108</ele>
        <time>2013-10-13T10:33:03Z</time>
      </trkpt>
      <trkpt lat="43.38571" lon="6.63393">
        <ele>107</ele>
        <time>2013-10-13T10:33:05Z</time>
      </trkpt>
      <trkpt lat="43.3856" lon="6.63389">
        <ele>105.38999176025</ele>
        <time>2013-10-13T10:33:07Z</time>
      </trkpt>
      <trkpt lat="43.38547" lon="6.63385">
        <ele>103</ele>
        <time>2013-10-13T10:33:10Z</time>
      </trkpt>
      <trkpt lat="43.38536" lon="6.63393">
        <ele>101.38999938965</ele>
        <time>2013-10-13T10:33:12Z</time>
      </trkpt>
      <trkpt lat="43.38526" lon="6.63405">
        <ele>99.389999389648</ele>
        <time>2013-10-13T10:33:14Z</time>
      </trkpt>
      <trkpt lat="43.38515" lon="6.63415">
        <ele>97.389999389648</ele>
        <time>2013-10-13T10:33:16Z</time>
      </trkpt>
      <trkpt lat="43.38506" lon="6.63424">
        <ele>97</ele>
        <time>2013-10-13T10:33:18Z</time>
      </trkpt>
      <trkpt lat="43.38495" lon="6.63435">
        <ele>97</ele>
        <time>2013-10-13T10:33:20Z</time>
      </trkpt>
      <trkpt lat="43.38491" lon="6.63441">
        <ele>97</ele>
        <time>2013-10-13T10:33:21Z</time>
      </trkpt>
      <trkpt lat="43.38482" lon="6.63456">
        <ele>97</ele>
        <time>2013-10-13T10:33:23Z</time>
      </trkpt>
      <trkpt lat="43.38472" lon="6.6347">
        <ele>96</ele>
        <time>2013-10-13T10:33:25Z</time>
      </trkpt>
      <trkpt lat="43.3846" lon="6.63482">
        <ele>96</ele>
        <time>2013-10-13T10:33:27Z</time>
      </trkpt>
      <trkpt lat="43.38454" lon="6.63487">
        <ele>95.48999786377</ele>
        <time>2013-10-13T10:33:28Z</time>
      </trkpt>
      <trkpt lat="43.38447" lon="6.63493">
        <ele>95</ele>
        <time>2013-10-13T10:33:29Z</time>
      </trkpt>
      <trkpt lat="43.38441" lon="6.63501">
        <ele>95</ele>
        <time>2013-10-13T10:33:30Z</time>
      </trkpt>
      <trkpt lat="43.38435" lon="6.63509">
        <ele>95</ele>
        <time>2013-10-13T10:33:31Z</time>
      </trkpt>
      <trkpt lat="43.38429" lon="6.63517">
        <ele>95</ele>
        <time>2013-10-13T10:33:32Z</time>
      </trkpt>
      <trkpt lat="43.38421" lon="6.63544">
        <ele>95</ele>
        <time>2013-10-13T10:33:35Z</time>
      </trkpt>
      <trkpt lat="43.38416" lon="6.63562">
        <ele>95</ele>
        <time>2013-10-13T10:33:37Z</time>
      </trkpt>
      <trkpt lat="43.38408" lon="6.63578">
        <ele>95</ele>
        <time>2013-10-13T10:33:39Z</time>
      </trkpt>
      <trkpt lat="43.38397" lon="6.63592">
        <ele>93</ele>
        <time>2013-10-13T10:33:41Z</time>
      </trkpt>
      <trkpt lat="43.38387" lon="6.63605">
        <ele>93</ele>
        <time>2013-10-13T10:33:43Z</time>
      </trkpt>
      <trkpt lat="43.38378" lon="6.63618">
        <ele>93</ele>
        <time>2013-10-13T10:33:45Z</time>
      </trkpt>
      <trkpt lat="43.3837" lon="6.63627">
        <ele>93</ele>
        <time>2013-10-13T10:33:47Z</time>
      </trkpt>
      <trkpt lat="43.38361" lon="6.63636">
        <ele>90</ele>
        <time>2013-10-13T10:33:51Z</time>
      </trkpt>
      <trkpt lat="43.38351" lon="6.63643">
        <ele>88</ele>
        <time>2013-10-13T10:33:58Z</time>
      </trkpt>
      <trkpt lat="43.38341" lon="6.63647">
        <ele>88</ele>
        <time>2013-10-13T10:34:02Z</time>
      </trkpt>
      <trkpt lat="43.38334" lon="6.63657">
        <ele>88</ele>
        <time>2013-10-13T10:34:06Z</time>
      </trkpt>
      <trkpt lat="43.38324" lon="6.6367">
        <ele>88.480400085449</ele>
        <time>2013-10-13T10:34:10Z</time>
      </trkpt>
      <trkpt lat="43.38315" lon="6.63679">
        <ele>89</ele>
        <time>2013-10-13T10:34:13Z</time>
      </trkpt>
      <trkpt lat="43.38308" lon="6.63686">
        <ele>89</ele>
        <time>2013-10-13T10:34:16Z</time>
      </trkpt>
      <trkpt lat="43.38298" lon="6.63694">
        <ele>90.82999420166</ele>
        <time>2013-10-13T10:34:20Z</time>
      </trkpt>
      <trkpt lat="43.3829" lon="6.63704">
        <ele>92.610008239746</ele>
        <time>2013-10-13T10:34:25Z</time>
      </trkpt>
      <trkpt lat="43.38282" lon="6.63711">
        <ele>93</ele>
        <time>2013-10-13T10:34:29Z</time>
      </trkpt>
      <trkpt lat="43.38273" lon="6.63716">
        <ele>94</ele>
        <time>2013-10-13T10:34:32Z</time>
      </trkpt>
      <trkpt lat="43.38263" lon="6.63718">
        <ele>94</ele>
        <time>2013-10-13T10:34:35Z</time>
      </trkpt>
      <trkpt lat="43.38251" lon="6.63714">
        <ele>94</ele>
        <time>2013-10-13T10:34:38Z</time>
      </trkpt>
      <trkpt lat="43.38242" lon="6.63711">
        <ele>94</ele>
        <time>2013-10-13T10:34:40Z</time>
      </trkpt>
      <trkpt lat="43.38235" lon="6.63707">
        <ele>94</ele>
        <time>2013-10-13T10:34:42Z</time>
      </trkpt>
      <trkpt lat="43.38227" lon="6.63703">
        <ele>94</ele>
        <time>2013-10-13T10:34:44Z</time>
      </trkpt>
      <trkpt lat="43.38221" lon="6.63698">
        <ele>94</ele>
        <time>2013-10-13T10:34:46Z</time>
      </trkpt>
      <trkpt lat="43.38215" lon="6.63694">
        <ele>94</ele>
        <time>2013-10-13T10:34:48Z</time>
      </trkpt>
      <trkpt lat="43.38204" lon="6.63685">
        <ele>95</ele>
        <time>2013-10-13T10:34:51Z</time>
      </trkpt>
      <trkpt lat="43.38193" lon="6.63675">
        <ele>95</ele>
        <time>2013-10-13T10:34:54Z</time>
      </trkpt>
      <trkpt lat="43.38185" lon="6.63667">
        <ele>95</ele>
        <time>2013-10-13T10:34:56Z</time>
      </trkpt>
      <trkpt lat="43.38178" lon="6.63656">
        <ele>95</ele>
        <time>2013-10-13T10:34:58Z</time>
      </trkpt>
      <trkpt lat="43.38171" lon="6.63646">
        <ele>94.389999389648</ele>
        <time>2013-10-13T10:35:00Z</time>
      </trkpt>
      <trkpt lat="43.38166" lon="6.63635">
        <ele>94</ele>
        <time>2013-10-13T10:35:02Z</time>
      </trkpt>
      <trkpt lat="43.38163" lon="6.63623">
        <ele>94</ele>
        <time>2013-10-13T10:35:04Z</time>
      </trkpt>
      <trkpt lat="43.3816" lon="6.6361">
        <ele>94</ele>
        <time>2013-10-13T10:35:06Z</time>
      </trkpt>
      <trkpt lat="43.38154" lon="6.63602">
        <ele>94</ele>
        <time>2013-10-13T10:35:08Z</time>
      </trkpt>
      <trkpt lat="43.38147" lon="6.636">
        <ele>93</ele>
        <time>2013-10-13T10:35:11Z</time>
      </trkpt>
      <trkpt lat="43.3814" lon="6.63613">
        <ele>93</ele>
        <time>2013-10-13T10:35:17Z</time>
      </trkpt>
      <trkpt lat="43.38139" lon="6.63628">
        <ele>92.303924560547</ele>
        <time>2013-10-13T10:35:20Z</time>
      </trkpt>
      <trkpt lat="43.38139" lon="6.63639">
        <ele>92</ele>
        <time>2013-10-13T10:35:22Z</time>
      </trkpt>
      <trkpt lat="43.38138" lon="6.63651">
        <ele>92</ele>
        <time>2013-10-13T10:35:24Z</time>
      </trkpt>
      <trkpt lat="43.38137" lon="6.63662">
        <ele>92</ele>
        <time>2013-10-13T10:35:26Z</time>
      </trkpt>
      <trkpt lat="43.38138" lon="6.63673">
        <ele>92</ele>
        <time>2013-10-13T10:35:28Z</time>
      </trkpt>
      <trkpt lat="43.3814" lon="6.63685">
        <ele>92</ele>
        <time>2013-10-13T10:35:30Z</time>
      </trkpt>
      <trkpt lat="43.38142" lon="6.63696">
        <ele>92</ele>
        <time>2013-10-13T10:35:32Z</time>
      </trkpt>
      <trkpt lat="43.38144" lon="6.6371">
        <ele>92</ele>
        <time>2013-10-13T10:35:35Z</time>
      </trkpt>
      <trkpt lat="43.38149" lon="6.63724">
        <ele>92</ele>
        <time>2013-10-13T10:35:39Z</time>
      </trkpt>
      <trkpt lat="43.38153" lon="6.63738">
        <ele>93</ele>
        <time>2013-10-13T10:35:43Z</time>
      </trkpt>
      <trkpt lat="43.3816" lon="6.63752">
        <ele>93</ele>
        <time>2013-10-13T10:35:47Z</time>
      </trkpt>
      <trkpt lat="43.38166" lon="6.63765">
        <ele>96</ele>
        <time>2013-10-13T10:35:52Z</time>
      </trkpt>
      <trkpt lat="43.38174" lon="6.63777">
        <ele>98</ele>
        <time>2013-10-13T10:35:57Z</time>
      </trkpt>
      <trkpt lat="43.38182" lon="6.63788">
        <ele>99</ele>
        <time>2013-10-13T10:36:01Z</time>
      </trkpt>
      <trkpt lat="43.38189" lon="6.63801">
        <ele>99.979995727539</ele>
        <time>2013-10-13T10:36:05Z</time>
      </trkpt>
      <trkpt lat="43.38196" lon="6.63811">
        <ele>101</ele>
        <time>2013-10-13T10:36:09Z</time>
      </trkpt>
      <trkpt lat="43.38203" lon="6.63822">
        <ele>102</ele>
        <time>2013-10-13T10:36:14Z</time>
      </trkpt>
      <trkpt lat="43.38211" lon="6.63833">
        <ele>103.21999359131</ele>
        <time>2013-10-13T10:36:20Z</time>
      </trkpt>
      <trkpt lat="43.38203" lon="6.63841">
        <ele>105.21999359131</ele>
        <time>2013-10-13T10:36:30Z</time>
      </trkpt>
      <trkpt lat="43.38195" lon="6.63834">
        <ele>106</ele>
        <time>2013-10-13T10:36:35Z</time>
      </trkpt>
      <trkpt lat="43.38189" lon="6.63828">
        <ele>106.61000061035</ele>
        <time>2013-10-13T10:36:40Z</time>
      </trkpt>
      <trkpt lat="43.3818" lon="6.63823">
        <ele>107</ele>
        <time>2013-10-13T10:36:46Z</time>
      </trkpt>
      <trkpt lat="43.3817" lon="6.63819">
        <ele>112</ele>
        <time>2013-10-13T10:36:51Z</time>
      </trkpt>
      <trkpt lat="43.38161" lon="6.63814">
        <ele>114</ele>
        <time>2013-10-13T10:36:56Z</time>
      </trkpt>
      <trkpt lat="43.38152" lon="6.6381">
        <ele>114</ele>
        <time>2013-10-13T10:37:03Z</time>
      </trkpt>
      <trkpt lat="43.38143" lon="6.63807">
        <ele>114</ele>
        <time>2013-10-13T10:37:08Z</time>
      </trkpt>
      <trkpt lat="43.38131" lon="6.63804">
        <ele>116</ele>
        <time>2013-10-13T10:37:14Z</time>
      </trkpt>
      <trkpt lat="43.38121" lon="6.63801">
        <ele>116.87754058838</ele>
        <time>2013-10-13T10:37:20Z</time>
      </trkpt>
      <trkpt lat="43.38111" lon="6.63798">
        <ele>118</ele>
        <time>2013-10-13T10:37:25Z</time>
      </trkpt>
      <trkpt lat="43.381" lon="6.63795">
        <ele>120</ele>
        <time>2013-10-13T10:37:33Z</time>
      </trkpt>
      <trkpt lat="43.3809" lon="6.6379">
        <ele>120.61000061035</ele>
        <time>2013-10-13T10:37:40Z</time>
      </trkpt>
      <trkpt lat="43.38079" lon="6.63784">
        <ele>121</ele>
        <time>2013-10-13T10:37:46Z</time>
      </trkpt>
      <trkpt lat="43.38069" lon="6.63778">
        <ele>124</ele>
        <time>2013-10-13T10:37:51Z</time>
      </trkpt>
      <trkpt lat="43.38059" lon="6.63774">
        <ele>124</ele>
        <time>2013-10-13T10:37:57Z</time>
      </trkpt>
      <trkpt lat="43.38047" lon="6.63773">
        <ele>126</ele>
        <time>2013-10-13T10:38:03Z</time>
      </trkpt>
      <trkpt lat="43.38037" lon="6.6377">
        <ele>126</ele>
        <time>2013-10-13T10:38:08Z</time>
      </trkpt>
      <trkpt lat="43.38028" lon="6.63765">
        <ele>127</ele>
        <time>2013-10-13T10:38:13Z</time>
      </trkpt>
      <trkpt lat="43.38016" lon="6.63762">
        <ele>127</ele>
        <time>2013-10-13T10:38:19Z</time>
      </trkpt>
      <trkpt lat="43.38005" lon="6.63758">
        <ele>129</ele>
        <time>2013-10-13T10:38:24Z</time>
      </trkpt>
      <trkpt lat="43.37996" lon="6.63756">
        <ele>129</ele>
        <time>2013-10-13T10:38:29Z</time>
      </trkpt>
      <trkpt lat="43.37984" lon="6.63755">
        <ele>131</ele>
        <time>2013-10-13T10:38:35Z</time>
      </trkpt>
      <trkpt lat="43.37974" lon="6.63755">
        <ele>131.51000976562</ele>
        <time>2013-10-13T10:38:40Z</time>
      </trkpt>
      <trkpt lat="43.37963" lon="6.63755">
        <ele>132</ele>
        <time>2013-10-13T10:38:45Z</time>
      </trkpt>
      <trkpt lat="43.37953" lon="6.63756">
        <ele>133.53001403809</ele>
        <time>2013-10-13T10:38:50Z</time>
      </trkpt>
      <trkpt lat="43.37941" lon="6.63758">
        <ele>137</ele>
        <time>2013-10-13T10:38:56Z</time>
      </trkpt>
      <trkpt lat="43.3793" lon="6.63759">
        <ele>137</ele>
        <time>2013-10-13T10:39:01Z</time>
      </trkpt>
      <trkpt lat="43.37918" lon="6.6376">
        <ele>137</ele>
        <time>2013-10-13T10:39:06Z</time>
      </trkpt>
      <trkpt lat="43.37907" lon="6.63762">
        <ele>139</ele>
        <time>2013-10-13T10:39:11Z</time>
      </trkpt>
      <trkpt lat="43.37896" lon="6.63764">
        <ele>139</ele>
        <time>2013-10-13T10:39:17Z</time>
      </trkpt>
      <trkpt lat="43.37885" lon="6.63764">
        <ele>140</ele>
        <time>2013-10-13T10:39:22Z</time>
      </trkpt>
      <trkpt lat="43.37873" lon="6.63765">
        <ele>140</ele>
        <time>2013-10-13T10:39:27Z</time>
      </trkpt>
      <trkpt lat="43.37863" lon="6.63763">
        <ele>142</ele>
        <time>2013-10-13T10:39:32Z</time>
      </trkpt>
      <trkpt lat="43.37854" lon="6.6376">
        <ele>142</ele>
        <time>2013-10-13T10:39:38Z</time>
      </trkpt>
      <trkpt lat="43.37843" lon="6.6376">
        <ele>144</ele>
        <time>2013-10-13T10:39:43Z</time>
      </trkpt>
      <trkpt lat="43.37831" lon="6.6376">
        <ele>144</ele>
        <time>2013-10-13T10:39:49Z</time>
      </trkpt>
      <trkpt lat="43.37821" lon="6.63759">
        <ele>146</ele>
        <time>2013-10-13T10:39:54Z</time>
      </trkpt>
      <trkpt lat="43.3781" lon="6.63757">
        <ele>146</ele>
        <time>2013-10-13T10:39:59Z</time>
      </trkpt>
      <trkpt lat="43.37799" lon="6.63752">
        <ele>148</ele>
        <time>2013-10-13T10:40:05Z</time>
      </trkpt>
      <trkpt lat="43.37788" lon="6.63753">
        <ele>149.13264465332</ele>
        <time>2013-10-13T10:40:10Z</time>
      </trkpt>
      <trkpt lat="43.37777" lon="6.63751">
        <ele>151</ele>
        <time>2013-10-13T10:40:16Z</time>
      </trkpt>
      <trkpt lat="43.37766" lon="6.63747">
        <ele>152</ele>
        <time>2013-10-13T10:40:22Z</time>
      </trkpt>
      <trkpt lat="43.37759" lon="6.63735">
        <ele>152</ele>
        <time>2013-10-13T10:40:26Z</time>
      </trkpt>
      <trkpt lat="43.37756" lon="6.63721">
        <ele>153.02000427246</ele>
        <time>2013-10-13T10:40:30Z</time>
      </trkpt>
      <trkpt lat="43.37754" lon="6.63705">
        <ele>154</ele>
        <time>2013-10-13T10:40:35Z</time>
      </trkpt>
      <trkpt lat="43.37743" lon="6.63695">
        <ele>154</ele>
        <time>2013-10-13T10:40:38Z</time>
      </trkpt>
      <trkpt lat="43.37732" lon="6.63683">
        <ele>155</ele>
        <time>2013-10-13T10:40:41Z</time>
      </trkpt>
      <trkpt lat="43.37726" lon="6.63668">
        <ele>155</ele>
        <time>2013-10-13T10:40:44Z</time>
      </trkpt>
      <trkpt lat="43.3772" lon="6.63656">
        <ele>155</ele>
        <time>2013-10-13T10:40:47Z</time>
      </trkpt>
      <trkpt lat="43.37711" lon="6.63643">
        <ele>155</ele>
        <time>2013-10-13T10:40:50Z</time>
      </trkpt>
      <trkpt lat="43.37703" lon="6.63627">
        <ele>155</ele>
        <time>2013-10-13T10:40:53Z</time>
      </trkpt>
      <trkpt lat="43.37706" lon="6.63611">
        <ele>155</ele>
        <time>2013-10-13T10:40:56Z</time>
      </trkpt>
      <trkpt lat="43.37712" lon="6.63597">
        <ele>155</ele>
        <time>2013-10-13T10:40:59Z</time>
      </trkpt>
      <trkpt lat="43.37721" lon="6.63584">
        <ele>156</ele>
        <time>2013-10-13T10:41:02Z</time>
      </trkpt>
      <trkpt lat="43.37724" lon="6.63568">
        <ele>156</ele>
        <time>2013-10-13T10:41:05Z</time>
      </trkpt>
      <trkpt lat="43.37724" lon="6.6355">
        <ele>156</ele>
        <time>2013-10-13T10:41:08Z</time>
      </trkpt>
      <trkpt lat="43.37727" lon="6.63532">
        <ele>157</ele>
        <time>2013-10-13T10:41:11Z</time>
      </trkpt>
      <trkpt lat="43.3773" lon="6.63513">
        <ele>157</ele>
        <time>2013-10-13T10:41:14Z</time>
      </trkpt>
      <trkpt lat="43.37731" lon="6.63494">
        <ele>157</ele>
        <time>2013-10-13T10:41:17Z</time>
      </trkpt>
      <trkpt lat="43.37732" lon="6.63476">
        <ele>157</ele>
        <time>2013-10-13T10:41:20Z</time>
      </trkpt>
      <trkpt lat="43.37735" lon="6.63458">
        <ele>157</ele>
        <time>2013-10-13T10:41:23Z</time>
      </trkpt>
      <trkpt lat="43.37737" lon="6.63442">
        <ele>157</ele>
        <time>2013-10-13T10:41:27Z</time>
      </trkpt>
      <trkpt lat="43.37734" lon="6.63427">
        <ele>158</ele>
        <time>2013-10-13T10:41:32Z</time>
      </trkpt>
      <trkpt lat="43.37729" lon="6.63411">
        <ele>158</ele>
        <time>2013-10-13T10:41:37Z</time>
      </trkpt>
      <trkpt lat="43.37726" lon="6.63395">
        <ele>161</ele>
        <time>2013-10-13T10:41:42Z</time>
      </trkpt>
      <trkpt lat="43.37722" lon="6.63381">
        <ele>163</ele>
        <time>2013-10-13T10:41:46Z</time>
      </trkpt>
      <trkpt lat="43.37717" lon="6.63369">
        <ele>163</ele>
        <time>2013-10-13T10:41:50Z</time>
      </trkpt>
      <trkpt lat="43.37708" lon="6.63361">
        <ele>163</ele>
        <time>2013-10-13T10:41:54Z</time>
      </trkpt>
      <trkpt lat="43.37698" lon="6.63359">
        <ele>163</ele>
        <time>2013-10-13T10:41:59Z</time>
      </trkpt>
      <trkpt lat="43.37689" lon="6.63362">
        <ele>166</ele>
        <time>2013-10-13T10:42:03Z</time>
      </trkpt>
      <trkpt lat="43.37678" lon="6.63363">
        <ele>167</ele>
        <time>2013-10-13T10:42:07Z</time>
      </trkpt>
      <trkpt lat="43.37668" lon="6.63365">
        <ele>168</ele>
        <time>2013-10-13T10:42:11Z</time>
      </trkpt>
      <trkpt lat="43.37658" lon="6.63367">
        <ele>168</ele>
        <time>2013-10-13T10:42:15Z</time>
      </trkpt>
      <trkpt lat="43.37649" lon="6.63373">
        <ele>168.51000976562</ele>
        <time>2013-10-13T10:42:20Z</time>
      </trkpt>
      <trkpt lat="43.37656" lon="6.63387">
        <ele>169</ele>
        <time>2013-10-13T10:42:27Z</time>
      </trkpt>
      <trkpt lat="43.37662" lon="6.63394">
        <ele>171</ele>
        <time>2013-10-13T10:42:32Z</time>
      </trkpt>
      <trkpt lat="43.37669" lon="6.63404">
        <ele>171</ele>
        <time>2013-10-13T10:42:36Z</time>
      </trkpt>
      <trkpt lat="43.37676" lon="6.63415">
        <ele>173</ele>
        <time>2013-10-13T10:42:41Z</time>
      </trkpt>
      <trkpt lat="43.37679" lon="6.63427">
        <ele>173</ele>
        <time>2013-10-13T10:42:45Z</time>
      </trkpt>
      <trkpt lat="43.37679" lon="6.6344">
        <ele>173</ele>
        <time>2013-10-13T10:42:49Z</time>
      </trkpt>
      <trkpt lat="43.37678" lon="6.63452">
        <ele>175</ele>
        <time>2013-10-13T10:42:53Z</time>
      </trkpt>
      <trkpt lat="43.37677" lon="6.63464">
        <ele>175</ele>
        <time>2013-10-13T10:42:57Z</time>
      </trkpt>
      <trkpt lat="43.37677" lon="6.63474">
        <ele>175.95919799805</ele>
        <time>2013-10-13T10:43:00Z</time>
      </trkpt>
      <trkpt lat="43.37675" lon="6.63485">
        <ele>177</ele>
        <time>2013-10-13T10:43:03Z</time>
      </trkpt>
      <trkpt lat="43.37674" lon="6.63496">
        <ele>177</ele>
        <time>2013-10-13T10:43:06Z</time>
      </trkpt>
      <trkpt lat="43.37669" lon="6.63507">
        <ele>177</ele>
        <time>2013-10-13T10:43:09Z</time>
      </trkpt>
      <trkpt lat="43.37664" lon="6.63518">
        <ele>177</ele>
        <time>2013-10-13T10:43:12Z</time>
      </trkpt>
      <trkpt lat="43.37659" lon="6.63529">
        <ele>177</ele>
        <time>2013-10-13T10:43:15Z</time>
      </trkpt>
      <trkpt lat="43.37653" lon="6.6354">
        <ele>177</ele>
        <time>2013-10-13T10:43:18Z</time>
      </trkpt>
      <trkpt lat="43.37646" lon="6.63552">
        <ele>178</ele>
        <time>2013-10-13T10:43:21Z</time>
      </trkpt>
      <trkpt lat="43.37642" lon="6.63562">
        <ele>178</ele>
        <time>2013-10-13T10:43:24Z</time>
      </trkpt>
      <trkpt lat="43.37636" lon="6.63574">
        <ele>178</ele>
        <time>2013-10-13T10:43:28Z</time>
      </trkpt>
      <trkpt lat="43.37629" lon="6.63584">
        <ele>180</ele>
        <time>2013-10-13T10:43:32Z</time>
      </trkpt>
      <trkpt lat="43.37621" lon="6.63591">
        <ele>180</ele>
        <time>2013-10-13T10:43:35Z</time>
      </trkpt>
      <trkpt lat="43.37612" lon="6.63599">
        <ele>180</ele>
        <time>2013-10-13T10:43:39Z</time>
      </trkpt>
      <trkpt lat="43.37607" lon="6.63611">
        <ele>182</ele>
        <time>2013-10-13T10:43:43Z</time>
      </trkpt>
      <trkpt lat="43.37606" lon="6.63625">
        <ele>182</ele>
        <time>2013-10-13T10:43:48Z</time>
      </trkpt>
      <trkpt lat="43.37603" lon="6.63638">
        <ele>183</ele>
        <time>2013-10-13T10:43:54Z</time>
      </trkpt>
      <trkpt lat="43.37605" lon="6.63654">
        <ele>188</ele>
        <time>2013-10-13T10:44:01Z</time>
      </trkpt>
      <trkpt lat="43.37611" lon="6.63668">
        <ele>188</ele>
        <time>2013-10-13T10:44:06Z</time>
      </trkpt>
      <trkpt lat="43.37617" lon="6.63681">
        <ele>188</ele>
        <time>2013-10-13T10:44:11Z</time>
      </trkpt>
      <trkpt lat="43.37625" lon="6.63691">
        <ele>188</ele>
        <time>2013-10-13T10:44:15Z</time>
      </trkpt>
      <trkpt lat="43.37627" lon="6.63705">
        <ele>190</ele>
        <time>2013-10-13T10:44:22Z</time>
      </trkpt>
      <trkpt lat="43.3763" lon="6.6372">
        <ele>190</ele>
        <time>2013-10-13T10:44:29Z</time>
      </trkpt>
      <trkpt lat="43.37629" lon="6.63733">
        <ele>192</ele>
        <time>2013-10-13T10:44:34Z</time>
      </trkpt>
      <trkpt lat="43.37626" lon="6.63746">
        <ele>192</ele>
        <time>2013-10-13T10:44:39Z</time>
      </trkpt>
      <trkpt lat="43.37625" lon="6.6376">
        <ele>194</ele>
        <time>2013-10-13T10:44:44Z</time>
      </trkpt>
      <trkpt lat="43.37629" lon="6.63774">
        <ele>195.82998657227</ele>
        <time>2013-10-13T10:44:50Z</time>
      </trkpt>
      <trkpt lat="43.37635" lon="6.63786">
        <ele>198.22001647949</ele>
        <time>2013-10-13T10:44:55Z</time>
      </trkpt>
      <trkpt lat="43.37642" lon="6.63799">
        <ele>199</ele>
        <time>2013-10-13T10:45:01Z</time>
      </trkpt>
      <trkpt lat="43.37649" lon="6.6381">
        <ele>199</ele>
        <time>2013-10-13T10:45:06Z</time>
      </trkpt>
      <trkpt lat="43.37656" lon="6.63823">
        <ele>199</ele>
        <time>2013-10-13T10:45:13Z</time>
      </trkpt>
      <trkpt lat="43.37663" lon="6.63834">
        <ele>199</ele>
        <time>2013-10-13T10:45:19Z</time>
      </trkpt>
      <trkpt lat="43.37668" lon="6.63848">
        <ele>202.71000671387</ele>
        <time>2013-10-13T10:45:25Z</time>
      </trkpt>
      <trkpt lat="43.37672" lon="6.63861">
        <ele>204</ele>
        <time>2013-10-13T10:45:31Z</time>
      </trkpt>
      <trkpt lat="43.37674" lon="6.63874">
        <ele>204</ele>
        <time>2013-10-13T10:45:38Z</time>
      </trkpt>
      <trkpt lat="43.37675" lon="6.63889">
        <ele>205</ele>
        <time>2013-10-13T10:45:45Z</time>
      </trkpt>
      <trkpt lat="43.37678" lon="6.63902">
        <ele>207</ele>
        <time>2013-10-13T10:45:53Z</time>
      </trkpt>
      <trkpt lat="43.37682" lon="6.63914">
        <ele>209.43998718262</ele>
        <time>2013-10-13T10:46:00Z</time>
      </trkpt>
      <trkpt lat="43.37685" lon="6.63928">
        <ele>211</ele>
        <time>2013-10-13T10:46:06Z</time>
      </trkpt>
      <trkpt lat="43.37692" lon="6.63941">
        <ele>211</ele>
        <time>2013-10-13T10:46:11Z</time>
      </trkpt>
      <trkpt lat="43.37693" lon="6.63953">
        <ele>211</ele>
        <time>2013-10-13T10:46:13Z</time>
      </trkpt>
      <trkpt lat="43.3769" lon="6.63972">
        <ele>211</ele>
        <time>2013-10-13T10:46:16Z</time>
      </trkpt>
      <trkpt lat="43.3768" lon="6.63986">
        <ele>211</ele>
        <time>2013-10-13T10:46:18Z</time>
      </trkpt>
      <trkpt lat="43.37668" lon="6.63991">
        <ele>208.95999145508</ele>
        <time>2013-10-13T10:46:20Z</time>
      </trkpt>
      <trkpt lat="43.37656" lon="6.6399">
        <ele>207</ele>
        <time>2013-10-13T10:46:22Z</time>
      </trkpt>
      <trkpt lat="43.37645" lon="6.63995">
        <ele>207</ele>
        <time>2013-10-13T10:46:24Z</time>
      </trkpt>
      <trkpt lat="43.37635" lon="6.64003">
        <ele>205</ele>
        <time>2013-10-13T10:46:26Z</time>
      </trkpt>
      <trkpt lat="43.37624" lon="6.64012">
        <ele>205</ele>
        <time>2013-10-13T10:46:28Z</time>
      </trkpt>
      <trkpt lat="43.3761" lon="6.6402">
        <ele>204.48999023438</ele>
        <time>2013-10-13T10:46:30Z</time>
      </trkpt>
      <trkpt lat="43.37598" lon="6.64026">
        <ele>204</ele>
        <time>2013-10-13T10:46:32Z</time>
      </trkpt>
      <trkpt lat="43.37605" lon="6.6404">
        <ele>201</ele>
        <time>2013-10-13T10:46:37Z</time>
      </trkpt>
      <trkpt lat="43.3762" lon="6.64042">
        <ele>201</ele>
        <time>2013-10-13T10:46:39Z</time>
      </trkpt>
      <trkpt lat="43.37636" lon="6.64041">
        <ele>196.12243652344</ele>
        <time>2013-10-13T10:46:41Z</time>
      </trkpt>
      <trkpt lat="43.37653" lon="6.64042">
        <ele>193</ele>
        <time>2013-10-13T10:46:43Z</time>
      </trkpt>
      <trkpt lat="43.37667" lon="6.64048">
        <ele>191.28999328613</ele>
        <time>2013-10-13T10:46:45Z</time>
      </trkpt>
      <trkpt lat="43.37677" lon="6.64055">
        <ele>188.48999023438</ele>
        <time>2013-10-13T10:46:47Z</time>
      </trkpt>
      <trkpt lat="43.37671" lon="6.64067">
        <ele>187</ele>
        <time>2013-10-13T10:46:50Z</time>
      </trkpt>
      <trkpt lat="43.37658" lon="6.64077">
        <ele>185.48999023438</ele>
        <time>2013-10-13T10:46:52Z</time>
      </trkpt>
      <trkpt lat="43.37645" lon="6.6409">
        <ele>184</ele>
        <time>2013-10-13T10:46:54Z</time>
      </trkpt>
      <trkpt lat="43.37634" lon="6.64099">
        <ele>181.5714263916</ele>
        <time>2013-10-13T10:46:56Z</time>
      </trkpt>
      <trkpt lat="43.37625" lon="6.64108">
        <ele>180</ele>
        <time>2013-10-13T10:46:59Z</time>
      </trkpt>
      <trkpt lat="43.37637" lon="6.64116">
        <ele>176.38998413086</ele>
        <time>2013-10-13T10:47:03Z</time>
      </trkpt>
      <trkpt lat="43.37652" lon="6.64118">
        <ele>175.38998413086</ele>
        <time>2013-10-13T10:47:05Z</time>
      </trkpt>
      <trkpt lat="43.37668" lon="6.64119">
        <ele>174</ele>
        <time>2013-10-13T10:47:07Z</time>
      </trkpt>
      <trkpt lat="43.37683" lon="6.64112">
        <ele>172.38998413086</ele>
        <time>2013-10-13T10:47:09Z</time>
      </trkpt>
      <trkpt lat="43.37695" lon="6.64104">
        <ele>170.38998413086</ele>
        <time>2013-10-13T10:47:11Z</time>
      </trkpt>
      <trkpt lat="43.37708" lon="6.64101">
        <ele>168.46939086914</ele>
        <time>2013-10-13T10:47:13Z</time>
      </trkpt>
      <trkpt lat="43.3772" lon="6.641">
        <ele>168</ele>
        <time>2013-10-13T10:47:15Z</time>
      </trkpt>
      <trkpt lat="43.37732" lon="6.64099">
        <ele>168</ele>
        <time>2013-10-13T10:47:17Z</time>
      </trkpt>
      <trkpt lat="43.37745" lon="6.64094">
        <ele>168</ele>
        <time>2013-10-13T10:47:19Z</time>
      </trkpt>
      <trkpt lat="43.37759" lon="6.6409">
        <ele>166</ele>
        <time>2013-10-13T10:47:21Z</time>
      </trkpt>
      <trkpt lat="43.3777" lon="6.6409">
        <ele>166</ele>
        <time>2013-10-13T10:47:23Z</time>
      </trkpt>
      <trkpt lat="43.3778" lon="6.64093">
        <ele>164.16996765137</ele>
        <time>2013-10-13T10:47:25Z</time>
      </trkpt>
      <trkpt lat="43.37793" lon="6.64092">
        <ele>163</ele>
        <time>2013-10-13T10:47:27Z</time>
      </trkpt>
      <trkpt lat="43.37806" lon="6.64089">
        <ele>163</ele>
        <time>2013-10-13T10:47:29Z</time>
      </trkpt>
      <trkpt lat="43.3782" lon="6.64087">
        <ele>161</ele>
        <time>2013-10-13T10:47:31Z</time>
      </trkpt>
      <trkpt lat="43.37834" lon="6.64085">
        <ele>161</ele>
        <time>2013-10-13T10:47:33Z</time>
      </trkpt>
      <trkpt lat="43.37848" lon="6.64079">
        <ele>159.16996765137</ele>
        <time>2013-10-13T10:47:35Z</time>
      </trkpt>
      <trkpt lat="43.3786" lon="6.64075">
        <ele>158</ele>
        <time>2013-10-13T10:47:37Z</time>
      </trkpt>
      <trkpt lat="43.37872" lon="6.6408">
        <ele>158</ele>
        <time>2013-10-13T10:47:39Z</time>
      </trkpt>
      <trkpt lat="43.37886" lon="6.64085">
        <ele>156</ele>
        <time>2013-10-13T10:47:42Z</time>
      </trkpt>
      <trkpt lat="43.37896" lon="6.64085">
        <ele>156</ele>
        <time>2013-10-13T10:47:44Z</time>
      </trkpt>
      <trkpt lat="43.37912" lon="6.64088">
        <ele>152</ele>
        <time>2013-10-13T10:47:47Z</time>
      </trkpt>
      <trkpt lat="43.37923" lon="6.64093">
        <ele>152</ele>
        <time>2013-10-13T10:47:49Z</time>
      </trkpt>
      <trkpt lat="43.37934" lon="6.64097">
        <ele>147.77998352051</ele>
        <time>2013-10-13T10:47:51Z</time>
      </trkpt>
      <trkpt lat="43.37947" lon="6.641">
        <ele>144.7799987793</ele>
        <time>2013-10-13T10:47:54Z</time>
      </trkpt>
      <trkpt lat="43.37959" lon="6.64106">
        <ele>142.39999389648</ele>
        <time>2013-10-13T10:47:56Z</time>
      </trkpt>
      <trkpt lat="43.37972" lon="6.64116">
        <ele>141</ele>
        <time>2013-10-13T10:47:58Z</time>
      </trkpt>
      <trkpt lat="43.37985" lon="6.64125">
        <ele>139.41999816894</ele>
        <time>2013-10-13T10:48:00Z</time>
      </trkpt>
      <trkpt lat="43.37997" lon="6.64133">
        <ele>139</ele>
        <time>2013-10-13T10:48:02Z</time>
      </trkpt>
      <trkpt lat="43.38007" lon="6.64141">
        <ele>139</ele>
        <time>2013-10-13T10:48:04Z</time>
      </trkpt>
      <trkpt lat="43.38017" lon="6.6415">
        <ele>138</ele>
        <time>2013-10-13T10:48:06Z</time>
      </trkpt>
      <trkpt lat="43.38026" lon="6.64158">
        <ele>137.5299987793</ele>
        <time>2013-10-13T10:48:08Z</time>
      </trkpt>
      <trkpt lat="43.38037" lon="6.64167">
        <ele>136</ele>
        <time>2013-10-13T10:48:10Z</time>
      </trkpt>
      <trkpt lat="43.38045" lon="6.64175">
        <ele>136</ele>
        <time>2013-10-13T10:48:12Z</time>
      </trkpt>
      <trkpt lat="43.38054" lon="6.64187">
        <ele>134.97999572754</ele>
        <time>2013-10-13T10:48:15Z</time>
      </trkpt>
      <trkpt lat="43.38059" lon="6.64202">
        <ele>134</ele>
        <time>2013-10-13T10:48:18Z</time>
      </trkpt>
      <trkpt lat="43.38061" lon="6.64218">
        <ele>131</ele>
        <time>2013-10-13T10:48:21Z</time>
      </trkpt>
      <trkpt lat="43.38063" lon="6.64232">
        <ele>128.95999145508</ele>
        <time>2013-10-13T10:48:25Z</time>
      </trkpt>
      <trkpt lat="43.38062" lon="6.64245">
        <ele>127</ele>
        <time>2013-10-13T10:48:29Z</time>
      </trkpt>
      <trkpt lat="43.38064" lon="6.64261">
        <ele>122.97999572754</ele>
        <time>2013-10-13T10:48:34Z</time>
      </trkpt>
      <trkpt lat="43.38068" lon="6.64271">
        <ele>121.5</ele>
        <time>2013-10-13T10:48:37Z</time>
      </trkpt>
      <trkpt lat="43.38075" lon="6.64276">
        <ele>122</ele>
        <time>2013-10-13T10:48:41Z</time>
      </trkpt>
      <trkpt lat="43.38083" lon="6.64279">
        <ele>122</ele>
        <time>2013-10-13T10:48:44Z</time>
      </trkpt>
      <trkpt lat="43.38093" lon="6.64279">
        <ele>120</ele>
        <time>2013-10-13T10:48:47Z</time>
      </trkpt>
      <trkpt lat="43.38102" lon="6.64274">
        <ele>119.28999328613</ele>
        <time>2013-10-13T10:48:50Z</time>
      </trkpt>
      <trkpt lat="43.38112" lon="6.64269">
        <ele>119</ele>
        <time>2013-10-13T10:48:53Z</time>
      </trkpt>
      <trkpt lat="43.38123" lon="6.64265">
        <ele>116</ele>
        <time>2013-10-13T10:48:56Z</time>
      </trkpt>
      <trkpt lat="43.38134" lon="6.64266">
        <ele>116</ele>
        <time>2013-10-13T10:48:59Z</time>
      </trkpt>
      <trkpt lat="43.38149" lon="6.64261">
        <ele>113</ele>
        <time>2013-10-13T10:49:02Z</time>
      </trkpt>
      <trkpt lat="43.38159" lon="6.64254">
        <ele>112</ele>
        <time>2013-10-13T10:49:04Z</time>
      </trkpt>
      <trkpt lat="43.38171" lon="6.64246">
        <ele>107</ele>
        <time>2013-10-13T10:49:07Z</time>
      </trkpt>
      <trkpt lat="43.38181" lon="6.64241">
        <ele>105.48999786377</ele>
        <time>2013-10-13T10:49:10Z</time>
      </trkpt>
      <trkpt lat="43.3819" lon="6.64229">
        <ele>104</ele>
        <time>2013-10-13T10:49:13Z</time>
      </trkpt>
      <trkpt lat="43.382" lon="6.64222">
        <ele>102.48999786377</ele>
        <time>2013-10-13T10:49:15Z</time>
      </trkpt>
      <trkpt lat="43.3821" lon="6.64227">
        <ele>101</ele>
        <time>2013-10-13T10:49:17Z</time>
      </trkpt>
      <trkpt lat="43.38219" lon="6.64239">
        <ele>99.48999786377</ele>
        <time>2013-10-13T10:49:19Z</time>
      </trkpt>
      <trkpt lat="43.3822" lon="6.64256">
        <ele>98</ele>
        <time>2013-10-13T10:49:22Z</time>
      </trkpt>
      <trkpt lat="43.38219" lon="6.6427">
        <ele>96.48999786377</ele>
        <time>2013-10-13T10:49:24Z</time>
      </trkpt>
      <trkpt lat="43.38222" lon="6.64288">
        <ele>96</ele>
        <time>2013-10-13T10:49:27Z</time>
      </trkpt>
      <trkpt lat="43.38218" lon="6.64304">
        <ele>96</ele>
        <time>2013-10-13T10:49:30Z</time>
      </trkpt>
      <trkpt lat="43.38209" lon="6.64319">
        <ele>96</ele>
        <time>2013-10-13T10:49:33Z</time>
      </trkpt>
      <trkpt lat="43.38199" lon="6.64328">
        <ele>96</ele>
        <time>2013-10-13T10:49:35Z</time>
      </trkpt>
      <trkpt lat="43.38188" lon="6.64336">
        <ele>96</ele>
        <time>2013-10-13T10:49:37Z</time>
      </trkpt>
      <trkpt lat="43.38177" lon="6.64344">
        <ele>96</ele>
        <time>2013-10-13T10:49:39Z</time>
      </trkpt>
      <trkpt lat="43.38168" lon="6.64352">
        <ele>92</ele>
        <time>2013-10-13T10:49:41Z</time>
      </trkpt>
      <trkpt lat="43.38159" lon="6.64362">
        <ele>92</ele>
        <time>2013-10-13T10:49:43Z</time>
      </trkpt>
      <trkpt lat="43.3815" lon="6.64374">
        <ele>90.205863952637</ele>
        <time>2013-10-13T10:49:45Z</time>
      </trkpt>
      <trkpt lat="43.38143" lon="6.6439">
        <ele>89</ele>
        <time>2013-10-13T10:49:47Z</time>
      </trkpt>
      <trkpt lat="43.38136" lon="6.64406">
        <ele>89</ele>
        <time>2013-10-13T10:49:49Z</time>
      </trkpt>
      <trkpt lat="43.38132" lon="6.64414">
        <ele>88.48999786377</ele>
        <time>2013-10-13T10:49:50Z</time>
      </trkpt>
      <trkpt lat="43.38128" lon="6.64422">
        <ele>88</ele>
        <time>2013-10-13T10:49:51Z</time>
      </trkpt>
      <trkpt lat="43.38123" lon="6.64429">
        <ele>88</ele>
        <time>2013-10-13T10:49:52Z</time>
      </trkpt>
      <trkpt lat="43.38117" lon="6.64434">
        <ele>88</ele>
        <time>2013-10-13T10:49:53Z</time>
      </trkpt>
      <trkpt lat="43.38104" lon="6.64437">
        <ele>86.469993591309</ele>
        <time>2013-10-13T10:49:55Z</time>
      </trkpt>
      <trkpt lat="43.38092" lon="6.6443">
        <ele>85</ele>
        <time>2013-10-13T10:49:57Z</time>
      </trkpt>
      <trkpt lat="43.38079" lon="6.64422">
        <ele>85</ele>
        <time>2013-10-13T10:49:59Z</time>
      </trkpt>
      <trkpt lat="43.38064" lon="6.64419">
        <ele>82.51000213623</ele>
        <time>2013-10-13T10:50:01Z</time>
      </trkpt>
      <trkpt lat="43.3805" lon="6.64426">
        <ele>81.571434020996</ele>
        <time>2013-10-13T10:50:03Z</time>
      </trkpt>
      <trkpt lat="43.38037" lon="6.64438">
        <ele>81</ele>
        <time>2013-10-13T10:50:05Z</time>
      </trkpt>
      <trkpt lat="43.38024" lon="6.64449">
        <ele>80.48999786377</ele>
        <time>2013-10-13T10:50:07Z</time>
      </trkpt>
      <trkpt lat="43.38011" lon="6.64453">
        <ele>80</ele>
        <time>2013-10-13T10:50:09Z</time>
      </trkpt>
      <trkpt lat="43.37998" lon="6.6445">
        <ele>81</ele>
        <time>2013-10-13T10:50:11Z</time>
      </trkpt>
      <trkpt lat="43.37984" lon="6.64448">
        <ele>81</ele>
        <time>2013-10-13T10:50:13Z</time>
      </trkpt>
      <trkpt lat="43.37971" lon="6.64445">
        <ele>81</ele>
        <time>2013-10-13T10:50:15Z</time>
      </trkpt>
      <trkpt lat="43.37957" lon="6.64443">
        <ele>81</ele>
        <time>2013-10-13T10:50:17Z</time>
      </trkpt>
      <trkpt lat="43.37944" lon="6.64442">
        <ele>81</ele>
        <time>2013-10-13T10:50:19Z</time>
      </trkpt>
      <trkpt lat="43.37931" lon="6.64443">
        <ele>81</ele>
        <time>2013-10-13T10:50:21Z</time>
      </trkpt>
      <trkpt lat="43.37918" lon="6.64444">
        <ele>81</ele>
        <time>2013-10-13T10:50:23Z</time>
      </trkpt>
      <trkpt lat="43.37912" lon="6.64446">
        <ele>81</ele>
        <time>2013-10-13T10:50:24Z</time>
      </trkpt>
      <trkpt lat="43.37906" lon="6.64446">
        <ele>81</ele>
        <time>2013-10-13T10:50:25Z</time>
      </trkpt>
      <trkpt lat="43.37894" lon="6.64448">
        <ele>81</ele>
        <time>2013-10-13T10:50:27Z</time>
      </trkpt>
      <trkpt lat="43.37884" lon="6.64451">
        <ele>81</ele>
        <time>2013-10-13T10:50:29Z</time>
      </trkpt>
      <trkpt lat="43.37873" lon="6.64453">
        <ele>81</ele>
        <time>2013-10-13T10:50:31Z</time>
      </trkpt>
      <trkpt lat="43.37863" lon="6.64456">
        <ele>81</ele>
        <time>2013-10-13T10:50:33Z</time>
      </trkpt>
      <trkpt lat="43.37855" lon="6.64463">
        <ele>81</ele>
        <time>2013-10-13T10:50:35Z</time>
      </trkpt>
      <trkpt lat="43.37846" lon="6.64469">
        <ele>81</ele>
        <time>2013-10-13T10:50:37Z</time>
      </trkpt>
      <trkpt lat="43.37838" lon="6.64476">
        <ele>81</ele>
        <time>2013-10-13T10:50:39Z</time>
      </trkpt>
      <trkpt lat="43.37825" lon="6.64486">
        <ele>82</ele>
        <time>2013-10-13T10:50:42Z</time>
      </trkpt>
      <trkpt lat="43.37814" lon="6.64494">
        <ele>82</ele>
        <time>2013-10-13T10:50:45Z</time>
      </trkpt>
      <trkpt lat="43.37803" lon="6.64503">
        <ele>82</ele>
        <time>2013-10-13T10:50:48Z</time>
      </trkpt>
      <trkpt lat="43.37792" lon="6.64509">
        <ele>84</ele>
        <time>2013-10-13T10:50:51Z</time>
      </trkpt>
      <trkpt lat="43.37781" lon="6.64514">
        <ele>84</ele>
        <time>2013-10-13T10:50:54Z</time>
      </trkpt>
      <trkpt lat="43.37769" lon="6.64519">
        <ele>84</ele>
        <time>2013-10-13T10:50:57Z</time>
      </trkpt>
      <trkpt lat="43.37761" lon="6.6453">
        <ele>84</ele>
        <time>2013-10-13T10:51:00Z</time>
      </trkpt>
      <trkpt lat="43.37755" lon="6.64543">
        <ele>84</ele>
        <time>2013-10-13T10:51:04Z</time>
      </trkpt>
      <trkpt lat="43.3775" lon="6.64558">
        <ele>84</ele>
        <time>2013-10-13T10:51:09Z</time>
      </trkpt>
      <trkpt lat="43.37745" lon="6.6457">
        <ele>86</ele>
        <time>2013-10-13T10:51:14Z</time>
      </trkpt>
      <trkpt lat="43.37738" lon="6.6458">
        <ele>86</ele>
        <time>2013-10-13T10:51:18Z</time>
      </trkpt>
      <trkpt lat="43.37727" lon="6.64587">
        <ele>88</ele>
        <time>2013-10-13T10:51:22Z</time>
      </trkpt>
      <trkpt lat="43.37717" lon="6.64589">
        <ele>88</ele>
        <time>2013-10-13T10:51:25Z</time>
      </trkpt>
      <trkpt lat="43.37704" lon="6.64593">
        <ele>88</ele>
        <time>2013-10-13T10:51:29Z</time>
      </trkpt>
      <trkpt lat="43.37692" lon="6.64595">
        <ele>89</ele>
        <time>2013-10-13T10:51:33Z</time>
      </trkpt>
      <trkpt lat="43.3768" lon="6.64594">
        <ele>89</ele>
        <time>2013-10-13T10:51:37Z</time>
      </trkpt>
      <trkpt lat="43.3767" lon="6.64592">
        <ele>91</ele>
        <time>2013-10-13T10:51:41Z</time>
      </trkpt>
      <trkpt lat="43.37663" lon="6.64588">
        <ele>91</ele>
        <time>2013-10-13T10:51:44Z</time>
      </trkpt>
      <trkpt lat="43.37654" lon="6.64582">
        <ele>91</ele>
        <time>2013-10-13T10:51:48Z</time>
      </trkpt>
      <trkpt lat="43.37644" lon="6.64577">
        <ele>92</ele>
        <time>2013-10-13T10:51:51Z</time>
      </trkpt>
      <trkpt lat="43.37632" lon="6.64576">
        <ele>92</ele>
        <time>2013-10-13T10:51:54Z</time>
      </trkpt>
      <trkpt lat="43.3762" lon="6.64576">
        <ele>92</ele>
        <time>2013-10-13T10:51:57Z</time>
      </trkpt>
      <trkpt lat="43.37611" lon="6.64578">
        <ele>92</ele>
        <time>2013-10-13T10:51:59Z</time>
      </trkpt>
      <trkpt lat="43.37603" lon="6.64581">
        <ele>92</ele>
        <time>2013-10-13T10:52:01Z</time>
      </trkpt>
      <trkpt lat="43.37594" lon="6.64584">
        <ele>92</ele>
        <time>2013-10-13T10:52:03Z</time>
      </trkpt>
      <trkpt lat="43.37585" lon="6.64587">
        <ele>92</ele>
        <time>2013-10-13T10:52:05Z</time>
      </trkpt>
      <trkpt lat="43.37577" lon="6.64591">
        <ele>92</ele>
        <time>2013-10-13T10:52:07Z</time>
      </trkpt>
      <trkpt lat="43.37564" lon="6.646">
        <ele>92</ele>
        <time>2013-10-13T10:52:10Z</time>
      </trkpt>
      <trkpt lat="43.37553" lon="6.64609">
        <ele>92</ele>
        <time>2013-10-13T10:52:13Z</time>
      </trkpt>
      <trkpt lat="43.37542" lon="6.64618">
        <ele>92</ele>
        <time>2013-10-13T10:52:16Z</time>
      </trkpt>
      <trkpt lat="43.37531" lon="6.64627">
        <ele>92</ele>
        <time>2013-10-13T10:52:19Z</time>
      </trkpt>
      <trkpt lat="43.37521" lon="6.64636">
        <ele>91</ele>
        <time>2013-10-13T10:52:22Z</time>
      </trkpt>
      <trkpt lat="43.37511" lon="6.64645">
        <ele>91</ele>
        <time>2013-10-13T10:52:25Z</time>
      </trkpt>
      <trkpt lat="43.375" lon="6.64654">
        <ele>91</ele>
        <time>2013-10-13T10:52:28Z</time>
      </trkpt>
      <trkpt lat="43.3749" lon="6.64662">
        <ele>92</ele>
        <time>2013-10-13T10:52:31Z</time>
      </trkpt>
      <trkpt lat="43.37482" lon="6.64669">
        <ele>92</ele>
        <time>2013-10-13T10:52:34Z</time>
      </trkpt>
      <trkpt lat="43.37473" lon="6.64675">
        <ele>92</ele>
        <time>2013-10-13T10:52:37Z</time>
      </trkpt>
      <trkpt lat="43.37463" lon="6.64682">
        <ele>92.610000610352</ele>
        <time>2013-10-13T10:52:40Z</time>
      </trkpt>
      <trkpt lat="43.37455" lon="6.6469">
        <ele>93</ele>
        <time>2013-10-13T10:52:43Z</time>
      </trkpt>
      <trkpt lat="43.37446" lon="6.64698">
        <ele>93</ele>
        <time>2013-10-13T10:52:46Z</time>
      </trkpt>
      <trkpt lat="43.37437" lon="6.64705">
        <ele>93</ele>
        <time>2013-10-13T10:52:49Z</time>
      </trkpt>
      <trkpt lat="43.37427" lon="6.64713">
        <ele>94</ele>
        <time>2013-10-13T10:52:52Z</time>
      </trkpt>
      <trkpt lat="43.3742" lon="6.64718">
        <ele>94</ele>
        <time>2013-10-13T10:52:54Z</time>
      </trkpt>
      <trkpt lat="43.3741" lon="6.64726">
        <ele>94</ele>
        <time>2013-10-13T10:52:57Z</time>
      </trkpt>
      <trkpt lat="43.37403" lon="6.64735">
        <ele>95.42000579834</ele>
        <time>2013-10-13T10:53:00Z</time>
      </trkpt>
      <trkpt lat="43.37396" lon="6.64744">
        <ele>96</ele>
        <time>2013-10-13T10:53:03Z</time>
      </trkpt>
      <trkpt lat="43.37386" lon="6.64754">
        <ele>96</ele>
        <time>2013-10-13T10:53:06Z</time>
      </trkpt>
      <trkpt lat="43.37374" lon="6.64763">
        <ele>96</ele>
        <time>2013-10-13T10:53:09Z</time>
      </trkpt>
      <trkpt lat="43.3736" lon="6.64766">
        <ele>96</ele>
        <time>2013-10-13T10:53:12Z</time>
      </trkpt>
      <trkpt lat="43.37349" lon="6.64766">
        <ele>96</ele>
        <time>2013-10-13T10:53:14Z</time>
      </trkpt>
      <trkpt lat="43.37335" lon="6.64766">
        <ele>96</ele>
        <time>2013-10-13T10:53:17Z</time>
      </trkpt>
      <trkpt lat="43.37322" lon="6.64767">
        <ele>96.51000213623</ele>
        <time>2013-10-13T10:53:20Z</time>
      </trkpt>
      <trkpt lat="43.37308" lon="6.64768">
        <ele>97</ele>
        <time>2013-10-13T10:53:23Z</time>
      </trkpt>
      <trkpt lat="43.37297" lon="6.64769">
        <ele>97</ele>
        <time>2013-10-13T10:53:25Z</time>
      </trkpt>
      <trkpt lat="43.37286" lon="6.64768">
        <ele>97</ele>
        <time>2013-10-13T10:53:27Z</time>
      </trkpt>
      <trkpt lat="43.37275" lon="6.6476">
        <ele>97</ele>
        <time>2013-10-13T10:53:30Z</time>
      </trkpt>
      <trkpt lat="43.37265" lon="6.64748">
        <ele>97</ele>
        <time>2013-10-13T10:53:33Z</time>
      </trkpt>
      <trkpt lat="43.37256" lon="6.64735">
        <ele>97</ele>
        <time>2013-10-13T10:53:36Z</time>
      </trkpt>
      <trkpt lat="43.37249" lon="6.64722">
        <ele>97</ele>
        <time>2013-10-13T10:53:39Z</time>
      </trkpt>
      <trkpt lat="43.37241" lon="6.64708">
        <ele>98</ele>
        <time>2013-10-13T10:53:42Z</time>
      </trkpt>
      <trkpt lat="43.37231" lon="6.64696">
        <ele>98</ele>
        <time>2013-10-13T10:53:45Z</time>
      </trkpt>
      <trkpt lat="43.37219" lon="6.64692">
        <ele>98</ele>
        <time>2013-10-13T10:53:48Z</time>
      </trkpt>
      <trkpt lat="43.37207" lon="6.64694">
        <ele>98</ele>
        <time>2013-10-13T10:53:51Z</time>
      </trkpt>
      <trkpt lat="43.37195" lon="6.64698">
        <ele>98</ele>
        <time>2013-10-13T10:53:54Z</time>
      </trkpt>
      <trkpt lat="43.37183" lon="6.64702">
        <ele>98</ele>
        <time>2013-10-13T10:53:57Z</time>
      </trkpt>
      <trkpt lat="43.37175" lon="6.64706">
        <ele>98</ele>
        <time>2013-10-13T10:53:59Z</time>
      </trkpt>
      <trkpt lat="43.37165" lon="6.64712">
        <ele>101</ele>
        <time>2013-10-13T10:54:02Z</time>
      </trkpt>
      <trkpt lat="43.37154" lon="6.64718">
        <ele>101</ele>
        <time>2013-10-13T10:54:05Z</time>
      </trkpt>
      <trkpt lat="43.37143" lon="6.64723">
        <ele>101</ele>
        <time>2013-10-13T10:54:08Z</time>
      </trkpt>
      <trkpt lat="43.37132" lon="6.64727">
        <ele>101</ele>
        <time>2013-10-13T10:54:11Z</time>
      </trkpt>
      <trkpt lat="43.37121" lon="6.64732">
        <ele>101</ele>
        <time>2013-10-13T10:54:14Z</time>
      </trkpt>
      <trkpt lat="43.3711" lon="6.64737">
        <ele>101</ele>
        <time>2013-10-13T10:54:17Z</time>
      </trkpt>
      <trkpt lat="43.37099" lon="6.64743">
        <ele>101</ele>
        <time>2013-10-13T10:54:20Z</time>
      </trkpt>
      <trkpt lat="43.37092" lon="6.64747">
        <ele>101</ele>
        <time>2013-10-13T10:54:22Z</time>
      </trkpt>
      <trkpt lat="43.37085" lon="6.64752">
        <ele>101</ele>
        <time>2013-10-13T10:54:24Z</time>
      </trkpt>
      <trkpt lat="43.37079" lon="6.64756">
        <ele>101</ele>
        <time>2013-10-13T10:54:26Z</time>
      </trkpt>
      <trkpt lat="43.37069" lon="6.64761">
        <ele>101</ele>
        <time>2013-10-13T10:54:29Z</time>
      </trkpt>
      <trkpt lat="43.37061" lon="6.64764">
        <ele>102</ele>
        <time>2013-10-13T10:54:31Z</time>
      </trkpt>
      <trkpt lat="43.37054" lon="6.64767">
        <ele>102</ele>
        <time>2013-10-13T10:54:33Z</time>
      </trkpt>
      <trkpt lat="43.37047" lon="6.64769">
        <ele>102</ele>
        <time>2013-10-13T10:54:35Z</time>
      </trkpt>
      <trkpt lat="43.37036" lon="6.64769">
        <ele>102</ele>
        <time>2013-10-13T10:54:38Z</time>
      </trkpt>
      <trkpt lat="43.37025" lon="6.64769">
        <ele>103</ele>
        <time>2013-10-13T10:54:41Z</time>
      </trkpt>
      <trkpt lat="43.37014" lon="6.64767">
        <ele>103</ele>
        <time>2013-10-13T10:54:44Z</time>
      </trkpt>
      <trkpt lat="43.37006" lon="6.64765">
        <ele>103</ele>
        <time>2013-10-13T10:54:46Z</time>
      </trkpt>
      <trkpt lat="43.36999" lon="6.64763">
        <ele>103</ele>
        <time>2013-10-13T10:54:48Z</time>
      </trkpt>
      <trkpt lat="43.36991" lon="6.6476">
        <ele>103.51000213623</ele>
        <time>2013-10-13T10:54:50Z</time>
      </trkpt>
      <trkpt lat="43.36983" lon="6.64757">
        <ele>104</ele>
        <time>2013-10-13T10:54:52Z</time>
      </trkpt>
      <trkpt lat="43.36976" lon="6.64755">
        <ele>104</ele>
        <time>2013-10-13T10:54:54Z</time>
      </trkpt>
      <trkpt lat="43.36968" lon="6.64753">
        <ele>104</ele>
        <time>2013-10-13T10:54:56Z</time>
      </trkpt>
      <trkpt lat="43.36961" lon="6.64753">
        <ele>104</ele>
        <time>2013-10-13T10:54:58Z</time>
      </trkpt>
      <trkpt lat="43.36953" lon="6.64753">
        <ele>104.54000854492</ele>
        <time>2013-10-13T10:55:00Z</time>
      </trkpt>
      <trkpt lat="43.36945" lon="6.64754">
        <ele>106</ele>
        <time>2013-10-13T10:55:02Z</time>
      </trkpt>
      <trkpt lat="43.36938" lon="6.64755">
        <ele>106</ele>
        <time>2013-10-13T10:55:04Z</time>
      </trkpt>
      <trkpt lat="43.36931" lon="6.64757">
        <ele>106</ele>
        <time>2013-10-13T10:55:06Z</time>
      </trkpt>
      <trkpt lat="43.36923" lon="6.6476">
        <ele>106</ele>
        <time>2013-10-13T10:55:08Z</time>
      </trkpt>
      <trkpt lat="43.36916" lon="6.64763">
        <ele>106</ele>
        <time>2013-10-13T10:55:10Z</time>
      </trkpt>
      <trkpt lat="43.36908" lon="6.64767">
        <ele>106</ele>
        <time>2013-10-13T10:55:12Z</time>
      </trkpt>
      <trkpt lat="43.36901" lon="6.64772">
        <ele>106</ele>
        <time>2013-10-13T10:55:14Z</time>
      </trkpt>
      <trkpt lat="43.36892" lon="6.64779">
        <ele>106</ele>
        <time>2013-10-13T10:55:17Z</time>
      </trkpt>
      <trkpt lat="43.36884" lon="6.64787">
        <ele>107.02000427246</ele>
        <time>2013-10-13T10:55:20Z</time>
      </trkpt>
      <trkpt lat="43.36877" lon="6.64799">
        <ele>108</ele>
        <time>2013-10-13T10:55:23Z</time>
      </trkpt>
      <trkpt lat="43.36871" lon="6.64812">
        <ele>108</ele>
        <time>2013-10-13T10:55:26Z</time>
      </trkpt>
      <trkpt lat="43.36869" lon="6.64826">
        <ele>108</ele>
        <time>2013-10-13T10:55:29Z</time>
      </trkpt>
      <trkpt lat="43.36868" lon="6.64841">
        <ele>113</ele>
        <time>2013-10-13T10:55:33Z</time>
      </trkpt>
      <trkpt lat="43.36862" lon="6.64853">
        <ele>114</ele>
        <time>2013-10-13T10:55:37Z</time>
      </trkpt>
      <trkpt lat="43.36851" lon="6.64859">
        <ele>115</ele>
        <time>2013-10-13T10:55:41Z</time>
      </trkpt>
      <trkpt lat="43.36838" lon="6.64864">
        <ele>115</ele>
        <time>2013-10-13T10:55:45Z</time>
      </trkpt>
      <trkpt lat="43.36826" lon="6.64868">
        <ele>115</ele>
        <time>2013-10-13T10:55:48Z</time>
      </trkpt>
      <trkpt lat="43.36815" lon="6.64871">
        <ele>115</ele>
        <time>2013-10-13T10:55:51Z</time>
      </trkpt>
      <trkpt lat="43.36803" lon="6.64874">
        <ele>115</ele>
        <time>2013-10-13T10:55:54Z</time>
      </trkpt>
      <trkpt lat="43.36793" lon="6.64876">
        <ele>115</ele>
        <time>2013-10-13T10:55:57Z</time>
      </trkpt>
      <trkpt lat="43.36781" lon="6.64878">
        <ele>115.53061676025</ele>
        <time>2013-10-13T10:56:00Z</time>
      </trkpt>
      <trkpt lat="43.36771" lon="6.64879">
        <ele>116</ele>
        <time>2013-10-13T10:56:03Z</time>
      </trkpt>
      <trkpt lat="43.3676" lon="6.64879">
        <ele>116</ele>
        <time>2013-10-13T10:56:06Z</time>
      </trkpt>
      <trkpt lat="43.36749" lon="6.64879">
        <ele>116</ele>
        <time>2013-10-13T10:56:09Z</time>
      </trkpt>
      <trkpt lat="43.36738" lon="6.64881">
        <ele>117</ele>
        <time>2013-10-13T10:56:12Z</time>
      </trkpt>
      <trkpt lat="43.36726" lon="6.64884">
        <ele>117</ele>
        <time>2013-10-13T10:56:15Z</time>
      </trkpt>
      <trkpt lat="43.36715" lon="6.64888">
        <ele>117</ele>
        <time>2013-10-13T10:56:18Z</time>
      </trkpt>
      <trkpt lat="43.36703" lon="6.64892">
        <ele>118</ele>
        <time>2013-10-13T10:56:22Z</time>
      </trkpt>
      <trkpt lat="43.3669" lon="6.64897">
        <ele>118</ele>
        <time>2013-10-13T10:56:26Z</time>
      </trkpt>
      <trkpt lat="43.3668" lon="6.64901">
        <ele>118</ele>
        <time>2013-10-13T10:56:29Z</time>
      </trkpt>
      <trkpt lat="43.3667" lon="6.64906">
        <ele>120</ele>
        <time>2013-10-13T10:56:32Z</time>
      </trkpt>
      <trkpt lat="43.36661" lon="6.6491">
        <ele>120</ele>
        <time>2013-10-13T10:56:35Z</time>
      </trkpt>
      <trkpt lat="43.36649" lon="6.64917">
        <ele>120</ele>
        <time>2013-10-13T10:56:39Z</time>
      </trkpt>
      <trkpt lat="43.36639" lon="6.64923">
        <ele>121</ele>
        <time>2013-10-13T10:56:42Z</time>
      </trkpt>
      <trkpt lat="43.36628" lon="6.64929">
        <ele>121</ele>
        <time>2013-10-13T10:56:45Z</time>
      </trkpt>
      <trkpt lat="43.36618" lon="6.64935">
        <ele>121</ele>
        <time>2013-10-13T10:56:48Z</time>
      </trkpt>
      <trkpt lat="43.36609" lon="6.64943">
        <ele>122</ele>
        <time>2013-10-13T10:56:51Z</time>
      </trkpt>
      <trkpt lat="43.36599" lon="6.64948">
        <ele>122</ele>
        <time>2013-10-13T10:56:54Z</time>
      </trkpt>
      <trkpt lat="43.36589" lon="6.64955">
        <ele>122</ele>
        <time>2013-10-13T10:56:57Z</time>
      </trkpt>
      <trkpt lat="43.36581" lon="6.64963">
        <ele>122.71000671387</ele>
        <time>2013-10-13T10:57:00Z</time>
      </trkpt>
      <trkpt lat="43.36573" lon="6.64972">
        <ele>123</ele>
        <time>2013-10-13T10:57:03Z</time>
      </trkpt>
      <trkpt lat="43.36567" lon="6.64984">
        <ele>123</ele>
        <time>2013-10-13T10:57:07Z</time>
      </trkpt>
      <trkpt lat="43.36565" lon="6.64997">
        <ele>124.06123352051</ele>
        <time>2013-10-13T10:57:10Z</time>
      </trkpt>
      <trkpt lat="43.36565" lon="6.65007">
        <ele>125</ele>
        <time>2013-10-13T10:57:12Z</time>
      </trkpt>
      <trkpt lat="43.36565" lon="6.65022">
        <ele>125</ele>
        <time>2013-10-13T10:57:15Z</time>
      </trkpt>
      <trkpt lat="43.36566" lon="6.65036">
        <ele>125</ele>
        <time>2013-10-13T10:57:18Z</time>
      </trkpt>
      <trkpt lat="43.36568" lon="6.6505">
        <ele>126</ele>
        <time>2013-10-13T10:57:21Z</time>
      </trkpt>
      <trkpt lat="43.36568" lon="6.65064">
        <ele>126</ele>
        <time>2013-10-13T10:57:24Z</time>
      </trkpt>
      <trkpt lat="43.36569" lon="6.65079">
        <ele>126</ele>
        <time>2013-10-13T10:57:27Z</time>
      </trkpt>
      <trkpt lat="43.36571" lon="6.65092">
        <ele>126</ele>
        <time>2013-10-13T10:57:30Z</time>
      </trkpt>
      <trkpt lat="43.36574" lon="6.65106">
        <ele>126</ele>
        <time>2013-10-13T10:57:33Z</time>
      </trkpt>
      <trkpt lat="43.3658" lon="6.6512">
        <ele>126</ele>
        <time>2013-10-13T10:57:36Z</time>
      </trkpt>
      <trkpt lat="43.36583" lon="6.65137">
        <ele>126.61000061035</ele>
        <time>2013-10-13T10:57:40Z</time>
      </trkpt>
      <trkpt lat="43.36585" lon="6.6515">
        <ele>127</ele>
        <time>2013-10-13T10:57:43Z</time>
      </trkpt>
      <trkpt lat="43.36586" lon="6.65164">
        <ele>127</ele>
        <time>2013-10-13T10:57:46Z</time>
      </trkpt>
      <trkpt lat="43.36586" lon="6.65181">
        <ele>128.42001342773</ele>
        <time>2013-10-13T10:57:50Z</time>
      </trkpt>
      <trkpt lat="43.36588" lon="6.65195">
        <ele>129</ele>
        <time>2013-10-13T10:57:53Z</time>
      </trkpt>
      <trkpt lat="43.36589" lon="6.6521">
        <ele>129</ele>
        <time>2013-10-13T10:57:56Z</time>
      </trkpt>
      <trkpt lat="43.36589" lon="6.65225">
        <ele>129</ele>
        <time>2013-10-13T10:57:59Z</time>
      </trkpt>
      <trkpt lat="43.36587" lon="6.65239">
        <ele>130</ele>
        <time>2013-10-13T10:58:02Z</time>
      </trkpt>
      <trkpt lat="43.36585" lon="6.65252">
        <ele>130</ele>
        <time>2013-10-13T10:58:05Z</time>
      </trkpt>
      <trkpt lat="43.36584" lon="6.65269">
        <ele>129.38998413086</ele>
        <time>2013-10-13T10:58:09Z</time>
      </trkpt>
      <trkpt lat="43.36584" lon="6.65282">
        <ele>131</ele>
        <time>2013-10-13T10:58:12Z</time>
      </trkpt>
      <trkpt lat="43.36585" lon="6.65295">
        <ele>131</ele>
        <time>2013-10-13T10:58:15Z</time>
      </trkpt>
      <trkpt lat="43.36588" lon="6.65308">
        <ele>131</ele>
        <time>2013-10-13T10:58:18Z</time>
      </trkpt>
      <trkpt lat="43.36592" lon="6.65319">
        <ele>132</ele>
        <time>2013-10-13T10:58:21Z</time>
      </trkpt>
      <trkpt lat="43.36596" lon="6.65332">
        <ele>132</ele>
        <time>2013-10-13T10:58:24Z</time>
      </trkpt>
      <trkpt lat="43.36597" lon="6.65347">
        <ele>132</ele>
        <time>2013-10-13T10:58:27Z</time>
      </trkpt>
      <trkpt lat="43.36597" lon="6.65362">
        <ele>132</ele>
        <time>2013-10-13T10:58:30Z</time>
      </trkpt>
      <trkpt lat="43.36597" lon="6.65377">
        <ele>132</ele>
        <time>2013-10-13T10:58:33Z</time>
      </trkpt>
      <trkpt lat="43.36598" lon="6.65391">
        <ele>132</ele>
        <time>2013-10-13T10:58:36Z</time>
      </trkpt>
      <trkpt lat="43.36598" lon="6.65404">
        <ele>132</ele>
        <time>2013-10-13T10:58:39Z</time>
      </trkpt>
      <trkpt lat="43.36599" lon="6.65418">
        <ele>134</ele>
        <time>2013-10-13T10:58:42Z</time>
      </trkpt>
      <trkpt lat="43.366" lon="6.65433">
        <ele>134</ele>
        <time>2013-10-13T10:58:45Z</time>
      </trkpt>
      <trkpt lat="43.366" lon="6.65444">
        <ele>134</ele>
        <time>2013-10-13T10:58:47Z</time>
      </trkpt>
      <trkpt lat="43.36602" lon="6.6546">
        <ele>134</ele>
        <time>2013-10-13T10:58:50Z</time>
      </trkpt>
      <trkpt lat="43.36605" lon="6.65477">
        <ele>134</ele>
        <time>2013-10-13T10:58:54Z</time>
      </trkpt>
      <trkpt lat="43.36609" lon="6.6549">
        <ele>134</ele>
        <time>2013-10-13T10:58:58Z</time>
      </trkpt>
      <trkpt lat="43.36613" lon="6.65504">
        <ele>137</ele>
        <time>2013-10-13T10:59:03Z</time>
      </trkpt>
      <trkpt lat="43.36616" lon="6.65517">
        <ele>138</ele>
        <time>2013-10-13T10:59:08Z</time>
      </trkpt>
      <trkpt lat="43.36616" lon="6.65528">
        <ele>138</ele>
        <time>2013-10-13T10:59:12Z</time>
      </trkpt>
      <trkpt lat="43.36614" lon="6.6554">
        <ele>138</ele>
        <time>2013-10-13T10:59:16Z</time>
      </trkpt>
      <trkpt lat="43.36611" lon="6.65553">
        <ele>139.2200012207</ele>
        <time>2013-10-13T10:59:20Z</time>
      </trkpt>
      <trkpt lat="43.3661" lon="6.65564">
        <ele>140</ele>
        <time>2013-10-13T10:59:23Z</time>
      </trkpt>
      <trkpt lat="43.36612" lon="6.65577">
        <ele>140</ele>
        <time>2013-10-13T10:59:26Z</time>
      </trkpt>
      <trkpt lat="43.36614" lon="6.6559">
        <ele>140</ele>
        <time>2013-10-13T10:59:29Z</time>
      </trkpt>
      <trkpt lat="43.36618" lon="6.656">
        <ele>140</ele>
        <time>2013-10-13T10:59:32Z</time>
      </trkpt>
      <trkpt lat="43.36622" lon="6.65612">
        <ele>140</ele>
        <time>2013-10-13T10:59:36Z</time>
      </trkpt>
      <trkpt lat="43.36626" lon="6.65623">
        <ele>141.17306518555</ele>
        <time>2013-10-13T10:59:40Z</time>
      </trkpt>
      <trkpt lat="43.36629" lon="6.65634">
        <ele>142</ele>
        <time>2013-10-13T10:59:44Z</time>
      </trkpt>
      <trkpt lat="43.36633" lon="6.65647">
        <ele>142</ele>
        <time>2013-10-13T10:59:48Z</time>
      </trkpt>
      <trkpt lat="43.36636" lon="6.65658">
        <ele>143</ele>
        <time>2013-10-13T10:59:52Z</time>
      </trkpt>
      <trkpt lat="43.3664" lon="6.6567">
        <ele>143</ele>
        <time>2013-10-13T10:59:56Z</time>
      </trkpt>
      <trkpt lat="43.36644" lon="6.65678">
        <ele>143</ele>
        <time>2013-10-13T10:59:59Z</time>
      </trkpt>
      <trkpt lat="43.36649" lon="6.65687">
        <ele>145</ele>
        <time>2013-10-13T11:00:02Z</time>
      </trkpt>
      <trkpt lat="43.36654" lon="6.65696">
        <ele>145</ele>
        <time>2013-10-13T11:00:05Z</time>
      </trkpt>
      <trkpt lat="43.36658" lon="6.65705">
        <ele>145</ele>
        <time>2013-10-13T11:00:08Z</time>
      </trkpt>
      <trkpt lat="43.36663" lon="6.65715">
        <ele>145</ele>
        <time>2013-10-13T11:00:11Z</time>
      </trkpt>
      <trkpt lat="43.36669" lon="6.65724">
        <ele>145</ele>
        <time>2013-10-13T11:00:14Z</time>
      </trkpt>
      <trkpt lat="43.36674" lon="6.65734">
        <ele>145</ele>
        <time>2013-10-13T11:00:18Z</time>
      </trkpt>
      <trkpt lat="43.36679" lon="6.65742">
        <ele>148</ele>
        <time>2013-10-13T11:00:21Z</time>
      </trkpt>
      <trkpt lat="43.36683" lon="6.65752">
        <ele>148.61001586914</ele>
        <time>2013-10-13T11:00:25Z</time>
      </trkpt>
      <trkpt lat="43.36683" lon="6.65762">
        <ele>149</ele>
        <time>2013-10-13T11:00:29Z</time>
      </trkpt>
      <trkpt lat="43.36681" lon="6.65771">
        <ele>150</ele>
        <time>2013-10-13T11:00:32Z</time>
      </trkpt>
      <trkpt lat="43.36678" lon="6.65782">
        <ele>150</ele>
        <time>2013-10-13T11:00:36Z</time>
      </trkpt>
      <trkpt lat="43.36674" lon="6.65791">
        <ele>151.02000427246</ele>
        <time>2013-10-13T11:00:40Z</time>
      </trkpt>
      <trkpt lat="43.36667" lon="6.658">
        <ele>152</ele>
        <time>2013-10-13T11:00:44Z</time>
      </trkpt>
      <trkpt lat="43.36662" lon="6.65807">
        <ele>152</ele>
        <time>2013-10-13T11:00:47Z</time>
      </trkpt>
      <trkpt lat="43.36657" lon="6.65817">
        <ele>153</ele>
        <time>2013-10-13T11:00:51Z</time>
      </trkpt>
      <trkpt lat="43.36655" lon="6.65827">
        <ele>153</ele>
        <time>2013-10-13T11:00:54Z</time>
      </trkpt>
      <trkpt lat="43.36652" lon="6.6584">
        <ele>153</ele>
        <time>2013-10-13T11:00:58Z</time>
      </trkpt>
      <trkpt lat="43.36651" lon="6.65851">
        <ele>155</ele>
        <time>2013-10-13T11:01:01Z</time>
      </trkpt>
      <trkpt lat="43.36653" lon="6.65862">
        <ele>155</ele>
        <time>2013-10-13T11:01:04Z</time>
      </trkpt>
      <trkpt lat="43.36661" lon="6.65869">
        <ele>155</ele>
        <time>2013-10-13T11:01:08Z</time>
      </trkpt>
      <trkpt lat="43.3667" lon="6.6587">
        <ele>156</ele>
        <time>2013-10-13T11:01:12Z</time>
      </trkpt>
      <trkpt lat="43.36679" lon="6.65866">
        <ele>156</ele>
        <time>2013-10-13T11:01:17Z</time>
      </trkpt>
      <trkpt lat="43.36684" lon="6.65863">
        <ele>157.02000427246</ele>
        <time>2013-10-13T11:01:20Z</time>
      </trkpt>
      <trkpt lat="43.36691" lon="6.65861">
        <ele>158</ele>
        <time>2013-10-13T11:01:23Z</time>
      </trkpt>
      <trkpt lat="43.36697" lon="6.65859">
        <ele>158</ele>
        <time>2013-10-13T11:01:26Z</time>
      </trkpt>
      <trkpt lat="43.36703" lon="6.65858">
        <ele>158</ele>
        <time>2013-10-13T11:01:29Z</time>
      </trkpt>
      <trkpt lat="43.36708" lon="6.65861">
        <ele>160</ele>
        <time>2013-10-13T11:01:32Z</time>
      </trkpt>
      <trkpt lat="43.36713" lon="6.65866">
        <ele>160</ele>
        <time>2013-10-13T11:01:35Z</time>
      </trkpt>
      <trkpt lat="43.36719" lon="6.65879">
        <ele>161</ele>
        <time>2013-10-13T11:01:41Z</time>
      </trkpt>
      <trkpt lat="43.36723" lon="6.6589">
        <ele>161</ele>
        <time>2013-10-13T11:01:46Z</time>
      </trkpt>
      <trkpt lat="43.36725" lon="6.65899">
        <ele>162.82998657227</ele>
        <time>2013-10-13T11:01:50Z</time>
      </trkpt>
      <trkpt lat="43.36728" lon="6.65911">
        <ele>164.61001586914</ele>
        <time>2013-10-13T11:01:55Z</time>
      </trkpt>
      <trkpt lat="43.36732" lon="6.65922">
        <ele>165.44000244141</ele>
        <time>2013-10-13T11:02:00Z</time>
      </trkpt>
      <trkpt lat="43.36735" lon="6.65935">
        <ele>166</ele>
        <time>2013-10-13T11:02:06Z</time>
      </trkpt>
      <trkpt lat="43.36737" lon="6.65948">
        <ele>167</ele>
        <time>2013-10-13T11:02:12Z</time>
      </trkpt>
      <trkpt lat="43.3674" lon="6.6596">
        <ele>167</ele>
        <time>2013-10-13T11:02:18Z</time>
      </trkpt>
      <trkpt lat="43.36744" lon="6.65973">
        <ele>171</ele>
        <time>2013-10-13T11:02:24Z</time>
      </trkpt>
      <trkpt lat="43.36747" lon="6.65981">
        <ele>172</ele>
        <time>2013-10-13T11:02:28Z</time>
      </trkpt>
      <trkpt lat="43.36751" lon="6.65991">
        <ele>172</ele>
        <time>2013-10-13T11:02:32Z</time>
      </trkpt>
      <trkpt lat="43.36752" lon="6.66005">
        <ele>171.48999023438</ele>
        <time>2013-10-13T11:02:38Z</time>
      </trkpt>
      <trkpt lat="43.36753" lon="6.66014">
        <ele>172</ele>
        <time>2013-10-13T11:02:42Z</time>
      </trkpt>
      <trkpt lat="43.36756" lon="6.66024">
        <ele>172</ele>
        <time>2013-10-13T11:02:46Z</time>
      </trkpt>
      <trkpt lat="43.3676" lon="6.66037">
        <ele>173</ele>
        <time>2013-10-13T11:02:52Z</time>
      </trkpt>
      <trkpt lat="43.3676" lon="6.66051">
        <ele>173</ele>
        <time>2013-10-13T11:02:58Z</time>
      </trkpt>
      <trkpt lat="43.36758" lon="6.66061">
        <ele>176</ele>
        <time>2013-10-13T11:03:02Z</time>
      </trkpt>
      <trkpt lat="43.36755" lon="6.66072">
        <ele>176</ele>
        <time>2013-10-13T11:03:06Z</time>
      </trkpt>
      <trkpt lat="43.36756" lon="6.66084">
        <ele>176.61000061035</ele>
        <time>2013-10-13T11:03:10Z</time>
      </trkpt>
      <trkpt lat="43.36757" lon="6.66095">
        <ele>177</ele>
        <time>2013-10-13T11:03:14Z</time>
      </trkpt>
      <trkpt lat="43.36758" lon="6.66104">
        <ele>177</ele>
        <time>2013-10-13T11:03:17Z</time>
      </trkpt>
      <trkpt lat="43.3676" lon="6.66116">
        <ele>179</ele>
        <time>2013-10-13T11:03:21Z</time>
      </trkpt>
      <trkpt lat="43.36762" lon="6.66126">
        <ele>179</ele>
        <time>2013-10-13T11:03:25Z</time>
      </trkpt>
      <trkpt lat="43.36756" lon="6.66138">
        <ele>179.51000976562</ele>
        <time>2013-10-13T11:03:30Z</time>
      </trkpt>
      <trkpt lat="43.36748" lon="6.66148">
        <ele>180</ele>
        <time>2013-10-13T11:03:34Z</time>
      </trkpt>
      <trkpt lat="43.3674" lon="6.66157">
        <ele>180</ele>
        <time>2013-10-13T11:03:38Z</time>
      </trkpt>
      <trkpt lat="43.36734" lon="6.66171">
        <ele>182</ele>
        <time>2013-10-13T11:03:43Z</time>
      </trkpt>
      <trkpt lat="43.3673" lon="6.66183">
        <ele>182</ele>
        <time>2013-10-13T11:03:47Z</time>
      </trkpt>
      <trkpt lat="43.36725" lon="6.66196">
        <ele>184</ele>
        <time>2013-10-13T11:03:52Z</time>
      </trkpt>
      <trkpt lat="43.36721" lon="6.66205">
        <ele>184</ele>
        <time>2013-10-13T11:03:56Z</time>
      </trkpt>
      <trkpt lat="43.36716" lon="6.66214">
        <ele>184.51000976562</ele>
        <time>2013-10-13T11:04:00Z</time>
      </trkpt>
      <trkpt lat="43.36712" lon="6.66226">
        <ele>185</ele>
        <time>2013-10-13T11:04:05Z</time>
      </trkpt>
      <trkpt lat="43.36708" lon="6.66237">
        <ele>185</ele>
        <time>2013-10-13T11:04:10Z</time>
      </trkpt>
      <trkpt lat="43.36698" lon="6.66244">
        <ele>185.58999633789</ele>
        <time>2013-10-13T11:04:20Z</time>
      </trkpt>
      <trkpt lat="43.36695" lon="6.66242">
        <ele>186</ele>
        <time>2013-10-13T11:04:26Z</time>
      </trkpt>
      <trkpt lat="43.36694" lon="6.66244">
        <ele>185.00012207031</ele>
        <time>2013-10-13T11:05:46Z</time>
      </trkpt>
      <trkpt lat="43.36696" lon="6.66255">
        <ele>186</ele>
        <time>2013-10-13T11:05:52Z</time>
      </trkpt>
      <trkpt lat="43.36697" lon="6.66268">
        <ele>186</ele>
        <time>2013-10-13T11:05:56Z</time>
      </trkpt>
      <trkpt lat="43.36692" lon="6.66281">
        <ele>186</ele>
        <time>2013-10-13T11:05:59Z</time>
      </trkpt>
      <trkpt lat="43.36684" lon="6.66287">
        <ele>184</ele>
        <time>2013-10-13T11:06:02Z</time>
      </trkpt>
      <trkpt lat="43.36674" lon="6.66291">
        <ele>184</ele>
        <time>2013-10-13T11:06:05Z</time>
      </trkpt>
      <trkpt lat="43.36668" lon="6.66305">
        <ele>184</ele>
        <time>2013-10-13T11:06:08Z</time>
      </trkpt>
      <trkpt lat="43.36668" lon="6.66323">
        <ele>180</ele>
        <time>2013-10-13T11:06:11Z</time>
      </trkpt>
      <trkpt lat="43.3667" lon="6.66342">
        <ele>180</ele>
        <time>2013-10-13T11:06:14Z</time>
      </trkpt>
      <trkpt lat="43.3667" lon="6.66363">
        <ele>177</ele>
        <time>2013-10-13T11:06:17Z</time>
      </trkpt>
      <trkpt lat="43.36671" lon="6.66378">
        <ele>177</ele>
        <time>2013-10-13T11:06:19Z</time>
      </trkpt>
      <trkpt lat="43.36674" lon="6.66398">
        <ele>176</ele>
        <time>2013-10-13T11:06:22Z</time>
      </trkpt>
      <trkpt lat="43.36677" lon="6.66415">
        <ele>174.16996765137</ele>
        <time>2013-10-13T11:06:25Z</time>
      </trkpt>
      <trkpt lat="43.36681" lon="6.66428">
        <ele>171</ele>
        <time>2013-10-13T11:06:33Z</time>
      </trkpt>
      <trkpt lat="43.36682" lon="6.66445">
        <ele>169</ele>
        <time>2013-10-13T11:06:41Z</time>
      </trkpt>
      <trkpt lat="43.36684" lon="6.66459">
        <ele>169</ele>
        <time>2013-10-13T11:06:44Z</time>
      </trkpt>
      <trkpt lat="43.36687" lon="6.66472">
        <ele>169</ele>
        <time>2013-10-13T11:06:49Z</time>
      </trkpt>
      <trkpt lat="43.36688" lon="6.66488">
        <ele>162.05712890625</ele>
        <time>2013-10-13T11:06:55Z</time>
      </trkpt>
      <trkpt lat="43.36689" lon="6.66502">
        <ele>157.56001281738</ele>
        <time>2013-10-13T11:07:00Z</time>
      </trkpt>
      <trkpt lat="43.36693" lon="6.66516">
        <ele>154.38998413086</ele>
        <time>2013-10-13T11:07:03Z</time>
      </trkpt>
      <trkpt lat="43.36697" lon="6.66529">
        <ele>153</ele>
        <time>2013-10-13T11:07:06Z</time>
      </trkpt>
      <trkpt lat="43.367" lon="6.66547">
        <ele>150.38998413086</ele>
        <time>2013-10-13T11:07:09Z</time>
      </trkpt>
      <trkpt lat="43.36704" lon="6.6656">
        <ele>148.38998413086</ele>
        <time>2013-10-13T11:07:11Z</time>
      </trkpt>
      <trkpt lat="43.36706" lon="6.66575">
        <ele>148</ele>
        <time>2013-10-13T11:07:13Z</time>
      </trkpt>
      <trkpt lat="43.3671" lon="6.66589">
        <ele>146.48999023438</ele>
        <time>2013-10-13T11:07:15Z</time>
      </trkpt>
      <trkpt lat="43.36718" lon="6.66604">
        <ele>145</ele>
        <time>2013-10-13T11:07:18Z</time>
      </trkpt>
      <trkpt lat="43.3672" lon="6.6662">
        <ele>142</ele>
        <time>2013-10-13T11:07:21Z</time>
      </trkpt>
      <trkpt lat="43.36721" lon="6.66638">
        <ele>137.48999023438</ele>
        <time>2013-10-13T11:07:25Z</time>
      </trkpt>
      <trkpt lat="43.36723" lon="6.66651">
        <ele>135.5333404541</ele>
        <time>2013-10-13T11:07:29Z</time>
      </trkpt>
      <trkpt lat="43.36724" lon="6.66666">
        <ele>132</ele>
        <time>2013-10-13T11:07:34Z</time>
      </trkpt>
      <trkpt lat="43.36728" lon="6.66679">
        <ele>129.38998413086</ele>
        <time>2013-10-13T11:07:37Z</time>
      </trkpt>
      <trkpt lat="43.36729" lon="6.66697">
        <ele>127.38999938965</ele>
        <time>2013-10-13T11:07:40Z</time>
      </trkpt>
      <trkpt lat="43.36729" lon="6.6671">
        <ele>126</ele>
        <time>2013-10-13T11:07:43Z</time>
      </trkpt>
      <trkpt lat="43.36727" lon="6.66727">
        <ele>125</ele>
        <time>2013-10-13T11:07:46Z</time>
      </trkpt>
      <trkpt lat="43.36727" lon="6.66742">
        <ele>123</ele>
        <time>2013-10-13T11:07:49Z</time>
      </trkpt>
      <trkpt lat="43.36728" lon="6.66755">
        <ele>123</ele>
        <time>2013-10-13T11:07:51Z</time>
      </trkpt>
      <trkpt lat="43.36728" lon="6.66769">
        <ele>123</ele>
        <time>2013-10-13T11:07:53Z</time>
      </trkpt>
      <trkpt lat="43.36727" lon="6.66782">
        <ele>123</ele>
        <time>2013-10-13T11:07:55Z</time>
      </trkpt>
      <trkpt lat="43.36729" lon="6.66801">
        <ele>123</ele>
        <time>2013-10-13T11:07:58Z</time>
      </trkpt>
      <trkpt lat="43.3673" lon="6.66821">
        <ele>120</ele>
        <time>2013-10-13T11:08:01Z</time>
      </trkpt>
      <trkpt lat="43.36731" lon="6.66834">
        <ele>120</ele>
        <time>2013-10-13T11:08:03Z</time>
      </trkpt>
      <trkpt lat="43.36726" lon="6.66853">
        <ele>119</ele>
        <time>2013-10-13T11:08:06Z</time>
      </trkpt>
      <trkpt lat="43.36717" lon="6.66866">
        <ele>119</ele>
        <time>2013-10-13T11:08:09Z</time>
      </trkpt>
      <trkpt lat="43.36708" lon="6.66864">
        <ele>117</ele>
        <time>2013-10-13T11:08:11Z</time>
      </trkpt>
      <trkpt lat="43.36699" lon="6.66864">
        <ele>117</ele>
        <time>2013-10-13T11:08:14Z</time>
      </trkpt>
      <trkpt lat="43.36695" lon="6.66873">
        <ele>113.41905975342</ele>
        <time>2013-10-13T11:08:20Z</time>
      </trkpt>
      <trkpt lat="43.36695" lon="6.66873">
        <ele>113</ele>
        <time>2013-10-13T11:08:21Z</time>
      </trkpt>
      <trkpt lat="43.36694" lon="6.66876">
        <ele>113</ele>
        <time>2013-10-13T11:08:23Z</time>
      </trkpt>
      <trkpt lat="43.36697" lon="6.66883">
        <ele>114</ele>
        <time>2013-10-13T11:08:28Z</time>
      </trkpt>
      <trkpt lat="43.36697" lon="6.66884">
        <ele>114</ele>
        <time>2013-10-13T11:08:31Z</time>
      </trkpt>
      <trkpt lat="43.36698" lon="6.66886">
        <ele>114</ele>
        <time>2013-10-13T11:08:33Z</time>
      </trkpt>
      <trkpt lat="43.36702" lon="6.66896">
        <ele>114</ele>
        <time>2013-10-13T11:08:38Z</time>
      </trkpt>
      <trkpt lat="43.36705" lon="6.66911">
        <ele>115</ele>
        <time>2013-10-13T11:08:43Z</time>
      </trkpt>
      <trkpt lat="43.36707" lon="6.66925">
        <ele>115</ele>
        <time>2013-10-13T11:08:47Z</time>
      </trkpt>
      <trkpt lat="43.36708" lon="6.66939">
        <ele>117</ele>
        <time>2013-10-13T11:08:52Z</time>
      </trkpt>
      <trkpt lat="43.36708" lon="6.66952">
        <ele>117</ele>
        <time>2013-10-13T11:08:56Z</time>
      </trkpt>
      <trkpt lat="43.36708" lon="6.66964">
        <ele>118.08000946045</ele>
        <time>2013-10-13T11:09:00Z</time>
      </trkpt>
      <trkpt lat="43.36707" lon="6.66976">
        <ele>119</ele>
        <time>2013-10-13T11:09:04Z</time>
      </trkpt>
      <trkpt lat="43.36707" lon="6.66989">
        <ele>119</ele>
        <time>2013-10-13T11:09:08Z</time>
      </trkpt>
      <trkpt lat="43.36704" lon="6.66999">
        <ele>121</ele>
        <time>2013-10-13T11:09:11Z</time>
      </trkpt>
      <trkpt lat="43.367" lon="6.67011">
        <ele>121</ele>
        <time>2013-10-13T11:09:15Z</time>
      </trkpt>
      <trkpt lat="43.36698" lon="6.67024">
        <ele>121</ele>
        <time>2013-10-13T11:09:18Z</time>
      </trkpt>
      <trkpt lat="43.36695" lon="6.67037">
        <ele>121</ele>
        <time>2013-10-13T11:09:21Z</time>
      </trkpt>
      <trkpt lat="43.36692" lon="6.67046">
        <ele>121</ele>
        <time>2013-10-13T11:09:23Z</time>
      </trkpt>
      <trkpt lat="43.36688" lon="6.67055">
        <ele>121</ele>
        <time>2013-10-13T11:09:25Z</time>
      </trkpt>
      <trkpt lat="43.36686" lon="6.67065">
        <ele>121</ele>
        <time>2013-10-13T11:09:27Z</time>
      </trkpt>
      <trkpt lat="43.36683" lon="6.6708">
        <ele>120</ele>
        <time>2013-10-13T11:09:31Z</time>
      </trkpt>
      <trkpt lat="43.36683" lon="6.67097">
        <ele>120</ele>
        <time>2013-10-13T11:09:35Z</time>
      </trkpt>
      <trkpt lat="43.36687" lon="6.67113">
        <ele>120</ele>
        <time>2013-10-13T11:09:38Z</time>
      </trkpt>
      <trkpt lat="43.36689" lon="6.67128">
        <ele>118.17000579834</ele>
        <time>2013-10-13T11:09:40Z</time>
      </trkpt>
      <trkpt lat="43.3669" lon="6.67147">
        <ele>117</ele>
        <time>2013-10-13T11:09:42Z</time>
      </trkpt>
      <trkpt lat="43.3669" lon="6.67169">
        <ele>117</ele>
        <time>2013-10-13T11:09:44Z</time>
      </trkpt>
      <trkpt lat="43.3669" lon="6.6719">
        <ele>112</ele>
        <time>2013-10-13T11:09:46Z</time>
      </trkpt>
      <trkpt lat="43.36687" lon="6.67208">
        <ele>112</ele>
        <time>2013-10-13T11:09:48Z</time>
      </trkpt>
      <trkpt lat="43.36675" lon="6.67218">
        <ele>110</ele>
        <time>2013-10-13T11:09:51Z</time>
      </trkpt>
      <trkpt lat="43.36663" lon="6.67224">
        <ele>109.48999786377</ele>
        <time>2013-10-13T11:09:54Z</time>
      </trkpt>
      <trkpt lat="43.36657" lon="6.67238">
        <ele>104.48999786377</ele>
        <time>2013-10-13T11:09:56Z</time>
      </trkpt>
      <trkpt lat="43.36655" lon="6.67253">
        <ele>103.48999786377</ele>
        <time>2013-10-13T11:09:58Z</time>
      </trkpt>
      <trkpt lat="43.36657" lon="6.67266">
        <ele>103</ele>
        <time>2013-10-13T11:10:00Z</time>
      </trkpt>
      <trkpt lat="43.36654" lon="6.67282">
        <ele>102.571434021</ele>
        <time>2013-10-13T11:10:03Z</time>
      </trkpt>
      <trkpt lat="43.36648" lon="6.67297">
        <ele>102.71000671387</ele>
        <time>2013-10-13T11:10:06Z</time>
      </trkpt>
      <trkpt lat="43.36658" lon="6.6731">
        <ele>103</ele>
        <time>2013-10-13T11:10:09Z</time>
      </trkpt>
      <trkpt lat="43.3667" lon="6.6732">
        <ele>102</ele>
        <time>2013-10-13T11:10:12Z</time>
      </trkpt>
      <trkpt lat="43.3668" lon="6.67329">
        <ele>102</ele>
        <time>2013-10-13T11:10:15Z</time>
      </trkpt>
      <trkpt lat="43.36689" lon="6.67336">
        <ele>102</ele>
        <time>2013-10-13T11:10:18Z</time>
      </trkpt>
      <trkpt lat="43.36698" lon="6.6735">
        <ele>103</ele>
        <time>2013-10-13T11:10:22Z</time>
      </trkpt>
      <trkpt lat="43.36703" lon="6.67364">
        <ele>103</ele>
        <time>2013-10-13T11:10:26Z</time>
      </trkpt>
      <trkpt lat="43.36707" lon="6.67381">
        <ele>107.26001739502</ele>
        <time>2013-10-13T11:10:30Z</time>
      </trkpt>
      <trkpt lat="43.36707" lon="6.67395">
        <ele>110</ele>
        <time>2013-10-13T11:10:33Z</time>
      </trkpt>
      <trkpt lat="43.36706" lon="6.67411">
        <ele>111</ele>
        <time>2013-10-13T11:10:37Z</time>
      </trkpt>
      <trkpt lat="43.3671" lon="6.67429">
        <ele>111</ele>
        <time>2013-10-13T11:10:41Z</time>
      </trkpt>
      <trkpt lat="43.36715" lon="6.67443">
        <ele>111</ele>
        <time>2013-10-13T11:10:44Z</time>
      </trkpt>
      <trkpt lat="43.3672" lon="6.67457">
        <ele>111</ele>
        <time>2013-10-13T11:10:47Z</time>
      </trkpt>
      <trkpt lat="43.36724" lon="6.67472">
        <ele>111</ele>
        <time>2013-10-13T11:10:50Z</time>
      </trkpt>
      <trkpt lat="43.36728" lon="6.67487">
        <ele>111</ele>
        <time>2013-10-13T11:10:53Z</time>
      </trkpt>
      <trkpt lat="43.36734" lon="6.67502">
        <ele>111</ele>
        <time>2013-10-13T11:10:56Z</time>
      </trkpt>
      <trkpt lat="43.36741" lon="6.67515">
        <ele>111</ele>
        <time>2013-10-13T11:10:59Z</time>
      </trkpt>
      <trkpt lat="43.36747" lon="6.67529">
        <ele>110</ele>
        <time>2013-10-13T11:11:02Z</time>
      </trkpt>
      <trkpt lat="43.36753" lon="6.67542">
        <ele>110</ele>
        <time>2013-10-13T11:11:05Z</time>
      </trkpt>
      <trkpt lat="43.36757" lon="6.67558">
        <ele>110</ele>
        <time>2013-10-13T11:11:09Z</time>
      </trkpt>
      <trkpt lat="43.36761" lon="6.67573">
        <ele>111</ele>
        <time>2013-10-13T11:11:12Z</time>
      </trkpt>
      <trkpt lat="43.36765" lon="6.67587">
        <ele>111</ele>
        <time>2013-10-13T11:11:15Z</time>
      </trkpt>
      <trkpt lat="43.36766" lon="6.67603">
        <ele>111.71000671387</ele>
        <time>2013-10-13T11:11:20Z</time>
      </trkpt>
      <trkpt lat="43.36761" lon="6.67616">
        <ele>112</ele>
        <time>2013-10-13T11:11:25Z</time>
      </trkpt>
      <trkpt lat="43.36758" lon="6.67631">
        <ele>113.82999420166</ele>
        <time>2013-10-13T11:11:30Z</time>
      </trkpt>
      <trkpt lat="43.36753" lon="6.67643">
        <ele>115</ele>
        <time>2013-10-13T11:11:34Z</time>
      </trkpt>
      <trkpt lat="43.36752" lon="6.67657">
        <ele>117</ele>
        <time>2013-10-13T11:11:38Z</time>
      </trkpt>
      <trkpt lat="43.36752" lon="6.67673">
        <ele>119</ele>
        <time>2013-10-13T11:11:43Z</time>
      </trkpt>
      <trkpt lat="43.36748" lon="6.67687">
        <ele>121</ele>
        <time>2013-10-13T11:11:48Z</time>
      </trkpt>
      <trkpt lat="43.36747" lon="6.67702">
        <ele>121</ele>
        <time>2013-10-13T11:11:53Z</time>
      </trkpt>
      <trkpt lat="43.36749" lon="6.67718">
        <ele>121</ele>
        <time>2013-10-13T11:11:59Z</time>
      </trkpt>
      <trkpt lat="43.36752" lon="6.67732">
        <ele>123</ele>
        <time>2013-10-13T11:12:05Z</time>
      </trkpt>
      <trkpt lat="43.36755" lon="6.67747">
        <ele>125</ele>
        <time>2013-10-13T11:12:11Z</time>
      </trkpt>
      <trkpt lat="43.36758" lon="6.67762">
        <ele>125</ele>
        <time>2013-10-13T11:12:18Z</time>
      </trkpt>
      <trkpt lat="43.3676" lon="6.67776">
        <ele>127</ele>
        <time>2013-10-13T11:12:25Z</time>
      </trkpt>
      <trkpt lat="43.36763" lon="6.6779">
        <ele>129</ele>
        <time>2013-10-13T11:12:32Z</time>
      </trkpt>
      <trkpt lat="43.36765" lon="6.67804">
        <ele>129</ele>
        <time>2013-10-13T11:12:39Z</time>
      </trkpt>
      <trkpt lat="43.36769" lon="6.67818">
        <ele>134</ele>
        <time>2013-10-13T11:12:46Z</time>
      </trkpt>
      <trkpt lat="43.3677" lon="6.67832">
        <ele>135</ele>
        <time>2013-10-13T11:12:54Z</time>
      </trkpt>
      <trkpt lat="43.36769" lon="6.67846">
        <ele>139</ele>
        <time>2013-10-13T11:13:03Z</time>
      </trkpt>
      <trkpt lat="43.36768" lon="6.6786">
        <ele>141</ele>
        <time>2013-10-13T11:13:12Z</time>
      </trkpt>
      <trkpt lat="43.36767" lon="6.67874">
        <ele>142</ele>
        <time>2013-10-13T11:13:21Z</time>
      </trkpt>
      <trkpt lat="43.36765" lon="6.67888">
        <ele>146</ele>
        <time>2013-10-13T11:13:31Z</time>
      </trkpt>
      <trkpt lat="43.36766" lon="6.67903">
        <ele>148</ele>
        <time>2013-10-13T11:13:40Z</time>
      </trkpt>
      <trkpt lat="43.36771" lon="6.67916">
        <ele>148</ele>
        <time>2013-10-13T11:13:47Z</time>
      </trkpt>
      <trkpt lat="43.36773" lon="6.6793">
        <ele>151.51000976562</ele>
        <time>2013-10-13T11:13:55Z</time>
      </trkpt>
      <trkpt lat="43.36768" lon="6.67943">
        <ele>153</ele>
        <time>2013-10-13T11:14:02Z</time>
      </trkpt>
      <trkpt lat="43.36763" lon="6.67958">
        <ele>153</ele>
        <time>2013-10-13T11:14:08Z</time>
      </trkpt>
      <trkpt lat="43.36758" lon="6.67972">
        <ele>154</ele>
        <time>2013-10-13T11:14:13Z</time>
      </trkpt>
      <trkpt lat="43.36752" lon="6.67985">
        <ele>154</ele>
        <time>2013-10-13T11:14:17Z</time>
      </trkpt>
      <trkpt lat="43.36744" lon="6.67996">
        <ele>154</ele>
        <time>2013-10-13T11:14:21Z</time>
      </trkpt>
      <trkpt lat="43.36734" lon="6.67999">
        <ele>154</ele>
        <time>2013-10-13T11:14:25Z</time>
      </trkpt>
      <trkpt lat="43.36725" lon="6.67999">
        <ele>154</ele>
        <time>2013-10-13T11:14:28Z</time>
      </trkpt>
      <trkpt lat="43.36716" lon="6.68001">
        <ele>154</ele>
        <time>2013-10-13T11:14:31Z</time>
      </trkpt>
      <trkpt lat="43.36707" lon="6.68005">
        <ele>154</ele>
        <time>2013-10-13T11:14:34Z</time>
      </trkpt>
      <trkpt lat="43.367" lon="6.68014">
        <ele>154</ele>
        <time>2013-10-13T11:14:37Z</time>
      </trkpt>
      <trkpt lat="43.36696" lon="6.68026">
        <ele>154.61000061035</ele>
        <time>2013-10-13T11:14:40Z</time>
      </trkpt>
      <trkpt lat="43.36695" lon="6.68038">
        <ele>155</ele>
        <time>2013-10-13T11:14:43Z</time>
      </trkpt>
      <trkpt lat="43.36697" lon="6.68054">
        <ele>155</ele>
        <time>2013-10-13T11:14:47Z</time>
      </trkpt>
      <trkpt lat="43.36702" lon="6.68071">
        <ele>156</ele>
        <time>2013-10-13T11:14:51Z</time>
      </trkpt>
      <trkpt lat="43.36707" lon="6.68083">
        <ele>156</ele>
        <time>2013-10-13T11:14:54Z</time>
      </trkpt>
      <trkpt lat="43.36713" lon="6.68095">
        <ele>156</ele>
        <time>2013-10-13T11:14:57Z</time>
      </trkpt>
      <trkpt lat="43.36718" lon="6.68109">
        <ele>157.2200012207</ele>
        <time>2013-10-13T11:15:00Z</time>
      </trkpt>
      <trkpt lat="43.36721" lon="6.68125">
        <ele>158</ele>
        <time>2013-10-13T11:15:03Z</time>
      </trkpt>
      <trkpt lat="43.3672" lon="6.68142">
        <ele>158</ele>
        <time>2013-10-13T11:15:06Z</time>
      </trkpt>
      <trkpt lat="43.36715" lon="6.68159">
        <ele>158</ele>
        <time>2013-10-13T11:15:09Z</time>
      </trkpt>
      <trkpt lat="43.36708" lon="6.68177">
        <ele>158</ele>
        <time>2013-10-13T11:15:12Z</time>
      </trkpt>
      <trkpt lat="43.36702" lon="6.68187">
        <ele>158</ele>
        <time>2013-10-13T11:15:14Z</time>
      </trkpt>
      <trkpt lat="43.36694" lon="6.68197">
        <ele>158</ele>
        <time>2013-10-13T11:15:16Z</time>
      </trkpt>
      <trkpt lat="43.36686" lon="6.68205">
        <ele>158</ele>
        <time>2013-10-13T11:15:18Z</time>
      </trkpt>
      <trkpt lat="43.36677" lon="6.68213">
        <ele>157.38999938965</ele>
        <time>2013-10-13T11:15:20Z</time>
      </trkpt>
      <trkpt lat="43.36669" lon="6.68221">
        <ele>157</ele>
        <time>2013-10-13T11:15:22Z</time>
      </trkpt>
      <trkpt lat="43.36661" lon="6.68229">
        <ele>157</ele>
        <time>2013-10-13T11:15:24Z</time>
      </trkpt>
      <trkpt lat="43.36652" lon="6.68237">
        <ele>157</ele>
        <time>2013-10-13T11:15:26Z</time>
      </trkpt>
      <trkpt lat="43.36642" lon="6.68241">
        <ele>157</ele>
        <time>2013-10-13T11:15:28Z</time>
      </trkpt>
      <trkpt lat="43.36632" lon="6.6824">
        <ele>156.38999938965</ele>
        <time>2013-10-13T11:15:30Z</time>
      </trkpt>
      <trkpt lat="43.36627" lon="6.68238">
        <ele>156</ele>
        <time>2013-10-13T11:15:31Z</time>
      </trkpt>
      <trkpt lat="43.36622" lon="6.68234">
        <ele>156</ele>
        <time>2013-10-13T11:15:32Z</time>
      </trkpt>
      <trkpt lat="43.36617" lon="6.68231">
        <ele>156</ele>
        <time>2013-10-13T11:15:33Z</time>
      </trkpt>
      <trkpt lat="43.36612" lon="6.68227">
        <ele>156</ele>
        <time>2013-10-13T11:15:34Z</time>
      </trkpt>
      <trkpt lat="43.36608" lon="6.68224">
        <ele>156</ele>
        <time>2013-10-13T11:15:35Z</time>
      </trkpt>
      <trkpt lat="43.36603" lon="6.68221">
        <ele>156</ele>
        <time>2013-10-13T11:15:36Z</time>
      </trkpt>
      <trkpt lat="43.36598" lon="6.68218">
        <ele>156</ele>
        <time>2013-10-13T11:15:37Z</time>
      </trkpt>
      <trkpt lat="43.36593" lon="6.68215">
        <ele>156</ele>
        <time>2013-10-13T11:15:38Z</time>
      </trkpt>
      <trkpt lat="43.36588" lon="6.68212">
        <ele>156</ele>
        <time>2013-10-13T11:15:39Z</time>
      </trkpt>
      <trkpt lat="43.36583" lon="6.68209">
        <ele>156</ele>
        <time>2013-10-13T11:15:40Z</time>
      </trkpt>
      <trkpt lat="43.36578" lon="6.68206">
        <ele>156</ele>
        <time>2013-10-13T11:15:41Z</time>
      </trkpt>
      <trkpt lat="43.36573" lon="6.68202">
        <ele>156</ele>
        <time>2013-10-13T11:15:42Z</time>
      </trkpt>
      <trkpt lat="43.36569" lon="6.68198">
        <ele>156</ele>
        <time>2013-10-13T11:15:43Z</time>
      </trkpt>
      <trkpt lat="43.36564" lon="6.68194">
        <ele>156</ele>
        <time>2013-10-13T11:15:44Z</time>
      </trkpt>
      <trkpt lat="43.3656" lon="6.68189">
        <ele>156</ele>
        <time>2013-10-13T11:15:45Z</time>
      </trkpt>
      <trkpt lat="43.36552" lon="6.68179">
        <ele>156</ele>
        <time>2013-10-13T11:15:47Z</time>
      </trkpt>
      <trkpt lat="43.36548" lon="6.68173">
        <ele>156</ele>
        <time>2013-10-13T11:15:48Z</time>
      </trkpt>
      <trkpt lat="43.36542" lon="6.68159">
        <ele>156.49000549316</ele>
        <time>2013-10-13T11:15:50Z</time>
      </trkpt>
      <trkpt lat="43.36539" lon="6.68153">
        <ele>157</ele>
        <time>2013-10-13T11:15:51Z</time>
      </trkpt>
      <trkpt lat="43.36536" lon="6.68146">
        <ele>157</ele>
        <time>2013-10-13T11:15:52Z</time>
      </trkpt>
      <trkpt lat="43.36527" lon="6.68136">
        <ele>157</ele>
        <time>2013-10-13T11:15:54Z</time>
      </trkpt>
      <trkpt lat="43.36516" lon="6.68132">
        <ele>157</ele>
        <time>2013-10-13T11:15:56Z</time>
      </trkpt>
      <trkpt lat="43.36504" lon="6.68129">
        <ele>157</ele>
        <time>2013-10-13T11:15:58Z</time>
      </trkpt>
      <trkpt lat="43.36498" lon="6.68128">
        <ele>157</ele>
        <time>2013-10-13T11:15:59Z</time>
      </trkpt>
      <trkpt lat="43.36493" lon="6.68126">
        <ele>157</ele>
        <time>2013-10-13T11:16:00Z</time>
      </trkpt>
      <trkpt lat="43.36487" lon="6.68124">
        <ele>157</ele>
        <time>2013-10-13T11:16:01Z</time>
      </trkpt>
      <trkpt lat="43.36481" lon="6.68122">
        <ele>157</ele>
        <time>2013-10-13T11:16:02Z</time>
      </trkpt>
      <trkpt lat="43.36475" lon="6.6812">
        <ele>157</ele>
        <time>2013-10-13T11:16:03Z</time>
      </trkpt>
      <trkpt lat="43.36469" lon="6.68117">
        <ele>157</ele>
        <time>2013-10-13T11:16:04Z</time>
      </trkpt>
      <trkpt lat="43.36457" lon="6.68114">
        <ele>157</ele>
        <time>2013-10-13T11:16:06Z</time>
      </trkpt>
      <trkpt lat="43.36446" lon="6.68118">
        <ele>157</ele>
        <time>2013-10-13T11:16:08Z</time>
      </trkpt>
      <trkpt lat="43.3644" lon="6.6813">
        <ele>156.38999938965</ele>
        <time>2013-10-13T11:16:10Z</time>
      </trkpt>
      <trkpt lat="43.36438" lon="6.68145">
        <ele>156</ele>
        <time>2013-10-13T11:16:12Z</time>
      </trkpt>
      <trkpt lat="43.36437" lon="6.68161">
        <ele>156.53060913086</ele>
        <time>2013-10-13T11:16:14Z</time>
      </trkpt>
      <trkpt lat="43.36437" lon="6.68178">
        <ele>157</ele>
        <time>2013-10-13T11:16:16Z</time>
      </trkpt>
      <trkpt lat="43.36438" lon="6.68195">
        <ele>157</ele>
        <time>2013-10-13T11:16:18Z</time>
      </trkpt>
      <trkpt lat="43.36441" lon="6.68212">
        <ele>157</ele>
        <time>2013-10-13T11:16:20Z</time>
      </trkpt>
      <trkpt lat="43.36443" lon="6.68228">
        <ele>157</ele>
        <time>2013-10-13T11:16:22Z</time>
      </trkpt>
      <trkpt lat="43.36446" lon="6.68244">
        <ele>157</ele>
        <time>2013-10-13T11:16:24Z</time>
      </trkpt>
      <trkpt lat="43.36447" lon="6.6826">
        <ele>157</ele>
        <time>2013-10-13T11:16:26Z</time>
      </trkpt>
      <trkpt lat="43.36446" lon="6.68276">
        <ele>157</ele>
        <time>2013-10-13T11:16:28Z</time>
      </trkpt>
      <trkpt lat="43.36443" lon="6.68292">
        <ele>157.59803771973</ele>
        <time>2013-10-13T11:16:30Z</time>
      </trkpt>
      <trkpt lat="43.36436" lon="6.68306">
        <ele>158</ele>
        <time>2013-10-13T11:16:32Z</time>
      </trkpt>
      <trkpt lat="43.36428" lon="6.68319">
        <ele>158</ele>
        <time>2013-10-13T11:16:34Z</time>
      </trkpt>
      <trkpt lat="43.3642" lon="6.68329">
        <ele>158</ele>
        <time>2013-10-13T11:16:36Z</time>
      </trkpt>
      <trkpt lat="43.36409" lon="6.68337">
        <ele>158</ele>
        <time>2013-10-13T11:16:38Z</time>
      </trkpt>
      <trkpt lat="43.36398" lon="6.68343">
        <ele>156.7799987793</ele>
        <time>2013-10-13T11:16:40Z</time>
      </trkpt>
      <trkpt lat="43.36387" lon="6.68348">
        <ele>156</ele>
        <time>2013-10-13T11:16:42Z</time>
      </trkpt>
      <trkpt lat="43.36375" lon="6.68352">
        <ele>156</ele>
        <time>2013-10-13T11:16:44Z</time>
      </trkpt>
      <trkpt lat="43.36364" lon="6.68357">
        <ele>156</ele>
        <time>2013-10-13T11:16:46Z</time>
      </trkpt>
      <trkpt lat="43.36359" lon="6.68362">
        <ele>156</ele>
        <time>2013-10-13T11:16:47Z</time>
      </trkpt>
      <trkpt lat="43.36355" lon="6.68367">
        <ele>156</ele>
        <time>2013-10-13T11:16:48Z</time>
      </trkpt>
      <trkpt lat="43.36348" lon="6.6838">
        <ele>155.43518066406</ele>
        <time>2013-10-13T11:16:50Z</time>
      </trkpt>
      <trkpt lat="43.36343" lon="6.68394">
        <ele>155</ele>
        <time>2013-10-13T11:16:52Z</time>
      </trkpt>
      <trkpt lat="43.36338" lon="6.6841">
        <ele>155</ele>
        <time>2013-10-13T11:16:55Z</time>
      </trkpt>
      <trkpt lat="43.36336" lon="6.68424">
        <ele>155</ele>
        <time>2013-10-13T11:17:01Z</time>
      </trkpt>
      <trkpt lat="43.36337" lon="6.68439">
        <ele>155</ele>
        <time>2013-10-13T11:17:07Z</time>
      </trkpt>
      <trkpt lat="43.36343" lon="6.68452">
        <ele>156</ele>
        <time>2013-10-13T11:17:13Z</time>
      </trkpt>
      <trkpt lat="43.36351" lon="6.68461">
        <ele>156</ele>
        <time>2013-10-13T11:17:17Z</time>
      </trkpt>
      <trkpt lat="43.36361" lon="6.6847">
        <ele>158</ele>
        <time>2013-10-13T11:17:21Z</time>
      </trkpt>
      <trkpt lat="43.3637" lon="6.68479">
        <ele>158</ele>
        <time>2013-10-13T11:17:25Z</time>
      </trkpt>
      <trkpt lat="43.36378" lon="6.68493">
        <ele>158</ele>
        <time>2013-10-13T11:17:29Z</time>
      </trkpt>
      <trkpt lat="43.36387" lon="6.68506">
        <ele>161</ele>
        <time>2013-10-13T11:17:33Z</time>
      </trkpt>
      <trkpt lat="43.36395" lon="6.6852">
        <ele>161</ele>
        <time>2013-10-13T11:17:37Z</time>
      </trkpt>
      <trkpt lat="43.36404" lon="6.68532">
        <ele>161</ele>
        <time>2013-10-13T11:17:41Z</time>
      </trkpt>
      <trkpt lat="43.36414" lon="6.6854">
        <ele>161</ele>
        <time>2013-10-13T11:17:45Z</time>
      </trkpt>
      <trkpt lat="43.36424" lon="6.68545">
        <ele>161</ele>
        <time>2013-10-13T11:17:49Z</time>
      </trkpt>
      <trkpt lat="43.36434" lon="6.68551">
        <ele>163</ele>
        <time>2013-10-13T11:17:53Z</time>
      </trkpt>
      <trkpt lat="43.36444" lon="6.68561">
        <ele>163</ele>
        <time>2013-10-13T11:17:57Z</time>
      </trkpt>
      <trkpt lat="43.36454" lon="6.68572">
        <ele>165</ele>
        <time>2013-10-13T11:18:01Z</time>
      </trkpt>
      <trkpt lat="43.36462" lon="6.68586">
        <ele>165</ele>
        <time>2013-10-13T11:18:05Z</time>
      </trkpt>
      <trkpt lat="43.36467" lon="6.68599">
        <ele>165</ele>
        <time>2013-10-13T11:18:08Z</time>
      </trkpt>
      <trkpt lat="43.36472" lon="6.68612">
        <ele>165</ele>
        <time>2013-10-13T11:18:11Z</time>
      </trkpt>
      <trkpt lat="43.3648" lon="6.68629">
        <ele>165</ele>
        <time>2013-10-13T11:18:14Z</time>
      </trkpt>
      <trkpt lat="43.36486" lon="6.68642">
        <ele>165</ele>
        <time>2013-10-13T11:18:16Z</time>
      </trkpt>
      <trkpt lat="43.36492" lon="6.68654">
        <ele>165</ele>
        <time>2013-10-13T11:18:18Z</time>
      </trkpt>
      <trkpt lat="43.36498" lon="6.68666">
        <ele>163.46998596191</ele>
        <time>2013-10-13T11:18:20Z</time>
      </trkpt>
      <trkpt lat="43.36504" lon="6.68679">
        <ele>162</ele>
        <time>2013-10-13T11:18:22Z</time>
      </trkpt>
      <trkpt lat="43.36511" lon="6.68692">
        <ele>162</ele>
        <time>2013-10-13T11:18:24Z</time>
      </trkpt>
      <trkpt lat="43.36516" lon="6.68707">
        <ele>160</ele>
        <time>2013-10-13T11:18:26Z</time>
      </trkpt>
      <trkpt lat="43.36519" lon="6.68722">
        <ele>160</ele>
        <time>2013-10-13T11:18:28Z</time>
      </trkpt>
      <trkpt lat="43.36519" lon="6.68736">
        <ele>159.14286804199</ele>
        <time>2013-10-13T11:18:30Z</time>
      </trkpt>
      <trkpt lat="43.36518" lon="6.68751">
        <ele>158</ele>
        <time>2013-10-13T11:18:32Z</time>
      </trkpt>
      <trkpt lat="43.36515" lon="6.68765">
        <ele>158</ele>
        <time>2013-10-13T11:18:34Z</time>
      </trkpt>
      <trkpt lat="43.36512" lon="6.68779">
        <ele>156</ele>
        <time>2013-10-13T11:18:36Z</time>
      </trkpt>
      <trkpt lat="43.36506" lon="6.68791">
        <ele>156</ele>
        <time>2013-10-13T11:18:38Z</time>
      </trkpt>
      <trkpt lat="43.36499" lon="6.68802">
        <ele>156</ele>
        <time>2013-10-13T11:18:40Z</time>
      </trkpt>
      <trkpt lat="43.36485" lon="6.68805">
        <ele>156</ele>
        <time>2013-10-13T11:18:43Z</time>
      </trkpt>
      <trkpt lat="43.36476" lon="6.68805">
        <ele>156</ele>
        <time>2013-10-13T11:18:45Z</time>
      </trkpt>
      <trkpt lat="43.36467" lon="6.68809">
        <ele>156</ele>
        <time>2013-10-13T11:18:48Z</time>
      </trkpt>
      <trkpt lat="43.36457" lon="6.68822">
        <ele>153</ele>
        <time>2013-10-13T11:18:51Z</time>
      </trkpt>
      <trkpt lat="43.36447" lon="6.68831">
        <ele>153</ele>
        <time>2013-10-13T11:18:53Z</time>
      </trkpt>
      <trkpt lat="43.36437" lon="6.68834">
        <ele>150.55996704102</ele>
        <time>2013-10-13T11:18:55Z</time>
      </trkpt>
      <trkpt lat="43.36423" lon="6.68833">
        <ele>149</ele>
        <time>2013-10-13T11:18:58Z</time>
      </trkpt>
      <trkpt lat="43.3641" lon="6.68832">
        <ele>148</ele>
        <time>2013-10-13T11:19:01Z</time>
      </trkpt>
      <trkpt lat="43.364" lon="6.68833">
        <ele>148</ele>
        <time>2013-10-13T11:19:04Z</time>
      </trkpt>
      <trkpt lat="43.3639" lon="6.68839">
        <ele>148</ele>
        <time>2013-10-13T11:19:09Z</time>
      </trkpt>
      <trkpt lat="43.36379" lon="6.68844">
        <ele>149</ele>
        <time>2013-10-13T11:19:14Z</time>
      </trkpt>
      <trkpt lat="43.36371" lon="6.68852">
        <ele>149</ele>
        <time>2013-10-13T11:19:18Z</time>
      </trkpt>
      <trkpt lat="43.36365" lon="6.68864">
        <ele>151</ele>
        <time>2013-10-13T11:19:21Z</time>
      </trkpt>
      <trkpt lat="43.36362" lon="6.68873">
        <ele>151</ele>
        <time>2013-10-13T11:19:23Z</time>
      </trkpt>
      <trkpt lat="43.36358" lon="6.68887">
        <ele>151</ele>
        <time>2013-10-13T11:19:26Z</time>
      </trkpt>
      <trkpt lat="43.36353" lon="6.689">
        <ele>151</ele>
        <time>2013-10-13T11:19:29Z</time>
      </trkpt>
      <trkpt lat="43.36347" lon="6.68911">
        <ele>153</ele>
        <time>2013-10-13T11:19:32Z</time>
      </trkpt>
      <trkpt lat="43.36339" lon="6.68921">
        <ele>153</ele>
        <time>2013-10-13T11:19:35Z</time>
      </trkpt>
      <trkpt lat="43.36332" lon="6.68933">
        <ele>153</ele>
        <time>2013-10-13T11:19:38Z</time>
      </trkpt>
      <trkpt lat="43.36321" lon="6.68942">
        <ele>155</ele>
        <time>2013-10-13T11:19:41Z</time>
      </trkpt>
      <trkpt lat="43.36312" lon="6.68949">
        <ele>155</ele>
        <time>2013-10-13T11:19:43Z</time>
      </trkpt>
      <trkpt lat="43.363" lon="6.68957">
        <ele>155</ele>
        <time>2013-10-13T11:19:45Z</time>
      </trkpt>
      <trkpt lat="43.36293" lon="6.68968">
        <ele>155</ele>
        <time>2013-10-13T11:19:47Z</time>
      </trkpt>
      <trkpt lat="43.36291" lon="6.68982">
        <ele>153</ele>
        <time>2013-10-13T11:19:52Z</time>
      </trkpt>
      <trkpt lat="43.36288" lon="6.68996">
        <ele>153</ele>
        <time>2013-10-13T11:19:59Z</time>
      </trkpt>
      <trkpt lat="43.36284" lon="6.69005">
        <ele>155</ele>
        <time>2013-10-13T11:20:08Z</time>
      </trkpt>
      <trkpt lat="43.36285" lon="6.69009">
        <ele>157</ele>
        <time>2013-10-13T11:20:27Z</time>
      </trkpt>
      <trkpt lat="43.36284" lon="6.69009">
        <ele>157</ele>
        <time>2013-10-13T11:20:27Z</time>
      </trkpt>
      <trkpt lat="43.36283" lon="6.6902">
        <ele>159.02000427246</ele>
        <time>2013-10-13T11:20:40Z</time>
      </trkpt>
      <trkpt lat="43.36282" lon="6.69024">
        <ele>160</ele>
        <time>2013-10-13T11:20:48Z</time>
      </trkpt>
      <trkpt lat="43.36281" lon="6.69027">
        <ele>160.99752807617</ele>
        <time>2013-10-13T11:20:52Z</time>
      </trkpt>
      <trkpt lat="43.36281" lon="6.69028">
        <ele>161</ele>
        <time>2013-10-13T11:20:53Z</time>
      </trkpt>
      <trkpt lat="43.36279" lon="6.69037">
        <ele>163</ele>
        <time>2013-10-13T11:21:06Z</time>
      </trkpt>
      <trkpt lat="43.36278" lon="6.69039">
        <ele>163</ele>
        <time>2013-10-13T11:21:10Z</time>
      </trkpt>
      <trkpt lat="43.36275" lon="6.69049">
        <ele>163</ele>
        <time>2013-10-13T11:21:19Z</time>
      </trkpt>
      <trkpt lat="43.36274" lon="6.69062">
        <ele>165</ele>
        <time>2013-10-13T11:21:25Z</time>
      </trkpt>
      <trkpt lat="43.36274" lon="6.69079">
        <ele>165</ele>
        <time>2013-10-13T11:21:30Z</time>
      </trkpt>
      <trkpt lat="43.36271" lon="6.69097">
        <ele>165</ele>
        <time>2013-10-13T11:21:34Z</time>
      </trkpt>
      <trkpt lat="43.3627" lon="6.69113">
        <ele>165</ele>
        <time>2013-10-13T11:21:37Z</time>
      </trkpt>
      <trkpt lat="43.36273" lon="6.69129">
        <ele>165</ele>
        <time>2013-10-13T11:21:40Z</time>
      </trkpt>
      <trkpt lat="43.36282" lon="6.69142">
        <ele>165</ele>
        <time>2013-10-13T11:21:44Z</time>
      </trkpt>
      <trkpt lat="43.36285" lon="6.69158">
        <ele>165</ele>
        <time>2013-10-13T11:21:48Z</time>
      </trkpt>
      <trkpt lat="43.36285" lon="6.69176">
        <ele>165</ele>
        <time>2013-10-13T11:21:51Z</time>
      </trkpt>
      <trkpt lat="43.36286" lon="6.69194">
        <ele>165</ele>
        <time>2013-10-13T11:21:53Z</time>
      </trkpt>
      <trkpt lat="43.36288" lon="6.69211">
        <ele>165</ele>
        <time>2013-10-13T11:21:55Z</time>
      </trkpt>
      <trkpt lat="43.36295" lon="6.69223">
        <ele>165</ele>
        <time>2013-10-13T11:21:57Z</time>
      </trkpt>
      <trkpt lat="43.36307" lon="6.69225">
        <ele>165</ele>
        <time>2013-10-13T11:21:59Z</time>
      </trkpt>
      <trkpt lat="43.36322" lon="6.69227">
        <ele>156.38998413086</ele>
        <time>2013-10-13T11:22:01Z</time>
      </trkpt>
      <trkpt lat="43.36337" lon="6.69236">
        <ele>155</ele>
        <time>2013-10-13T11:22:03Z</time>
      </trkpt>
      <trkpt lat="43.36351" lon="6.69251">
        <ele>152.77998352051</ele>
        <time>2013-10-13T11:22:05Z</time>
      </trkpt>
      <trkpt lat="43.36366" lon="6.69267">
        <ele>150.38998413086</ele>
        <time>2013-10-13T11:22:07Z</time>
      </trkpt>
      <trkpt lat="43.36382" lon="6.6928">
        <ele>149.40196228027</ele>
        <time>2013-10-13T11:22:09Z</time>
      </trkpt>
      <trkpt lat="43.364" lon="6.69289">
        <ele>148.48999023438</ele>
        <time>2013-10-13T11:22:11Z</time>
      </trkpt>
      <trkpt lat="43.36419" lon="6.69297">
        <ele>146.48999023438</ele>
        <time>2013-10-13T11:22:13Z</time>
      </trkpt>
      <trkpt lat="43.36436" lon="6.69306">
        <ele>143.48999023438</ele>
        <time>2013-10-13T11:22:15Z</time>
      </trkpt>
      <trkpt lat="43.36449" lon="6.69323">
        <ele>141.48999023438</ele>
        <time>2013-10-13T11:22:17Z</time>
      </trkpt>
      <trkpt lat="43.36456" lon="6.69343">
        <ele>140.53210449219</ele>
        <time>2013-10-13T11:22:19Z</time>
      </trkpt>
      <trkpt lat="43.36459" lon="6.69363">
        <ele>140</ele>
        <time>2013-10-13T11:22:21Z</time>
      </trkpt>
      <trkpt lat="43.3646" lon="6.6938">
        <ele>140.61001586914</ele>
        <time>2013-10-13T11:22:23Z</time>
      </trkpt>
      <trkpt lat="43.36459" lon="6.69396">
        <ele>141.61001586914</ele>
        <time>2013-10-13T11:22:25Z</time>
      </trkpt>
      <trkpt lat="43.36457" lon="6.69413">
        <ele>142</ele>
        <time>2013-10-13T11:22:27Z</time>
      </trkpt>
      <trkpt lat="43.36453" lon="6.69429">
        <ele>141</ele>
        <time>2013-10-13T11:22:29Z</time>
      </trkpt>
      <trkpt lat="43.36453" lon="6.69449">
        <ele>140</ele>
        <time>2013-10-13T11:22:31Z</time>
      </trkpt>
      <trkpt lat="43.36461" lon="6.69468">
        <ele>140</ele>
        <time>2013-10-13T11:22:33Z</time>
      </trkpt>
      <trkpt lat="43.3647" lon="6.69478">
        <ele>140</ele>
        <time>2013-10-13T11:22:34Z</time>
      </trkpt>
      <trkpt lat="43.36479" lon="6.69486">
        <ele>140</ele>
        <time>2013-10-13T11:22:35Z</time>
      </trkpt>
      <trkpt lat="43.36488" lon="6.69493">
        <ele>140</ele>
        <time>2013-10-13T11:22:36Z</time>
      </trkpt>
      <trkpt lat="43.36497" lon="6.69501">
        <ele>140</ele>
        <time>2013-10-13T11:22:37Z</time>
      </trkpt>
      <trkpt lat="43.36504" lon="6.69511">
        <ele>140</ele>
        <time>2013-10-13T11:22:38Z</time>
      </trkpt>
      <trkpt lat="43.36512" lon="6.69535">
        <ele>136.34001159668</ele>
        <time>2013-10-13T11:22:40Z</time>
      </trkpt>
      <trkpt lat="43.36518" lon="6.69558">
        <ele>130.38999938965</ele>
        <time>2013-10-13T11:22:42Z</time>
      </trkpt>
      <trkpt lat="43.36528" lon="6.69578">
        <ele>130</ele>
        <time>2013-10-13T11:22:44Z</time>
      </trkpt>
      <trkpt lat="43.36537" lon="6.69597">
        <ele>130</ele>
        <time>2013-10-13T11:22:46Z</time>
      </trkpt>
      <trkpt lat="43.36543" lon="6.69617">
        <ele>130</ele>
        <time>2013-10-13T11:22:48Z</time>
      </trkpt>
      <trkpt lat="43.36545" lon="6.69628">
        <ele>129.38998413086</ele>
        <time>2013-10-13T11:22:49Z</time>
      </trkpt>
      <trkpt lat="43.36547" lon="6.69639">
        <ele>129</ele>
        <time>2013-10-13T11:22:50Z</time>
      </trkpt>
      <trkpt lat="43.36554" lon="6.69661">
        <ele>129</ele>
        <time>2013-10-13T11:22:52Z</time>
      </trkpt>
      <trkpt lat="43.36563" lon="6.69682">
        <ele>129</ele>
        <time>2013-10-13T11:22:54Z</time>
      </trkpt>
      <trkpt lat="43.3657" lon="6.69702">
        <ele>124</ele>
        <time>2013-10-13T11:22:56Z</time>
      </trkpt>
      <trkpt lat="43.36576" lon="6.69718">
        <ele>124</ele>
        <time>2013-10-13T11:22:58Z</time>
      </trkpt>
      <trkpt lat="43.36578" lon="6.69732">
        <ele>120.54904174805</ele>
        <time>2013-10-13T11:23:00Z</time>
      </trkpt>
      <trkpt lat="43.36568" lon="6.69725">
        <ele>116</ele>
        <time>2013-10-13T11:23:06Z</time>
      </trkpt>
      <trkpt lat="43.36562" lon="6.69716">
        <ele>118</ele>
        <time>2013-10-13T11:23:09Z</time>
      </trkpt>
      <trkpt lat="43.36556" lon="6.69707">
        <ele>118</ele>
        <time>2013-10-13T11:23:12Z</time>
      </trkpt>
      <trkpt lat="43.3655" lon="6.69699">
        <ele>118</ele>
        <time>2013-10-13T11:23:15Z</time>
      </trkpt>
      <trkpt lat="43.36543" lon="6.69691">
        <ele>118</ele>
        <time>2013-10-13T11:23:18Z</time>
      </trkpt>
      <trkpt lat="43.36537" lon="6.69684">
        <ele>119</ele>
        <time>2013-10-13T11:23:21Z</time>
      </trkpt>
      <trkpt lat="43.36531" lon="6.69678">
        <ele>119</ele>
        <time>2013-10-13T11:23:24Z</time>
      </trkpt>
      <trkpt lat="43.36525" lon="6.69674">
        <ele>119</ele>
        <time>2013-10-13T11:23:27Z</time>
      </trkpt>
      <trkpt lat="43.36518" lon="6.6967">
        <ele>120.53000640869</ele>
        <time>2013-10-13T11:23:30Z</time>
      </trkpt>
      <trkpt lat="43.36512" lon="6.69666">
        <ele>122</ele>
        <time>2013-10-13T11:23:33Z</time>
      </trkpt>
      <trkpt lat="43.36504" lon="6.69666">
        <ele>124</ele>
        <time>2013-10-13T11:23:37Z</time>
      </trkpt>
      <trkpt lat="43.36497" lon="6.69672">
        <ele>124</ele>
        <time>2013-10-13T11:23:41Z</time>
      </trkpt>
      <trkpt lat="43.36491" lon="6.69682">
        <ele>124</ele>
        <time>2013-10-13T11:23:45Z</time>
      </trkpt>
      <trkpt lat="43.36485" lon="6.69693">
        <ele>124</ele>
        <time>2013-10-13T11:23:48Z</time>
      </trkpt>
      <trkpt lat="43.36479" lon="6.69703">
        <ele>125</ele>
        <time>2013-10-13T11:23:51Z</time>
      </trkpt>
      <trkpt lat="43.36472" lon="6.69711">
        <ele>125</ele>
        <time>2013-10-13T11:23:54Z</time>
      </trkpt>
      <trkpt lat="43.36465" lon="6.69717">
        <ele>125</ele>
        <time>2013-10-13T11:23:57Z</time>
      </trkpt>
      <trkpt lat="43.36454" lon="6.69723">
        <ele>126</ele>
        <time>2013-10-13T11:24:02Z</time>
      </trkpt>
      <trkpt lat="43.36446" lon="6.69725">
        <ele>126</ele>
        <time>2013-10-13T11:24:07Z</time>
      </trkpt>
      <trkpt lat="43.36439" lon="6.69724">
        <ele>128</ele>
        <time>2013-10-13T11:24:11Z</time>
      </trkpt>
      <trkpt lat="43.36431" lon="6.69722">
        <ele>128.61000061035</ele>
        <time>2013-10-13T11:24:16Z</time>
      </trkpt>
      <trkpt lat="43.36426" lon="6.69719">
        <ele>130.2200012207</ele>
        <time>2013-10-13T11:24:20Z</time>
      </trkpt>
      <trkpt lat="43.36421" lon="6.69717">
        <ele>131</ele>
        <time>2013-10-13T11:24:24Z</time>
      </trkpt>
      <trkpt lat="43.36416" lon="6.69715">
        <ele>131</ele>
        <time>2013-10-13T11:24:28Z</time>
      </trkpt>
      <trkpt lat="43.36411" lon="6.69712">
        <ele>134</ele>
        <time>2013-10-13T11:24:33Z</time>
      </trkpt>
      <trkpt lat="43.36406" lon="6.69709">
        <ele>136</ele>
        <time>2013-10-13T11:24:37Z</time>
      </trkpt>
      <trkpt lat="43.36398" lon="6.69702">
        <ele>137.61001586914</ele>
        <time>2013-10-13T11:24:45Z</time>
      </trkpt>
      <trkpt lat="43.3639" lon="6.69695">
        <ele>138</ele>
        <time>2013-10-13T11:24:53Z</time>
      </trkpt>
      <trkpt lat="43.36382" lon="6.69688">
        <ele>141</ele>
        <time>2013-10-13T11:25:01Z</time>
      </trkpt>
      <trkpt lat="43.36374" lon="6.69681">
        <ele>141.4285736084</ele>
        <time>2013-10-13T11:25:10Z</time>
      </trkpt>
      <trkpt lat="43.36365" lon="6.69675">
        <ele>144</ele>
        <time>2013-10-13T11:25:21Z</time>
      </trkpt>
      <trkpt lat="43.3636" lon="6.69675">
        <ele>144</ele>
        <time>2013-10-13T11:25:28Z</time>
      </trkpt>
      <trkpt lat="43.36359" lon="6.69674">
        <ele>145</ele>
        <time>2013-10-13T11:25:35Z</time>
      </trkpt>
      <trkpt lat="43.36357" lon="6.69673">
        <ele>145</ele>
        <time>2013-10-13T11:25:38Z</time>
      </trkpt>
      <trkpt lat="43.36355" lon="6.69673">
        <ele>145</ele>
        <time>2013-10-13T11:25:42Z</time>
      </trkpt>
      <trkpt lat="43.36355" lon="6.69672">
        <ele>145</ele>
        <time>2013-10-13T11:25:43Z</time>
      </trkpt>
      <trkpt lat="43.36345" lon="6.69671">
        <ele>147</ele>
        <time>2013-10-13T11:25:58Z</time>
      </trkpt>
      <trkpt lat="43.3634" lon="6.69672">
        <ele>149</ele>
        <time>2013-10-13T11:26:08Z</time>
      </trkpt>
      <trkpt lat="43.36338" lon="6.69671">
        <ele>150</ele>
        <time>2013-10-13T11:26:10Z</time>
      </trkpt>
      <trkpt lat="43.36335" lon="6.69671">
        <ele>150</ele>
        <time>2013-10-13T11:26:15Z</time>
      </trkpt>
      <trkpt lat="43.36325" lon="6.69669">
        <ele>152</ele>
        <time>2013-10-13T11:26:28Z</time>
      </trkpt>
      <trkpt lat="43.36315" lon="6.69667">
        <ele>156</ele>
        <time>2013-10-13T11:26:42Z</time>
      </trkpt>
      <trkpt lat="43.36307" lon="6.69662">
        <ele>157</ele>
        <time>2013-10-13T11:26:54Z</time>
      </trkpt>
      <trkpt lat="43.36298" lon="6.69656">
        <ele>159</ele>
        <time>2013-10-13T11:27:05Z</time>
      </trkpt>
      <trkpt lat="43.36288" lon="6.69647">
        <ele>160</ele>
        <time>2013-10-13T11:27:15Z</time>
      </trkpt>
      <trkpt lat="43.3628" lon="6.69636">
        <ele>162</ele>
        <time>2013-10-13T11:27:22Z</time>
      </trkpt>
      <trkpt lat="43.36273" lon="6.69624">
        <ele>162</ele>
        <time>2013-10-13T11:27:29Z</time>
      </trkpt>
      <trkpt lat="43.36265" lon="6.69613">
        <ele>163</ele>
        <time>2013-10-13T11:27:36Z</time>
      </trkpt>
      <trkpt lat="43.36256" lon="6.69604">
        <ele>166</ele>
        <time>2013-10-13T11:27:44Z</time>
      </trkpt>
      <trkpt lat="43.36248" lon="6.69596">
        <ele>168</ele>
        <time>2013-10-13T11:27:52Z</time>
      </trkpt>
      <trkpt lat="43.36241" lon="6.69588">
        <ele>168</ele>
        <time>2013-10-13T11:27:59Z</time>
      </trkpt>
      <trkpt lat="43.36233" lon="6.69579">
        <ele>171</ele>
        <time>2013-10-13T11:28:07Z</time>
      </trkpt>
      <trkpt lat="43.36227" lon="6.69569">
        <ele>172</ele>
        <time>2013-10-13T11:28:14Z</time>
      </trkpt>
      <trkpt lat="43.36222" lon="6.69557">
        <ele>174</ele>
        <time>2013-10-13T11:28:23Z</time>
      </trkpt>
      <trkpt lat="43.36217" lon="6.69546">
        <ele>175</ele>
        <time>2013-10-13T11:28:31Z</time>
      </trkpt>
      <trkpt lat="43.36215" lon="6.69538">
        <ele>177</ele>
        <time>2013-10-13T11:28:40Z</time>
      </trkpt>
      <trkpt lat="43.36213" lon="6.69535">
        <ele>177</ele>
        <time>2013-10-13T11:28:48Z</time>
      </trkpt>
      <trkpt lat="43.36213" lon="6.69534">
        <ele>177</ele>
        <time>2013-10-13T11:28:49Z</time>
      </trkpt>
      <trkpt lat="43.36206" lon="6.69528">
        <ele>181</ele>
        <time>2013-10-13T11:29:01Z</time>
      </trkpt>
      <trkpt lat="43.36198" lon="6.69522">
        <ele>181</ele>
        <time>2013-10-13T11:29:12Z</time>
      </trkpt>
      <trkpt lat="43.36197" lon="6.69522">
        <ele>181</ele>
        <time>2013-10-13T11:29:14Z</time>
      </trkpt>
      <trkpt lat="43.36196" lon="6.69522">
        <ele>181</ele>
        <time>2013-10-13T11:29:16Z</time>
      </trkpt>
      <trkpt lat="43.36189" lon="6.69516">
        <ele>182</ele>
        <time>2013-10-13T11:29:22Z</time>
      </trkpt>
      <trkpt lat="43.36179" lon="6.69508">
        <ele>183.02000427246</ele>
        <time>2013-10-13T11:29:30Z</time>
      </trkpt>
      <trkpt lat="43.36172" lon="6.695">
        <ele>183</ele>
        <time>2013-10-13T11:29:37Z</time>
      </trkpt>
      <trkpt lat="43.36163" lon="6.69491">
        <ele>185</ele>
        <time>2013-10-13T11:29:45Z</time>
      </trkpt>
      <trkpt lat="43.36155" lon="6.69484">
        <ele>186</ele>
        <time>2013-10-13T11:29:53Z</time>
      </trkpt>
      <trkpt lat="43.36146" lon="6.69475">
        <ele>187</ele>
        <time>2013-10-13T11:30:01Z</time>
      </trkpt>
      <trkpt lat="43.36137" lon="6.69471">
        <ele>187</ele>
        <time>2013-10-13T11:30:08Z</time>
      </trkpt>
      <trkpt lat="43.36126" lon="6.6947">
        <ele>189</ele>
        <time>2013-10-13T11:30:15Z</time>
      </trkpt>
      <trkpt lat="43.36118" lon="6.6947">
        <ele>190.82998657227</ele>
        <time>2013-10-13T11:30:20Z</time>
      </trkpt>
      <trkpt lat="43.36111" lon="6.6947">
        <ele>192</ele>
        <time>2013-10-13T11:30:24Z</time>
      </trkpt>
      <trkpt lat="43.36103" lon="6.69471">
        <ele>192</ele>
        <time>2013-10-13T11:30:28Z</time>
      </trkpt>
      <trkpt lat="43.36094" lon="6.69471">
        <ele>193</ele>
        <time>2013-10-13T11:30:32Z</time>
      </trkpt>
      <trkpt lat="43.36086" lon="6.69468">
        <ele>193</ele>
        <time>2013-10-13T11:30:35Z</time>
      </trkpt>
      <trkpt lat="43.36078" lon="6.69467">
        <ele>193</ele>
        <time>2013-10-13T11:30:37Z</time>
      </trkpt>
      <trkpt lat="43.36068" lon="6.69473">
        <ele>193</ele>
        <time>2013-10-13T11:30:39Z</time>
      </trkpt>
      <trkpt lat="43.36063" lon="6.69485">
        <ele>191</ele>
        <time>2013-10-13T11:30:41Z</time>
      </trkpt>
      <trkpt lat="43.36058" lon="6.69499">
        <ele>191</ele>
        <time>2013-10-13T11:30:44Z</time>
      </trkpt>
      <trkpt lat="43.36055" lon="6.69521">
        <ele>191</ele>
        <time>2013-10-13T11:30:47Z</time>
      </trkpt>
      <trkpt lat="43.36057" lon="6.69542">
        <ele>191</ele>
        <time>2013-10-13T11:30:49Z</time>
      </trkpt>
      <trkpt lat="43.3606" lon="6.69563">
        <ele>186</ele>
        <time>2013-10-13T11:30:51Z</time>
      </trkpt>
      <trkpt lat="43.36064" lon="6.69572">
        <ele>186</ele>
        <time>2013-10-13T11:30:52Z</time>
      </trkpt>
      <trkpt lat="43.36068" lon="6.6958">
        <ele>186</ele>
        <time>2013-10-13T11:30:53Z</time>
      </trkpt>
      <trkpt lat="43.36073" lon="6.69589">
        <ele>186</ele>
        <time>2013-10-13T11:30:54Z</time>
      </trkpt>
      <trkpt lat="43.36077" lon="6.69597">
        <ele>182.33993530273</ele>
        <time>2013-10-13T11:30:55Z</time>
      </trkpt>
      <trkpt lat="43.36082" lon="6.6961">
        <ele>180</ele>
        <time>2013-10-13T11:30:57Z</time>
      </trkpt>
      <trkpt lat="43.36083" lon="6.69623">
        <ele>180</ele>
        <time>2013-10-13T11:30:59Z</time>
      </trkpt>
      <trkpt lat="43.36083" lon="6.6964">
        <ele>171.46998596191</ele>
        <time>2013-10-13T11:31:01Z</time>
      </trkpt>
      <trkpt lat="43.36081" lon="6.69661">
        <ele>168.38998413086</ele>
        <time>2013-10-13T11:31:03Z</time>
      </trkpt>
      <trkpt lat="43.36082" lon="6.69682">
        <ele>167.40196228027</ele>
        <time>2013-10-13T11:31:05Z</time>
      </trkpt>
      <trkpt lat="43.36091" lon="6.69699">
        <ele>165.38998413086</ele>
        <time>2013-10-13T11:31:07Z</time>
      </trkpt>
      <trkpt lat="43.36103" lon="6.69714">
        <ele>164</ele>
        <time>2013-10-13T11:31:09Z</time>
      </trkpt>
      <trkpt lat="43.36114" lon="6.69731">
        <ele>163</ele>
        <time>2013-10-13T11:31:11Z</time>
      </trkpt>
      <trkpt lat="43.36123" lon="6.69746">
        <ele>162</ele>
        <time>2013-10-13T11:31:13Z</time>
      </trkpt>
      <trkpt lat="43.36129" lon="6.69764">
        <ele>161.38998413086</ele>
        <time>2013-10-13T11:31:15Z</time>
      </trkpt>
      <trkpt lat="43.36133" lon="6.69784">
        <ele>160</ele>
        <time>2013-10-13T11:31:17Z</time>
      </trkpt>
      <trkpt lat="43.36135" lon="6.69804">
        <ele>157.38998413086</ele>
        <time>2013-10-13T11:31:19Z</time>
      </trkpt>
      <trkpt lat="43.36136" lon="6.69822">
        <ele>155.38998413086</ele>
        <time>2013-10-13T11:31:21Z</time>
      </trkpt>
      <trkpt lat="43.36134" lon="6.69836">
        <ele>155</ele>
        <time>2013-10-13T11:31:23Z</time>
      </trkpt>
      <trkpt lat="43.36126" lon="6.69842">
        <ele>152.38998413086</ele>
        <time>2013-10-13T11:31:25Z</time>
      </trkpt>
      <trkpt lat="43.36117" lon="6.69837">
        <ele>150.38998413086</ele>
        <time>2013-10-13T11:31:27Z</time>
      </trkpt>
      <trkpt lat="43.36108" lon="6.69829">
        <ele>150</ele>
        <time>2013-10-13T11:31:29Z</time>
      </trkpt>
      <trkpt lat="43.36101" lon="6.69821">
        <ele>149.38998413086</ele>
        <time>2013-10-13T11:31:31Z</time>
      </trkpt>
      <trkpt lat="43.36094" lon="6.69815">
        <ele>149</ele>
        <time>2013-10-13T11:31:33Z</time>
      </trkpt>
      <trkpt lat="43.36085" lon="6.69807">
        <ele>147.38998413086</ele>
        <time>2013-10-13T11:31:35Z</time>
      </trkpt>
      <trkpt lat="43.36076" lon="6.69799">
        <ele>147</ele>
        <time>2013-10-13T11:31:37Z</time>
      </trkpt>
      <trkpt lat="43.36066" lon="6.69791">
        <ele>146.40196228027</ele>
        <time>2013-10-13T11:31:39Z</time>
      </trkpt>
      <trkpt lat="43.36062" lon="6.69787">
        <ele>146</ele>
        <time>2013-10-13T11:31:40Z</time>
      </trkpt>
      <trkpt lat="43.36054" lon="6.6978">
        <ele>146</ele>
        <time>2013-10-13T11:31:42Z</time>
      </trkpt>
      <trkpt lat="43.36047" lon="6.69774">
        <ele>146</ele>
        <time>2013-10-13T11:31:44Z</time>
      </trkpt>
      <trkpt lat="43.36039" lon="6.69768">
        <ele>144</ele>
        <time>2013-10-13T11:31:46Z</time>
      </trkpt>
      <trkpt lat="43.36029" lon="6.69759">
        <ele>144</ele>
        <time>2013-10-13T11:31:49Z</time>
      </trkpt>
      <trkpt lat="43.36019" lon="6.69755">
        <ele>137.38999938965</ele>
        <time>2013-10-13T11:31:52Z</time>
      </trkpt>
      <trkpt lat="43.36009" lon="6.69748">
        <ele>134.38998413086</ele>
        <time>2013-10-13T11:31:55Z</time>
      </trkpt>
      <trkpt lat="43.36" lon="6.69737">
        <ele>131</ele>
        <time>2013-10-13T11:31:59Z</time>
      </trkpt>
      <trkpt lat="43.35996" lon="6.69728">
        <ele>129</ele>
        <time>2013-10-13T11:32:01Z</time>
      </trkpt>
      <trkpt lat="43.35985" lon="6.69723">
        <ele>127.38999938965</ele>
        <time>2013-10-13T11:32:04Z</time>
      </trkpt>
      <trkpt lat="43.35976" lon="6.6972">
        <ele>126.38999938965</ele>
        <time>2013-10-13T11:32:06Z</time>
      </trkpt>
      <trkpt lat="43.35968" lon="6.69715">
        <ele>124.46938323975</ele>
        <time>2013-10-13T11:32:08Z</time>
      </trkpt>
      <trkpt lat="43.35959" lon="6.69707">
        <ele>123</ele>
        <time>2013-10-13T11:32:13Z</time>
      </trkpt>
      <trkpt lat="43.35961" lon="6.69724">
        <ele>120</ele>
        <time>2013-10-13T11:32:24Z</time>
      </trkpt>
      <trkpt lat="43.35966" lon="6.69737">
        <ele>119</ele>
        <time>2013-10-13T11:32:26Z</time>
      </trkpt>
      <trkpt lat="43.3597" lon="6.69752">
        <ele>119</ele>
        <time>2013-10-13T11:32:28Z</time>
      </trkpt>
      <trkpt lat="43.35971" lon="6.69769">
        <ele>117.36109924316</ele>
        <time>2013-10-13T11:32:30Z</time>
      </trkpt>
      <trkpt lat="43.35975" lon="6.69786">
        <ele>116</ele>
        <time>2013-10-13T11:32:32Z</time>
      </trkpt>
      <trkpt lat="43.35982" lon="6.69803">
        <ele>116</ele>
        <time>2013-10-13T11:32:34Z</time>
      </trkpt>
      <trkpt lat="43.35992" lon="6.69816">
        <ele>113</ele>
        <time>2013-10-13T11:32:36Z</time>
      </trkpt>
      <trkpt lat="43.36002" lon="6.69832">
        <ele>113</ele>
        <time>2013-10-13T11:32:38Z</time>
      </trkpt>
      <trkpt lat="43.36013" lon="6.6985">
        <ele>111.97999572754</ele>
        <time>2013-10-13T11:32:40Z</time>
      </trkpt>
      <trkpt lat="43.36022" lon="6.69869">
        <ele>111</ele>
        <time>2013-10-13T11:32:42Z</time>
      </trkpt>
      <trkpt lat="43.36032" lon="6.69888">
        <ele>111</ele>
        <time>2013-10-13T11:32:44Z</time>
      </trkpt>
      <trkpt lat="43.36039" lon="6.69907">
        <ele>105</ele>
        <time>2013-10-13T11:32:46Z</time>
      </trkpt>
      <trkpt lat="43.36042" lon="6.69927">
        <ele>105</ele>
        <time>2013-10-13T11:32:48Z</time>
      </trkpt>
      <trkpt lat="43.36048" lon="6.69944">
        <ele>103.17000579834</ele>
        <time>2013-10-13T11:32:50Z</time>
      </trkpt>
      <trkpt lat="43.36056" lon="6.69961">
        <ele>100.38999938965</ele>
        <time>2013-10-13T11:32:52Z</time>
      </trkpt>
      <trkpt lat="43.36058" lon="6.6998">
        <ele>99</ele>
        <time>2013-10-13T11:32:54Z</time>
      </trkpt>
      <trkpt lat="43.36062" lon="6.7">
        <ele>98</ele>
        <time>2013-10-13T11:32:56Z</time>
      </trkpt>
      <trkpt lat="43.36068" lon="6.70018">
        <ele>96.401969909668</ele>
        <time>2013-10-13T11:32:58Z</time>
      </trkpt>
      <trkpt lat="43.36076" lon="6.70033">
        <ele>95.48999786377</ele>
        <time>2013-10-13T11:33:00Z</time>
      </trkpt>
      <trkpt lat="43.36082" lon="6.70048">
        <ele>94.289993286133</ele>
        <time>2013-10-13T11:33:02Z</time>
      </trkpt>
      <trkpt lat="43.36086" lon="6.70064">
        <ele>94</ele>
        <time>2013-10-13T11:33:04Z</time>
      </trkpt>
      <trkpt lat="43.36092" lon="6.70082">
        <ele>93</ele>
        <time>2013-10-13T11:33:06Z</time>
      </trkpt>
      <trkpt lat="43.36099" lon="6.70098">
        <ele>92</ele>
        <time>2013-10-13T11:33:08Z</time>
      </trkpt>
      <trkpt lat="43.36106" lon="6.70115">
        <ele>92</ele>
        <time>2013-10-13T11:33:10Z</time>
      </trkpt>
      <trkpt lat="43.36112" lon="6.70134">
        <ele>92</ele>
        <time>2013-10-13T11:33:12Z</time>
      </trkpt>
      <trkpt lat="43.36123" lon="6.70148">
        <ele>92</ele>
        <time>2013-10-13T11:33:14Z</time>
      </trkpt>
      <trkpt lat="43.36138" lon="6.70156">
        <ele>89</ele>
        <time>2013-10-13T11:33:16Z</time>
      </trkpt>
      <trkpt lat="43.36153" lon="6.70161">
        <ele>89</ele>
        <time>2013-10-13T11:33:18Z</time>
      </trkpt>
      <trkpt lat="43.36168" lon="6.70159">
        <ele>87.469993591309</ele>
        <time>2013-10-13T11:33:20Z</time>
      </trkpt>
      <trkpt lat="43.36181" lon="6.7015">
        <ele>84</ele>
        <time>2013-10-13T11:33:22Z</time>
      </trkpt>
      <trkpt lat="43.36194" lon="6.70151">
        <ele>82.289993286133</ele>
        <time>2013-10-13T11:33:24Z</time>
      </trkpt>
      <trkpt lat="43.36205" lon="6.70161">
        <ele>81</ele>
        <time>2013-10-13T11:33:26Z</time>
      </trkpt>
      <trkpt lat="43.36213" lon="6.70171">
        <ele>80.48999786377</ele>
        <time>2013-10-13T11:33:28Z</time>
      </trkpt>
      <trkpt lat="43.36217" lon="6.70188">
        <ele>79</ele>
        <time>2013-10-13T11:33:30Z</time>
      </trkpt>
      <trkpt lat="43.36224" lon="6.70201">
        <ele>79</ele>
        <time>2013-10-13T11:33:32Z</time>
      </trkpt>
      <trkpt lat="43.36232" lon="6.70214">
        <ele>77.48999786377</ele>
        <time>2013-10-13T11:33:34Z</time>
      </trkpt>
      <trkpt lat="43.36234" lon="6.70232">
        <ele>75.48999786377</ele>
        <time>2013-10-13T11:33:37Z</time>
      </trkpt>
      <trkpt lat="43.3624" lon="6.70251">
        <ele>75</ele>
        <time>2013-10-13T11:33:40Z</time>
      </trkpt>
      <trkpt lat="43.36245" lon="6.70263">
        <ele>75</ele>
        <time>2013-10-13T11:33:42Z</time>
      </trkpt>
      <trkpt lat="43.36247" lon="6.70283">
        <ele>73.979995727539</ele>
        <time>2013-10-13T11:33:45Z</time>
      </trkpt>
      <trkpt lat="43.36254" lon="6.70295">
        <ele>73</ele>
        <time>2013-10-13T11:33:47Z</time>
      </trkpt>
      <trkpt lat="43.36264" lon="6.70305">
        <ele>73</ele>
        <time>2013-10-13T11:33:49Z</time>
      </trkpt>
      <trkpt lat="43.36275" lon="6.70311">
        <ele>71</ele>
        <time>2013-10-13T11:33:51Z</time>
      </trkpt>
      <trkpt lat="43.36285" lon="6.7031">
        <ele>71</ele>
        <time>2013-10-13T11:33:53Z</time>
      </trkpt>
      <trkpt lat="43.36297" lon="6.703">
        <ele>68</ele>
        <time>2013-10-13T11:33:56Z</time>
      </trkpt>
      <trkpt lat="43.36306" lon="6.70287">
        <ele>68</ele>
        <time>2013-10-13T11:33:59Z</time>
      </trkpt>
      <trkpt lat="43.36316" lon="6.7028">
        <ele>66</ele>
        <time>2013-10-13T11:34:02Z</time>
      </trkpt>
      <trkpt lat="43.36325" lon="6.70286">
        <ele>66</ele>
        <time>2013-10-13T11:34:05Z</time>
      </trkpt>
      <trkpt lat="43.36332" lon="6.70297">
        <ele>66</ele>
        <time>2013-10-13T11:34:08Z</time>
      </trkpt>
      <trkpt lat="43.36338" lon="6.70314">
        <ele>64</ele>
        <time>2013-10-13T11:34:11Z</time>
      </trkpt>
      <trkpt lat="43.36338" lon="6.70331">
        <ele>64</ele>
        <time>2013-10-13T11:34:14Z</time>
      </trkpt>
      <trkpt lat="43.36338" lon="6.70351">
        <ele>64</ele>
        <time>2013-10-13T11:34:17Z</time>
      </trkpt>
      <trkpt lat="43.36338" lon="6.7037">
        <ele>61.86999130249</ele>
        <time>2013-10-13T11:34:20Z</time>
      </trkpt>
      <trkpt lat="43.36338" lon="6.7039">
        <ele>61</ele>
        <time>2013-10-13T11:34:23Z</time>
      </trkpt>
      <trkpt lat="43.36333" lon="6.70408">
        <ele>58</ele>
        <time>2013-10-13T11:34:26Z</time>
      </trkpt>
      <trkpt lat="43.36332" lon="6.70423">
        <ele>58</ele>
        <time>2013-10-13T11:34:28Z</time>
      </trkpt>
      <trkpt lat="43.36332" lon="6.70439">
        <ele>57.142864227295</ele>
        <time>2013-10-13T11:34:30Z</time>
      </trkpt>
      <trkpt lat="43.3633" lon="6.70455">
        <ele>56</ele>
        <time>2013-10-13T11:34:32Z</time>
      </trkpt>
      <trkpt lat="43.36328" lon="6.70472">
        <ele>56</ele>
        <time>2013-10-13T11:34:34Z</time>
      </trkpt>
      <trkpt lat="43.36328" lon="6.70488">
        <ele>54</ele>
        <time>2013-10-13T11:34:36Z</time>
      </trkpt>
      <trkpt lat="43.36334" lon="6.70502">
        <ele>54</ele>
        <time>2013-10-13T11:34:38Z</time>
      </trkpt>
      <trkpt lat="43.36347" lon="6.70507">
        <ele>53.055549621582</ele>
        <time>2013-10-13T11:34:40Z</time>
      </trkpt>
      <trkpt lat="43.3636" lon="6.7051">
        <ele>52</ele>
        <time>2013-10-13T11:34:42Z</time>
      </trkpt>
      <trkpt lat="43.36371" lon="6.70515">
        <ele>52</ele>
        <time>2013-10-13T11:34:44Z</time>
      </trkpt>
      <trkpt lat="43.36382" lon="6.7052">
        <ele>49</ele>
        <time>2013-10-13T11:34:46Z</time>
      </trkpt>
      <trkpt lat="43.36395" lon="6.70515">
        <ele>49</ele>
        <time>2013-10-13T11:34:49Z</time>
      </trkpt>
      <trkpt lat="43.36405" lon="6.70514">
        <ele>47</ele>
        <time>2013-10-13T11:34:52Z</time>
      </trkpt>
      <trkpt lat="43.36416" lon="6.7052">
        <ele>45.979991912842</ele>
        <time>2013-10-13T11:34:55Z</time>
      </trkpt>
      <trkpt lat="43.36429" lon="6.70519">
        <ele>45</ele>
        <time>2013-10-13T11:34:58Z</time>
      </trkpt>
      <trkpt lat="43.36439" lon="6.7052">
        <ele>43.979991912842</ele>
        <time>2013-10-13T11:35:00Z</time>
      </trkpt>
      <trkpt lat="43.36454" lon="6.70514">
        <ele>43</ele>
        <time>2013-10-13T11:35:03Z</time>
      </trkpt>
      <trkpt lat="43.36464" lon="6.70509">
        <ele>42.48999786377</ele>
        <time>2013-10-13T11:35:05Z</time>
      </trkpt>
      <trkpt lat="43.36473" lon="6.70502">
        <ele>42</ele>
        <time>2013-10-13T11:35:07Z</time>
      </trkpt>
      <trkpt lat="43.3648" lon="6.70492">
        <ele>42</ele>
        <time>2013-10-13T11:35:09Z</time>
      </trkpt>
      <trkpt lat="43.36486" lon="6.7048">
        <ele>41</ele>
        <time>2013-10-13T11:35:12Z</time>
      </trkpt>
      <trkpt lat="43.36494" lon="6.70488">
        <ele>41</ele>
        <time>2013-10-13T11:35:16Z</time>
      </trkpt>
      <trkpt lat="43.36505" lon="6.70496">
        <ele>41</ele>
        <time>2013-10-13T11:35:19Z</time>
      </trkpt>
      <trkpt lat="43.36517" lon="6.70494">
        <ele>38</ele>
        <time>2013-10-13T11:35:22Z</time>
      </trkpt>
      <trkpt lat="43.36528" lon="6.70504">
        <ele>36.169971466064</ele>
        <time>2013-10-13T11:35:25Z</time>
      </trkpt>
      <trkpt lat="43.36542" lon="6.70506">
        <ele>35</ele>
        <time>2013-10-13T11:35:28Z</time>
      </trkpt>
      <trkpt lat="43.36553" lon="6.70502">
        <ele>33.780006408691</ele>
        <time>2013-10-13T11:35:30Z</time>
      </trkpt>
      <trkpt lat="43.36563" lon="6.70495">
        <ele>33</ele>
        <time>2013-10-13T11:35:32Z</time>
      </trkpt>
      <trkpt lat="43.36573" lon="6.70502">
        <ele>32.389991760254</ele>
        <time>2013-10-13T11:35:35Z</time>
      </trkpt>
      <trkpt lat="43.36572" lon="6.70517">
        <ele>32</ele>
        <time>2013-10-13T11:35:37Z</time>
      </trkpt>
      <trkpt lat="43.36568" lon="6.70533">
        <ele>32</ele>
        <time>2013-10-13T11:35:39Z</time>
      </trkpt>
      <trkpt lat="43.36565" lon="6.70548">
        <ele>31</ele>
        <time>2013-10-13T11:35:41Z</time>
      </trkpt>
      <trkpt lat="43.36565" lon="6.70565">
        <ele>31</ele>
        <time>2013-10-13T11:35:43Z</time>
      </trkpt>
      <trkpt lat="43.36569" lon="6.70581">
        <ele>31</ele>
        <time>2013-10-13T11:35:45Z</time>
      </trkpt>
      <trkpt lat="43.36574" lon="6.70596">
        <ele>31</ele>
        <time>2013-10-13T11:35:47Z</time>
      </trkpt>
      <trkpt lat="43.3658" lon="6.70608">
        <ele>31</ele>
        <time>2013-10-13T11:35:49Z</time>
      </trkpt>
      <trkpt lat="43.36587" lon="6.70617">
        <ele>30</ele>
        <time>2013-10-13T11:35:51Z</time>
      </trkpt>
      <trkpt lat="43.36596" lon="6.70622">
        <ele>30</ele>
        <time>2013-10-13T11:35:53Z</time>
      </trkpt>
      <trkpt lat="43.36606" lon="6.7063">
        <ele>30</ele>
        <time>2013-10-13T11:35:55Z</time>
      </trkpt>
      <trkpt lat="43.36616" lon="6.7064">
        <ele>30</ele>
        <time>2013-10-13T11:35:57Z</time>
      </trkpt>
      <trkpt lat="43.36623" lon="6.70653">
        <ele>30</ele>
        <time>2013-10-13T11:35:59Z</time>
      </trkpt>
      <trkpt lat="43.36631" lon="6.70665">
        <ele>28</ele>
        <time>2013-10-13T11:36:01Z</time>
      </trkpt>
      <trkpt lat="43.36641" lon="6.70672">
        <ele>28</ele>
        <time>2013-10-13T11:36:03Z</time>
      </trkpt>
      <trkpt lat="43.36652" lon="6.70671">
        <ele>28</ele>
        <time>2013-10-13T11:36:05Z</time>
      </trkpt>
      <trkpt lat="43.36662" lon="6.70666">
        <ele>28</ele>
        <time>2013-10-13T11:36:07Z</time>
      </trkpt>
      <trkpt lat="43.36674" lon="6.70661">
        <ele>28</ele>
        <time>2013-10-13T11:36:09Z</time>
      </trkpt>
      <trkpt lat="43.36686" lon="6.70661">
        <ele>28</ele>
        <time>2013-10-13T11:36:11Z</time>
      </trkpt>
      <trkpt lat="43.36696" lon="6.7067">
        <ele>28</ele>
        <time>2013-10-13T11:36:13Z</time>
      </trkpt>
      <trkpt lat="43.36705" lon="6.70685">
        <ele>28</ele>
        <time>2013-10-13T11:36:15Z</time>
      </trkpt>
      <trkpt lat="43.36712" lon="6.70701">
        <ele>28</ele>
        <time>2013-10-13T11:36:17Z</time>
      </trkpt>
      <trkpt lat="43.3672" lon="6.70709">
        <ele>28</ele>
        <time>2013-10-13T11:36:19Z</time>
      </trkpt>
      <trkpt lat="43.36726" lon="6.70693">
        <ele>24</ele>
        <time>2013-10-13T11:36:23Z</time>
      </trkpt>
      <trkpt lat="43.36727" lon="6.70673">
        <ele>20</ele>
        <time>2013-10-13T11:36:26Z</time>
      </trkpt>
      <trkpt lat="43.36729" lon="6.70657">
        <ele>20</ele>
        <time>2013-10-13T11:36:28Z</time>
      </trkpt>
      <trkpt lat="43.36733" lon="6.70641">
        <ele>19.390003204346</ele>
        <time>2013-10-13T11:36:30Z</time>
      </trkpt>
      <trkpt lat="43.36744" lon="6.70631">
        <ele>19</ele>
        <time>2013-10-13T11:36:32Z</time>
      </trkpt>
      <trkpt lat="43.36756" lon="6.70631">
        <ele>19</ele>
        <time>2013-10-13T11:36:34Z</time>
      </trkpt>
      <trkpt lat="43.36765" lon="6.70643">
        <ele>16</ele>
        <time>2013-10-13T11:36:36Z</time>
      </trkpt>
      <trkpt lat="43.36773" lon="6.70652">
        <ele>16</ele>
        <time>2013-10-13T11:36:38Z</time>
      </trkpt>
      <trkpt lat="43.36783" lon="6.70639">
        <ele>14</ele>
        <time>2013-10-13T11:36:42Z</time>
      </trkpt>
      <trkpt lat="43.36789" lon="6.70626">
        <ele>14</ele>
        <time>2013-10-13T11:36:44Z</time>
      </trkpt>
      <trkpt lat="43.36793" lon="6.70612">
        <ele>13</ele>
        <time>2013-10-13T11:36:46Z</time>
      </trkpt>
      <trkpt lat="43.36795" lon="6.70598">
        <ele>13</ele>
        <time>2013-10-13T11:36:48Z</time>
      </trkpt>
      <trkpt lat="43.36792" lon="6.70581">
        <ele>12</ele>
        <time>2013-10-13T11:36:51Z</time>
      </trkpt>
      <trkpt lat="43.36792" lon="6.70566">
        <ele>12</ele>
        <time>2013-10-13T11:36:54Z</time>
      </trkpt>
      <trkpt lat="43.36798" lon="6.7055">
        <ele>12</ele>
        <time>2013-10-13T11:36:57Z</time>
      </trkpt>
      <trkpt lat="43.36794" lon="6.70531">
        <ele>12</ele>
        <time>2013-10-13T11:37:00Z</time>
      </trkpt>
      <trkpt lat="43.36791" lon="6.70518">
        <ele>12</ele>
        <time>2013-10-13T11:37:02Z</time>
      </trkpt>
      <trkpt lat="43.36792" lon="6.70505">
        <ele>12</ele>
        <time>2013-10-13T11:37:04Z</time>
      </trkpt>
      <trkpt lat="43.36793" lon="6.70492">
        <ele>12</ele>
        <time>2013-10-13T11:37:06Z</time>
      </trkpt>
      <trkpt lat="43.36794" lon="6.7048">
        <ele>12</ele>
        <time>2013-10-13T11:37:08Z</time>
      </trkpt>
      <trkpt lat="43.36795" lon="6.70467">
        <ele>12.609996795654</ele>
        <time>2013-10-13T11:37:10Z</time>
      </trkpt>
      <trkpt lat="43.36797" lon="6.70454">
        <ele>13</ele>
        <time>2013-10-13T11:37:12Z</time>
      </trkpt>
      <trkpt lat="43.36799" lon="6.70443">
        <ele>13</ele>
        <time>2013-10-13T11:37:14Z</time>
      </trkpt>
      <trkpt lat="43.36803" lon="6.70433">
        <ele>13</ele>
        <time>2013-10-13T11:37:16Z</time>
      </trkpt>
      <trkpt lat="43.36809" lon="6.70429">
        <ele>13</ele>
        <time>2013-10-13T11:37:18Z</time>
      </trkpt>
      <trkpt lat="43.36816" lon="6.70431">
        <ele>13</ele>
        <time>2013-10-13T11:37:20Z</time>
      </trkpt>
      <trkpt lat="43.36824" lon="6.70435">
        <ele>13</ele>
        <time>2013-10-13T11:37:23Z</time>
      </trkpt>
      <trkpt lat="43.36831" lon="6.70439">
        <ele>13</ele>
        <time>2013-10-13T11:37:26Z</time>
      </trkpt>
      <trkpt lat="43.36838" lon="6.70445">
        <ele>13</ele>
        <time>2013-10-13T11:37:29Z</time>
      </trkpt>
      <trkpt lat="43.36842" lon="6.70449">
        <ele>16</ele>
        <time>2013-10-13T11:37:31Z</time>
      </trkpt>
      <trkpt lat="43.36846" lon="6.70453">
        <ele>16</ele>
        <time>2013-10-13T11:37:33Z</time>
      </trkpt>
      <trkpt lat="43.36849" lon="6.70458">
        <ele>17.380020141602</ele>
        <time>2013-10-13T11:37:35Z</time>
      </trkpt>
      <trkpt lat="43.36854" lon="6.70465">
        <ele>18</ele>
        <time>2013-10-13T11:37:38Z</time>
      </trkpt>
      <trkpt lat="43.36857" lon="6.7047">
        <ele>19.02000617981</ele>
        <time>2013-10-13T11:37:40Z</time>
      </trkpt>
      <trkpt lat="43.3686" lon="6.70474">
        <ele>20</ele>
        <time>2013-10-13T11:37:42Z</time>
      </trkpt>
      <trkpt lat="43.36865" lon="6.70482">
        <ele>20</ele>
        <time>2013-10-13T11:37:45Z</time>
      </trkpt>
      <trkpt lat="43.36869" lon="6.7049">
        <ele>20</ele>
        <time>2013-10-13T11:37:48Z</time>
      </trkpt>
      <trkpt lat="43.36872" lon="6.70497">
        <ele>20</ele>
        <time>2013-10-13T11:37:51Z</time>
      </trkpt>
      <trkpt lat="43.36875" lon="6.70507">
        <ele>20</ele>
        <time>2013-10-13T11:37:55Z</time>
      </trkpt>
      <trkpt lat="43.36876" lon="6.70516">
        <ele>20</ele>
        <time>2013-10-13T11:37:59Z</time>
      </trkpt>
      <trkpt lat="43.36879" lon="6.70527">
        <ele>22</ele>
        <time>2013-10-13T11:38:04Z</time>
      </trkpt>
      <trkpt lat="43.3688" lon="6.70541">
        <ele>24</ele>
        <time>2013-10-13T11:38:11Z</time>
      </trkpt>
      <trkpt lat="43.36885" lon="6.70554">
        <ele>24</ele>
        <time>2013-10-13T11:38:19Z</time>
      </trkpt>
      <trkpt lat="43.36892" lon="6.70553">
        <ele>26</ele>
        <time>2013-10-13T11:38:25Z</time>
      </trkpt>
      <trkpt lat="43.369" lon="6.7055">
        <ele>28</ele>
        <time>2013-10-13T11:38:34Z</time>
      </trkpt>
      <trkpt lat="43.36907" lon="6.70548">
        <ele>31</ele>
        <time>2013-10-13T11:38:42Z</time>
      </trkpt>
      <trkpt lat="43.36917" lon="6.70544">
        <ele>34</ele>
        <time>2013-10-13T11:38:54Z</time>
      </trkpt>
      <trkpt lat="43.36919" lon="6.70544">
        <ele>35</ele>
        <time>2013-10-13T11:38:58Z</time>
      </trkpt>
      <trkpt lat="43.3692" lon="6.70543">
        <ele>35</ele>
        <time>2013-10-13T11:39:00Z</time>
      </trkpt>
      <trkpt lat="43.36921" lon="6.70542">
        <ele>35</ele>
        <time>2013-10-13T11:39:02Z</time>
      </trkpt>
      <trkpt lat="43.36922" lon="6.70542">
        <ele>35</ele>
        <time>2013-10-13T11:39:04Z</time>
      </trkpt>
      <trkpt lat="43.36923" lon="6.70541">
        <ele>35</ele>
        <time>2013-10-13T11:39:07Z</time>
      </trkpt>
      <trkpt lat="43.36923" lon="6.70541">
        <ele>35</ele>
        <time>2013-10-13T11:39:08Z</time>
      </trkpt>
      <trkpt lat="43.36927" lon="6.70538">
        <ele>35.99983215332</ele>
        <time>2013-10-13T11:40:08Z</time>
      </trkpt>
      <trkpt lat="43.36929" lon="6.70538">
        <ele>36</ele>
        <time>2013-10-13T11:40:10Z</time>
      </trkpt>
      <trkpt lat="43.36935" lon="6.70536">
        <ele>37.219993591309</ele>
        <time>2013-10-13T11:40:20Z</time>
      </trkpt>
      <trkpt lat="43.3694" lon="6.70533">
        <ele>38</ele>
        <time>2013-10-13T11:40:28Z</time>
      </trkpt>
      <trkpt lat="43.36945" lon="6.70531">
        <ele>40</ele>
        <time>2013-10-13T11:40:37Z</time>
      </trkpt>
      <trkpt lat="43.36951" lon="6.70528">
        <ele>40</ele>
        <time>2013-10-13T11:40:44Z</time>
      </trkpt>
      <trkpt lat="43.36958" lon="6.70523">
        <ele>42</ele>
        <time>2013-10-13T11:40:53Z</time>
      </trkpt>
      <trkpt lat="43.36961" lon="6.70522">
        <ele>42</ele>
        <time>2013-10-13T11:40:58Z</time>
      </trkpt>
      <trkpt lat="43.36963" lon="6.70522">
        <ele>44</ele>
        <time>2013-10-13T11:41:00Z</time>
      </trkpt>
      <trkpt lat="43.36964" lon="6.70521">
        <ele>44</ele>
        <time>2013-10-13T11:41:02Z</time>
      </trkpt>
      <trkpt lat="43.36972" lon="6.70518">
        <ele>44</ele>
        <time>2013-10-13T11:41:08Z</time>
      </trkpt>
      <trkpt lat="43.36978" lon="6.70515">
        <ele>44</ele>
        <time>2013-10-13T11:41:13Z</time>
      </trkpt>
      <trkpt lat="43.36984" lon="6.7051">
        <ele>44</ele>
        <time>2013-10-13T11:41:19Z</time>
      </trkpt>
      <trkpt lat="43.3699" lon="6.70505">
        <ele>46</ele>
        <time>2013-10-13T11:41:24Z</time>
      </trkpt>
      <trkpt lat="43.36997" lon="6.70499">
        <ele>46</ele>
        <time>2013-10-13T11:41:29Z</time>
      </trkpt>
      <trkpt lat="43.37004" lon="6.70489">
        <ele>48</ele>
        <time>2013-10-13T11:41:36Z</time>
      </trkpt>
      <trkpt lat="43.37011" lon="6.70481">
        <ele>49</ele>
        <time>2013-10-13T11:41:42Z</time>
      </trkpt>
      <trkpt lat="43.37018" lon="6.7047">
        <ele>49</ele>
        <time>2013-10-13T11:41:49Z</time>
      </trkpt>
      <trkpt lat="43.37026" lon="6.7046">
        <ele>50</ele>
        <time>2013-10-13T11:41:56Z</time>
      </trkpt>
      <trkpt lat="43.37032" lon="6.7045">
        <ele>51</ele>
        <time>2013-10-13T11:42:01Z</time>
      </trkpt>
      <trkpt lat="43.37038" lon="6.70441">
        <ele>51</ele>
        <time>2013-10-13T11:42:06Z</time>
      </trkpt>
      <trkpt lat="43.37044" lon="6.70432">
        <ele>52</ele>
        <time>2013-10-13T11:42:11Z</time>
      </trkpt>
      <trkpt lat="43.37049" lon="6.70424">
        <ele>52</ele>
        <time>2013-10-13T11:42:15Z</time>
      </trkpt>
      <trkpt lat="43.37055" lon="6.70417">
        <ele>52</ele>
        <time>2013-10-13T11:42:19Z</time>
      </trkpt>
      <trkpt lat="43.3706" lon="6.70408">
        <ele>53</ele>
        <time>2013-10-13T11:42:23Z</time>
      </trkpt>
      <trkpt lat="43.37066" lon="6.70396">
        <ele>53</ele>
        <time>2013-10-13T11:42:29Z</time>
      </trkpt>
      <trkpt lat="43.37071" lon="6.70388">
        <ele>55</ele>
        <time>2013-10-13T11:42:33Z</time>
      </trkpt>
      <trkpt lat="43.37078" lon="6.70378">
        <ele>55</ele>
        <time>2013-10-13T11:42:38Z</time>
      </trkpt>
      <trkpt lat="43.37085" lon="6.70366">
        <ele>57</ele>
        <time>2013-10-13T11:42:43Z</time>
      </trkpt>
      <trkpt lat="43.37091" lon="6.70359">
        <ele>57</ele>
        <time>2013-10-13T11:42:46Z</time>
      </trkpt>
      <trkpt lat="43.37096" lon="6.70349">
        <ele>57</ele>
        <time>2013-10-13T11:42:49Z</time>
      </trkpt>
      <trkpt lat="43.37099" lon="6.70341">
        <ele>58</ele>
        <time>2013-10-13T11:42:51Z</time>
      </trkpt>
      <trkpt lat="43.37101" lon="6.70332">
        <ele>58</ele>
        <time>2013-10-13T11:42:53Z</time>
      </trkpt>
      <trkpt lat="43.37104" lon="6.70323">
        <ele>58</ele>
        <time>2013-10-13T11:42:55Z</time>
      </trkpt>
      <trkpt lat="43.37107" lon="6.70314">
        <ele>58</ele>
        <time>2013-10-13T11:42:57Z</time>
      </trkpt>
      <trkpt lat="43.37112" lon="6.703">
        <ele>57.419055938721</ele>
        <time>2013-10-13T11:43:00Z</time>
      </trkpt>
      <trkpt lat="43.37118" lon="6.70286">
        <ele>57</ele>
        <time>2013-10-13T11:43:03Z</time>
      </trkpt>
      <trkpt lat="43.37122" lon="6.70273">
        <ele>57</ele>
        <time>2013-10-13T11:43:06Z</time>
      </trkpt>
      <trkpt lat="43.37125" lon="6.70258">
        <ele>57.51000213623</ele>
        <time>2013-10-13T11:43:10Z</time>
      </trkpt>
      <trkpt lat="43.37128" lon="6.70245">
        <ele>58</ele>
        <time>2013-10-13T11:43:15Z</time>
      </trkpt>
      <trkpt lat="43.37131" lon="6.70236">
        <ele>58</ele>
        <time>2013-10-13T11:43:19Z</time>
      </trkpt>
      <trkpt lat="43.37134" lon="6.70222">
        <ele>60</ele>
        <time>2013-10-13T11:43:25Z</time>
      </trkpt>
      <trkpt lat="43.37138" lon="6.70212">
        <ele>61.219993591309</ele>
        <time>2013-10-13T11:43:30Z</time>
      </trkpt>
      <trkpt lat="43.37145" lon="6.70201">
        <ele>62</ele>
        <time>2013-10-13T11:43:36Z</time>
      </trkpt>
      <trkpt lat="43.37154" lon="6.70193">
        <ele>62</ele>
        <time>2013-10-13T11:43:42Z</time>
      </trkpt>
      <trkpt lat="43.37165" lon="6.70188">
        <ele>62</ele>
        <time>2013-10-13T11:43:48Z</time>
      </trkpt>
      <trkpt lat="43.37175" lon="6.70184">
        <ele>63</ele>
        <time>2013-10-13T11:43:54Z</time>
      </trkpt>
      <trkpt lat="43.37186" lon="6.70181">
        <ele>63.760013580322</ele>
        <time>2013-10-13T11:44:00Z</time>
      </trkpt>
      <trkpt lat="43.37196" lon="6.70177">
        <ele>65</ele>
        <time>2013-10-13T11:44:06Z</time>
      </trkpt>
      <trkpt lat="43.37204" lon="6.70174">
        <ele>66</ele>
        <time>2013-10-13T11:44:11Z</time>
      </trkpt>
      <trkpt lat="43.37214" lon="6.7017">
        <ele>66</ele>
        <time>2013-10-13T11:44:17Z</time>
      </trkpt>
      <trkpt lat="43.37223" lon="6.70167">
        <ele>68</ele>
        <time>2013-10-13T11:44:23Z</time>
      </trkpt>
      <trkpt lat="43.3723" lon="6.70165">
        <ele>68</ele>
        <time>2013-10-13T11:44:28Z</time>
      </trkpt>
      <trkpt lat="43.37237" lon="6.70165">
        <ele>71</ele>
        <time>2013-10-13T11:44:33Z</time>
      </trkpt>
      <trkpt lat="43.37243" lon="6.70164">
        <ele>71</ele>
        <time>2013-10-13T11:44:38Z</time>
      </trkpt>
      <trkpt lat="43.37249" lon="6.70164">
        <ele>72</ele>
        <time>2013-10-13T11:44:42Z</time>
      </trkpt>
      <trkpt lat="43.37255" lon="6.70163">
        <ele>72</ele>
        <time>2013-10-13T11:44:46Z</time>
      </trkpt>
      <trkpt lat="43.37261" lon="6.70162">
        <ele>73.219993591309</ele>
        <time>2013-10-13T11:44:50Z</time>
      </trkpt>
      <trkpt lat="43.37267" lon="6.70162">
        <ele>74</ele>
        <time>2013-10-13T11:44:54Z</time>
      </trkpt>
      <trkpt lat="43.37272" lon="6.70162">
        <ele>74</ele>
        <time>2013-10-13T11:44:57Z</time>
      </trkpt>
      <trkpt lat="43.37277" lon="6.70161">
        <ele>75</ele>
        <time>2013-10-13T11:45:01Z</time>
      </trkpt>
      <trkpt lat="43.37283" lon="6.7016">
        <ele>75</ele>
        <time>2013-10-13T11:45:04Z</time>
      </trkpt>
      <trkpt lat="43.37289" lon="6.70156">
        <ele>75</ele>
        <time>2013-10-13T11:45:08Z</time>
      </trkpt>
      <trkpt lat="43.37298" lon="6.70149">
        <ele>77</ele>
        <time>2013-10-13T11:45:15Z</time>
      </trkpt>
      <trkpt lat="43.37305" lon="6.70139">
        <ele>78</ele>
        <time>2013-10-13T11:45:22Z</time>
      </trkpt>
      <trkpt lat="43.3731" lon="6.70125">
        <ele>79.219993591309</ele>
        <time>2013-10-13T11:45:30Z</time>
      </trkpt>
      <trkpt lat="43.37317" lon="6.70113">
        <ele>81.530006408691</ele>
        <time>2013-10-13T11:45:40Z</time>
      </trkpt>
      <trkpt lat="43.37324" lon="6.70104">
        <ele>84</ele>
        <time>2013-10-13T11:45:48Z</time>
      </trkpt>
      <trkpt lat="43.37329" lon="6.70092">
        <ele>85</ele>
        <time>2013-10-13T11:45:58Z</time>
      </trkpt>
      <trkpt lat="43.37336" lon="6.70081">
        <ele>87</ele>
        <time>2013-10-13T11:46:09Z</time>
      </trkpt>
      <trkpt lat="43.37336" lon="6.7008">
        <ele>88</ele>
        <time>2013-10-13T11:46:12Z</time>
      </trkpt>
      <trkpt lat="43.37336" lon="6.70079">
        <ele>88</ele>
        <time>2013-10-13T11:46:14Z</time>
      </trkpt>
      <trkpt lat="43.37341" lon="6.70069">
        <ele>90</ele>
        <time>2013-10-13T11:46:25Z</time>
      </trkpt>
      <trkpt lat="43.37346" lon="6.70057">
        <ele>92</ele>
        <time>2013-10-13T11:46:38Z</time>
      </trkpt>
      <trkpt lat="43.3735" lon="6.7005">
        <ele>93</ele>
        <time>2013-10-13T11:46:46Z</time>
      </trkpt>
      <trkpt lat="43.37353" lon="6.70047">
        <ele>94</ele>
        <time>2013-10-13T11:46:54Z</time>
      </trkpt>
      <trkpt lat="43.37355" lon="6.70045">
        <ele>95</ele>
        <time>2013-10-13T11:47:00Z</time>
      </trkpt>
      <trkpt lat="43.37357" lon="6.7004">
        <ele>95</ele>
        <time>2013-10-13T11:47:05Z</time>
      </trkpt>
      <trkpt lat="43.37358" lon="6.70039">
        <ele>95</ele>
        <time>2013-10-13T11:47:08Z</time>
      </trkpt>
      <trkpt lat="43.37359" lon="6.70035">
        <ele>96</ele>
        <time>2013-10-13T11:47:18Z</time>
      </trkpt>
      <trkpt lat="43.37362" lon="6.70028">
        <ele>96</ele>
        <time>2013-10-13T11:47:23Z</time>
      </trkpt>
      <trkpt lat="43.37367" lon="6.70015">
        <ele>98</ele>
        <time>2013-10-13T11:47:34Z</time>
      </trkpt>
      <trkpt lat="43.37373" lon="6.70008">
        <ele>101</ele>
        <time>2013-10-13T11:47:42Z</time>
      </trkpt>
      <trkpt lat="43.37377" lon="6.70007">
        <ele>102</ele>
        <time>2013-10-13T11:47:50Z</time>
      </trkpt>
      <trkpt lat="43.37378" lon="6.70009">
        <ele>102</ele>
        <time>2013-10-13T11:47:56Z</time>
      </trkpt>
      <trkpt lat="43.3738" lon="6.70013">
        <ele>105</ele>
        <time>2013-10-13T11:48:01Z</time>
      </trkpt>
      <trkpt lat="43.37384" lon="6.70018">
        <ele>105</ele>
        <time>2013-10-13T11:48:09Z</time>
      </trkpt>
      <trkpt lat="43.37391" lon="6.70026">
        <ele>107</ele>
        <time>2013-10-13T11:48:22Z</time>
      </trkpt>
      <trkpt lat="43.37395" lon="6.70031">
        <ele>107</ele>
        <time>2013-10-13T11:48:29Z</time>
      </trkpt>
      <trkpt lat="43.374" lon="6.70034">
        <ele>113</ele>
        <time>2013-10-13T11:48:36Z</time>
      </trkpt>
      <trkpt lat="43.37405" lon="6.70037">
        <ele>112.28999328613</ele>
        <time>2013-10-13T11:48:41Z</time>
      </trkpt>
      <trkpt lat="43.37411" lon="6.70036">
        <ele>112</ele>
        <time>2013-10-13T11:48:48Z</time>
      </trkpt>
      <trkpt lat="43.37422" lon="6.7003">
        <ele>114</ele>
        <time>2013-10-13T11:48:59Z</time>
      </trkpt>
      <trkpt lat="43.3743" lon="6.70022">
        <ele>115</ele>
        <time>2013-10-13T11:49:06Z</time>
      </trkpt>
      <trkpt lat="43.37438" lon="6.70013">
        <ele>117</ele>
        <time>2013-10-13T11:49:11Z</time>
      </trkpt>
      <trkpt lat="43.37444" lon="6.70005">
        <ele>117</ele>
        <time>2013-10-13T11:49:15Z</time>
      </trkpt>
      <trkpt lat="43.37452" lon="6.69995">
        <ele>117</ele>
        <time>2013-10-13T11:49:20Z</time>
      </trkpt>
      <trkpt lat="43.37456" lon="6.6999">
        <ele>117</ele>
        <time>2013-10-13T11:49:23Z</time>
      </trkpt>
      <trkpt lat="43.37463" lon="6.69981">
        <ele>117</ele>
        <time>2013-10-13T11:49:27Z</time>
      </trkpt>
      <trkpt lat="43.37467" lon="6.69975">
        <ele>117</ele>
        <time>2013-10-13T11:49:30Z</time>
      </trkpt>
      <trkpt lat="43.37472" lon="6.69969">
        <ele>117</ele>
        <time>2013-10-13T11:49:33Z</time>
      </trkpt>
      <trkpt lat="43.37478" lon="6.69962">
        <ele>117</ele>
        <time>2013-10-13T11:49:37Z</time>
      </trkpt>
      <trkpt lat="43.37485" lon="6.69956">
        <ele>118</ele>
        <time>2013-10-13T11:49:41Z</time>
      </trkpt>
      <trkpt lat="43.37491" lon="6.6995">
        <ele>118</ele>
        <time>2013-10-13T11:49:45Z</time>
      </trkpt>
      <trkpt lat="43.37497" lon="6.69947">
        <ele>118</ele>
        <time>2013-10-13T11:49:48Z</time>
      </trkpt>
      <trkpt lat="43.37503" lon="6.69945">
        <ele>120</ele>
        <time>2013-10-13T11:49:51Z</time>
      </trkpt>
      <trkpt lat="43.37508" lon="6.69945">
        <ele>120</ele>
        <time>2013-10-13T11:49:54Z</time>
      </trkpt>
      <trkpt lat="43.37513" lon="6.69949">
        <ele>120</ele>
        <time>2013-10-13T11:49:57Z</time>
      </trkpt>
      <trkpt lat="43.37516" lon="6.69955">
        <ele>120.71000671387</ele>
        <time>2013-10-13T11:50:00Z</time>
      </trkpt>
      <trkpt lat="43.37519" lon="6.69962">
        <ele>121</ele>
        <time>2013-10-13T11:50:03Z</time>
      </trkpt>
      <trkpt lat="43.37524" lon="6.69975">
        <ele>121</ele>
        <time>2013-10-13T11:50:08Z</time>
      </trkpt>
      <trkpt lat="43.37527" lon="6.69982">
        <ele>122</ele>
        <time>2013-10-13T11:50:11Z</time>
      </trkpt>
      <trkpt lat="43.37531" lon="6.69989">
        <ele>122</ele>
        <time>2013-10-13T11:50:14Z</time>
      </trkpt>
      <trkpt lat="43.37539" lon="6.69999">
        <ele>123.21999359131</ele>
        <time>2013-10-13T11:50:20Z</time>
      </trkpt>
      <trkpt lat="43.37544" lon="6.70002">
        <ele>124</ele>
        <time>2013-10-13T11:50:23Z</time>
      </trkpt>
      <trkpt lat="43.37549" lon="6.70004">
        <ele>124</ele>
        <time>2013-10-13T11:50:26Z</time>
      </trkpt>
      <trkpt lat="43.37555" lon="6.70006">
        <ele>124</ele>
        <time>2013-10-13T11:50:29Z</time>
      </trkpt>
      <trkpt lat="43.37561" lon="6.70006">
        <ele>125</ele>
        <time>2013-10-13T11:50:32Z</time>
      </trkpt>
      <trkpt lat="43.37566" lon="6.70006">
        <ele>125</ele>
        <time>2013-10-13T11:50:35Z</time>
      </trkpt>
      <trkpt lat="43.37571" lon="6.70006">
        <ele>125</ele>
        <time>2013-10-13T11:50:38Z</time>
      </trkpt>
      <trkpt lat="43.37577" lon="6.70003">
        <ele>128</ele>
        <time>2013-10-13T11:50:41Z</time>
      </trkpt>
      <trkpt lat="43.37584" lon="6.70001">
        <ele>128</ele>
        <time>2013-10-13T11:50:44Z</time>
      </trkpt>
      <trkpt lat="43.37592" lon="6.70002">
        <ele>130</ele>
        <time>2013-10-13T11:50:48Z</time>
      </trkpt>
      <trkpt lat="43.37598" lon="6.70002">
        <ele>130</ele>
        <time>2013-10-13T11:50:51Z</time>
      </trkpt>
      <trkpt lat="43.37605" lon="6.69999">
        <ele>130</ele>
        <time>2013-10-13T11:50:54Z</time>
      </trkpt>
      <trkpt lat="43.37612" lon="6.69993">
        <ele>130</ele>
        <time>2013-10-13T11:50:57Z</time>
      </trkpt>
      <trkpt lat="43.3762" lon="6.69988">
        <ele>130</ele>
        <time>2013-10-13T11:50:59Z</time>
      </trkpt>
      <trkpt lat="43.37628" lon="6.69985">
        <ele>129</ele>
        <time>2013-10-13T11:51:01Z</time>
      </trkpt>
      <trkpt lat="43.37637" lon="6.69983">
        <ele>129</ele>
        <time>2013-10-13T11:51:03Z</time>
      </trkpt>
      <trkpt lat="43.37645" lon="6.6998">
        <ele>129</ele>
        <time>2013-10-13T11:51:05Z</time>
      </trkpt>
      <trkpt lat="43.37656" lon="6.69976">
        <ele>129</ele>
        <time>2013-10-13T11:51:07Z</time>
      </trkpt>
      <trkpt lat="43.37667" lon="6.69971">
        <ele>129</ele>
        <time>2013-10-13T11:51:09Z</time>
      </trkpt>
      <trkpt lat="43.37678" lon="6.69963">
        <ele>126</ele>
        <time>2013-10-13T11:51:11Z</time>
      </trkpt>
      <trkpt lat="43.37689" lon="6.69953">
        <ele>126</ele>
        <time>2013-10-13T11:51:13Z</time>
      </trkpt>
      <trkpt lat="43.377" lon="6.69943">
        <ele>124.46999359131</ele>
        <time>2013-10-13T11:51:15Z</time>
      </trkpt>
      <trkpt lat="43.37711" lon="6.69935">
        <ele>123</ele>
        <time>2013-10-13T11:51:17Z</time>
      </trkpt>
      <trkpt lat="43.37722" lon="6.69944">
        <ele>121.97999572754</ele>
        <time>2013-10-13T11:51:20Z</time>
      </trkpt>
      <trkpt lat="43.37727" lon="6.69957">
        <ele>121</ele>
        <time>2013-10-13T11:51:25Z</time>
      </trkpt>
      <trkpt lat="43.37736" lon="6.69968">
        <ele>121.51000213623</ele>
        <time>2013-10-13T11:51:30Z</time>
      </trkpt>
      <trkpt lat="43.37744" lon="6.69979">
        <ele>122</ele>
        <time>2013-10-13T11:51:35Z</time>
      </trkpt>
      <trkpt lat="43.37751" lon="6.6999">
        <ele>123.21999359131</ele>
        <time>2013-10-13T11:51:40Z</time>
      </trkpt>
      <trkpt lat="43.37761" lon="6.69998">
        <ele>124</ele>
        <time>2013-10-13T11:51:49Z</time>
      </trkpt>
      <trkpt lat="43.3777" lon="6.70004">
        <ele>125</ele>
        <time>2013-10-13T11:51:57Z</time>
      </trkpt>
      <trkpt lat="43.37778" lon="6.70012">
        <ele>127</ele>
        <time>2013-10-13T11:52:05Z</time>
      </trkpt>
      <trkpt lat="43.37788" lon="6.70019">
        <ele>129</ele>
        <time>2013-10-13T11:52:14Z</time>
      </trkpt>
      <trkpt lat="43.37793" lon="6.70023">
        <ele>129</ele>
        <time>2013-10-13T11:52:19Z</time>
      </trkpt>
      <trkpt lat="43.37797" lon="6.70025">
        <ele>130</ele>
        <time>2013-10-13T11:52:22Z</time>
      </trkpt>
      <trkpt lat="43.37802" lon="6.70029">
        <ele>130</ele>
        <time>2013-10-13T11:52:27Z</time>
      </trkpt>
      <trkpt lat="43.37806" lon="6.70029">
        <ele>131.25</ele>
        <time>2013-10-13T11:52:30Z</time>
      </trkpt>
      <trkpt lat="43.37811" lon="6.70028">
        <ele>133</ele>
        <time>2013-10-13T11:52:34Z</time>
      </trkpt>
      <trkpt lat="43.37816" lon="6.7003">
        <ele>134</ele>
        <time>2013-10-13T11:52:38Z</time>
      </trkpt>
      <trkpt lat="43.37822" lon="6.70032">
        <ele>134</ele>
        <time>2013-10-13T11:52:42Z</time>
      </trkpt>
      <trkpt lat="43.37828" lon="6.70033">
        <ele>134</ele>
        <time>2013-10-13T11:52:46Z</time>
      </trkpt>
      <trkpt lat="43.37835" lon="6.70033">
        <ele>136</ele>
        <time>2013-10-13T11:52:51Z</time>
      </trkpt>
      <trkpt lat="43.37841" lon="6.70036">
        <ele>136</ele>
        <time>2013-10-13T11:52:55Z</time>
      </trkpt>
      <trkpt lat="43.37848" lon="6.70039">
        <ele>136</ele>
        <time>2013-10-13T11:52:59Z</time>
      </trkpt>
      <trkpt lat="43.37856" lon="6.70044">
        <ele>137</ele>
        <time>2013-10-13T11:53:03Z</time>
      </trkpt>
      <trkpt lat="43.37865" lon="6.70052">
        <ele>137</ele>
        <time>2013-10-13T11:53:07Z</time>
      </trkpt>
      <trkpt lat="43.37875" lon="6.70062">
        <ele>137</ele>
        <time>2013-10-13T11:53:11Z</time>
      </trkpt>
      <trkpt lat="43.37885" lon="6.70071">
        <ele>137</ele>
        <time>2013-10-13T11:53:14Z</time>
      </trkpt>
      <trkpt lat="43.37893" lon="6.70087">
        <ele>137</ele>
        <time>2013-10-13T11:53:17Z</time>
      </trkpt>
      <trkpt lat="43.37897" lon="6.70107">
        <ele>137</ele>
        <time>2013-10-13T11:53:20Z</time>
      </trkpt>
      <trkpt lat="43.37901" lon="6.7012">
        <ele>137</ele>
        <time>2013-10-13T11:53:22Z</time>
      </trkpt>
      <trkpt lat="43.37909" lon="6.70134">
        <ele>137</ele>
        <time>2013-10-13T11:53:24Z</time>
      </trkpt>
      <trkpt lat="43.3792" lon="6.70147">
        <ele>136</ele>
        <time>2013-10-13T11:53:26Z</time>
      </trkpt>
      <trkpt lat="43.37934" lon="6.70158">
        <ele>136</ele>
        <time>2013-10-13T11:53:28Z</time>
      </trkpt>
      <trkpt lat="43.37952" lon="6.70158">
        <ele>131.73002624512</ele>
        <time>2013-10-13T11:53:30Z</time>
      </trkpt>
      <trkpt lat="43.37969" lon="6.70147">
        <ele>125</ele>
        <time>2013-10-13T11:53:32Z</time>
      </trkpt>
      <trkpt lat="43.37984" lon="6.70135">
        <ele>124</ele>
        <time>2013-10-13T11:53:34Z</time>
      </trkpt>
      <trkpt lat="43.37998" lon="6.70125">
        <ele>123.38999938965</ele>
        <time>2013-10-13T11:53:36Z</time>
      </trkpt>
      <trkpt lat="43.38014" lon="6.70115">
        <ele>122.6526260376</ele>
        <time>2013-10-13T11:53:38Z</time>
      </trkpt>
      <trkpt lat="43.3803" lon="6.70104">
        <ele>120.48999786377</ele>
        <time>2013-10-13T11:53:40Z</time>
      </trkpt>
      <trkpt lat="43.38046" lon="6.70092">
        <ele>119</ele>
        <time>2013-10-13T11:53:42Z</time>
      </trkpt>
      <trkpt lat="43.38062" lon="6.70081">
        <ele>117.48999786377</ele>
        <time>2013-10-13T11:53:44Z</time>
      </trkpt>
      <trkpt lat="43.38079" lon="6.70075">
        <ele>115.48999786377</ele>
        <time>2013-10-13T11:53:46Z</time>
      </trkpt>
      <trkpt lat="43.38099" lon="6.70072">
        <ele>111.97999572754</ele>
        <time>2013-10-13T11:53:48Z</time>
      </trkpt>
      <trkpt lat="43.38108" lon="6.70073">
        <ele>110.28999328613</ele>
        <time>2013-10-13T11:53:49Z</time>
      </trkpt>
      <trkpt lat="43.38127" lon="6.70075">
        <ele>106.44998168945</ele>
        <time>2013-10-13T11:53:51Z</time>
      </trkpt>
      <trkpt lat="43.38137" lon="6.70076">
        <ele>103.48999786377</ele>
        <time>2013-10-13T11:53:52Z</time>
      </trkpt>
      <trkpt lat="43.38156" lon="6.70078">
        <ele>100.51428985596</ele>
        <time>2013-10-13T11:53:54Z</time>
      </trkpt>
      <trkpt lat="43.38173" lon="6.70079">
        <ele>98.389999389648</ele>
        <time>2013-10-13T11:53:56Z</time>
      </trkpt>
      <trkpt lat="43.38186" lon="6.70079">
        <ele>96.389999389648</ele>
        <time>2013-10-13T11:53:58Z</time>
      </trkpt>
      <trkpt lat="43.38195" lon="6.70077">
        <ele>94</ele>
        <time>2013-10-13T11:54:00Z</time>
      </trkpt>
      <trkpt lat="43.38202" lon="6.70085">
        <ele>92.389991760254</ele>
        <time>2013-10-13T11:54:03Z</time>
      </trkpt>
      <trkpt lat="43.382" lon="6.70095">
        <ele>92</ele>
        <time>2013-10-13T11:54:05Z</time>
      </trkpt>
      <trkpt lat="43.38205" lon="6.70105">
        <ele>92</ele>
        <time>2013-10-13T11:54:07Z</time>
      </trkpt>
      <trkpt lat="43.38212" lon="6.7011">
        <ele>92</ele>
        <time>2013-10-13T11:54:09Z</time>
      </trkpt>
      <trkpt lat="43.38221" lon="6.70116">
        <ele>92</ele>
        <time>2013-10-13T11:54:12Z</time>
      </trkpt>
      <trkpt lat="43.38227" lon="6.70124">
        <ele>92</ele>
        <time>2013-10-13T11:54:15Z</time>
      </trkpt>
      <trkpt lat="43.38235" lon="6.70132">
        <ele>92</ele>
        <time>2013-10-13T11:54:18Z</time>
      </trkpt>
      <trkpt lat="43.3824" lon="6.70136">
        <ele>93.42000579834</ele>
        <time>2013-10-13T11:54:20Z</time>
      </trkpt>
      <trkpt lat="43.38245" lon="6.70142">
        <ele>94</ele>
        <time>2013-10-13T11:54:22Z</time>
      </trkpt>
      <trkpt lat="43.38251" lon="6.70147">
        <ele>94</ele>
        <time>2013-10-13T11:54:24Z</time>
      </trkpt>
      <trkpt lat="43.38256" lon="6.70152">
        <ele>94</ele>
        <time>2013-10-13T11:54:26Z</time>
      </trkpt>
      <trkpt lat="43.38263" lon="6.70158">
        <ele>94</ele>
        <time>2013-10-13T11:54:28Z</time>
      </trkpt>
      <trkpt lat="43.38269" lon="6.70164">
        <ele>94</ele>
        <time>2013-10-13T11:54:30Z</time>
      </trkpt>
      <trkpt lat="43.38277" lon="6.70173">
        <ele>94</ele>
        <time>2013-10-13T11:54:33Z</time>
      </trkpt>
      <trkpt lat="43.38282" lon="6.7018">
        <ele>94</ele>
        <time>2013-10-13T11:54:35Z</time>
      </trkpt>
      <trkpt lat="43.38291" lon="6.70187">
        <ele>94</ele>
        <time>2013-10-13T11:54:38Z</time>
      </trkpt>
      <trkpt lat="43.38297" lon="6.70201">
        <ele>94</ele>
        <time>2013-10-13T11:54:41Z</time>
      </trkpt>
      <trkpt lat="43.383" lon="6.70221">
        <ele>94</ele>
        <time>2013-10-13T11:54:44Z</time>
      </trkpt>
      <trkpt lat="43.38305" lon="6.70237">
        <ele>94</ele>
        <time>2013-10-13T11:54:47Z</time>
      </trkpt>
      <trkpt lat="43.38309" lon="6.70251">
        <ele>94.51000213623</ele>
        <time>2013-10-13T11:54:50Z</time>
      </trkpt>
      <trkpt lat="43.3831" lon="6.70268">
        <ele>95</ele>
        <time>2013-10-13T11:54:54Z</time>
      </trkpt>
      <trkpt lat="43.3831" lon="6.70284">
        <ele>95</ele>
        <time>2013-10-13T11:54:57Z</time>
      </trkpt>
      <trkpt lat="43.38313" lon="6.70297">
        <ele>95.610000610352</ele>
        <time>2013-10-13T11:55:00Z</time>
      </trkpt>
      <trkpt lat="43.38321" lon="6.70306">
        <ele>96</ele>
        <time>2013-10-13T11:55:04Z</time>
      </trkpt>
      <trkpt lat="43.38332" lon="6.70311">
        <ele>96</ele>
        <time>2013-10-13T11:55:08Z</time>
      </trkpt>
      <trkpt lat="43.38344" lon="6.70317">
        <ele>98</ele>
        <time>2013-10-13T11:55:12Z</time>
      </trkpt>
      <trkpt lat="43.38349" lon="6.70326">
        <ele>98</ele>
        <time>2013-10-13T11:55:15Z</time>
      </trkpt>
      <trkpt lat="43.38351" lon="6.7034">
        <ele>98.515800476074</ele>
        <time>2013-10-13T11:55:20Z</time>
      </trkpt>
      <trkpt lat="43.38359" lon="6.7035">
        <ele>99</ele>
        <time>2013-10-13T11:55:26Z</time>
      </trkpt>
      <trkpt lat="43.38369" lon="6.70359">
        <ele>100</ele>
        <time>2013-10-13T11:55:31Z</time>
      </trkpt>
      <trkpt lat="43.38378" lon="6.70365">
        <ele>100</ele>
        <time>2013-10-13T11:55:37Z</time>
      </trkpt>
      <trkpt lat="43.38389" lon="6.70362">
        <ele>101</ele>
        <time>2013-10-13T11:55:44Z</time>
      </trkpt>
      <trkpt lat="43.38399" lon="6.70361">
        <ele>103</ele>
        <time>2013-10-13T11:55:51Z</time>
      </trkpt>
      <trkpt lat="43.38409" lon="6.70367">
        <ele>107.26001739502</ele>
        <time>2013-10-13T11:56:00Z</time>
      </trkpt>
      <trkpt lat="43.38418" lon="6.70372">
        <ele>111</ele>
        <time>2013-10-13T11:56:09Z</time>
      </trkpt>
      <trkpt lat="43.38419" lon="6.70381">
        <ele>111</ele>
        <time>2013-10-13T11:56:16Z</time>
      </trkpt>
      <trkpt lat="43.38423" lon="6.70388">
        <ele>113</ele>
        <time>2013-10-13T11:56:21Z</time>
      </trkpt>
      <trkpt lat="43.38428" lon="6.70393">
        <ele>113</ele>
        <time>2013-10-13T11:56:25Z</time>
      </trkpt>
      <trkpt lat="43.38433" lon="6.70398">
        <ele>113</ele>
        <time>2013-10-13T11:56:29Z</time>
      </trkpt>
      <trkpt lat="43.38433" lon="6.70407">
        <ele>115</ele>
        <time>2013-10-13T11:56:34Z</time>
      </trkpt>
      <trkpt lat="43.38426" lon="6.70411">
        <ele>115</ele>
        <time>2013-10-13T11:56:39Z</time>
      </trkpt>
      <trkpt lat="43.3842" lon="6.70422">
        <ele>117</ele>
        <time>2013-10-13T11:56:47Z</time>
      </trkpt>
      <trkpt lat="43.38414" lon="6.70435">
        <ele>118</ele>
        <time>2013-10-13T11:56:56Z</time>
      </trkpt>
      <trkpt lat="43.38409" lon="6.70444">
        <ele>120</ele>
        <time>2013-10-13T11:57:03Z</time>
      </trkpt>
      <trkpt lat="43.38405" lon="6.70455">
        <ele>120</ele>
        <time>2013-10-13T11:57:09Z</time>
      </trkpt>
      <trkpt lat="43.38401" lon="6.70463">
        <ele>122</ele>
        <time>2013-10-13T11:57:14Z</time>
      </trkpt>
      <trkpt lat="43.38396" lon="6.70467">
        <ele>122</ele>
        <time>2013-10-13T11:57:18Z</time>
      </trkpt>
      <trkpt lat="43.38391" lon="6.70472">
        <ele>123</ele>
        <time>2013-10-13T11:57:23Z</time>
      </trkpt>
      <trkpt lat="43.38384" lon="6.70479">
        <ele>123.61000061035</ele>
        <time>2013-10-13T11:57:30Z</time>
      </trkpt>
      <trkpt lat="43.38376" lon="6.70488">
        <ele>124</ele>
        <time>2013-10-13T11:57:38Z</time>
      </trkpt>
      <trkpt lat="43.38371" lon="6.70493">
        <ele>127</ele>
        <time>2013-10-13T11:57:44Z</time>
      </trkpt>
      <trkpt lat="43.38366" lon="6.70499">
        <ele>128</ele>
        <time>2013-10-13T11:57:49Z</time>
      </trkpt>
      <trkpt lat="43.38365" lon="6.70511">
        <ele>129</ele>
        <time>2013-10-13T11:57:56Z</time>
      </trkpt>
      <trkpt lat="43.38373" lon="6.70514">
        <ele>129</ele>
        <time>2013-10-13T11:57:59Z</time>
      </trkpt>
      <trkpt lat="43.3838" lon="6.70514">
        <ele>128</ele>
        <time>2013-10-13T11:58:01Z</time>
      </trkpt>
      <trkpt lat="43.38391" lon="6.70514">
        <ele>128</ele>
        <time>2013-10-13T11:58:04Z</time>
      </trkpt>
      <trkpt lat="43.38403" lon="6.70519">
        <ele>128</ele>
        <time>2013-10-13T11:58:07Z</time>
      </trkpt>
      <trkpt lat="43.3841" lon="6.70522">
        <ele>128</ele>
        <time>2013-10-13T11:58:09Z</time>
      </trkpt>
      <trkpt lat="43.38417" lon="6.70529">
        <ele>123</ele>
        <time>2013-10-13T11:58:11Z</time>
      </trkpt>
      <trkpt lat="43.38421" lon="6.70539">
        <ele>123</ele>
        <time>2013-10-13T11:58:13Z</time>
      </trkpt>
      <trkpt lat="43.38426" lon="6.70551">
        <ele>119.33994293213</ele>
        <time>2013-10-13T11:58:15Z</time>
      </trkpt>
      <trkpt lat="43.38434" lon="6.70563">
        <ele>117</ele>
        <time>2013-10-13T11:58:18Z</time>
      </trkpt>
      <trkpt lat="43.38444" lon="6.70577">
        <ele>111</ele>
        <time>2013-10-13T11:58:22Z</time>
      </trkpt>
      <trkpt lat="43.38459" lon="6.70577">
        <ele>109</ele>
        <time>2013-10-13T11:58:26Z</time>
      </trkpt>
      <trkpt lat="43.38475" lon="6.70577">
        <ele>103.28999328613</ele>
        <time>2013-10-13T11:58:28Z</time>
      </trkpt>
      <trkpt lat="43.38488" lon="6.70584">
        <ele>102.28999328613</ele>
        <time>2013-10-13T11:58:30Z</time>
      </trkpt>
      <trkpt lat="43.38494" lon="6.70596">
        <ele>102</ele>
        <time>2013-10-13T11:58:32Z</time>
      </trkpt>
      <trkpt lat="43.38504" lon="6.70609">
        <ele>102</ele>
        <time>2013-10-13T11:58:34Z</time>
      </trkpt>
      <trkpt lat="43.38514" lon="6.70623">
        <ele>101</ele>
        <time>2013-10-13T11:58:36Z</time>
      </trkpt>
      <trkpt lat="43.38522" lon="6.70638">
        <ele>99</ele>
        <time>2013-10-13T11:58:38Z</time>
      </trkpt>
      <trkpt lat="43.38531" lon="6.70653">
        <ele>99</ele>
        <time>2013-10-13T11:58:40Z</time>
      </trkpt>
      <trkpt lat="43.3854" lon="6.70668">
        <ele>99</ele>
        <time>2013-10-13T11:58:42Z</time>
      </trkpt>
      <trkpt lat="43.38549" lon="6.70683">
        <ele>99</ele>
        <time>2013-10-13T11:58:44Z</time>
      </trkpt>
      <trkpt lat="43.38557" lon="6.70697">
        <ele>99</ele>
        <time>2013-10-13T11:58:47Z</time>
      </trkpt>
      <trkpt lat="43.38559" lon="6.707">
        <ele>99</ele>
        <time>2013-10-13T11:58:55Z</time>
      </trkpt>
      <trkpt lat="43.3856" lon="6.70703">
        <ele>101</ele>
        <time>2013-10-13T11:59:02Z</time>
      </trkpt>
      <trkpt lat="43.38562" lon="6.70709">
        <ele>101</ele>
        <time>2013-10-13T11:59:08Z</time>
      </trkpt>
      <trkpt lat="43.38569" lon="6.70717">
        <ele>104</ele>
        <time>2013-10-13T11:59:22Z</time>
      </trkpt>
      <trkpt lat="43.38578" lon="6.70723">
        <ele>109</ele>
        <time>2013-10-13T11:59:34Z</time>
      </trkpt>
      <trkpt lat="43.38587" lon="6.70727">
        <ele>111</ele>
        <time>2013-10-13T11:59:44Z</time>
      </trkpt>
      <trkpt lat="43.38598" lon="6.70732">
        <ele>111.61000061035</ele>
        <time>2013-10-13T11:59:50Z</time>
      </trkpt>
      <trkpt lat="43.38609" lon="6.70734">
        <ele>112</ele>
        <time>2013-10-13T11:59:54Z</time>
      </trkpt>
      <trkpt lat="43.38623" lon="6.70737">
        <ele>112</ele>
        <time>2013-10-13T11:59:58Z</time>
      </trkpt>
      <trkpt lat="43.38635" lon="6.7074">
        <ele>111</ele>
        <time>2013-10-13T12:00:01Z</time>
      </trkpt>
      <trkpt lat="43.38642" lon="6.7074">
        <ele>111</ele>
        <time>2013-10-13T12:00:03Z</time>
      </trkpt>
      <trkpt lat="43.38647" lon="6.70737">
        <ele>111</ele>
        <time>2013-10-13T12:00:05Z</time>
      </trkpt>
      <trkpt lat="43.38652" lon="6.70727">
        <ele>111</ele>
        <time>2013-10-13T12:00:08Z</time>
      </trkpt>
      <trkpt lat="43.3866" lon="6.70723">
        <ele>101.45262908935</ele>
        <time>2013-10-13T12:00:11Z</time>
      </trkpt>
      <trkpt lat="43.38668" lon="6.70728">
        <ele>98.389991760254</ele>
        <time>2013-10-13T12:00:13Z</time>
      </trkpt>
      <trkpt lat="43.38682" lon="6.70729">
        <ele>97.389991760254</ele>
        <time>2013-10-13T12:00:15Z</time>
      </trkpt>
      <trkpt lat="43.38693" lon="6.70727">
        <ele>96.610008239746</ele>
        <time>2013-10-13T12:00:17Z</time>
      </trkpt>
      <trkpt lat="43.38698" lon="6.70722">
        <ele>100</ele>
        <time>2013-10-13T12:00:29Z</time>
      </trkpt>
      <trkpt lat="43.38699" lon="6.70722">
        <ele>100</ele>
        <time>2013-10-13T12:00:31Z</time>
      </trkpt>
      <trkpt lat="43.387" lon="6.70722">
        <ele>100</ele>
        <time>2013-10-13T12:00:33Z</time>
      </trkpt>
      <trkpt lat="43.38702" lon="6.70722">
        <ele>100</ele>
        <time>2013-10-13T12:00:39Z</time>
      </trkpt>
      <trkpt lat="43.38712" lon="6.70722">
        <ele>104</ele>
        <time>2013-10-13T12:00:52Z</time>
      </trkpt>
      <trkpt lat="43.38723" lon="6.70724">
        <ele>106</ele>
        <time>2013-10-13T12:01:02Z</time>
      </trkpt>
      <trkpt lat="43.38733" lon="6.70722">
        <ele>106</ele>
        <time>2013-10-13T12:01:07Z</time>
      </trkpt>
      <trkpt lat="43.38742" lon="6.70717">
        <ele>106</ele>
        <time>2013-10-13T12:01:11Z</time>
      </trkpt>
      <trkpt lat="43.38753" lon="6.7071">
        <ele>106</ele>
        <time>2013-10-13T12:01:14Z</time>
      </trkpt>
      <trkpt lat="43.3876" lon="6.70704">
        <ele>106</ele>
        <time>2013-10-13T12:01:16Z</time>
      </trkpt>
      <trkpt lat="43.38773" lon="6.70695">
        <ele>106</ele>
        <time>2013-10-13T12:01:19Z</time>
      </trkpt>
      <trkpt lat="43.38783" lon="6.70692">
        <ele>104</ele>
        <time>2013-10-13T12:01:21Z</time>
      </trkpt>
      <trkpt lat="43.38797" lon="6.70684">
        <ele>104</ele>
        <time>2013-10-13T12:01:24Z</time>
      </trkpt>
      <trkpt lat="43.38807" lon="6.70679">
        <ele>104</ele>
        <time>2013-10-13T12:01:26Z</time>
      </trkpt>
      <trkpt lat="43.38818" lon="6.70674">
        <ele>104</ele>
        <time>2013-10-13T12:01:28Z</time>
      </trkpt>
      <trkpt lat="43.38829" lon="6.70672">
        <ele>101.56001281738</ele>
        <time>2013-10-13T12:01:30Z</time>
      </trkpt>
      <trkpt lat="43.38838" lon="6.7067">
        <ele>100</ele>
        <time>2013-10-13T12:01:32Z</time>
      </trkpt>
      <trkpt lat="43.38846" lon="6.70665">
        <ele>100</ele>
        <time>2013-10-13T12:01:34Z</time>
      </trkpt>
      <trkpt lat="43.38855" lon="6.70659">
        <ele>95</ele>
        <time>2013-10-13T12:01:36Z</time>
      </trkpt>
      <trkpt lat="43.38866" lon="6.70652">
        <ele>95</ele>
        <time>2013-10-13T12:01:38Z</time>
      </trkpt>
      <trkpt lat="43.38874" lon="6.70642">
        <ele>93.17000579834</ele>
        <time>2013-10-13T12:01:40Z</time>
      </trkpt>
      <trkpt lat="43.38879" lon="6.70629">
        <ele>91</ele>
        <time>2013-10-13T12:01:43Z</time>
      </trkpt>
      <trkpt lat="43.38881" lon="6.70627">
        <ele>92</ele>
        <time>2013-10-13T12:01:47Z</time>
      </trkpt>
      <trkpt lat="43.38882" lon="6.70625">
        <ele>92</ele>
        <time>2013-10-13T12:01:53Z</time>
      </trkpt>
      <trkpt lat="43.38884" lon="6.70622">
        <ele>92</ele>
        <time>2013-10-13T12:01:58Z</time>
      </trkpt>
      <trkpt lat="43.38884" lon="6.70622">
        <ele>92</ele>
        <time>2013-10-13T12:01:59Z</time>
      </trkpt>
      <trkpt lat="43.38884" lon="6.70621">
        <ele>93</ele>
        <time>2013-10-13T12:02:01Z</time>
      </trkpt>
      <trkpt lat="43.38887" lon="6.70616">
        <ele>93</ele>
        <time>2013-10-13T12:02:07Z</time>
      </trkpt>
      <trkpt lat="43.38891" lon="6.70609">
        <ele>95</ele>
        <time>2013-10-13T12:02:13Z</time>
      </trkpt>
      <trkpt lat="43.38895" lon="6.70609">
        <ele>95.608695983887</ele>
        <time>2013-10-13T12:02:20Z</time>
      </trkpt>
      <trkpt lat="43.38901" lon="6.70608">
        <ele>96</ele>
        <time>2013-10-13T12:02:26Z</time>
      </trkpt>
      <trkpt lat="43.38907" lon="6.70606">
        <ele>99</ele>
        <time>2013-10-13T12:02:32Z</time>
      </trkpt>
      <trkpt lat="43.38911" lon="6.70603">
        <ele>99</ele>
        <time>2013-10-13T12:02:38Z</time>
      </trkpt>
      <trkpt lat="43.38921" lon="6.70593">
        <ele>100</ele>
        <time>2013-10-13T12:02:46Z</time>
      </trkpt>
      <trkpt lat="43.38929" lon="6.70582">
        <ele>100</ele>
        <time>2013-10-13T12:02:49Z</time>
      </trkpt>
      <trkpt lat="43.38938" lon="6.70575">
        <ele>100</ele>
        <time>2013-10-13T12:02:52Z</time>
      </trkpt>
      <trkpt lat="43.38947" lon="6.70568">
        <ele>100</ele>
        <time>2013-10-13T12:02:55Z</time>
      </trkpt>
      <trkpt lat="43.38959" lon="6.70569">
        <ele>100</ele>
        <time>2013-10-13T12:02:59Z</time>
      </trkpt>
      <trkpt lat="43.38968" lon="6.70582">
        <ele>91.303924560547</ele>
        <time>2013-10-13T12:03:02Z</time>
      </trkpt>
      <trkpt lat="43.3898" lon="6.70583">
        <ele>88.57999420166</ele>
        <time>2013-10-13T12:03:06Z</time>
      </trkpt>
      <trkpt lat="43.38986" lon="6.70568">
        <ele>87</ele>
        <time>2013-10-13T12:03:09Z</time>
      </trkpt>
      <trkpt lat="43.3899" lon="6.70554">
        <ele>87</ele>
        <time>2013-10-13T12:03:12Z</time>
      </trkpt>
      <trkpt lat="43.38998" lon="6.70544">
        <ele>85.169967651367</ele>
        <time>2013-10-13T12:03:15Z</time>
      </trkpt>
      <trkpt lat="43.39005" lon="6.70534">
        <ele>84</ele>
        <time>2013-10-13T12:03:18Z</time>
      </trkpt>
      <trkpt lat="43.39014" lon="6.70533">
        <ele>82</ele>
        <time>2013-10-13T12:03:22Z</time>
      </trkpt>
      <trkpt lat="43.39023" lon="6.70537">
        <ele>78</ele>
        <time>2013-10-13T12:03:26Z</time>
      </trkpt>
      <trkpt lat="43.39031" lon="6.70528">
        <ele>73</ele>
        <time>2013-10-13T12:03:32Z</time>
      </trkpt>
      <trkpt lat="43.3904" lon="6.70521">
        <ele>70</ele>
        <time>2013-10-13T12:03:38Z</time>
      </trkpt>
      <trkpt lat="43.3905" lon="6.70525">
        <ele>67</ele>
        <time>2013-10-13T12:03:42Z</time>
      </trkpt>
      <trkpt lat="43.39055" lon="6.70537">
        <ele>65</ele>
        <time>2013-10-13T12:03:45Z</time>
      </trkpt>
      <trkpt lat="43.39054" lon="6.70553">
        <ele>65</ele>
        <time>2013-10-13T12:03:48Z</time>
      </trkpt>
      <trkpt lat="43.39056" lon="6.70567">
        <ele>64.389999389648</ele>
        <time>2013-10-13T12:03:50Z</time>
      </trkpt>
      <trkpt lat="43.39062" lon="6.70579">
        <ele>64</ele>
        <time>2013-10-13T12:03:52Z</time>
      </trkpt>
      <trkpt lat="43.39069" lon="6.70588">
        <ele>64</ele>
        <time>2013-10-13T12:03:54Z</time>
      </trkpt>
      <trkpt lat="43.39077" lon="6.70596">
        <ele>64</ele>
        <time>2013-10-13T12:03:56Z</time>
      </trkpt>
      <trkpt lat="43.39085" lon="6.70604">
        <ele>64</ele>
        <time>2013-10-13T12:03:58Z</time>
      </trkpt>
      <trkpt lat="43.39094" lon="6.70612">
        <ele>62.940006256104</ele>
        <time>2013-10-13T12:04:00Z</time>
      </trkpt>
      <trkpt lat="43.39098" lon="6.70616">
        <ele>62</ele>
        <time>2013-10-13T12:04:01Z</time>
      </trkpt>
      <trkpt lat="43.39104" lon="6.70622">
        <ele>62</ele>
        <time>2013-10-13T12:04:02Z</time>
      </trkpt>
      <trkpt lat="43.39108" lon="6.7063">
        <ele>62</ele>
        <time>2013-10-13T12:04:03Z</time>
      </trkpt>
      <trkpt lat="43.3911" lon="6.70648">
        <ele>62</ele>
        <time>2013-10-13T12:04:05Z</time>
      </trkpt>
      <trkpt lat="43.39109" lon="6.70661">
        <ele>62</ele>
        <time>2013-10-13T12:04:07Z</time>
      </trkpt>
      <trkpt lat="43.39112" lon="6.70668">
        <ele>62</ele>
        <time>2013-10-13T12:04:09Z</time>
      </trkpt>
      <trkpt lat="43.39118" lon="6.70673">
        <ele>59</ele>
        <time>2013-10-13T12:04:11Z</time>
      </trkpt>
      <trkpt lat="43.39125" lon="6.70675">
        <ele>59</ele>
        <time>2013-10-13T12:04:13Z</time>
      </trkpt>
      <trkpt lat="43.39133" lon="6.70674">
        <ele>57.779979705811</ele>
        <time>2013-10-13T12:04:15Z</time>
      </trkpt>
      <trkpt lat="43.39143" lon="6.70675">
        <ele>57</ele>
        <time>2013-10-13T12:04:17Z</time>
      </trkpt>
      <trkpt lat="43.39156" lon="6.70677">
        <ele>57</ele>
        <time>2013-10-13T12:04:19Z</time>
      </trkpt>
      <trkpt lat="43.39162" lon="6.70677">
        <ele>57</ele>
        <time>2013-10-13T12:04:20Z</time>
      </trkpt>
      <trkpt lat="43.39169" lon="6.70678">
        <ele>57</ele>
        <time>2013-10-13T12:04:21Z</time>
      </trkpt>
      <trkpt lat="43.39175" lon="6.70678">
        <ele>57</ele>
        <time>2013-10-13T12:04:22Z</time>
      </trkpt>
      <trkpt lat="43.39186" lon="6.70679">
        <ele>57</ele>
        <time>2013-10-13T12:04:24Z</time>
      </trkpt>
      <trkpt lat="43.39191" lon="6.70681">
        <ele>57</ele>
        <time>2013-10-13T12:04:25Z</time>
      </trkpt>
      <trkpt lat="43.39202" lon="6.70685">
        <ele>57</ele>
        <time>2013-10-13T12:04:27Z</time>
      </trkpt>
      <trkpt lat="43.39213" lon="6.70688">
        <ele>57</ele>
        <time>2013-10-13T12:04:29Z</time>
      </trkpt>
      <trkpt lat="43.39223" lon="6.70692">
        <ele>54</ele>
        <time>2013-10-13T12:04:32Z</time>
      </trkpt>
      <trkpt lat="43.39234" lon="6.70698">
        <ele>53</ele>
        <time>2013-10-13T12:04:37Z</time>
      </trkpt>
      <trkpt lat="43.3924" lon="6.70701">
        <ele>53</ele>
        <time>2013-10-13T12:04:40Z</time>
      </trkpt>
      <trkpt lat="43.39249" lon="6.70701">
        <ele>53</ele>
        <time>2013-10-13T12:04:43Z</time>
      </trkpt>
      <trkpt lat="43.3926" lon="6.70702">
        <ele>53</ele>
        <time>2013-10-13T12:04:47Z</time>
      </trkpt>
      <trkpt lat="43.3927" lon="6.70697">
        <ele>48</ele>
        <time>2013-10-13T12:04:53Z</time>
      </trkpt>
      <trkpt lat="43.39263" lon="6.70682">
        <ele>44</ele>
        <time>2013-10-13T12:04:56Z</time>
      </trkpt>
      <trkpt lat="43.39259" lon="6.70668">
        <ele>44</ele>
        <time>2013-10-13T12:04:59Z</time>
      </trkpt>
      <trkpt lat="43.39268" lon="6.70661">
        <ele>41</ele>
        <time>2013-10-13T12:05:03Z</time>
      </trkpt>
      <trkpt lat="43.39278" lon="6.70662">
        <ele>40.609996795654</ele>
        <time>2013-10-13T12:05:06Z</time>
      </trkpt>
      <trkpt lat="43.39284" lon="6.70662">
        <ele>42</ele>
        <time>2013-10-13T12:05:12Z</time>
      </trkpt>
      <trkpt lat="43.39286" lon="6.70661">
        <ele>44</ele>
        <time>2013-10-13T12:05:20Z</time>
      </trkpt>
      <trkpt lat="43.39287" lon="6.70661">
        <ele>44</ele>
        <time>2013-10-13T12:05:22Z</time>
      </trkpt>
      <trkpt lat="43.39288" lon="6.7066">
        <ele>44</ele>
        <time>2013-10-13T12:05:27Z</time>
      </trkpt>
      <trkpt lat="43.3929" lon="6.70658">
        <ele>44</ele>
        <time>2013-10-13T12:05:29Z</time>
      </trkpt>
      <trkpt lat="43.39295" lon="6.70658">
        <ele>44</ele>
        <time>2013-10-13T12:05:33Z</time>
      </trkpt>
      <trkpt lat="43.39299" lon="6.70657">
        <ele>44</ele>
        <time>2013-10-13T12:05:37Z</time>
      </trkpt>
      <trkpt lat="43.39302" lon="6.70656">
        <ele>45</ele>
        <time>2013-10-13T12:05:41Z</time>
      </trkpt>
      <trkpt lat="43.39305" lon="6.70656">
        <ele>45</ele>
        <time>2013-10-13T12:05:45Z</time>
      </trkpt>
      <trkpt lat="43.39308" lon="6.70657">
        <ele>45</ele>
        <time>2013-10-13T12:05:48Z</time>
      </trkpt>
      <trkpt lat="43.3931" lon="6.70658">
        <ele>47</ele>
        <time>2013-10-13T12:05:51Z</time>
      </trkpt>
      <trkpt lat="43.39313" lon="6.70659">
        <ele>47</ele>
        <time>2013-10-13T12:05:55Z</time>
      </trkpt>
      <trkpt lat="43.39315" lon="6.70658">
        <ele>47</ele>
        <time>2013-10-13T12:05:58Z</time>
      </trkpt>
      <trkpt lat="43.39318" lon="6.70658">
        <ele>48</ele>
        <time>2013-10-13T12:06:02Z</time>
      </trkpt>
      <trkpt lat="43.39322" lon="6.70659">
        <ele>48</ele>
        <time>2013-10-13T12:06:06Z</time>
      </trkpt>
      <trkpt lat="43.39325" lon="6.7066">
        <ele>48</ele>
        <time>2013-10-13T12:06:09Z</time>
      </trkpt>
      <trkpt lat="43.39328" lon="6.70661">
        <ele>49</ele>
        <time>2013-10-13T12:06:11Z</time>
      </trkpt>
      <trkpt lat="43.39331" lon="6.7066">
        <ele>49</ele>
        <time>2013-10-13T12:06:14Z</time>
      </trkpt>
      <trkpt lat="43.39334" lon="6.70659">
        <ele>49</ele>
        <time>2013-10-13T12:06:16Z</time>
      </trkpt>
      <trkpt lat="43.39337" lon="6.7066">
        <ele>49</ele>
        <time>2013-10-13T12:06:19Z</time>
      </trkpt>
      <trkpt lat="43.39342" lon="6.70658">
        <ele>50</ele>
        <time>2013-10-13T12:06:22Z</time>
      </trkpt>
      <trkpt lat="43.39345" lon="6.70657">
        <ele>50</ele>
        <time>2013-10-13T12:06:24Z</time>
      </trkpt>
      <trkpt lat="43.39349" lon="6.70657">
        <ele>50</ele>
        <time>2013-10-13T12:06:26Z</time>
      </trkpt>
      <trkpt lat="43.39354" lon="6.70658">
        <ele>50</ele>
        <time>2013-10-13T12:06:28Z</time>
      </trkpt>
      <trkpt lat="43.3936" lon="6.7066">
        <ele>50.632652282715</ele>
        <time>2013-10-13T12:06:30Z</time>
      </trkpt>
      <trkpt lat="43.39363" lon="6.70662">
        <ele>51</ele>
        <time>2013-10-13T12:06:31Z</time>
      </trkpt>
      <trkpt lat="43.39366" lon="6.70664">
        <ele>51</ele>
        <time>2013-10-13T12:06:32Z</time>
      </trkpt>
      <trkpt lat="43.39369" lon="6.70666">
        <ele>51</ele>
        <time>2013-10-13T12:06:33Z</time>
      </trkpt>
      <trkpt lat="43.39375" lon="6.70669">
        <ele>51</ele>
        <time>2013-10-13T12:06:35Z</time>
      </trkpt>
      <trkpt lat="43.39381" lon="6.70674">
        <ele>51</ele>
        <time>2013-10-13T12:06:37Z</time>
      </trkpt>
      <trkpt lat="43.39392" lon="6.70675">
        <ele>51</ele>
        <time>2013-10-13T12:06:41Z</time>
      </trkpt>
      <trkpt lat="43.39398" lon="6.7068">
        <ele>51</ele>
        <time>2013-10-13T12:06:44Z</time>
      </trkpt>
      <trkpt lat="43.39406" lon="6.70683">
        <ele>51</ele>
        <time>2013-10-13T12:06:48Z</time>
      </trkpt>
      <trkpt lat="43.39413" lon="6.70684">
        <ele>53</ele>
        <time>2013-10-13T12:06:52Z</time>
      </trkpt>
      <trkpt lat="43.39423" lon="6.70683">
        <ele>53</ele>
        <time>2013-10-13T12:06:57Z</time>
      </trkpt>
      <trkpt lat="43.39429" lon="6.70682">
        <ele>55.13000869751</ele>
        <time>2013-10-13T12:07:00Z</time>
      </trkpt>
      <trkpt lat="43.39436" lon="6.70684">
        <ele>56</ele>
        <time>2013-10-13T12:07:03Z</time>
      </trkpt>
      <trkpt lat="43.39444" lon="6.70688">
        <ele>56</ele>
        <time>2013-10-13T12:07:07Z</time>
      </trkpt>
      <trkpt lat="43.39452" lon="6.70689">
        <ele>56</ele>
        <time>2013-10-13T12:07:10Z</time>
      </trkpt>
      <trkpt lat="43.39458" lon="6.70682">
        <ele>56</ele>
        <time>2013-10-13T12:07:15Z</time>
      </trkpt>
      <trkpt lat="43.39461" lon="6.70673">
        <ele>56.696075439453</ele>
        <time>2013-10-13T12:07:20Z</time>
      </trkpt>
      <trkpt lat="43.39468" lon="6.70672">
        <ele>57</ele>
        <time>2013-10-13T12:07:23Z</time>
      </trkpt>
      <trkpt lat="43.39476" lon="6.70669">
        <ele>57</ele>
        <time>2013-10-13T12:07:26Z</time>
      </trkpt>
      <trkpt lat="43.39483" lon="6.70668">
        <ele>57</ele>
        <time>2013-10-13T12:07:29Z</time>
      </trkpt>
      <trkpt lat="43.39491" lon="6.70668">
        <ele>59</ele>
        <time>2013-10-13T12:07:33Z</time>
      </trkpt>
      <trkpt lat="43.39494" lon="6.70657">
        <ele>59</ele>
        <time>2013-10-13T12:07:38Z</time>
      </trkpt>
      <trkpt lat="43.39494" lon="6.70646">
        <ele>61</ele>
        <time>2013-10-13T12:07:42Z</time>
      </trkpt>
      <trkpt lat="43.39499" lon="6.70635">
        <ele>61</ele>
        <time>2013-10-13T12:07:47Z</time>
      </trkpt>
      <trkpt lat="43.39505" lon="6.70626">
        <ele>62</ele>
        <time>2013-10-13T12:07:51Z</time>
      </trkpt>
      <trkpt lat="43.3951" lon="6.70616">
        <ele>62</ele>
        <time>2013-10-13T12:07:54Z</time>
      </trkpt>
      <trkpt lat="43.39516" lon="6.70605">
        <ele>62</ele>
        <time>2013-10-13T12:07:57Z</time>
      </trkpt>
      <trkpt lat="43.39524" lon="6.70601">
        <ele>62</ele>
        <time>2013-10-13T12:08:00Z</time>
      </trkpt>
      <trkpt lat="43.39533" lon="6.706">
        <ele>62</ele>
        <time>2013-10-13T12:08:03Z</time>
      </trkpt>
      <trkpt lat="43.39541" lon="6.70606">
        <ele>62</ele>
        <time>2013-10-13T12:08:06Z</time>
      </trkpt>
      <trkpt lat="43.39545" lon="6.70622">
        <ele>62</ele>
        <time>2013-10-13T12:08:09Z</time>
      </trkpt>
      <trkpt lat="43.39553" lon="6.70635">
        <ele>59</ele>
        <time>2013-10-13T12:08:13Z</time>
      </trkpt>
      <trkpt lat="43.39563" lon="6.70628">
        <ele>56</ele>
        <time>2013-10-13T12:08:16Z</time>
      </trkpt>
      <trkpt lat="43.3957" lon="6.70615">
        <ele>56</ele>
        <time>2013-10-13T12:08:19Z</time>
      </trkpt>
      <trkpt lat="43.39573" lon="6.70608">
        <ele>53</ele>
        <time>2013-10-13T12:08:24Z</time>
      </trkpt>
      <trkpt lat="43.39573" lon="6.70607">
        <ele>53</ele>
        <time>2013-10-13T12:08:26Z</time>
      </trkpt>
      <trkpt lat="43.39573" lon="6.70606">
        <ele>53</ele>
        <time>2013-10-13T12:08:28Z</time>
      </trkpt>
      <trkpt lat="43.39578" lon="6.70603">
        <ele>53</ele>
        <time>2013-10-13T12:08:32Z</time>
      </trkpt>
      <trkpt lat="43.39583" lon="6.70603">
        <ele>53</ele>
        <time>2013-10-13T12:08:38Z</time>
      </trkpt>
      <trkpt lat="43.39587" lon="6.70606">
        <ele>53</ele>
        <time>2013-10-13T12:08:43Z</time>
      </trkpt>
      <trkpt lat="43.3959" lon="6.70613">
        <ele>53</ele>
        <time>2013-10-13T12:08:47Z</time>
      </trkpt>
      <trkpt lat="43.39594" lon="6.7062">
        <ele>53.590003967285</ele>
        <time>2013-10-13T12:08:50Z</time>
      </trkpt>
      <trkpt lat="43.39598" lon="6.70628">
        <ele>54</ele>
        <time>2013-10-13T12:08:53Z</time>
      </trkpt>
      <trkpt lat="43.396" lon="6.70637">
        <ele>54</ele>
        <time>2013-10-13T12:08:56Z</time>
      </trkpt>
      <trkpt lat="43.39602" lon="6.70647">
        <ele>56</ele>
        <time>2013-10-13T12:09:01Z</time>
      </trkpt>
      <trkpt lat="43.39602" lon="6.70655">
        <ele>56</ele>
        <time>2013-10-13T12:09:04Z</time>
      </trkpt>
      <trkpt lat="43.39602" lon="6.70667">
        <ele>56.71000289917</ele>
        <time>2013-10-13T12:09:10Z</time>
      </trkpt>
      <trkpt lat="43.39606" lon="6.7068">
        <ele>57</ele>
        <time>2013-10-13T12:09:17Z</time>
      </trkpt>
      <trkpt lat="43.39613" lon="6.70686">
        <ele>59</ele>
        <time>2013-10-13T12:09:21Z</time>
      </trkpt>
      <trkpt lat="43.39619" lon="6.70684">
        <ele>59</ele>
        <time>2013-10-13T12:09:25Z</time>
      </trkpt>
      <trkpt lat="43.39624" lon="6.70682">
        <ele>60.42000579834</ele>
        <time>2013-10-13T12:09:30Z</time>
      </trkpt>
      <trkpt lat="43.3963" lon="6.7068">
        <ele>61</ele>
        <time>2013-10-13T12:09:34Z</time>
      </trkpt>
      <trkpt lat="43.39635" lon="6.70679">
        <ele>61</ele>
        <time>2013-10-13T12:09:38Z</time>
      </trkpt>
      <trkpt lat="43.3964" lon="6.70676">
        <ele>62</ele>
        <time>2013-10-13T12:09:43Z</time>
      </trkpt>
      <trkpt lat="43.39643" lon="6.70673">
        <ele>63</ele>
        <time>2013-10-13T12:09:50Z</time>
      </trkpt>
      <trkpt lat="43.39644" lon="6.70673">
        <ele>63</ele>
        <time>2013-10-13T12:09:52Z</time>
      </trkpt>
      <trkpt lat="43.39646" lon="6.70672">
        <ele>63</ele>
        <time>2013-10-13T12:09:54Z</time>
      </trkpt>
      <trkpt lat="43.39652" lon="6.70672">
        <ele>63</ele>
        <time>2013-10-13T12:09:58Z</time>
      </trkpt>
      <trkpt lat="43.39658" lon="6.7067">
        <ele>64</ele>
        <time>2013-10-13T12:10:02Z</time>
      </trkpt>
      <trkpt lat="43.39664" lon="6.70664">
        <ele>64</ele>
        <time>2013-10-13T12:10:06Z</time>
      </trkpt>
      <trkpt lat="43.39669" lon="6.7066">
        <ele>64</ele>
        <time>2013-10-13T12:10:09Z</time>
      </trkpt>
      <trkpt lat="43.39674" lon="6.70656">
        <ele>65</ele>
        <time>2013-10-13T12:10:11Z</time>
      </trkpt>
      <trkpt lat="43.3968" lon="6.70653">
        <ele>65</ele>
        <time>2013-10-13T12:10:13Z</time>
      </trkpt>
      <trkpt lat="43.39686" lon="6.7065">
        <ele>65</ele>
        <time>2013-10-13T12:10:15Z</time>
      </trkpt>
      <trkpt lat="43.39693" lon="6.70648">
        <ele>65</ele>
        <time>2013-10-13T12:10:17Z</time>
      </trkpt>
      <trkpt lat="43.39702" lon="6.70647">
        <ele>65</ele>
        <time>2013-10-13T12:10:20Z</time>
      </trkpt>
      <trkpt lat="43.39709" lon="6.70648">
        <ele>65</ele>
        <time>2013-10-13T12:10:22Z</time>
      </trkpt>
      <trkpt lat="43.3972" lon="6.70651">
        <ele>65</ele>
        <time>2013-10-13T12:10:25Z</time>
      </trkpt>
      <trkpt lat="43.39726" lon="6.70657">
        <ele>65</ele>
        <time>2013-10-13T12:10:27Z</time>
      </trkpt>
      <trkpt lat="43.39739" lon="6.70653">
        <ele>65</ele>
        <time>2013-10-13T12:10:31Z</time>
      </trkpt>
      <trkpt lat="43.39744" lon="6.70643">
        <ele>65</ele>
        <time>2013-10-13T12:10:33Z</time>
      </trkpt>
      <trkpt lat="43.39748" lon="6.70632">
        <ele>65</ele>
        <time>2013-10-13T12:10:35Z</time>
      </trkpt>
      <trkpt lat="43.39753" lon="6.70623">
        <ele>65</ele>
        <time>2013-10-13T12:10:37Z</time>
      </trkpt>
      <trkpt lat="43.39758" lon="6.70615">
        <ele>65</ele>
        <time>2013-10-13T12:10:39Z</time>
      </trkpt>
      <trkpt lat="43.39763" lon="6.70605">
        <ele>64</ele>
        <time>2013-10-13T12:10:42Z</time>
      </trkpt>
      <trkpt lat="43.39769" lon="6.7059">
        <ele>64</ele>
        <time>2013-10-13T12:10:46Z</time>
      </trkpt>
      <trkpt lat="43.39772" lon="6.70574">
        <ele>64</ele>
        <time>2013-10-13T12:10:49Z</time>
      </trkpt>
      <trkpt lat="43.3978" lon="6.70567">
        <ele>64</ele>
        <time>2013-10-13T12:10:52Z</time>
      </trkpt>
      <trkpt lat="43.39787" lon="6.70561">
        <ele>64</ele>
        <time>2013-10-13T12:10:54Z</time>
      </trkpt>
      <trkpt lat="43.39795" lon="6.7055">
        <ele>64</ele>
        <time>2013-10-13T12:10:57Z</time>
      </trkpt>
      <trkpt lat="43.39801" lon="6.70538">
        <ele>64.689994812012</ele>
        <time>2013-10-13T12:11:00Z</time>
      </trkpt>
      <trkpt lat="43.39804" lon="6.70526">
        <ele>65</ele>
        <time>2013-10-13T12:11:02Z</time>
      </trkpt>
      <trkpt lat="43.39808" lon="6.70517">
        <ele>65</ele>
        <time>2013-10-13T12:11:04Z</time>
      </trkpt>
      <trkpt lat="43.39818" lon="6.70508">
        <ele>65</ele>
        <time>2013-10-13T12:11:07Z</time>
      </trkpt>
      <trkpt lat="43.39825" lon="6.70493">
        <ele>65</ele>
        <time>2013-10-13T12:11:10Z</time>
      </trkpt>
      <trkpt lat="43.39829" lon="6.70481">
        <ele>65</ele>
        <time>2013-10-13T12:11:13Z</time>
      </trkpt>
      <trkpt lat="43.39837" lon="6.70488">
        <ele>65</ele>
        <time>2013-10-13T12:11:17Z</time>
      </trkpt>
      <trkpt lat="43.39841" lon="6.70496">
        <ele>65</ele>
        <time>2013-10-13T12:11:21Z</time>
      </trkpt>
      <trkpt lat="43.39845" lon="6.70504">
        <ele>65</ele>
        <time>2013-10-13T12:11:28Z</time>
      </trkpt>
      <trkpt lat="43.3985" lon="6.70509">
        <ele>66</ele>
        <time>2013-10-13T12:11:32Z</time>
      </trkpt>
      <trkpt lat="43.39855" lon="6.70512">
        <ele>66</ele>
        <time>2013-10-13T12:11:36Z</time>
      </trkpt>
      <trkpt lat="43.39858" lon="6.70522">
        <ele>67.42000579834</ele>
        <time>2013-10-13T12:11:40Z</time>
      </trkpt>
      <trkpt lat="43.3986" lon="6.70533">
        <ele>68</ele>
        <time>2013-10-13T12:11:43Z</time>
      </trkpt>
      <trkpt lat="43.39863" lon="6.70542">
        <ele>68</ele>
        <time>2013-10-13T12:11:45Z</time>
      </trkpt>
      <trkpt lat="43.39867" lon="6.7055">
        <ele>68</ele>
        <time>2013-10-13T12:11:47Z</time>
      </trkpt>
      <trkpt lat="43.39871" lon="6.70559">
        <ele>68</ele>
        <time>2013-10-13T12:11:49Z</time>
      </trkpt>
      <trkpt lat="43.39878" lon="6.70567">
        <ele>67</ele>
        <time>2013-10-13T12:11:51Z</time>
      </trkpt>
      <trkpt lat="43.39883" lon="6.70576">
        <ele>67</ele>
        <time>2013-10-13T12:11:53Z</time>
      </trkpt>
      <trkpt lat="43.3989" lon="6.70584">
        <ele>67</ele>
        <time>2013-10-13T12:11:55Z</time>
      </trkpt>
      <trkpt lat="43.39898" lon="6.7059">
        <ele>67</ele>
        <time>2013-10-13T12:11:57Z</time>
      </trkpt>
      <trkpt lat="43.39907" lon="6.70592">
        <ele>67</ele>
        <time>2013-10-13T12:11:59Z</time>
      </trkpt>
      <trkpt lat="43.39915" lon="6.70594">
        <ele>66</ele>
        <time>2013-10-13T12:12:01Z</time>
      </trkpt>
      <trkpt lat="43.39925" lon="6.70589">
        <ele>66</ele>
        <time>2013-10-13T12:12:04Z</time>
      </trkpt>
      <trkpt lat="43.39933" lon="6.70581">
        <ele>66</ele>
        <time>2013-10-13T12:12:08Z</time>
      </trkpt>
      <trkpt lat="43.39941" lon="6.70573">
        <ele>68</ele>
        <time>2013-10-13T12:12:12Z</time>
      </trkpt>
      <trkpt lat="43.39947" lon="6.70567">
        <ele>68</ele>
        <time>2013-10-13T12:12:15Z</time>
      </trkpt>
      <trkpt lat="43.39953" lon="6.70561">
        <ele>68</ele>
        <time>2013-10-13T12:12:18Z</time>
      </trkpt>
      <trkpt lat="43.39962" lon="6.70558">
        <ele>70</ele>
        <time>2013-10-13T12:12:23Z</time>
      </trkpt>
      <trkpt lat="43.39968" lon="6.70555">
        <ele>70</ele>
        <time>2013-10-13T12:12:26Z</time>
      </trkpt>
      <trkpt lat="43.39975" lon="6.7055">
        <ele>70</ele>
        <time>2013-10-13T12:12:29Z</time>
      </trkpt>
      <trkpt lat="43.39983" lon="6.7054">
        <ele>71</ele>
        <time>2013-10-13T12:12:32Z</time>
      </trkpt>
      <trkpt lat="43.39986" lon="6.70528">
        <ele>71</ele>
        <time>2013-10-13T12:12:35Z</time>
      </trkpt>
      <trkpt lat="43.39986" lon="6.70514">
        <ele>71</ele>
        <time>2013-10-13T12:12:38Z</time>
      </trkpt>
      <trkpt lat="43.39985" lon="6.70505">
        <ele>71</ele>
        <time>2013-10-13T12:12:40Z</time>
      </trkpt>
      <trkpt lat="43.39987" lon="6.70493">
        <ele>71</ele>
        <time>2013-10-13T12:12:43Z</time>
      </trkpt>
      <trkpt lat="43.39991" lon="6.7048">
        <ele>71</ele>
        <time>2013-10-13T12:12:46Z</time>
      </trkpt>
      <trkpt lat="43.39996" lon="6.70466">
        <ele>71</ele>
        <time>2013-10-13T12:12:49Z</time>
      </trkpt>
      <trkpt lat="43.40002" lon="6.70453">
        <ele>71</ele>
        <time>2013-10-13T12:12:51Z</time>
      </trkpt>
      <trkpt lat="43.40004" lon="6.70438">
        <ele>71</ele>
        <time>2013-10-13T12:12:53Z</time>
      </trkpt>
      <trkpt lat="43.40012" lon="6.70426">
        <ele>71</ele>
        <time>2013-10-13T12:12:56Z</time>
      </trkpt>
      <trkpt lat="43.40024" lon="6.70431">
        <ele>71</ele>
        <time>2013-10-13T12:12:59Z</time>
      </trkpt>
      <trkpt lat="43.40037" lon="6.70429">
        <ele>69</ele>
        <time>2013-10-13T12:13:02Z</time>
      </trkpt>
      <trkpt lat="43.40049" lon="6.70422">
        <ele>69</ele>
        <time>2013-10-13T12:13:05Z</time>
      </trkpt>
      <trkpt lat="43.40058" lon="6.70418">
        <ele>69</ele>
        <time>2013-10-13T12:13:09Z</time>
      </trkpt>
      <trkpt lat="43.4007" lon="6.70422">
        <ele>69</ele>
        <time>2013-10-13T12:13:12Z</time>
      </trkpt>
      <trkpt lat="43.40076" lon="6.70435">
        <ele>69</ele>
        <time>2013-10-13T12:13:15Z</time>
      </trkpt>
      <trkpt lat="43.40083" lon="6.70449">
        <ele>69</ele>
        <time>2013-10-13T12:13:18Z</time>
      </trkpt>
      <trkpt lat="43.40085" lon="6.7046">
        <ele>66.15998840332</ele>
        <time>2013-10-13T12:13:20Z</time>
      </trkpt>
      <trkpt lat="43.40087" lon="6.70472">
        <ele>65</ele>
        <time>2013-10-13T12:13:22Z</time>
      </trkpt>
      <trkpt lat="43.40095" lon="6.70472">
        <ele>65</ele>
        <time>2013-10-13T12:13:27Z</time>
      </trkpt>
      <trkpt lat="43.40101" lon="6.70482">
        <ele>66</ele>
        <time>2013-10-13T12:13:32Z</time>
      </trkpt>
      <trkpt lat="43.40102" lon="6.70492">
        <ele>66</ele>
        <time>2013-10-13T12:13:35Z</time>
      </trkpt>
      <trkpt lat="43.40105" lon="6.70502">
        <ele>66</ele>
        <time>2013-10-13T12:13:38Z</time>
      </trkpt>
      <trkpt lat="43.40109" lon="6.70511">
        <ele>67</ele>
        <time>2013-10-13T12:13:41Z</time>
      </trkpt>
      <trkpt lat="43.40113" lon="6.7052">
        <ele>67</ele>
        <time>2013-10-13T12:13:44Z</time>
      </trkpt>
      <trkpt lat="43.40113" lon="6.70534">
        <ele>67</ele>
        <time>2013-10-13T12:13:47Z</time>
      </trkpt>
      <trkpt lat="43.40116" lon="6.70544">
        <ele>67</ele>
        <time>2013-10-13T12:13:49Z</time>
      </trkpt>
      <trkpt lat="43.40122" lon="6.70548">
        <ele>68</ele>
        <time>2013-10-13T12:13:52Z</time>
      </trkpt>
      <trkpt lat="43.40131" lon="6.70552">
        <ele>68</ele>
        <time>2013-10-13T12:13:56Z</time>
      </trkpt>
      <trkpt lat="43.40134" lon="6.70565">
        <ele>68.710006713867</ele>
        <time>2013-10-13T12:14:00Z</time>
      </trkpt>
      <trkpt lat="43.40141" lon="6.70575">
        <ele>69</ele>
        <time>2013-10-13T12:14:03Z</time>
      </trkpt>
      <trkpt lat="43.40145" lon="6.7058">
        <ele>69</ele>
        <time>2013-10-13T12:14:05Z</time>
      </trkpt>
      <trkpt lat="43.40151" lon="6.70587">
        <ele>69</ele>
        <time>2013-10-13T12:14:07Z</time>
      </trkpt>
      <trkpt lat="43.40157" lon="6.70598">
        <ele>69</ele>
        <time>2013-10-13T12:14:09Z</time>
      </trkpt>
      <trkpt lat="43.40161" lon="6.70611">
        <ele>64</ele>
        <time>2013-10-13T12:14:11Z</time>
      </trkpt>
      <trkpt lat="43.40167" lon="6.70627">
        <ele>64</ele>
        <time>2013-10-13T12:14:13Z</time>
      </trkpt>
      <trkpt lat="43.40174" lon="6.70641">
        <ele>61.15998840332</ele>
        <time>2013-10-13T12:14:15Z</time>
      </trkpt>
      <trkpt lat="43.40183" lon="6.70647">
        <ele>60</ele>
        <time>2013-10-13T12:14:17Z</time>
      </trkpt>
      <trkpt lat="43.40184" lon="6.70661">
        <ele>59.28999710083</ele>
        <time>2013-10-13T12:14:20Z</time>
      </trkpt>
      <trkpt lat="43.40189" lon="6.70673">
        <ele>59</ele>
        <time>2013-10-13T12:14:24Z</time>
      </trkpt>
      <trkpt lat="43.40197" lon="6.70685">
        <ele>58</ele>
        <time>2013-10-13T12:14:27Z</time>
      </trkpt>
      <trkpt lat="43.402" lon="6.70696">
        <ele>58</ele>
        <time>2013-10-13T12:14:29Z</time>
      </trkpt>
      <trkpt lat="43.40207" lon="6.70708">
        <ele>57</ele>
        <time>2013-10-13T12:14:32Z</time>
      </trkpt>
      <trkpt lat="43.40213" lon="6.70721">
        <ele>57</ele>
        <time>2013-10-13T12:14:35Z</time>
      </trkpt>
      <trkpt lat="43.40212" lon="6.70732">
        <ele>57</ele>
        <time>2013-10-13T12:14:37Z</time>
      </trkpt>
      <trkpt lat="43.40209" lon="6.70746">
        <ele>57</ele>
        <time>2013-10-13T12:14:39Z</time>
      </trkpt>
      <trkpt lat="43.40208" lon="6.70761">
        <ele>54</ele>
        <time>2013-10-13T12:14:41Z</time>
      </trkpt>
      <trkpt lat="43.40206" lon="6.70778">
        <ele>54</ele>
        <time>2013-10-13T12:14:43Z</time>
      </trkpt>
      <trkpt lat="43.40203" lon="6.70791">
        <ele>52.169971466064</ele>
        <time>2013-10-13T12:14:45Z</time>
      </trkpt>
      <trkpt lat="43.40198" lon="6.70805">
        <ele>51</ele>
        <time>2013-10-13T12:14:47Z</time>
      </trkpt>
      <trkpt lat="43.40191" lon="6.70818">
        <ele>51</ele>
        <time>2013-10-13T12:14:49Z</time>
      </trkpt>
      <trkpt lat="43.40184" lon="6.70831">
        <ele>49</ele>
        <time>2013-10-13T12:14:51Z</time>
      </trkpt>
      <trkpt lat="43.40177" lon="6.70843">
        <ele>49</ele>
        <time>2013-10-13T12:14:53Z</time>
      </trkpt>
      <trkpt lat="43.4017" lon="6.70851">
        <ele>48.389991760254</ele>
        <time>2013-10-13T12:14:55Z</time>
      </trkpt>
      <trkpt lat="43.40162" lon="6.70861">
        <ele>48</ele>
        <time>2013-10-13T12:14:57Z</time>
      </trkpt>
      <trkpt lat="43.40155" lon="6.70877">
        <ele>48</ele>
        <time>2013-10-13T12:14:59Z</time>
      </trkpt>
      <trkpt lat="43.40151" lon="6.70885">
        <ele>45.919998168945</ele>
        <time>2013-10-13T12:15:00Z</time>
      </trkpt>
      <trkpt lat="43.40148" lon="6.70901">
        <ele>44</ele>
        <time>2013-10-13T12:15:02Z</time>
      </trkpt>
      <trkpt lat="43.40146" lon="6.70914">
        <ele>44</ele>
        <time>2013-10-13T12:15:04Z</time>
      </trkpt>
      <trkpt lat="43.40144" lon="6.70927">
        <ele>41</ele>
        <time>2013-10-13T12:15:06Z</time>
      </trkpt>
      <trkpt lat="43.40141" lon="6.70938">
        <ele>41</ele>
        <time>2013-10-13T12:15:08Z</time>
      </trkpt>
      <trkpt lat="43.40139" lon="6.70949">
        <ele>39.170009613037</ele>
        <time>2013-10-13T12:15:10Z</time>
      </trkpt>
      <trkpt lat="43.40138" lon="6.7096">
        <ele>35.390003204346</ele>
        <time>2013-10-13T12:15:12Z</time>
      </trkpt>
      <trkpt lat="43.40135" lon="6.70979">
        <ele>31.389989852905</ele>
        <time>2013-10-13T12:15:15Z</time>
      </trkpt>
      <trkpt lat="43.40136" lon="6.70996">
        <ele>31</ele>
        <time>2013-10-13T12:15:17Z</time>
      </trkpt>
      <trkpt lat="43.40137" lon="6.71012">
        <ele>29.390003204346</ele>
        <time>2013-10-13T12:15:20Z</time>
      </trkpt>
      <trkpt lat="43.40136" lon="6.7103">
        <ele>26.779981613159</ele>
        <time>2013-10-13T12:15:23Z</time>
      </trkpt>
      <trkpt lat="43.40138" lon="6.71047">
        <ele>24</ele>
        <time>2013-10-13T12:15:26Z</time>
      </trkpt>
      <trkpt lat="43.4014" lon="6.71063">
        <ele>21.389989852905</ele>
        <time>2013-10-13T12:15:29Z</time>
      </trkpt>
      <trkpt lat="43.40142" lon="6.71078">
        <ele>19.39999961853</ele>
        <time>2013-10-13T12:15:31Z</time>
      </trkpt>
      <trkpt lat="43.40143" lon="6.71094">
        <ele>16.401954650879</ele>
        <time>2013-10-13T12:15:33Z</time>
      </trkpt>
      <trkpt lat="43.40141" lon="6.7111">
        <ele>14.428567886352</ele>
        <time>2013-10-13T12:15:35Z</time>
      </trkpt>
      <trkpt lat="43.4014" lon="6.7113">
        <ele>13</ele>
        <time>2013-10-13T12:15:37Z</time>
      </trkpt>
      <trkpt lat="43.4014" lon="6.7115">
        <ele>11.28999710083</ele>
        <time>2013-10-13T12:15:39Z</time>
      </trkpt>
      <trkpt lat="43.40142" lon="6.7117">
        <ele>10.28999710083</ele>
        <time>2013-10-13T12:15:41Z</time>
      </trkpt>
      <trkpt lat="43.40145" lon="6.71192">
        <ele>8.2899971008301</ele>
        <time>2013-10-13T12:15:43Z</time>
      </trkpt>
      <trkpt lat="43.40145" lon="6.71203">
        <ele>8.7000064849853</ele>
        <time>2013-10-13T12:15:44Z</time>
      </trkpt>
      <trkpt lat="43.40145" lon="6.71214">
        <ele>9</ele>
        <time>2013-10-13T12:15:45Z</time>
      </trkpt>
      <trkpt lat="43.40145" lon="6.71224">
        <ele>8.2899971008301</ele>
        <time>2013-10-13T12:15:46Z</time>
      </trkpt>
      <trkpt lat="43.40144" lon="6.71244">
        <ele>7</ele>
        <time>2013-10-13T12:15:48Z</time>
      </trkpt>
      <trkpt lat="43.40145" lon="6.71253">
        <ele>7.7100033760071</ele>
        <time>2013-10-13T12:15:49Z</time>
      </trkpt>
      <trkpt lat="43.40144" lon="6.71267">
        <ele>8</ele>
        <time>2013-10-13T12:15:51Z</time>
      </trkpt>
      <trkpt lat="43.40136" lon="6.71274">
        <ele>8</ele>
        <time>2013-10-13T12:15:53Z</time>
      </trkpt>
      <trkpt lat="43.40126" lon="6.71281">
        <ele>7</ele>
        <time>2013-10-13T12:15:56Z</time>
      </trkpt>
      <trkpt lat="43.40119" lon="6.71287">
        <ele>7</ele>
        <time>2013-10-13T12:15:58Z</time>
      </trkpt>
      <trkpt lat="43.40111" lon="6.71293">
        <ele>7</ele>
        <time>2013-10-13T12:16:00Z</time>
      </trkpt>
      <trkpt lat="43.40103" lon="6.713">
        <ele>7</ele>
        <time>2013-10-13T12:16:02Z</time>
      </trkpt>
      <trkpt lat="43.40096" lon="6.71306">
        <ele>7</ele>
        <time>2013-10-13T12:16:04Z</time>
      </trkpt>
      <trkpt lat="43.40088" lon="6.71312">
        <ele>7</ele>
        <time>2013-10-13T12:16:06Z</time>
      </trkpt>
      <trkpt lat="43.40081" lon="6.71318">
        <ele>7</ele>
        <time>2013-10-13T12:16:08Z</time>
      </trkpt>
      <trkpt lat="43.40073" lon="6.71324">
        <ele>7.6899967193603</ele>
        <time>2013-10-13T12:16:10Z</time>
      </trkpt>
      <trkpt lat="43.40065" lon="6.7133">
        <ele>8</ele>
        <time>2013-10-13T12:16:12Z</time>
      </trkpt>
      <trkpt lat="43.40059" lon="6.71337">
        <ele>8</ele>
        <time>2013-10-13T12:16:14Z</time>
      </trkpt>
      <trkpt lat="43.40052" lon="6.71345">
        <ele>8</ele>
        <time>2013-10-13T12:16:16Z</time>
      </trkpt>
      <trkpt lat="43.40046" lon="6.71354">
        <ele>8</ele>
        <time>2013-10-13T12:16:18Z</time>
      </trkpt>
      <trkpt lat="43.40041" lon="6.71363">
        <ele>8</ele>
        <time>2013-10-13T12:16:20Z</time>
      </trkpt>
      <trkpt lat="43.40036" lon="6.71373">
        <ele>8</ele>
        <time>2013-10-13T12:16:22Z</time>
      </trkpt>
      <trkpt lat="43.40031" lon="6.71384">
        <ele>8</ele>
        <time>2013-10-13T12:16:24Z</time>
      </trkpt>
      <trkpt lat="43.40026" lon="6.71393">
        <ele>8</ele>
        <time>2013-10-13T12:16:26Z</time>
      </trkpt>
      <trkpt lat="43.4002" lon="6.71403">
        <ele>8</ele>
        <time>2013-10-13T12:16:28Z</time>
      </trkpt>
      <trkpt lat="43.40018" lon="6.71408">
        <ele>8</ele>
        <time>2013-10-13T12:16:29Z</time>
      </trkpt>
      <trkpt lat="43.40015" lon="6.71413">
        <ele>8</ele>
        <time>2013-10-13T12:16:30Z</time>
      </trkpt>
      <trkpt lat="43.4001" lon="6.71422">
        <ele>8</ele>
        <time>2013-10-13T12:16:32Z</time>
      </trkpt>
      <trkpt lat="43.40005" lon="6.71431">
        <ele>8</ele>
        <time>2013-10-13T12:16:34Z</time>
      </trkpt>
      <trkpt lat="43.40001" lon="6.7144">
        <ele>8</ele>
        <time>2013-10-13T12:16:36Z</time>
      </trkpt>
      <trkpt lat="43.39996" lon="6.71449">
        <ele>8</ele>
        <time>2013-10-13T12:16:38Z</time>
      </trkpt>
      <trkpt lat="43.39991" lon="6.71458">
        <ele>8</ele>
        <time>2013-10-13T12:16:40Z</time>
      </trkpt>
      <trkpt lat="43.39985" lon="6.71467">
        <ele>8</ele>
        <time>2013-10-13T12:16:42Z</time>
      </trkpt>
      <trkpt lat="43.3998" lon="6.71477">
        <ele>8</ele>
        <time>2013-10-13T12:16:44Z</time>
      </trkpt>
      <trkpt lat="43.39978" lon="6.71482">
        <ele>8</ele>
        <time>2013-10-13T12:16:45Z</time>
      </trkpt>
      <trkpt lat="43.39976" lon="6.71492">
        <ele>8</ele>
        <time>2013-10-13T12:16:47Z</time>
      </trkpt>
      <trkpt lat="43.39977" lon="6.71503">
        <ele>8</ele>
        <time>2013-10-13T12:16:49Z</time>
      </trkpt>
      <trkpt lat="43.39979" lon="6.71515">
        <ele>7</ele>
        <time>2013-10-13T12:16:51Z</time>
      </trkpt>
      <trkpt lat="43.3998" lon="6.71526">
        <ele>7</ele>
        <time>2013-10-13T12:16:53Z</time>
      </trkpt>
      <trkpt lat="43.39982" lon="6.71538">
        <ele>7</ele>
        <time>2013-10-13T12:16:55Z</time>
      </trkpt>
      <trkpt lat="43.39983" lon="6.7155">
        <ele>7</ele>
        <time>2013-10-13T12:16:57Z</time>
      </trkpt>
      <trkpt lat="43.39985" lon="6.71561">
        <ele>7</ele>
        <time>2013-10-13T12:16:59Z</time>
      </trkpt>
      <trkpt lat="43.39986" lon="6.71573">
        <ele>7</ele>
        <time>2013-10-13T12:17:01Z</time>
      </trkpt>
      <trkpt lat="43.39988" lon="6.71584">
        <ele>7</ele>
        <time>2013-10-13T12:17:03Z</time>
      </trkpt>
      <trkpt lat="43.39989" lon="6.71596">
        <ele>7</ele>
        <time>2013-10-13T12:17:05Z</time>
      </trkpt>
      <trkpt lat="43.39986" lon="6.71607">
        <ele>7</ele>
        <time>2013-10-13T12:17:07Z</time>
      </trkpt>
      <trkpt lat="43.39983" lon="6.71618">
        <ele>7</ele>
        <time>2013-10-13T12:17:09Z</time>
      </trkpt>
      <trkpt lat="43.39978" lon="6.71627">
        <ele>7</ele>
        <time>2013-10-13T12:17:11Z</time>
      </trkpt>
      <trkpt lat="43.39975" lon="6.71637">
        <ele>7</ele>
        <time>2013-10-13T12:17:15Z</time>
      </trkpt>
      <trkpt lat="43.39976" lon="6.71645">
        <ele>7</ele>
        <time>2013-10-13T12:17:19Z</time>
      </trkpt>
      <trkpt lat="43.39978" lon="6.71652">
        <ele>7</ele>
        <time>2013-10-13T12:17:25Z</time>
      </trkpt>
      <trkpt lat="43.39979" lon="6.71656">
        <ele>7</ele>
        <time>2013-10-13T12:17:29Z</time>
      </trkpt>
      <trkpt lat="43.39979" lon="6.71657">
        <ele>7</ele>
        <time>2013-10-13T12:17:32Z</time>
      </trkpt>
      <trkpt lat="43.39979" lon="6.71657">
        <ele>7</ele>
        <time>2013-10-13T12:17:33Z</time>
      </trkpt>
      <trkpt lat="43.39981" lon="6.71657">
        <ele>7</ele>
        <time>2013-10-13T12:17:35Z</time>
      </trkpt>
      <trkpt lat="43.39986" lon="6.71662">
        <ele>7</ele>
        <time>2013-10-13T12:17:39Z</time>
      </trkpt>
      <trkpt lat="43.39995" lon="6.71671">
        <ele>7</ele>
        <time>2013-10-13T12:17:48Z</time>
      </trkpt>
      <trkpt lat="43.39999" lon="6.71672">
        <ele>7</ele>
        <time>2013-10-13T12:17:53Z</time>
      </trkpt>
      <trkpt lat="43.39997" lon="6.7167">
        <ele>7</ele>
        <time>2013-10-13T12:17:55Z</time>
      </trkpt>
      <trkpt lat="43.39998" lon="6.7167">
        <ele>7</ele>
        <time>2013-10-13T12:17:59Z</time>
      </trkpt>
      <trkpt lat="43.39996" lon="6.71673">
        <ele>7</ele>
        <time>2013-10-13T12:18:03Z</time>
      </trkpt>
      <trkpt lat="43.39991" lon="6.71683">
        <ele>7</ele>
        <time>2013-10-13T12:18:08Z</time>
      </trkpt>
      <trkpt lat="43.39988" lon="6.71695">
        <ele>7</ele>
        <time>2013-10-13T12:18:11Z</time>
      </trkpt>
      <trkpt lat="43.39984" lon="6.71705">
        <ele>7</ele>
        <time>2013-10-13T12:18:13Z</time>
      </trkpt>
      <trkpt lat="43.3998" lon="6.71715">
        <ele>7</ele>
        <time>2013-10-13T12:18:15Z</time>
      </trkpt>
      <trkpt lat="43.39976" lon="6.71725">
        <ele>7</ele>
        <time>2013-10-13T12:18:17Z</time>
      </trkpt>
      <trkpt lat="43.39972" lon="6.71734">
        <ele>7</ele>
        <time>2013-10-13T12:18:19Z</time>
      </trkpt>
      <trkpt lat="43.39967" lon="6.71743">
        <ele>7</ele>
        <time>2013-10-13T12:18:21Z</time>
      </trkpt>
      <trkpt lat="43.3996" lon="6.71753">
        <ele>7</ele>
        <time>2013-10-13T12:18:24Z</time>
      </trkpt>
      <trkpt lat="43.39953" lon="6.71764">
        <ele>7</ele>
        <time>2013-10-13T12:18:27Z</time>
      </trkpt>
      <trkpt lat="43.39948" lon="6.71777">
        <ele>9.4399871826172</ele>
        <time>2013-10-13T12:18:30Z</time>
      </trkpt>
      <trkpt lat="43.39943" lon="6.71784">
        <ele>11</ele>
        <time>2013-10-13T12:18:32Z</time>
      </trkpt>
      <trkpt lat="43.39937" lon="6.71791">
        <ele>11</ele>
        <time>2013-10-13T12:18:34Z</time>
      </trkpt>
      <trkpt lat="43.39929" lon="6.71801">
        <ele>11</ele>
        <time>2013-10-13T12:18:37Z</time>
      </trkpt>
      <trkpt lat="43.39923" lon="6.71808">
        <ele>11</ele>
        <time>2013-10-13T12:18:39Z</time>
      </trkpt>
      <trkpt lat="43.39918" lon="6.71815">
        <ele>11</ele>
        <time>2013-10-13T12:18:41Z</time>
      </trkpt>
      <trkpt lat="43.39912" lon="6.7182">
        <ele>11</ele>
        <time>2013-10-13T12:18:43Z</time>
      </trkpt>
      <trkpt lat="43.39906" lon="6.71826">
        <ele>11</ele>
        <time>2013-10-13T12:18:45Z</time>
      </trkpt>
      <trkpt lat="43.399" lon="6.71831">
        <ele>11</ele>
        <time>2013-10-13T12:18:47Z</time>
      </trkpt>
      <trkpt lat="43.39893" lon="6.71836">
        <ele>11</ele>
        <time>2013-10-13T12:18:49Z</time>
      </trkpt>
      <trkpt lat="43.39886" lon="6.71841">
        <ele>11</ele>
        <time>2013-10-13T12:18:51Z</time>
      </trkpt>
      <trkpt lat="43.39882" lon="6.71843">
        <ele>11</ele>
        <time>2013-10-13T12:18:52Z</time>
      </trkpt>
      <trkpt lat="43.39878" lon="6.71845">
        <ele>11</ele>
        <time>2013-10-13T12:18:53Z</time>
      </trkpt>
      <trkpt lat="43.39875" lon="6.71847">
        <ele>11</ele>
        <time>2013-10-13T12:18:54Z</time>
      </trkpt>
      <trkpt lat="43.3987" lon="6.71848">
        <ele>11</ele>
        <time>2013-10-13T12:18:55Z</time>
      </trkpt>
      <trkpt lat="43.39866" lon="6.7185">
        <ele>11</ele>
        <time>2013-10-13T12:18:56Z</time>
      </trkpt>
      <trkpt lat="43.39862" lon="6.71852">
        <ele>11</ele>
        <time>2013-10-13T12:18:57Z</time>
      </trkpt>
      <trkpt lat="43.39858" lon="6.71854">
        <ele>11</ele>
        <time>2013-10-13T12:18:58Z</time>
      </trkpt>
      <trkpt lat="43.39854" lon="6.71856">
        <ele>11</ele>
        <time>2013-10-13T12:18:59Z</time>
      </trkpt>
      <trkpt lat="43.39849" lon="6.71857">
        <ele>11</ele>
        <time>2013-10-13T12:19:00Z</time>
      </trkpt>
      <trkpt lat="43.39845" lon="6.71858">
        <ele>11</ele>
        <time>2013-10-13T12:19:01Z</time>
      </trkpt>
      <trkpt lat="43.39841" lon="6.7186">
        <ele>11</ele>
        <time>2013-10-13T12:19:02Z</time>
      </trkpt>
      <trkpt lat="43.39837" lon="6.71861">
        <ele>11</ele>
        <time>2013-10-13T12:19:03Z</time>
      </trkpt>
      <trkpt lat="43.39832" lon="6.71862">
        <ele>11</ele>
        <time>2013-10-13T12:19:04Z</time>
      </trkpt>
      <trkpt lat="43.39828" lon="6.71864">
        <ele>11</ele>
        <time>2013-10-13T12:19:05Z</time>
      </trkpt>
      <trkpt lat="43.39824" lon="6.71865">
        <ele>11</ele>
        <time>2013-10-13T12:19:06Z</time>
      </trkpt>
      <trkpt lat="43.39819" lon="6.71866">
        <ele>11</ele>
        <time>2013-10-13T12:19:07Z</time>
      </trkpt>
      <trkpt lat="43.39815" lon="6.71867">
        <ele>11</ele>
        <time>2013-10-13T12:19:08Z</time>
      </trkpt>
      <trkpt lat="43.3981" lon="6.71869">
        <ele>11</ele>
        <time>2013-10-13T12:19:09Z</time>
      </trkpt>
      <trkpt lat="43.39806" lon="6.7187">
        <ele>11.609996795654</ele>
        <time>2013-10-13T12:19:10Z</time>
      </trkpt>
      <trkpt lat="43.39801" lon="6.71871">
        <ele>12</ele>
        <time>2013-10-13T12:19:11Z</time>
      </trkpt>
      <trkpt lat="43.39797" lon="6.71872">
        <ele>12</ele>
        <time>2013-10-13T12:19:12Z</time>
      </trkpt>
      <trkpt lat="43.39793" lon="6.71873">
        <ele>12</ele>
        <time>2013-10-13T12:19:13Z</time>
      </trkpt>
      <trkpt lat="43.39788" lon="6.71875">
        <ele>12</ele>
        <time>2013-10-13T12:19:14Z</time>
      </trkpt>
      <trkpt lat="43.39784" lon="6.71875">
        <ele>12</ele>
        <time>2013-10-13T12:19:15Z</time>
      </trkpt>
      <trkpt lat="43.3978" lon="6.71877">
        <ele>12</ele>
        <time>2013-10-13T12:19:16Z</time>
      </trkpt>
      <trkpt lat="43.39775" lon="6.71878">
        <ele>12</ele>
        <time>2013-10-13T12:19:17Z</time>
      </trkpt>
      <trkpt lat="43.39771" lon="6.71879">
        <ele>12</ele>
        <time>2013-10-13T12:19:18Z</time>
      </trkpt>
      <trkpt lat="43.39766" lon="6.7188">
        <ele>12</ele>
        <time>2013-10-13T12:19:19Z</time>
      </trkpt>
      <trkpt lat="43.39762" lon="6.71881">
        <ele>12</ele>
        <time>2013-10-13T12:19:20Z</time>
      </trkpt>
      <trkpt lat="43.39758" lon="6.71883">
        <ele>12</ele>
        <time>2013-10-13T12:19:21Z</time>
      </trkpt>
      <trkpt lat="43.39753" lon="6.71884">
        <ele>12</ele>
        <time>2013-10-13T12:19:22Z</time>
      </trkpt>
      <trkpt lat="43.39749" lon="6.71885">
        <ele>12</ele>
        <time>2013-10-13T12:19:23Z</time>
      </trkpt>
      <trkpt lat="43.39745" lon="6.71886">
        <ele>12</ele>
        <time>2013-10-13T12:19:24Z</time>
      </trkpt>
      <trkpt lat="43.3974" lon="6.71887">
        <ele>12</ele>
        <time>2013-10-13T12:19:25Z</time>
      </trkpt>
      <trkpt lat="43.39736" lon="6.71888">
        <ele>12</ele>
        <time>2013-10-13T12:19:26Z</time>
      </trkpt>
      <trkpt lat="43.39731" lon="6.71889">
        <ele>12</ele>
        <time>2013-10-13T12:19:27Z</time>
      </trkpt>
      <trkpt lat="43.39727" lon="6.7189">
        <ele>12</ele>
        <time>2013-10-13T12:19:28Z</time>
      </trkpt>
      <trkpt lat="43.39722" lon="6.71891">
        <ele>12</ele>
        <time>2013-10-13T12:19:29Z</time>
      </trkpt>
      <trkpt lat="43.39718" lon="6.71891">
        <ele>12</ele>
        <time>2013-10-13T12:19:30Z</time>
      </trkpt>
      <trkpt lat="43.39714" lon="6.71892">
        <ele>12</ele>
        <time>2013-10-13T12:19:31Z</time>
      </trkpt>
      <trkpt lat="43.39709" lon="6.71893">
        <ele>12</ele>
        <time>2013-10-13T12:19:32Z</time>
      </trkpt>
      <trkpt lat="43.39706" lon="6.71894">
        <ele>12</ele>
        <time>2013-10-13T12:19:33Z</time>
      </trkpt>
      <trkpt lat="43.397" lon="6.71901">
        <ele>12</ele>
        <time>2013-10-13T12:19:35Z</time>
      </trkpt>
      <trkpt lat="43.39699" lon="6.71914">
        <ele>12</ele>
        <time>2013-10-13T12:19:37Z</time>
      </trkpt>
      <trkpt lat="43.39698" lon="6.71931">
        <ele>12</ele>
        <time>2013-10-13T12:19:39Z</time>
      </trkpt>
      <trkpt lat="43.39694" lon="6.71948">
        <ele>11</ele>
        <time>2013-10-13T12:19:41Z</time>
      </trkpt>
      <trkpt lat="43.39692" lon="6.71962">
        <ele>11</ele>
        <time>2013-10-13T12:19:43Z</time>
      </trkpt>
      <trkpt lat="43.3969" lon="6.71978">
        <ele>11</ele>
        <time>2013-10-13T12:19:45Z</time>
      </trkpt>
      <trkpt lat="43.39688" lon="6.71995">
        <ele>11</ele>
        <time>2013-10-13T12:19:47Z</time>
      </trkpt>
      <trkpt lat="43.39685" lon="6.72012">
        <ele>11</ele>
        <time>2013-10-13T12:19:49Z</time>
      </trkpt>
      <trkpt lat="43.39681" lon="6.72029">
        <ele>9</ele>
        <time>2013-10-13T12:19:51Z</time>
      </trkpt>
      <trkpt lat="43.39677" lon="6.72045">
        <ele>9</ele>
        <time>2013-10-13T12:19:53Z</time>
      </trkpt>
      <trkpt lat="43.39674" lon="6.72058">
        <ele>9</ele>
        <time>2013-10-13T12:19:55Z</time>
      </trkpt>
      <trkpt lat="43.39673" lon="6.72072">
        <ele>9</ele>
        <time>2013-10-13T12:19:57Z</time>
      </trkpt>
      <trkpt lat="43.39672" lon="6.72089">
        <ele>9</ele>
        <time>2013-10-13T12:19:59Z</time>
      </trkpt>
      <trkpt lat="43.3967" lon="6.72105">
        <ele>9</ele>
        <time>2013-10-13T12:20:01Z</time>
      </trkpt>
      <trkpt lat="43.39667" lon="6.72119">
        <ele>9</ele>
        <time>2013-10-13T12:20:03Z</time>
      </trkpt>
      <trkpt lat="43.39664" lon="6.72132">
        <ele>9</ele>
        <time>2013-10-13T12:20:05Z</time>
      </trkpt>
      <trkpt lat="43.39661" lon="6.72146">
        <ele>9</ele>
        <time>2013-10-13T12:20:07Z</time>
      </trkpt>
      <trkpt lat="43.39657" lon="6.72161">
        <ele>9</ele>
        <time>2013-10-13T12:20:09Z</time>
      </trkpt>
      <trkpt lat="43.39656" lon="6.72176">
        <ele>9</ele>
        <time>2013-10-13T12:20:11Z</time>
      </trkpt>
      <trkpt lat="43.39654" lon="6.72189">
        <ele>9</ele>
        <time>2013-10-13T12:20:13Z</time>
      </trkpt>
      <trkpt lat="43.39651" lon="6.72203">
        <ele>9</ele>
        <time>2013-10-13T12:20:15Z</time>
      </trkpt>
      <trkpt lat="43.39649" lon="6.72216">
        <ele>9</ele>
        <time>2013-10-13T12:20:17Z</time>
      </trkpt>
      <trkpt lat="43.39648" lon="6.7223">
        <ele>9</ele>
        <time>2013-10-13T12:20:19Z</time>
      </trkpt>
      <trkpt lat="43.39646" lon="6.72242">
        <ele>9</ele>
        <time>2013-10-13T12:20:21Z</time>
      </trkpt>
      <trkpt lat="43.39644" lon="6.7226">
        <ele>9</ele>
        <time>2013-10-13T12:20:24Z</time>
      </trkpt>
      <trkpt lat="43.39641" lon="6.72273">
        <ele>9</ele>
        <time>2013-10-13T12:20:26Z</time>
      </trkpt>
      <trkpt lat="43.39639" lon="6.72286">
        <ele>9</ele>
        <time>2013-10-13T12:20:28Z</time>
      </trkpt>
      <trkpt lat="43.39637" lon="6.72299">
        <ele>9</ele>
        <time>2013-10-13T12:20:30Z</time>
      </trkpt>
      <trkpt lat="43.39635" lon="6.72311">
        <ele>9</ele>
        <time>2013-10-13T12:20:32Z</time>
      </trkpt>
      <trkpt lat="43.39634" lon="6.72324">
        <ele>9</ele>
        <time>2013-10-13T12:20:34Z</time>
      </trkpt>
      <trkpt lat="43.39632" lon="6.72337">
        <ele>9</ele>
        <time>2013-10-13T12:20:36Z</time>
      </trkpt>
      <trkpt lat="43.39629" lon="6.72357">
        <ele>9</ele>
        <time>2013-10-13T12:20:39Z</time>
      </trkpt>
      <trkpt lat="43.39627" lon="6.7237">
        <ele>9</ele>
        <time>2013-10-13T12:20:41Z</time>
      </trkpt>
      <trkpt lat="43.39626" lon="6.72383">
        <ele>9</ele>
        <time>2013-10-13T12:20:43Z</time>
      </trkpt>
      <trkpt lat="43.39624" lon="6.72395">
        <ele>9</ele>
        <time>2013-10-13T12:20:45Z</time>
      </trkpt>
      <trkpt lat="43.39621" lon="6.72407">
        <ele>9</ele>
        <time>2013-10-13T12:20:47Z</time>
      </trkpt>
      <trkpt lat="43.39619" lon="6.7242">
        <ele>9</ele>
        <time>2013-10-13T12:20:49Z</time>
      </trkpt>
      <trkpt lat="43.39617" lon="6.72432">
        <ele>9</ele>
        <time>2013-10-13T12:20:51Z</time>
      </trkpt>
      <trkpt lat="43.39614" lon="6.72444">
        <ele>9</ele>
        <time>2013-10-13T12:20:53Z</time>
      </trkpt>
      <trkpt lat="43.39612" lon="6.72456">
        <ele>9</ele>
        <time>2013-10-13T12:20:55Z</time>
      </trkpt>
      <trkpt lat="43.3961" lon="6.72468">
        <ele>9</ele>
        <time>2013-10-13T12:20:57Z</time>
      </trkpt>
      <trkpt lat="43.3961" lon="6.7248">
        <ele>9</ele>
        <time>2013-10-13T12:20:59Z</time>
      </trkpt>
      <trkpt lat="43.39608" lon="6.72493">
        <ele>9</ele>
        <time>2013-10-13T12:21:01Z</time>
      </trkpt>
      <trkpt lat="43.39606" lon="6.72505">
        <ele>9</ele>
        <time>2013-10-13T12:21:03Z</time>
      </trkpt>
      <trkpt lat="43.39604" lon="6.72515">
        <ele>9</ele>
        <time>2013-10-13T12:21:05Z</time>
      </trkpt>
      <trkpt lat="43.39602" lon="6.72527">
        <ele>9</ele>
        <time>2013-10-13T12:21:07Z</time>
      </trkpt>
      <trkpt lat="43.396" lon="6.7254">
        <ele>9</ele>
        <time>2013-10-13T12:21:09Z</time>
      </trkpt>
      <trkpt lat="43.39597" lon="6.72553">
        <ele>9</ele>
        <time>2013-10-13T12:21:11Z</time>
      </trkpt>
      <trkpt lat="43.39593" lon="6.72564">
        <ele>9</ele>
        <time>2013-10-13T12:21:13Z</time>
      </trkpt>
      <trkpt lat="43.39589" lon="6.72575">
        <ele>9</ele>
        <time>2013-10-13T12:21:15Z</time>
      </trkpt>
      <trkpt lat="43.39586" lon="6.72587">
        <ele>9</ele>
        <time>2013-10-13T12:21:17Z</time>
      </trkpt>
      <trkpt lat="43.39583" lon="6.726">
        <ele>9</ele>
        <time>2013-10-13T12:21:19Z</time>
      </trkpt>
      <trkpt lat="43.3958" lon="6.72612">
        <ele>8</ele>
        <time>2013-10-13T12:21:21Z</time>
      </trkpt>
      <trkpt lat="43.39574" lon="6.72621">
        <ele>8</ele>
        <time>2013-10-13T12:21:23Z</time>
      </trkpt>
      <trkpt lat="43.39566" lon="6.72621">
        <ele>8</ele>
        <time>2013-10-13T12:21:25Z</time>
      </trkpt>
      <trkpt lat="43.39558" lon="6.72618">
        <ele>8</ele>
        <time>2013-10-13T12:21:27Z</time>
      </trkpt>
      <trkpt lat="43.39549" lon="6.72613">
        <ele>8</ele>
        <time>2013-10-13T12:21:29Z</time>
      </trkpt>
      <trkpt lat="43.3954" lon="6.72609">
        <ele>8</ele>
        <time>2013-10-13T12:21:31Z</time>
      </trkpt>
      <trkpt lat="43.39535" lon="6.72608">
        <ele>8</ele>
        <time>2013-10-13T12:21:32Z</time>
      </trkpt>
      <trkpt lat="43.3953" lon="6.72606">
        <ele>8</ele>
        <time>2013-10-13T12:21:33Z</time>
      </trkpt>
      <trkpt lat="43.39526" lon="6.72604">
        <ele>8</ele>
        <time>2013-10-13T12:21:34Z</time>
      </trkpt>
      <trkpt lat="43.39521" lon="6.72602">
        <ele>8</ele>
        <time>2013-10-13T12:21:35Z</time>
      </trkpt>
      <trkpt lat="43.39512" lon="6.72599">
        <ele>8</ele>
        <time>2013-10-13T12:21:37Z</time>
      </trkpt>
      <trkpt lat="43.39503" lon="6.72596">
        <ele>8</ele>
        <time>2013-10-13T12:21:39Z</time>
      </trkpt>
      <trkpt lat="43.39498" lon="6.72596">
        <ele>7.3900032043457</ele>
        <time>2013-10-13T12:21:40Z</time>
      </trkpt>
      <trkpt lat="43.39489" lon="6.72598">
        <ele>7</ele>
        <time>2013-10-13T12:21:42Z</time>
      </trkpt>
      <trkpt lat="43.3948" lon="6.72601">
        <ele>7</ele>
        <time>2013-10-13T12:21:44Z</time>
      </trkpt>
      <trkpt lat="43.39476" lon="6.72603">
        <ele>7</ele>
        <time>2013-10-13T12:21:45Z</time>
      </trkpt>
      <trkpt lat="43.39467" lon="6.72606">
        <ele>7</ele>
        <time>2013-10-13T12:21:47Z</time>
      </trkpt>
      <trkpt lat="43.39458" lon="6.72609">
        <ele>7</ele>
        <time>2013-10-13T12:21:49Z</time>
      </trkpt>
      <trkpt lat="43.39449" lon="6.72612">
        <ele>7</ele>
        <time>2013-10-13T12:21:51Z</time>
      </trkpt>
      <trkpt lat="43.39439" lon="6.72615">
        <ele>7</ele>
        <time>2013-10-13T12:21:53Z</time>
      </trkpt>
      <trkpt lat="43.3943" lon="6.72618">
        <ele>7</ele>
        <time>2013-10-13T12:21:55Z</time>
      </trkpt>
      <trkpt lat="43.39421" lon="6.7262">
        <ele>7</ele>
        <time>2013-10-13T12:21:57Z</time>
      </trkpt>
      <trkpt lat="43.39411" lon="6.72623">
        <ele>7</ele>
        <time>2013-10-13T12:21:59Z</time>
      </trkpt>
      <trkpt lat="43.39407" lon="6.72625">
        <ele>7</ele>
        <time>2013-10-13T12:22:00Z</time>
      </trkpt>
      <trkpt lat="43.39402" lon="6.72626">
        <ele>7</ele>
        <time>2013-10-13T12:22:01Z</time>
      </trkpt>
      <trkpt lat="43.39397" lon="6.72628">
        <ele>7</ele>
        <time>2013-10-13T12:22:02Z</time>
      </trkpt>
      <trkpt lat="43.39389" lon="6.72631">
        <ele>7</ele>
        <time>2013-10-13T12:22:04Z</time>
      </trkpt>
      <trkpt lat="43.39381" lon="6.72634">
        <ele>7</ele>
        <time>2013-10-13T12:22:06Z</time>
      </trkpt>
      <trkpt lat="43.39374" lon="6.72637">
        <ele>7</ele>
        <time>2013-10-13T12:22:08Z</time>
      </trkpt>
      <trkpt lat="43.39366" lon="6.7264">
        <ele>7.6899967193603</ele>
        <time>2013-10-13T12:22:10Z</time>
      </trkpt>
      <trkpt lat="43.39357" lon="6.72643">
        <ele>8</ele>
        <time>2013-10-13T12:22:12Z</time>
      </trkpt>
      <trkpt lat="43.39347" lon="6.72647">
        <ele>8</ele>
        <time>2013-10-13T12:22:14Z</time>
      </trkpt>
      <trkpt lat="43.39339" lon="6.72651">
        <ele>8</ele>
        <time>2013-10-13T12:22:16Z</time>
      </trkpt>
      <trkpt lat="43.3933" lon="6.72655">
        <ele>8</ele>
        <time>2013-10-13T12:22:18Z</time>
      </trkpt>
      <trkpt lat="43.39322" lon="6.7266">
        <ele>8</ele>
        <time>2013-10-13T12:22:20Z</time>
      </trkpt>
      <trkpt lat="43.39314" lon="6.72665">
        <ele>8</ele>
        <time>2013-10-13T12:22:22Z</time>
      </trkpt>
      <trkpt lat="43.39306" lon="6.72669">
        <ele>8</ele>
        <time>2013-10-13T12:22:24Z</time>
      </trkpt>
      <trkpt lat="43.39298" lon="6.72673">
        <ele>8</ele>
        <time>2013-10-13T12:22:26Z</time>
      </trkpt>
      <trkpt lat="43.39294" lon="6.72674">
        <ele>8</ele>
        <time>2013-10-13T12:22:27Z</time>
      </trkpt>
      <trkpt lat="43.39289" lon="6.72674">
        <ele>8</ele>
        <time>2013-10-13T12:22:28Z</time>
      </trkpt>
      <trkpt lat="43.39285" lon="6.72672">
        <ele>8</ele>
        <time>2013-10-13T12:22:29Z</time>
      </trkpt>
      <trkpt lat="43.3928" lon="6.72671">
        <ele>8</ele>
        <time>2013-10-13T12:22:30Z</time>
      </trkpt>
      <trkpt lat="43.39271" lon="6.7267">
        <ele>8</ele>
        <time>2013-10-13T12:22:32Z</time>
      </trkpt>
      <trkpt lat="43.39266" lon="6.7267">
        <ele>8</ele>
        <time>2013-10-13T12:22:33Z</time>
      </trkpt>
      <trkpt lat="43.39262" lon="6.72671">
        <ele>8</ele>
        <time>2013-10-13T12:22:34Z</time>
      </trkpt>
      <trkpt lat="43.39258" lon="6.72672">
        <ele>8</ele>
        <time>2013-10-13T12:22:35Z</time>
      </trkpt>
      <trkpt lat="43.3925" lon="6.72676">
        <ele>8</ele>
        <time>2013-10-13T12:22:37Z</time>
      </trkpt>
      <trkpt lat="43.39245" lon="6.72685">
        <ele>8</ele>
        <time>2013-10-13T12:22:39Z</time>
      </trkpt>
      <trkpt lat="43.39247" lon="6.72695">
        <ele>8</ele>
        <time>2013-10-13T12:22:41Z</time>
      </trkpt>
      <trkpt lat="43.39252" lon="6.72704">
        <ele>8</ele>
        <time>2013-10-13T12:22:43Z</time>
      </trkpt>
      <trkpt lat="43.3926" lon="6.72713">
        <ele>8</ele>
        <time>2013-10-13T12:22:45Z</time>
      </trkpt>
      <trkpt lat="43.39267" lon="6.7272">
        <ele>8</ele>
        <time>2013-10-13T12:22:47Z</time>
      </trkpt>
      <trkpt lat="43.39274" lon="6.72727">
        <ele>8</ele>
        <time>2013-10-13T12:22:49Z</time>
      </trkpt>
      <trkpt lat="43.3928" lon="6.72736">
        <ele>8</ele>
        <time>2013-10-13T12:22:51Z</time>
      </trkpt>
      <trkpt lat="43.39284" lon="6.7275">
        <ele>8</ele>
        <time>2013-10-13T12:22:54Z</time>
      </trkpt>
      <trkpt lat="43.39283" lon="6.72761">
        <ele>8</ele>
        <time>2013-10-13T12:22:56Z</time>
      </trkpt>
      <trkpt lat="43.3928" lon="6.72773">
        <ele>8</ele>
        <time>2013-10-13T12:22:58Z</time>
      </trkpt>
      <trkpt lat="43.39276" lon="6.72785">
        <ele>8</ele>
        <time>2013-10-13T12:23:00Z</time>
      </trkpt>
      <trkpt lat="43.39273" lon="6.72792">
        <ele>8</ele>
        <time>2013-10-13T12:23:02Z</time>
      </trkpt>
      <trkpt lat="43.39271" lon="6.72803">
        <ele>8</ele>
        <time>2013-10-13T12:23:06Z</time>
      </trkpt>
      <trkpt lat="43.39268" lon="6.7281">
        <ele>8</ele>
        <time>2013-10-13T12:23:09Z</time>
      </trkpt>
      <trkpt lat="43.39268" lon="6.72822">
        <ele>7</ele>
        <time>2013-10-13T12:23:18Z</time>
      </trkpt>
      <trkpt lat="43.39267" lon="6.72828">
        <ele>7</ele>
        <time>2013-10-13T12:23:22Z</time>
      </trkpt>
      <trkpt lat="43.39265" lon="6.72835">
        <ele>7</ele>
        <time>2013-10-13T12:23:26Z</time>
      </trkpt>
      <trkpt lat="43.39264" lon="6.72841">
        <ele>7</ele>
        <time>2013-10-13T12:23:29Z</time>
      </trkpt>
      <trkpt lat="43.39263" lon="6.72847">
        <ele>7</ele>
        <time>2013-10-13T12:23:32Z</time>
      </trkpt>
      <trkpt lat="43.3926" lon="6.72849">
        <ele>7</ele>
        <time>2013-10-13T12:23:34Z</time>
      </trkpt>
      <trkpt lat="43.39256" lon="6.72849">
        <ele>7</ele>
        <time>2013-10-13T12:23:37Z</time>
      </trkpt>
      <trkpt lat="43.39252" lon="6.72848">
        <ele>7.7100033760071</ele>
        <time>2013-10-13T12:23:40Z</time>
      </trkpt>
      <trkpt lat="43.39248" lon="6.72848">
        <ele>8</ele>
        <time>2013-10-13T12:23:44Z</time>
      </trkpt>
      <trkpt lat="43.39243" lon="6.72849">
        <ele>8</ele>
        <time>2013-10-13T12:23:48Z</time>
      </trkpt>
      <trkpt lat="43.39239" lon="6.72849">
        <ele>8</ele>
        <time>2013-10-13T12:23:52Z</time>
      </trkpt>
      <trkpt lat="43.39235" lon="6.72849">
        <ele>8</ele>
        <time>2013-10-13T12:23:58Z</time>
      </trkpt>
      <trkpt lat="43.39231" lon="6.72845">
        <ele>8</ele>
        <time>2013-10-13T12:24:02Z</time>
      </trkpt>
      <trkpt lat="43.39229" lon="6.72842">
        <ele>8</ele>
        <time>2013-10-13T12:24:06Z</time>
      </trkpt>
      <trkpt lat="43.39227" lon="6.72837">
        <ele>9</ele>
        <time>2013-10-13T12:24:12Z</time>
      </trkpt>
      <trkpt lat="43.39226" lon="6.72836">
        <ele>9</ele>
        <time>2013-10-13T12:24:14Z</time>
      </trkpt>
      <trkpt lat="43.39225" lon="6.72835">
        <ele>9</ele>
        <time>2013-10-13T12:24:15Z</time>
      </trkpt>
      <trkpt lat="43.39223" lon="6.72829">
        <ele>11</ele>
        <time>2013-10-13T12:24:25Z</time>
      </trkpt>
      <trkpt lat="43.39218" lon="6.72824">
        <ele>11</ele>
        <time>2013-10-13T12:24:29Z</time>
      </trkpt>
      <trkpt lat="43.39212" lon="6.72821">
        <ele>12</ele>
        <time>2013-10-13T12:24:32Z</time>
      </trkpt>
      <trkpt lat="43.39207" lon="6.7282">
        <ele>12</ele>
        <time>2013-10-13T12:24:34Z</time>
      </trkpt>
      <trkpt lat="43.39199" lon="6.72817">
        <ele>12</ele>
        <time>2013-10-13T12:24:37Z</time>
      </trkpt>
      <trkpt lat="43.39192" lon="6.72813">
        <ele>12</ele>
        <time>2013-10-13T12:24:40Z</time>
      </trkpt>
      <trkpt lat="43.39184" lon="6.7281">
        <ele>12</ele>
        <time>2013-10-13T12:24:43Z</time>
      </trkpt>
      <trkpt lat="43.39178" lon="6.7281">
        <ele>12</ele>
        <time>2013-10-13T12:24:45Z</time>
      </trkpt>
      <trkpt lat="43.3917" lon="6.72811">
        <ele>12</ele>
        <time>2013-10-13T12:24:48Z</time>
      </trkpt>
      <trkpt lat="43.39164" lon="6.72812">
        <ele>13.061231613159</ele>
        <time>2013-10-13T12:24:50Z</time>
      </trkpt>
      <trkpt lat="43.39158" lon="6.72813">
        <ele>14</ele>
        <time>2013-10-13T12:24:52Z</time>
      </trkpt>
      <trkpt lat="43.39152" lon="6.72814">
        <ele>14</ele>
        <time>2013-10-13T12:24:54Z</time>
      </trkpt>
      <trkpt lat="43.39146" lon="6.72818">
        <ele>14</ele>
        <time>2013-10-13T12:24:56Z</time>
      </trkpt>
      <trkpt lat="43.39141" lon="6.72822">
        <ele>14</ele>
        <time>2013-10-13T12:24:58Z</time>
      </trkpt>
      <trkpt lat="43.39137" lon="6.72827">
        <ele>14.609996795654</ele>
        <time>2013-10-13T12:25:00Z</time>
      </trkpt>
      <trkpt lat="43.39132" lon="6.72832">
        <ele>15</ele>
        <time>2013-10-13T12:25:02Z</time>
      </trkpt>
      <trkpt lat="43.39126" lon="6.72835">
        <ele>15</ele>
        <time>2013-10-13T12:25:04Z</time>
      </trkpt>
      <trkpt lat="43.39121" lon="6.7284">
        <ele>15</ele>
        <time>2013-10-13T12:25:06Z</time>
      </trkpt>
      <trkpt lat="43.39115" lon="6.72845">
        <ele>15</ele>
        <time>2013-10-13T12:25:08Z</time>
      </trkpt>
      <trkpt lat="43.39109" lon="6.7285">
        <ele>15</ele>
        <time>2013-10-13T12:25:10Z</time>
      </trkpt>
      <trkpt lat="43.39104" lon="6.72855">
        <ele>15</ele>
        <time>2013-10-13T12:25:12Z</time>
      </trkpt>
      <trkpt lat="43.39098" lon="6.72861">
        <ele>15</ele>
        <time>2013-10-13T12:25:14Z</time>
      </trkpt>
      <trkpt lat="43.39093" lon="6.72867">
        <ele>15</ele>
        <time>2013-10-13T12:25:16Z</time>
      </trkpt>
      <trkpt lat="43.39088" lon="6.72872">
        <ele>15</ele>
        <time>2013-10-13T12:25:18Z</time>
      </trkpt>
      <trkpt lat="43.39082" lon="6.72877">
        <ele>16.42000579834</ele>
        <time>2013-10-13T12:25:20Z</time>
      </trkpt>
      <trkpt lat="43.39077" lon="6.72883">
        <ele>17</ele>
        <time>2013-10-13T12:25:22Z</time>
      </trkpt>
      <trkpt lat="43.3907" lon="6.72886">
        <ele>17</ele>
        <time>2013-10-13T12:25:24Z</time>
      </trkpt>
      <trkpt lat="43.39063" lon="6.72887">
        <ele>17</ele>
        <time>2013-10-13T12:25:26Z</time>
      </trkpt>
      <trkpt lat="43.39056" lon="6.72884">
        <ele>17</ele>
        <time>2013-10-13T12:25:28Z</time>
      </trkpt>
      <trkpt lat="43.3905" lon="6.7288">
        <ele>17</ele>
        <time>2013-10-13T12:25:30Z</time>
      </trkpt>
      <trkpt lat="43.39044" lon="6.72875">
        <ele>17</ele>
        <time>2013-10-13T12:25:32Z</time>
      </trkpt>
      <trkpt lat="43.39038" lon="6.72871">
        <ele>17</ele>
        <time>2013-10-13T12:25:34Z</time>
      </trkpt>
      <trkpt lat="43.39032" lon="6.72867">
        <ele>17</ele>
        <time>2013-10-13T12:25:36Z</time>
      </trkpt>
      <trkpt lat="43.39027" lon="6.72862">
        <ele>17</ele>
        <time>2013-10-13T12:25:38Z</time>
      </trkpt>
      <trkpt lat="43.39021" lon="6.72857">
        <ele>18.196063995361</ele>
        <time>2013-10-13T12:25:40Z</time>
      </trkpt>
      <trkpt lat="43.39015" lon="6.72853">
        <ele>19</ele>
        <time>2013-10-13T12:25:42Z</time>
      </trkpt>
      <trkpt lat="43.39009" lon="6.72848">
        <ele>19</ele>
        <time>2013-10-13T12:25:44Z</time>
      </trkpt>
      <trkpt lat="43.39004" lon="6.72844">
        <ele>19</ele>
        <time>2013-10-13T12:25:46Z</time>
      </trkpt>
      <trkpt lat="43.38998" lon="6.7284">
        <ele>19</ele>
        <time>2013-10-13T12:25:48Z</time>
      </trkpt>
      <trkpt lat="43.38993" lon="6.72836">
        <ele>19.609996795654</ele>
        <time>2013-10-13T12:25:50Z</time>
      </trkpt>
      <trkpt lat="43.38987" lon="6.72832">
        <ele>20</ele>
        <time>2013-10-13T12:25:52Z</time>
      </trkpt>
      <trkpt lat="43.3898" lon="6.72828">
        <ele>20</ele>
        <time>2013-10-13T12:25:54Z</time>
      </trkpt>
      <trkpt lat="43.38973" lon="6.72824">
        <ele>20</ele>
        <time>2013-10-13T12:25:56Z</time>
      </trkpt>
      <trkpt lat="43.38968" lon="6.72821">
        <ele>20</ele>
        <time>2013-10-13T12:25:58Z</time>
      </trkpt>
      <trkpt lat="43.38961" lon="6.72817">
        <ele>20.920013427734</ele>
        <time>2013-10-13T12:26:00Z</time>
      </trkpt>
      <trkpt lat="43.38955" lon="6.72813">
        <ele>21.390003204346</ele>
        <time>2013-10-13T12:26:02Z</time>
      </trkpt>
      <trkpt lat="43.38949" lon="6.7281">
        <ele>21</ele>
        <time>2013-10-13T12:26:04Z</time>
      </trkpt>
      <trkpt lat="43.38943" lon="6.72806">
        <ele>21</ele>
        <time>2013-10-13T12:26:06Z</time>
      </trkpt>
      <trkpt lat="43.38937" lon="6.72801">
        <ele>21</ele>
        <time>2013-10-13T12:26:08Z</time>
      </trkpt>
      <trkpt lat="43.38931" lon="6.72797">
        <ele>21.609996795654</ele>
        <time>2013-10-13T12:26:10Z</time>
      </trkpt>
      <trkpt lat="43.38925" lon="6.72793">
        <ele>22</ele>
        <time>2013-10-13T12:26:12Z</time>
      </trkpt>
      <trkpt lat="43.38917" lon="6.72788">
        <ele>22</ele>
        <time>2013-10-13T12:26:15Z</time>
      </trkpt>
      <trkpt lat="43.38908" lon="6.72783">
        <ele>22</ele>
        <time>2013-10-13T12:26:18Z</time>
      </trkpt>
      <trkpt lat="43.38897" lon="6.7278">
        <ele>23</ele>
        <time>2013-10-13T12:26:21Z</time>
      </trkpt>
      <trkpt lat="43.38889" lon="6.72784">
        <ele>23</ele>
        <time>2013-10-13T12:26:23Z</time>
      </trkpt>
      <trkpt lat="43.38885" lon="6.72793">
        <ele>23</ele>
        <time>2013-10-13T12:26:25Z</time>
      </trkpt>
      <trkpt lat="43.3888" lon="6.72802">
        <ele>23</ele>
        <time>2013-10-13T12:26:27Z</time>
      </trkpt>
      <trkpt lat="43.38875" lon="6.72812">
        <ele>23</ele>
        <time>2013-10-13T12:26:29Z</time>
      </trkpt>
      <trkpt lat="43.38873" lon="6.72817">
        <ele>23</ele>
        <time>2013-10-13T12:26:30Z</time>
      </trkpt>
      <trkpt lat="43.38869" lon="6.72827">
        <ele>23</ele>
        <time>2013-10-13T12:26:32Z</time>
      </trkpt>
      <trkpt lat="43.38866" lon="6.72838">
        <ele>23</ele>
        <time>2013-10-13T12:26:34Z</time>
      </trkpt>
      <trkpt lat="43.38863" lon="6.72845">
        <ele>23</ele>
        <time>2013-10-13T12:26:35Z</time>
      </trkpt>
      <trkpt lat="43.38861" lon="6.72851">
        <ele>23</ele>
        <time>2013-10-13T12:26:36Z</time>
      </trkpt>
      <trkpt lat="43.38858" lon="6.72859">
        <ele>23</ele>
        <time>2013-10-13T12:26:37Z</time>
      </trkpt>
      <trkpt lat="43.38855" lon="6.72866">
        <ele>23</ele>
        <time>2013-10-13T12:26:38Z</time>
      </trkpt>
      <trkpt lat="43.38852" lon="6.72875">
        <ele>23</ele>
        <time>2013-10-13T12:26:39Z</time>
      </trkpt>
      <trkpt lat="43.38849" lon="6.72885">
        <ele>20.86999130249</ele>
        <time>2013-10-13T12:26:40Z</time>
      </trkpt>
      <trkpt lat="43.38845" lon="6.72894">
        <ele>20</ele>
        <time>2013-10-13T12:26:41Z</time>
      </trkpt>
      <trkpt lat="43.38842" lon="6.72904">
        <ele>20</ele>
        <time>2013-10-13T12:26:42Z</time>
      </trkpt>
      <trkpt lat="43.38838" lon="6.72914">
        <ele>20</ele>
        <time>2013-10-13T12:26:43Z</time>
      </trkpt>
      <trkpt lat="43.38834" lon="6.72924">
        <ele>20</ele>
        <time>2013-10-13T12:26:44Z</time>
      </trkpt>
      <trkpt lat="43.38831" lon="6.72934">
        <ele>18.57999420166</ele>
        <time>2013-10-13T12:26:45Z</time>
      </trkpt>
      <trkpt lat="43.38827" lon="6.72944">
        <ele>18</ele>
        <time>2013-10-13T12:26:46Z</time>
      </trkpt>
      <trkpt lat="43.38823" lon="6.72953">
        <ele>18</ele>
        <time>2013-10-13T12:26:47Z</time>
      </trkpt>
      <trkpt lat="43.3882" lon="6.72962">
        <ele>18</ele>
        <time>2013-10-13T12:26:48Z</time>
      </trkpt>
      <trkpt lat="43.38817" lon="6.72971">
        <ele>18</ele>
        <time>2013-10-13T12:26:49Z</time>
      </trkpt>
      <trkpt lat="43.38814" lon="6.72979">
        <ele>16.57999420166</ele>
        <time>2013-10-13T12:26:50Z</time>
      </trkpt>
      <trkpt lat="43.38811" lon="6.72986">
        <ele>16</ele>
        <time>2013-10-13T12:26:51Z</time>
      </trkpt>
      <trkpt lat="43.38809" lon="6.72993">
        <ele>16</ele>
        <time>2013-10-13T12:26:52Z</time>
      </trkpt>
      <trkpt lat="43.38806" lon="6.72999">
        <ele>16</ele>
        <time>2013-10-13T12:26:53Z</time>
      </trkpt>
      <trkpt lat="43.38803" lon="6.73005">
        <ele>16</ele>
        <time>2013-10-13T12:26:54Z</time>
      </trkpt>
      <trkpt lat="43.38799" lon="6.73012">
        <ele>14</ele>
        <time>2013-10-13T12:26:56Z</time>
      </trkpt>
      <trkpt lat="43.38797" lon="6.73022">
        <ele>12</ele>
        <time>2013-10-13T12:27:03Z</time>
      </trkpt>
      <trkpt lat="43.38802" lon="6.73029">
        <ele>12</ele>
        <time>2013-10-13T12:27:08Z</time>
      </trkpt>
      <trkpt lat="43.38806" lon="6.73035">
        <ele>10</ele>
        <time>2013-10-13T12:27:12Z</time>
      </trkpt>
      <trkpt lat="43.38808" lon="6.73046">
        <ele>10</ele>
        <time>2013-10-13T12:27:16Z</time>
      </trkpt>
      <trkpt lat="43.38811" lon="6.73052">
        <ele>10</ele>
        <time>2013-10-13T12:27:18Z</time>
      </trkpt>
      <trkpt lat="43.38816" lon="6.73057">
        <ele>9.3900032043457</ele>
        <time>2013-10-13T12:27:20Z</time>
      </trkpt>
      <trkpt lat="43.38826" lon="6.73058">
        <ele>10</ele>
        <time>2013-10-13T12:27:24Z</time>
      </trkpt>
      <trkpt lat="43.38832" lon="6.73046">
        <ele>10</ele>
        <time>2013-10-13T12:27:28Z</time>
      </trkpt>
      <trkpt lat="43.38834" lon="6.73034">
        <ele>11</ele>
        <time>2013-10-13T12:27:32Z</time>
      </trkpt>
      <trkpt lat="43.38835" lon="6.73028">
        <ele>11</ele>
        <time>2013-10-13T12:27:34Z</time>
      </trkpt>
      <trkpt lat="43.38837" lon="6.73022">
        <ele>11</ele>
        <time>2013-10-13T12:27:36Z</time>
      </trkpt>
      <trkpt lat="43.38844" lon="6.73022">
        <ele>11</ele>
        <time>2013-10-13T12:27:39Z</time>
      </trkpt>
      <trkpt lat="43.38848" lon="6.73028">
        <ele>11</ele>
        <time>2013-10-13T12:27:42Z</time>
      </trkpt>
      <trkpt lat="43.38847" lon="6.73028">
        <ele>11</ele>
        <time>2013-10-13T12:27:46Z</time>
      </trkpt>
      <trkpt lat="43.38847" lon="6.7303">
        <ele>11</ele>
        <time>2013-10-13T12:27:48Z</time>
      </trkpt>
      <trkpt lat="43.38851" lon="6.73035">
        <ele>10</ele>
        <time>2013-10-13T12:27:52Z</time>
      </trkpt>
      <trkpt lat="43.38855" lon="6.73043">
        <ele>10</ele>
        <time>2013-10-13T12:27:58Z</time>
      </trkpt>
      <trkpt lat="43.38865" lon="6.7305">
        <ele>11</ele>
        <time>2013-10-13T12:28:06Z</time>
      </trkpt>
      <trkpt lat="43.38873" lon="6.73053">
        <ele>11.71000289917</ele>
        <time>2013-10-13T12:28:10Z</time>
      </trkpt>
      <trkpt lat="43.38882" lon="6.73058">
        <ele>12</ele>
        <time>2013-10-13T12:28:13Z</time>
      </trkpt>
      <trkpt lat="43.38888" lon="6.73062">
        <ele>12</ele>
        <time>2013-10-13T12:28:15Z</time>
      </trkpt>
      <trkpt lat="43.38894" lon="6.73065">
        <ele>12</ele>
        <time>2013-10-13T12:28:17Z</time>
      </trkpt>
      <trkpt lat="43.38901" lon="6.73068">
        <ele>12</ele>
        <time>2013-10-13T12:28:19Z</time>
      </trkpt>
      <trkpt lat="43.38907" lon="6.73069">
        <ele>12</ele>
        <time>2013-10-13T12:28:21Z</time>
      </trkpt>
      <trkpt lat="43.38914" lon="6.73067">
        <ele>12</ele>
        <time>2013-10-13T12:28:23Z</time>
      </trkpt>
      <trkpt lat="43.3892" lon="6.73062">
        <ele>12</ele>
        <time>2013-10-13T12:28:25Z</time>
      </trkpt>
      <trkpt lat="43.38926" lon="6.73062">
        <ele>12</ele>
        <time>2013-10-13T12:28:27Z</time>
      </trkpt>
      <trkpt lat="43.38928" lon="6.73074">
        <ele>11</ele>
        <time>2013-10-13T12:28:31Z</time>
      </trkpt>
      <trkpt lat="43.3893" lon="6.73086">
        <ele>11.598031997681</ele>
        <time>2013-10-13T12:28:40Z</time>
      </trkpt>
      <trkpt lat="43.38927" lon="6.73094">
        <ele>12</ele>
        <time>2013-10-13T12:28:48Z</time>
      </trkpt>
      <trkpt lat="43.38927" lon="6.73102">
        <ele>12</ele>
        <time>2013-10-13T12:28:53Z</time>
      </trkpt>
      <trkpt lat="43.38931" lon="6.7311">
        <ele>12</ele>
        <time>2013-10-13T12:28:59Z</time>
      </trkpt>
      <trkpt lat="43.38935" lon="6.73117">
        <ele>11</ele>
        <time>2013-10-13T12:29:03Z</time>
      </trkpt>
      <trkpt lat="43.38941" lon="6.7312">
        <ele>11</ele>
        <time>2013-10-13T12:29:06Z</time>
      </trkpt>
      <trkpt lat="43.38947" lon="6.73127">
        <ele>11</ele>
        <time>2013-10-13T12:29:09Z</time>
      </trkpt>
      <trkpt lat="43.38952" lon="6.73137">
        <ele>11</ele>
        <time>2013-10-13T12:29:12Z</time>
      </trkpt>
      <trkpt lat="43.38956" lon="6.73144">
        <ele>11</ele>
        <time>2013-10-13T12:29:14Z</time>
      </trkpt>
      <trkpt lat="43.3896" lon="6.73152">
        <ele>11</ele>
        <time>2013-10-13T12:29:16Z</time>
      </trkpt>
      <trkpt lat="43.38964" lon="6.73159">
        <ele>11</ele>
        <time>2013-10-13T12:29:18Z</time>
      </trkpt>
      <trkpt lat="43.38969" lon="6.73165">
        <ele>11</ele>
        <time>2013-10-13T12:29:20Z</time>
      </trkpt>
      <trkpt lat="43.3897" lon="6.73175">
        <ele>11</ele>
        <time>2013-10-13T12:29:23Z</time>
      </trkpt>
      <trkpt lat="43.38977" lon="6.7318">
        <ele>11</ele>
        <time>2013-10-13T12:29:30Z</time>
      </trkpt>
      <trkpt lat="43.38985" lon="6.73171">
        <ele>11</ele>
        <time>2013-10-13T12:29:37Z</time>
      </trkpt>
      <trkpt lat="43.38992" lon="6.73181">
        <ele>12</ele>
        <time>2013-10-13T12:29:42Z</time>
      </trkpt>
      <trkpt lat="43.38997" lon="6.7319">
        <ele>12</ele>
        <time>2013-10-13T12:29:45Z</time>
      </trkpt>
      <trkpt lat="43.39002" lon="6.73199">
        <ele>12</ele>
        <time>2013-10-13T12:29:48Z</time>
      </trkpt>
      <trkpt lat="43.39011" lon="6.73207">
        <ele>12</ele>
        <time>2013-10-13T12:29:53Z</time>
      </trkpt>
      <trkpt lat="43.3902" lon="6.73207">
        <ele>12</ele>
        <time>2013-10-13T12:29:57Z</time>
      </trkpt>
      <trkpt lat="43.39029" lon="6.73204">
        <ele>10</ele>
        <time>2013-10-13T12:30:02Z</time>
      </trkpt>
      <trkpt lat="43.39035" lon="6.73194">
        <ele>10</ele>
        <time>2013-10-13T12:30:06Z</time>
      </trkpt>
      <trkpt lat="43.39041" lon="6.73187">
        <ele>11.420006752014</ele>
        <time>2013-10-13T12:30:10Z</time>
      </trkpt>
      <trkpt lat="43.3905" lon="6.73185">
        <ele>12</ele>
        <time>2013-10-13T12:30:14Z</time>
      </trkpt>
      <trkpt lat="43.39059" lon="6.73186">
        <ele>12</ele>
        <time>2013-10-13T12:30:17Z</time>
      </trkpt>
      <trkpt lat="43.39068" lon="6.73194">
        <ele>12</ele>
        <time>2013-10-13T12:30:21Z</time>
      </trkpt>
      <trkpt lat="43.39077" lon="6.73195">
        <ele>12</ele>
        <time>2013-10-13T12:30:24Z</time>
      </trkpt>
      <trkpt lat="43.39088" lon="6.73192">
        <ele>12</ele>
        <time>2013-10-13T12:30:28Z</time>
      </trkpt>
      <trkpt lat="43.39096" lon="6.73185">
        <ele>11</ele>
        <time>2013-10-13T12:30:31Z</time>
      </trkpt>
      <trkpt lat="43.39106" lon="6.73175">
        <ele>11</ele>
        <time>2013-10-13T12:30:34Z</time>
      </trkpt>
      <trkpt lat="43.39112" lon="6.73167">
        <ele>11</ele>
        <time>2013-10-13T12:30:36Z</time>
      </trkpt>
      <trkpt lat="43.39118" lon="6.73159">
        <ele>11</ele>
        <time>2013-10-13T12:30:38Z</time>
      </trkpt>
      <trkpt lat="43.39119" lon="6.73147">
        <ele>10</ele>
        <time>2013-10-13T12:30:41Z</time>
      </trkpt>
      <trkpt lat="43.39118" lon="6.73136">
        <ele>10</ele>
        <time>2013-10-13T12:30:44Z</time>
      </trkpt>
      <trkpt lat="43.39117" lon="6.73122">
        <ele>10</ele>
        <time>2013-10-13T12:30:47Z</time>
      </trkpt>
      <trkpt lat="43.39116" lon="6.73108">
        <ele>10.609996795654</ele>
        <time>2013-10-13T12:30:50Z</time>
      </trkpt>
      <trkpt lat="43.39119" lon="6.73094">
        <ele>11</ele>
        <time>2013-10-13T12:30:53Z</time>
      </trkpt>
      <trkpt lat="43.39121" lon="6.73083">
        <ele>11</ele>
        <time>2013-10-13T12:30:55Z</time>
      </trkpt>
      <trkpt lat="43.39123" lon="6.73072">
        <ele>11</ele>
        <time>2013-10-13T12:30:57Z</time>
      </trkpt>
      <trkpt lat="43.39126" lon="6.73061">
        <ele>11</ele>
        <time>2013-10-13T12:30:59Z</time>
      </trkpt>
      <trkpt lat="43.3913" lon="6.73051">
        <ele>11</ele>
        <time>2013-10-13T12:31:01Z</time>
      </trkpt>
      <trkpt lat="43.39137" lon="6.73038">
        <ele>11</ele>
        <time>2013-10-13T12:31:03Z</time>
      </trkpt>
      <trkpt lat="43.3914" lon="6.7303">
        <ele>11</ele>
        <time>2013-10-13T12:31:04Z</time>
      </trkpt>
      <trkpt lat="43.39143" lon="6.73021">
        <ele>11</ele>
        <time>2013-10-13T12:31:05Z</time>
      </trkpt>
      <trkpt lat="43.39146" lon="6.73013">
        <ele>11</ele>
        <time>2013-10-13T12:31:06Z</time>
      </trkpt>
      <trkpt lat="43.3915" lon="6.73005">
        <ele>11</ele>
        <time>2013-10-13T12:31:07Z</time>
      </trkpt>
      <trkpt lat="43.39153" lon="6.72998">
        <ele>11</ele>
        <time>2013-10-13T12:31:08Z</time>
      </trkpt>
      <trkpt lat="43.39157" lon="6.72991">
        <ele>11</ele>
        <time>2013-10-13T12:31:09Z</time>
      </trkpt>
      <trkpt lat="43.39161" lon="6.72984">
        <ele>10.367349624634</ele>
        <time>2013-10-13T12:31:10Z</time>
      </trkpt>
      <trkpt lat="43.39165" lon="6.72978">
        <ele>10</ele>
        <time>2013-10-13T12:31:11Z</time>
      </trkpt>
      <trkpt lat="43.39169" lon="6.72972">
        <ele>10</ele>
        <time>2013-10-13T12:31:12Z</time>
      </trkpt>
      <trkpt lat="43.39173" lon="6.72967">
        <ele>10</ele>
        <time>2013-10-13T12:31:13Z</time>
      </trkpt>
      <trkpt lat="43.39177" lon="6.72962">
        <ele>10</ele>
        <time>2013-10-13T12:31:14Z</time>
      </trkpt>
      <trkpt lat="43.39181" lon="6.72956">
        <ele>10</ele>
        <time>2013-10-13T12:31:15Z</time>
      </trkpt>
      <trkpt lat="43.39188" lon="6.72947">
        <ele>10</ele>
        <time>2013-10-13T12:31:17Z</time>
      </trkpt>
      <trkpt lat="43.39191" lon="6.72942">
        <ele>10</ele>
        <time>2013-10-13T12:31:18Z</time>
      </trkpt>
      <trkpt lat="43.39195" lon="6.72938">
        <ele>10</ele>
        <time>2013-10-13T12:31:19Z</time>
      </trkpt>
      <trkpt lat="43.39198" lon="6.72933">
        <ele>8.5799932479858</ele>
        <time>2013-10-13T12:31:20Z</time>
      </trkpt>
      <trkpt lat="43.39203" lon="6.72925">
        <ele>8</ele>
        <time>2013-10-13T12:31:22Z</time>
      </trkpt>
      <trkpt lat="43.39206" lon="6.72925">
        <ele>8</ele>
        <time>2013-10-13T12:31:23Z</time>
      </trkpt>
      <trkpt lat="43.39209" lon="6.72926">
        <ele>8</ele>
        <time>2013-10-13T12:31:24Z</time>
      </trkpt>
      <trkpt lat="43.39215" lon="6.72925">
        <ele>8</ele>
        <time>2013-10-13T12:31:26Z</time>
      </trkpt>
      <trkpt lat="43.39218" lon="6.7292">
        <ele>8.5980319976807</ele>
        <time>2013-10-13T12:31:30Z</time>
      </trkpt>
      <trkpt lat="43.39217" lon="6.72914">
        <ele>9</ele>
        <time>2013-10-13T12:31:33Z</time>
      </trkpt>
      <trkpt lat="43.39223" lon="6.72908">
        <ele>9</ele>
        <time>2013-10-13T12:31:43Z</time>
      </trkpt>
      <trkpt lat="43.39232" lon="6.72903">
        <ele>9</ele>
        <time>2013-10-13T12:31:48Z</time>
      </trkpt>
      <trkpt lat="43.39241" lon="6.72895">
        <ele>8</ele>
        <time>2013-10-13T12:31:52Z</time>
      </trkpt>
      <trkpt lat="43.39244" lon="6.72887">
        <ele>8</ele>
        <time>2013-10-13T12:31:55Z</time>
      </trkpt>
      <trkpt lat="43.39248" lon="6.72876">
        <ele>8</ele>
        <time>2013-10-13T12:31:58Z</time>
      </trkpt>
      <trkpt lat="43.39252" lon="6.72868">
        <ele>7.4019675254822</ele>
        <time>2013-10-13T12:32:00Z</time>
      </trkpt>
      <trkpt lat="43.39257" lon="6.72861">
        <ele>7</ele>
        <time>2013-10-13T12:32:02Z</time>
      </trkpt>
      <trkpt lat="43.39262" lon="6.72854">
        <ele>7</ele>
        <time>2013-10-13T12:32:04Z</time>
      </trkpt>
      <trkpt lat="43.39265" lon="6.72847">
        <ele>7</ele>
        <time>2013-10-13T12:32:06Z</time>
      </trkpt>
      <trkpt lat="43.39268" lon="6.72838">
        <ele>7</ele>
        <time>2013-10-13T12:32:08Z</time>
      </trkpt>
      <trkpt lat="43.3927" lon="6.72829">
        <ele>7</ele>
        <time>2013-10-13T12:32:10Z</time>
      </trkpt>
      <trkpt lat="43.39272" lon="6.7282">
        <ele>7</ele>
        <time>2013-10-13T12:32:12Z</time>
      </trkpt>
      <trkpt lat="43.39273" lon="6.72808">
        <ele>7</ele>
        <time>2013-10-13T12:32:15Z</time>
      </trkpt>
      <trkpt lat="43.39277" lon="6.72801">
        <ele>7</ele>
        <time>2013-10-13T12:32:17Z</time>
      </trkpt>
      <trkpt lat="43.39281" lon="6.72794">
        <ele>7</ele>
        <time>2013-10-13T12:32:19Z</time>
      </trkpt>
      <trkpt lat="43.39285" lon="6.72787">
        <ele>7</ele>
        <time>2013-10-13T12:32:21Z</time>
      </trkpt>
      <trkpt lat="43.39291" lon="6.72778">
        <ele>7</ele>
        <time>2013-10-13T12:32:24Z</time>
      </trkpt>
      <trkpt lat="43.39296" lon="6.72771">
        <ele>7</ele>
        <time>2013-10-13T12:32:28Z</time>
      </trkpt>
      <trkpt lat="43.39305" lon="6.72772">
        <ele>8</ele>
        <time>2013-10-13T12:32:32Z</time>
      </trkpt>
      <trkpt lat="43.39312" lon="6.72774">
        <ele>8</ele>
        <time>2013-10-13T12:32:34Z</time>
      </trkpt>
      <trkpt lat="43.39318" lon="6.72777">
        <ele>8</ele>
        <time>2013-10-13T12:32:36Z</time>
      </trkpt>
      <trkpt lat="43.39325" lon="6.72779">
        <ele>8</ele>
        <time>2013-10-13T12:32:38Z</time>
      </trkpt>
      <trkpt lat="43.39332" lon="6.72781">
        <ele>8</ele>
        <time>2013-10-13T12:32:40Z</time>
      </trkpt>
      <trkpt lat="43.39339" lon="6.72782">
        <ele>8</ele>
        <time>2013-10-13T12:32:42Z</time>
      </trkpt>
      <trkpt lat="43.39346" lon="6.72783">
        <ele>8</ele>
        <time>2013-10-13T12:32:44Z</time>
      </trkpt>
      <trkpt lat="43.39353" lon="6.72785">
        <ele>8</ele>
        <time>2013-10-13T12:32:46Z</time>
      </trkpt>
      <trkpt lat="43.3936" lon="6.72787">
        <ele>8</ele>
        <time>2013-10-13T12:32:48Z</time>
      </trkpt>
      <trkpt lat="43.39367" lon="6.72789">
        <ele>8</ele>
        <time>2013-10-13T12:32:50Z</time>
      </trkpt>
      <trkpt lat="43.39375" lon="6.72789">
        <ele>8</ele>
        <time>2013-10-13T12:32:53Z</time>
      </trkpt>
      <trkpt lat="43.39384" lon="6.72788">
        <ele>8</ele>
        <time>2013-10-13T12:32:56Z</time>
      </trkpt>
      <trkpt lat="43.39392" lon="6.72788">
        <ele>8</ele>
        <time>2013-10-13T12:32:59Z</time>
      </trkpt>
      <trkpt lat="43.394" lon="6.7279">
        <ele>11</ele>
        <time>2013-10-13T12:33:02Z</time>
      </trkpt>
      <trkpt lat="43.39409" lon="6.72793">
        <ele>11</ele>
        <time>2013-10-13T12:33:05Z</time>
      </trkpt>
      <trkpt lat="43.39417" lon="6.72795">
        <ele>11</ele>
        <time>2013-10-13T12:33:08Z</time>
      </trkpt>
      <trkpt lat="43.39424" lon="6.72798">
        <ele>11</ele>
        <time>2013-10-13T12:33:11Z</time>
      </trkpt>
      <trkpt lat="43.39429" lon="6.72801">
        <ele>11</ele>
        <time>2013-10-13T12:33:13Z</time>
      </trkpt>
      <trkpt lat="43.39437" lon="6.72804">
        <ele>11</ele>
        <time>2013-10-13T12:33:16Z</time>
      </trkpt>
      <trkpt lat="43.39445" lon="6.72807">
        <ele>11</ele>
        <time>2013-10-13T12:33:19Z</time>
      </trkpt>
      <trkpt lat="43.39455" lon="6.7281">
        <ele>11</ele>
        <time>2013-10-13T12:33:22Z</time>
      </trkpt>
      <trkpt lat="43.39462" lon="6.72813">
        <ele>11</ele>
        <time>2013-10-13T12:33:24Z</time>
      </trkpt>
      <trkpt lat="43.39468" lon="6.72815">
        <ele>11</ele>
        <time>2013-10-13T12:33:26Z</time>
      </trkpt>
      <trkpt lat="43.39475" lon="6.72818">
        <ele>11</ele>
        <time>2013-10-13T12:33:28Z</time>
      </trkpt>
      <trkpt lat="43.39482" lon="6.7282">
        <ele>10.391304016113</ele>
        <time>2013-10-13T12:33:30Z</time>
      </trkpt>
      <trkpt lat="43.3949" lon="6.72823">
        <ele>10</ele>
        <time>2013-10-13T12:33:32Z</time>
      </trkpt>
      <trkpt lat="43.39497" lon="6.72826">
        <ele>10</ele>
        <time>2013-10-13T12:33:34Z</time>
      </trkpt>
      <trkpt lat="43.39509" lon="6.7283">
        <ele>10</ele>
        <time>2013-10-13T12:33:37Z</time>
      </trkpt>
      <trkpt lat="43.39516" lon="6.72833">
        <ele>10</ele>
        <time>2013-10-13T12:33:39Z</time>
      </trkpt>
      <trkpt lat="43.39524" lon="6.72836">
        <ele>10</ele>
        <time>2013-10-13T12:33:41Z</time>
      </trkpt>
      <trkpt lat="43.39531" lon="6.72839">
        <ele>10</ele>
        <time>2013-10-13T12:33:43Z</time>
      </trkpt>
      <trkpt lat="43.39539" lon="6.72843">
        <ele>10</ele>
        <time>2013-10-13T12:33:45Z</time>
      </trkpt>
      <trkpt lat="43.39548" lon="6.72846">
        <ele>10</ele>
        <time>2013-10-13T12:33:47Z</time>
      </trkpt>
      <trkpt lat="43.39556" lon="6.72848">
        <ele>10</ele>
        <time>2013-10-13T12:33:49Z</time>
      </trkpt>
      <trkpt lat="43.39565" lon="6.72851">
        <ele>10</ele>
        <time>2013-10-13T12:33:51Z</time>
      </trkpt>
      <trkpt lat="43.39573" lon="6.72854">
        <ele>10</ele>
        <time>2013-10-13T12:33:53Z</time>
      </trkpt>
      <trkpt lat="43.39582" lon="6.72857">
        <ele>10</ele>
        <time>2013-10-13T12:33:55Z</time>
      </trkpt>
      <trkpt lat="43.39591" lon="6.7286">
        <ele>10</ele>
        <time>2013-10-13T12:33:57Z</time>
      </trkpt>
      <trkpt lat="43.396" lon="6.72863">
        <ele>10</ele>
        <time>2013-10-13T12:33:59Z</time>
      </trkpt>
      <trkpt lat="43.39609" lon="6.72866">
        <ele>10</ele>
        <time>2013-10-13T12:34:01Z</time>
      </trkpt>
      <trkpt lat="43.39618" lon="6.7287">
        <ele>10</ele>
        <time>2013-10-13T12:34:03Z</time>
      </trkpt>
      <trkpt lat="43.39627" lon="6.72873">
        <ele>10</ele>
        <time>2013-10-13T12:34:05Z</time>
      </trkpt>
      <trkpt lat="43.39637" lon="6.72877">
        <ele>10</ele>
        <time>2013-10-13T12:34:07Z</time>
      </trkpt>
      <trkpt lat="43.39642" lon="6.72879">
        <ele>10</ele>
        <time>2013-10-13T12:34:08Z</time>
      </trkpt>
      <trkpt lat="43.39646" lon="6.7288">
        <ele>10</ele>
        <time>2013-10-13T12:34:09Z</time>
      </trkpt>
      <trkpt lat="43.39651" lon="6.72882">
        <ele>10</ele>
        <time>2013-10-13T12:34:10Z</time>
      </trkpt>
      <trkpt lat="43.39656" lon="6.72884">
        <ele>10</ele>
        <time>2013-10-13T12:34:11Z</time>
      </trkpt>
      <trkpt lat="43.39664" lon="6.72887">
        <ele>10</ele>
        <time>2013-10-13T12:34:13Z</time>
      </trkpt>
      <trkpt lat="43.39674" lon="6.72891">
        <ele>10</ele>
        <time>2013-10-13T12:34:15Z</time>
      </trkpt>
      <trkpt lat="43.39684" lon="6.72894">
        <ele>10</ele>
        <time>2013-10-13T12:34:17Z</time>
      </trkpt>
      <trkpt lat="43.39693" lon="6.72898">
        <ele>10</ele>
        <time>2013-10-13T12:34:19Z</time>
      </trkpt>
      <trkpt lat="43.39703" lon="6.72902">
        <ele>10</ele>
        <time>2013-10-13T12:34:21Z</time>
      </trkpt>
      <trkpt lat="43.39712" lon="6.72905">
        <ele>10</ele>
        <time>2013-10-13T12:34:23Z</time>
      </trkpt>
      <trkpt lat="43.39721" lon="6.72909">
        <ele>10</ele>
        <time>2013-10-13T12:34:25Z</time>
      </trkpt>
      <trkpt lat="43.3973" lon="6.72912">
        <ele>10</ele>
        <time>2013-10-13T12:34:27Z</time>
      </trkpt>
      <trkpt lat="43.3974" lon="6.72916">
        <ele>10</ele>
        <time>2013-10-13T12:34:29Z</time>
      </trkpt>
      <trkpt lat="43.39749" lon="6.72919">
        <ele>10</ele>
        <time>2013-10-13T12:34:31Z</time>
      </trkpt>
      <trkpt lat="43.39758" lon="6.72922">
        <ele>10</ele>
        <time>2013-10-13T12:34:33Z</time>
      </trkpt>
      <trkpt lat="43.39767" lon="6.72926">
        <ele>10</ele>
        <time>2013-10-13T12:34:35Z</time>
      </trkpt>
      <trkpt lat="43.39776" lon="6.72929">
        <ele>10</ele>
        <time>2013-10-13T12:34:37Z</time>
      </trkpt>
      <trkpt lat="43.39785" lon="6.72932">
        <ele>10</ele>
        <time>2013-10-13T12:34:39Z</time>
      </trkpt>
      <trkpt lat="43.39795" lon="6.72936">
        <ele>10</ele>
        <time>2013-10-13T12:34:41Z</time>
      </trkpt>
      <trkpt lat="43.39804" lon="6.72939">
        <ele>10</ele>
        <time>2013-10-13T12:34:43Z</time>
      </trkpt>
      <trkpt lat="43.39813" lon="6.72942">
        <ele>10</ele>
        <time>2013-10-13T12:34:45Z</time>
      </trkpt>
      <trkpt lat="43.39821" lon="6.72946">
        <ele>10</ele>
        <time>2013-10-13T12:34:47Z</time>
      </trkpt>
      <trkpt lat="43.3983" lon="6.72949">
        <ele>10</ele>
        <time>2013-10-13T12:34:49Z</time>
      </trkpt>
      <trkpt lat="43.39834" lon="6.7295">
        <ele>10</ele>
        <time>2013-10-13T12:34:50Z</time>
      </trkpt>
      <trkpt lat="43.39838" lon="6.72952">
        <ele>10</ele>
        <time>2013-10-13T12:34:51Z</time>
      </trkpt>
      <trkpt lat="43.39846" lon="6.72954">
        <ele>10</ele>
        <time>2013-10-13T12:34:53Z</time>
      </trkpt>
      <trkpt lat="43.39854" lon="6.72957">
        <ele>10</ele>
        <time>2013-10-13T12:34:55Z</time>
      </trkpt>
      <trkpt lat="43.39863" lon="6.7296">
        <ele>10</ele>
        <time>2013-10-13T12:34:57Z</time>
      </trkpt>
      <trkpt lat="43.39871" lon="6.72963">
        <ele>10</ele>
        <time>2013-10-13T12:34:59Z</time>
      </trkpt>
      <trkpt lat="43.3988" lon="6.72966">
        <ele>9</ele>
        <time>2013-10-13T12:35:01Z</time>
      </trkpt>
      <trkpt lat="43.39884" lon="6.72967">
        <ele>9</ele>
        <time>2013-10-13T12:35:02Z</time>
      </trkpt>
      <trkpt lat="43.39889" lon="6.72969">
        <ele>9</ele>
        <time>2013-10-13T12:35:03Z</time>
      </trkpt>
      <trkpt lat="43.39893" lon="6.7297">
        <ele>9</ele>
        <time>2013-10-13T12:35:04Z</time>
      </trkpt>
      <trkpt lat="43.39898" lon="6.72971">
        <ele>9</ele>
        <time>2013-10-13T12:35:05Z</time>
      </trkpt>
      <trkpt lat="43.39906" lon="6.72974">
        <ele>9</ele>
        <time>2013-10-13T12:35:07Z</time>
      </trkpt>
      <trkpt lat="43.39915" lon="6.72976">
        <ele>9</ele>
        <time>2013-10-13T12:35:09Z</time>
      </trkpt>
      <trkpt lat="43.39925" lon="6.72978">
        <ele>9</ele>
        <time>2013-10-13T12:35:11Z</time>
      </trkpt>
      <trkpt lat="43.39933" lon="6.7298">
        <ele>9</ele>
        <time>2013-10-13T12:35:13Z</time>
      </trkpt>
      <trkpt lat="43.39943" lon="6.72982">
        <ele>9</ele>
        <time>2013-10-13T12:35:15Z</time>
      </trkpt>
      <trkpt lat="43.39952" lon="6.72983">
        <ele>9</ele>
        <time>2013-10-13T12:35:17Z</time>
      </trkpt>
      <trkpt lat="43.39961" lon="6.72985">
        <ele>9</ele>
        <time>2013-10-13T12:35:19Z</time>
      </trkpt>
      <trkpt lat="43.3997" lon="6.72986">
        <ele>10</ele>
        <time>2013-10-13T12:35:21Z</time>
      </trkpt>
      <trkpt lat="43.39979" lon="6.72987">
        <ele>10</ele>
        <time>2013-10-13T12:35:23Z</time>
      </trkpt>
      <trkpt lat="43.39988" lon="6.72988">
        <ele>10</ele>
        <time>2013-10-13T12:35:25Z</time>
      </trkpt>
      <trkpt lat="43.39997" lon="6.72988">
        <ele>10</ele>
        <time>2013-10-13T12:35:27Z</time>
      </trkpt>
      <trkpt lat="43.40007" lon="6.72988">
        <ele>10</ele>
        <time>2013-10-13T12:35:29Z</time>
      </trkpt>
      <trkpt lat="43.40015" lon="6.72989">
        <ele>10</ele>
        <time>2013-10-13T12:35:31Z</time>
      </trkpt>
      <trkpt lat="43.40025" lon="6.72989">
        <ele>10</ele>
        <time>2013-10-13T12:35:33Z</time>
      </trkpt>
      <trkpt lat="43.40033" lon="6.7299">
        <ele>10</ele>
        <time>2013-10-13T12:35:35Z</time>
      </trkpt>
      <trkpt lat="43.40042" lon="6.7299">
        <ele>10</ele>
        <time>2013-10-13T12:35:37Z</time>
      </trkpt>
      <trkpt lat="43.40052" lon="6.72991">
        <ele>10</ele>
        <time>2013-10-13T12:35:39Z</time>
      </trkpt>
      <trkpt lat="43.40061" lon="6.72991">
        <ele>10</ele>
        <time>2013-10-13T12:35:41Z</time>
      </trkpt>
      <trkpt lat="43.4007" lon="6.72992">
        <ele>10</ele>
        <time>2013-10-13T12:35:43Z</time>
      </trkpt>
      <trkpt lat="43.40079" lon="6.72992">
        <ele>10</ele>
        <time>2013-10-13T12:35:45Z</time>
      </trkpt>
      <trkpt lat="43.40088" lon="6.72993">
        <ele>10</ele>
        <time>2013-10-13T12:35:47Z</time>
      </trkpt>
      <trkpt lat="43.40097" lon="6.72993">
        <ele>10</ele>
        <time>2013-10-13T12:35:49Z</time>
      </trkpt>
      <trkpt lat="43.40106" lon="6.72994">
        <ele>10</ele>
        <time>2013-10-13T12:35:51Z</time>
      </trkpt>
      <trkpt lat="43.4011" lon="6.72994">
        <ele>10</ele>
        <time>2013-10-13T12:35:52Z</time>
      </trkpt>
      <trkpt lat="43.40115" lon="6.72994">
        <ele>10</ele>
        <time>2013-10-13T12:35:53Z</time>
      </trkpt>
      <trkpt lat="43.40119" lon="6.72994">
        <ele>10</ele>
        <time>2013-10-13T12:35:54Z</time>
      </trkpt>
      <trkpt lat="43.40128" lon="6.72995">
        <ele>10</ele>
        <time>2013-10-13T12:35:56Z</time>
      </trkpt>
      <trkpt lat="43.40137" lon="6.72995">
        <ele>10</ele>
        <time>2013-10-13T12:35:58Z</time>
      </trkpt>
      <trkpt lat="43.40146" lon="6.72996">
        <ele>10</ele>
        <time>2013-10-13T12:36:00Z</time>
      </trkpt>
      <trkpt lat="43.40155" lon="6.72997">
        <ele>10</ele>
        <time>2013-10-13T12:36:02Z</time>
      </trkpt>
      <trkpt lat="43.4016" lon="6.72997">
        <ele>10</ele>
        <time>2013-10-13T12:36:03Z</time>
      </trkpt>
      <trkpt lat="43.40165" lon="6.72997">
        <ele>10</ele>
        <time>2013-10-13T12:36:04Z</time>
      </trkpt>
      <trkpt lat="43.40169" lon="6.72998">
        <ele>10</ele>
        <time>2013-10-13T12:36:05Z</time>
      </trkpt>
      <trkpt lat="43.40173" lon="6.72998">
        <ele>10</ele>
        <time>2013-10-13T12:36:06Z</time>
      </trkpt>
      <trkpt lat="43.40182" lon="6.72998">
        <ele>10</ele>
        <time>2013-10-13T12:36:08Z</time>
      </trkpt>
      <trkpt lat="43.40187" lon="6.72998">
        <ele>10</ele>
        <time>2013-10-13T12:36:09Z</time>
      </trkpt>
      <trkpt lat="43.40191" lon="6.72998">
        <ele>10</ele>
        <time>2013-10-13T12:36:10Z</time>
      </trkpt>
      <trkpt lat="43.40196" lon="6.72998">
        <ele>10</ele>
        <time>2013-10-13T12:36:11Z</time>
      </trkpt>
      <trkpt lat="43.402" lon="6.72998">
        <ele>10</ele>
        <time>2013-10-13T12:36:12Z</time>
      </trkpt>
      <trkpt lat="43.40209" lon="6.72998">
        <ele>10</ele>
        <time>2013-10-13T12:36:14Z</time>
      </trkpt>
      <trkpt lat="43.40218" lon="6.72998">
        <ele>10</ele>
        <time>2013-10-13T12:36:16Z</time>
      </trkpt>
      <trkpt lat="43.40228" lon="6.72997">
        <ele>10</ele>
        <time>2013-10-13T12:36:18Z</time>
      </trkpt>
      <trkpt lat="43.40236" lon="6.72996">
        <ele>9.4693841934204</ele>
        <time>2013-10-13T12:36:20Z</time>
      </trkpt>
      <trkpt lat="43.40244" lon="6.72994">
        <ele>9</ele>
        <time>2013-10-13T12:36:22Z</time>
      </trkpt>
      <trkpt lat="43.40248" lon="6.72992">
        <ele>9</ele>
        <time>2013-10-13T12:36:23Z</time>
      </trkpt>
      <trkpt lat="43.40253" lon="6.72991">
        <ele>9</ele>
        <time>2013-10-13T12:36:24Z</time>
      </trkpt>
      <trkpt lat="43.40257" lon="6.7299">
        <ele>9</ele>
        <time>2013-10-13T12:36:25Z</time>
      </trkpt>
      <trkpt lat="43.40261" lon="6.72989">
        <ele>9</ele>
        <time>2013-10-13T12:36:26Z</time>
      </trkpt>
      <trkpt lat="43.40266" lon="6.72988">
        <ele>9</ele>
        <time>2013-10-13T12:36:27Z</time>
      </trkpt>
      <trkpt lat="43.4027" lon="6.72986">
        <ele>9</ele>
        <time>2013-10-13T12:36:28Z</time>
      </trkpt>
      <trkpt lat="43.40274" lon="6.72985">
        <ele>9</ele>
        <time>2013-10-13T12:36:29Z</time>
      </trkpt>
      <trkpt lat="43.40283" lon="6.72983">
        <ele>10</ele>
        <time>2013-10-13T12:36:31Z</time>
      </trkpt>
      <trkpt lat="43.40292" lon="6.7298">
        <ele>9.4693841934204</ele>
        <time>2013-10-13T12:36:33Z</time>
      </trkpt>
      <trkpt lat="43.403" lon="6.72977">
        <ele>9</ele>
        <time>2013-10-13T12:36:35Z</time>
      </trkpt>
      <trkpt lat="43.40309" lon="6.72973">
        <ele>9</ele>
        <time>2013-10-13T12:36:37Z</time>
      </trkpt>
      <trkpt lat="43.40318" lon="6.7297">
        <ele>9</ele>
        <time>2013-10-13T12:36:39Z</time>
      </trkpt>
      <trkpt lat="43.40327" lon="6.72966">
        <ele>9</ele>
        <time>2013-10-13T12:36:41Z</time>
      </trkpt>
      <trkpt lat="43.40335" lon="6.72961">
        <ele>9</ele>
        <time>2013-10-13T12:36:43Z</time>
      </trkpt>
      <trkpt lat="43.40343" lon="6.72957">
        <ele>9</ele>
        <time>2013-10-13T12:36:45Z</time>
      </trkpt>
      <trkpt lat="43.40351" lon="6.72952">
        <ele>9</ele>
        <time>2013-10-13T12:36:47Z</time>
      </trkpt>
      <trkpt lat="43.4036" lon="6.72946">
        <ele>9</ele>
        <time>2013-10-13T12:36:49Z</time>
      </trkpt>
      <trkpt lat="43.40364" lon="6.72944">
        <ele>9</ele>
        <time>2013-10-13T12:36:50Z</time>
      </trkpt>
      <trkpt lat="43.40372" lon="6.72938">
        <ele>9</ele>
        <time>2013-10-13T12:36:52Z</time>
      </trkpt>
      <trkpt lat="43.40381" lon="6.72933">
        <ele>9</ele>
        <time>2013-10-13T12:36:54Z</time>
      </trkpt>
      <trkpt lat="43.40385" lon="6.7293">
        <ele>9</ele>
        <time>2013-10-13T12:36:55Z</time>
      </trkpt>
      <trkpt lat="43.4039" lon="6.72928">
        <ele>9</ele>
        <time>2013-10-13T12:36:56Z</time>
      </trkpt>
      <trkpt lat="43.40394" lon="6.72925">
        <ele>9</ele>
        <time>2013-10-13T12:36:57Z</time>
      </trkpt>
      <trkpt lat="43.40398" lon="6.72922">
        <ele>9</ele>
        <time>2013-10-13T12:36:58Z</time>
      </trkpt>
      <trkpt lat="43.40402" lon="6.7292">
        <ele>9</ele>
        <time>2013-10-13T12:36:59Z</time>
      </trkpt>
      <trkpt lat="43.40406" lon="6.72917">
        <ele>8.3900032043457</ele>
        <time>2013-10-13T12:37:00Z</time>
      </trkpt>
      <trkpt lat="43.40411" lon="6.72914">
        <ele>8</ele>
        <time>2013-10-13T12:37:01Z</time>
      </trkpt>
      <trkpt lat="43.40414" lon="6.7291">
        <ele>8</ele>
        <time>2013-10-13T12:37:02Z</time>
      </trkpt>
      <trkpt lat="43.40418" lon="6.72907">
        <ele>8</ele>
        <time>2013-10-13T12:37:03Z</time>
      </trkpt>
      <trkpt lat="43.40422" lon="6.72904">
        <ele>8</ele>
        <time>2013-10-13T12:37:04Z</time>
      </trkpt>
      <trkpt lat="43.40426" lon="6.729">
        <ele>8</ele>
        <time>2013-10-13T12:37:05Z</time>
      </trkpt>
      <trkpt lat="43.4043" lon="6.72897">
        <ele>8</ele>
        <time>2013-10-13T12:37:06Z</time>
      </trkpt>
      <trkpt lat="43.40434" lon="6.72893">
        <ele>8</ele>
        <time>2013-10-13T12:37:07Z</time>
      </trkpt>
      <trkpt lat="43.40438" lon="6.7289">
        <ele>8</ele>
        <time>2013-10-13T12:37:08Z</time>
      </trkpt>
      <trkpt lat="43.40442" lon="6.72886">
        <ele>8</ele>
        <time>2013-10-13T12:37:09Z</time>
      </trkpt>
      <trkpt lat="43.4045" lon="6.72879">
        <ele>9</ele>
        <time>2013-10-13T12:37:11Z</time>
      </trkpt>
      <trkpt lat="43.40456" lon="6.72872">
        <ele>9</ele>
        <time>2013-10-13T12:37:13Z</time>
      </trkpt>
      <trkpt lat="43.40464" lon="6.72864">
        <ele>9</ele>
        <time>2013-10-13T12:37:15Z</time>
      </trkpt>
      <trkpt lat="43.40471" lon="6.72857">
        <ele>9</ele>
        <time>2013-10-13T12:37:17Z</time>
      </trkpt>
      <trkpt lat="43.40478" lon="6.72849">
        <ele>9</ele>
        <time>2013-10-13T12:37:19Z</time>
      </trkpt>
      <trkpt lat="43.40485" lon="6.72841">
        <ele>9</ele>
        <time>2013-10-13T12:37:21Z</time>
      </trkpt>
      <trkpt lat="43.40494" lon="6.7283">
        <ele>9</ele>
        <time>2013-10-13T12:37:24Z</time>
      </trkpt>
      <trkpt lat="43.40502" lon="6.72822">
        <ele>9</ele>
        <time>2013-10-13T12:37:26Z</time>
      </trkpt>
      <trkpt lat="43.4051" lon="6.72815">
        <ele>9</ele>
        <time>2013-10-13T12:37:28Z</time>
      </trkpt>
      <trkpt lat="43.40517" lon="6.72808">
        <ele>9</ele>
        <time>2013-10-13T12:37:30Z</time>
      </trkpt>
      <trkpt lat="43.40528" lon="6.72797">
        <ele>9</ele>
        <time>2013-10-13T12:37:33Z</time>
      </trkpt>
      <trkpt lat="43.40535" lon="6.72789">
        <ele>9</ele>
        <time>2013-10-13T12:37:35Z</time>
      </trkpt>
      <trkpt lat="43.40546" lon="6.72778">
        <ele>9</ele>
        <time>2013-10-13T12:37:38Z</time>
      </trkpt>
      <trkpt lat="43.40554" lon="6.7277">
        <ele>9</ele>
        <time>2013-10-13T12:37:40Z</time>
      </trkpt>
      <trkpt lat="43.40561" lon="6.72763">
        <ele>9</ele>
        <time>2013-10-13T12:37:42Z</time>
      </trkpt>
      <trkpt lat="43.40569" lon="6.72755">
        <ele>9</ele>
        <time>2013-10-13T12:37:44Z</time>
      </trkpt>
      <trkpt lat="43.40578" lon="6.72747">
        <ele>9</ele>
        <time>2013-10-13T12:37:46Z</time>
      </trkpt>
      <trkpt lat="43.40585" lon="6.7274">
        <ele>9</ele>
        <time>2013-10-13T12:37:48Z</time>
      </trkpt>
      <trkpt lat="43.40591" lon="6.72731">
        <ele>9</ele>
        <time>2013-10-13T12:37:50Z</time>
      </trkpt>
      <trkpt lat="43.40599" lon="6.72723">
        <ele>9</ele>
        <time>2013-10-13T12:37:52Z</time>
      </trkpt>
      <trkpt lat="43.40607" lon="6.72715">
        <ele>9</ele>
        <time>2013-10-13T12:37:54Z</time>
      </trkpt>
      <trkpt lat="43.40615" lon="6.72707">
        <ele>9</ele>
        <time>2013-10-13T12:37:56Z</time>
      </trkpt>
      <trkpt lat="43.40623" lon="6.72699">
        <ele>9</ele>
        <time>2013-10-13T12:37:58Z</time>
      </trkpt>
      <trkpt lat="43.40631" lon="6.72691">
        <ele>9</ele>
        <time>2013-10-13T12:38:00Z</time>
      </trkpt>
      <trkpt lat="43.40638" lon="6.72684">
        <ele>9</ele>
        <time>2013-10-13T12:38:02Z</time>
      </trkpt>
      <trkpt lat="43.40646" lon="6.72677">
        <ele>9</ele>
        <time>2013-10-13T12:38:04Z</time>
      </trkpt>
      <trkpt lat="43.40654" lon="6.72669">
        <ele>9</ele>
        <time>2013-10-13T12:38:06Z</time>
      </trkpt>
      <trkpt lat="43.40662" lon="6.7266">
        <ele>9</ele>
        <time>2013-10-13T12:38:08Z</time>
      </trkpt>
      <trkpt lat="43.40669" lon="6.72651">
        <ele>9</ele>
        <time>2013-10-13T12:38:10Z</time>
      </trkpt>
      <trkpt lat="43.40676" lon="6.72643">
        <ele>9</ele>
        <time>2013-10-13T12:38:12Z</time>
      </trkpt>
      <trkpt lat="43.40686" lon="6.72636">
        <ele>9</ele>
        <time>2013-10-13T12:38:14Z</time>
      </trkpt>
      <trkpt lat="43.40694" lon="6.72629">
        <ele>9</ele>
        <time>2013-10-13T12:38:16Z</time>
      </trkpt>
      <trkpt lat="43.40702" lon="6.72621">
        <ele>8.435188293457</ele>
        <time>2013-10-13T12:38:18Z</time>
      </trkpt>
      <trkpt lat="43.4071" lon="6.72612">
        <ele>8</ele>
        <time>2013-10-13T12:38:20Z</time>
      </trkpt>
      <trkpt lat="43.40718" lon="6.72604">
        <ele>8</ele>
        <time>2013-10-13T12:38:22Z</time>
      </trkpt>
      <trkpt lat="43.40726" lon="6.72597">
        <ele>8</ele>
        <time>2013-10-13T12:38:24Z</time>
      </trkpt>
      <trkpt lat="43.40735" lon="6.72589">
        <ele>8</ele>
        <time>2013-10-13T12:38:26Z</time>
      </trkpt>
      <trkpt lat="43.40741" lon="6.72583">
        <ele>8</ele>
        <time>2013-10-13T12:38:28Z</time>
      </trkpt>
      <trkpt lat="43.40751" lon="6.72574">
        <ele>8</ele>
        <time>2013-10-13T12:38:30Z</time>
      </trkpt>
      <trkpt lat="43.40762" lon="6.72563">
        <ele>8</ele>
        <time>2013-10-13T12:38:32Z</time>
      </trkpt>
      <trkpt lat="43.40771" lon="6.72553">
        <ele>8</ele>
        <time>2013-10-13T12:38:34Z</time>
      </trkpt>
      <trkpt lat="43.40781" lon="6.72543">
        <ele>8</ele>
        <time>2013-10-13T12:38:36Z</time>
      </trkpt>
      <trkpt lat="43.40791" lon="6.72533">
        <ele>8</ele>
        <time>2013-10-13T12:38:38Z</time>
      </trkpt>
      <trkpt lat="43.408" lon="6.72523">
        <ele>8</ele>
        <time>2013-10-13T12:38:40Z</time>
      </trkpt>
      <trkpt lat="43.40808" lon="6.72513">
        <ele>8</ele>
        <time>2013-10-13T12:38:42Z</time>
      </trkpt>
      <trkpt lat="43.40817" lon="6.72505">
        <ele>8</ele>
        <time>2013-10-13T12:38:44Z</time>
      </trkpt>
      <trkpt lat="43.40825" lon="6.72497">
        <ele>8</ele>
        <time>2013-10-13T12:38:46Z</time>
      </trkpt>
      <trkpt lat="43.40832" lon="6.7249">
        <ele>8</ele>
        <time>2013-10-13T12:38:48Z</time>
      </trkpt>
      <trkpt lat="43.40839" lon="6.72483">
        <ele>8</ele>
        <time>2013-10-13T12:38:50Z</time>
      </trkpt>
      <trkpt lat="43.40849" lon="6.72474">
        <ele>8</ele>
        <time>2013-10-13T12:38:52Z</time>
      </trkpt>
      <trkpt lat="43.40857" lon="6.72467">
        <ele>8</ele>
        <time>2013-10-13T12:38:54Z</time>
      </trkpt>
      <trkpt lat="43.40865" lon="6.72459">
        <ele>8</ele>
        <time>2013-10-13T12:38:56Z</time>
      </trkpt>
      <trkpt lat="43.40873" lon="6.72452">
        <ele>8</ele>
        <time>2013-10-13T12:38:58Z</time>
      </trkpt>
      <trkpt lat="43.40881" lon="6.72445">
        <ele>8</ele>
        <time>2013-10-13T12:39:00Z</time>
      </trkpt>
      <trkpt lat="43.40888" lon="6.72439">
        <ele>8</ele>
        <time>2013-10-13T12:39:02Z</time>
      </trkpt>
      <trkpt lat="43.40896" lon="6.72432">
        <ele>8</ele>
        <time>2013-10-13T12:39:04Z</time>
      </trkpt>
      <trkpt lat="43.40906" lon="6.72427">
        <ele>8</ele>
        <time>2013-10-13T12:39:06Z</time>
      </trkpt>
      <trkpt lat="43.40915" lon="6.7243">
        <ele>8</ele>
        <time>2013-10-13T12:39:08Z</time>
      </trkpt>
      <trkpt lat="43.40923" lon="6.72431">
        <ele>8.5306158065796</ele>
        <time>2013-10-13T12:39:10Z</time>
      </trkpt>
      <trkpt lat="43.40931" lon="6.72429">
        <ele>9</ele>
        <time>2013-10-13T12:39:12Z</time>
      </trkpt>
      <trkpt lat="43.40938" lon="6.72425">
        <ele>9</ele>
        <time>2013-10-13T12:39:14Z</time>
      </trkpt>
      <trkpt lat="43.40947" lon="6.72423">
        <ele>9</ele>
        <time>2013-10-13T12:39:16Z</time>
      </trkpt>
      <trkpt lat="43.40955" lon="6.72422">
        <ele>9</ele>
        <time>2013-10-13T12:39:18Z</time>
      </trkpt>
      <trkpt lat="43.40964" lon="6.72421">
        <ele>9</ele>
        <time>2013-10-13T12:39:20Z</time>
      </trkpt>
      <trkpt lat="43.40973" lon="6.72421">
        <ele>9</ele>
        <time>2013-10-13T12:39:22Z</time>
      </trkpt>
      <trkpt lat="43.40981" lon="6.72422">
        <ele>9</ele>
        <time>2013-10-13T12:39:24Z</time>
      </trkpt>
      <trkpt lat="43.40989" lon="6.72423">
        <ele>9</ele>
        <time>2013-10-13T12:39:26Z</time>
      </trkpt>
      <trkpt lat="43.40998" lon="6.72424">
        <ele>9</ele>
        <time>2013-10-13T12:39:28Z</time>
      </trkpt>
      <trkpt lat="43.41006" lon="6.72426">
        <ele>9</ele>
        <time>2013-10-13T12:39:30Z</time>
      </trkpt>
      <trkpt lat="43.41014" lon="6.72427">
        <ele>9</ele>
        <time>2013-10-13T12:39:32Z</time>
      </trkpt>
      <trkpt lat="43.41022" lon="6.72429">
        <ele>9</ele>
        <time>2013-10-13T12:39:34Z</time>
      </trkpt>
      <trkpt lat="43.41031" lon="6.72432">
        <ele>9</ele>
        <time>2013-10-13T12:39:36Z</time>
      </trkpt>
      <trkpt lat="43.41039" lon="6.72435">
        <ele>9</ele>
        <time>2013-10-13T12:39:38Z</time>
      </trkpt>
      <trkpt lat="43.41047" lon="6.72438">
        <ele>9</ele>
        <time>2013-10-13T12:39:40Z</time>
      </trkpt>
      <trkpt lat="43.41055" lon="6.72442">
        <ele>9</ele>
        <time>2013-10-13T12:39:42Z</time>
      </trkpt>
      <trkpt lat="43.41063" lon="6.72446">
        <ele>9</ele>
        <time>2013-10-13T12:39:44Z</time>
      </trkpt>
      <trkpt lat="43.4107" lon="6.72451">
        <ele>9</ele>
        <time>2013-10-13T12:39:46Z</time>
      </trkpt>
      <trkpt lat="43.41077" lon="6.72457">
        <ele>9</ele>
        <time>2013-10-13T12:39:48Z</time>
      </trkpt>
      <trkpt lat="43.41085" lon="6.72463">
        <ele>9</ele>
        <time>2013-10-13T12:39:50Z</time>
      </trkpt>
      <trkpt lat="43.41092" lon="6.72468">
        <ele>9</ele>
        <time>2013-10-13T12:39:52Z</time>
      </trkpt>
      <trkpt lat="43.41096" lon="6.7247">
        <ele>9</ele>
        <time>2013-10-13T12:39:53Z</time>
      </trkpt>
      <trkpt lat="43.41104" lon="6.72475">
        <ele>9</ele>
        <time>2013-10-13T12:39:55Z</time>
      </trkpt>
      <trkpt lat="43.41111" lon="6.7248">
        <ele>9</ele>
        <time>2013-10-13T12:39:57Z</time>
      </trkpt>
      <trkpt lat="43.41119" lon="6.72485">
        <ele>9</ele>
        <time>2013-10-13T12:39:59Z</time>
      </trkpt>
      <trkpt lat="43.41126" lon="6.7249">
        <ele>9</ele>
        <time>2013-10-13T12:40:01Z</time>
      </trkpt>
      <trkpt lat="43.4113" lon="6.72493">
        <ele>9</ele>
        <time>2013-10-13T12:40:02Z</time>
      </trkpt>
      <trkpt lat="43.41134" lon="6.72495">
        <ele>9</ele>
        <time>2013-10-13T12:40:03Z</time>
      </trkpt>
      <trkpt lat="43.41138" lon="6.72498">
        <ele>9</ele>
        <time>2013-10-13T12:40:04Z</time>
      </trkpt>
      <trkpt lat="43.41142" lon="6.725">
        <ele>9</ele>
        <time>2013-10-13T12:40:05Z</time>
      </trkpt>
      <trkpt lat="43.41146" lon="6.72503">
        <ele>9</ele>
        <time>2013-10-13T12:40:06Z</time>
      </trkpt>
      <trkpt lat="43.4115" lon="6.72505">
        <ele>9</ele>
        <time>2013-10-13T12:40:07Z</time>
      </trkpt>
      <trkpt lat="43.41153" lon="6.72508">
        <ele>9</ele>
        <time>2013-10-13T12:40:08Z</time>
      </trkpt>
      <trkpt lat="43.41157" lon="6.7251">
        <ele>9</ele>
        <time>2013-10-13T12:40:09Z</time>
      </trkpt>
      <trkpt lat="43.41161" lon="6.72513">
        <ele>9.6099967956543</ele>
        <time>2013-10-13T12:40:10Z</time>
      </trkpt>
      <trkpt lat="43.41165" lon="6.72514">
        <ele>10</ele>
        <time>2013-10-13T12:40:11Z</time>
      </trkpt>
      <trkpt lat="43.41169" lon="6.72514">
        <ele>10</ele>
        <time>2013-10-13T12:40:12Z</time>
      </trkpt>
      <trkpt lat="43.41174" lon="6.72513">
        <ele>10</ele>
        <time>2013-10-13T12:40:13Z</time>
      </trkpt>
      <trkpt lat="43.41182" lon="6.72507">
        <ele>10</ele>
        <time>2013-10-13T12:40:15Z</time>
      </trkpt>
      <trkpt lat="43.41189" lon="6.725">
        <ele>10</ele>
        <time>2013-10-13T12:40:17Z</time>
      </trkpt>
      <trkpt lat="43.41195" lon="6.72493">
        <ele>10</ele>
        <time>2013-10-13T12:40:19Z</time>
      </trkpt>
      <trkpt lat="43.41201" lon="6.72482">
        <ele>8</ele>
        <time>2013-10-13T12:40:21Z</time>
      </trkpt>
      <trkpt lat="43.41209" lon="6.72479">
        <ele>8</ele>
        <time>2013-10-13T12:40:23Z</time>
      </trkpt>
      <trkpt lat="43.41217" lon="6.72479">
        <ele>8</ele>
        <time>2013-10-13T12:40:25Z</time>
      </trkpt>
      <trkpt lat="43.41227" lon="6.72479">
        <ele>8</ele>
        <time>2013-10-13T12:40:27Z</time>
      </trkpt>
      <trkpt lat="43.41237" lon="6.72478">
        <ele>8</ele>
        <time>2013-10-13T12:40:29Z</time>
      </trkpt>
      <trkpt lat="43.41247" lon="6.72477">
        <ele>7</ele>
        <time>2013-10-13T12:40:31Z</time>
      </trkpt>
      <trkpt lat="43.41261" lon="6.72476">
        <ele>7</ele>
        <time>2013-10-13T12:40:34Z</time>
      </trkpt>
      <trkpt lat="43.41272" lon="6.72476">
        <ele>7</ele>
        <time>2013-10-13T12:40:36Z</time>
      </trkpt>
      <trkpt lat="43.41281" lon="6.72474">
        <ele>7</ele>
        <time>2013-10-13T12:40:38Z</time>
      </trkpt>
      <trkpt lat="43.41289" lon="6.72468">
        <ele>7</ele>
        <time>2013-10-13T12:40:40Z</time>
      </trkpt>
      <trkpt lat="43.41298" lon="6.72463">
        <ele>7</ele>
        <time>2013-10-13T12:40:42Z</time>
      </trkpt>
      <trkpt lat="43.41307" lon="6.7246">
        <ele>7</ele>
        <time>2013-10-13T12:40:44Z</time>
      </trkpt>
      <trkpt lat="43.41315" lon="6.72458">
        <ele>7</ele>
        <time>2013-10-13T12:40:46Z</time>
      </trkpt>
      <trkpt lat="43.41324" lon="6.72456">
        <ele>7</ele>
        <time>2013-10-13T12:40:48Z</time>
      </trkpt>
      <trkpt lat="43.41333" lon="6.72455">
        <ele>7</ele>
        <time>2013-10-13T12:40:50Z</time>
      </trkpt>
      <trkpt lat="43.41346" lon="6.7246">
        <ele>7</ele>
        <time>2013-10-13T12:40:53Z</time>
      </trkpt>
      <trkpt lat="43.41358" lon="6.72469">
        <ele>7</ele>
        <time>2013-10-13T12:40:56Z</time>
      </trkpt>
      <trkpt lat="43.41366" lon="6.72475">
        <ele>7</ele>
        <time>2013-10-13T12:40:58Z</time>
      </trkpt>
      <trkpt lat="43.41373" lon="6.72483">
        <ele>7</ele>
        <time>2013-10-13T12:41:00Z</time>
      </trkpt>
      <trkpt lat="43.4138" lon="6.72491">
        <ele>7</ele>
        <time>2013-10-13T12:41:02Z</time>
      </trkpt>
      <trkpt lat="43.41385" lon="6.72501">
        <ele>7</ele>
        <time>2013-10-13T12:41:04Z</time>
      </trkpt>
      <trkpt lat="43.41392" lon="6.7251">
        <ele>7</ele>
        <time>2013-10-13T12:41:06Z</time>
      </trkpt>
      <trkpt lat="43.41398" lon="6.72519">
        <ele>7</ele>
        <time>2013-10-13T12:41:08Z</time>
      </trkpt>
      <trkpt lat="43.41403" lon="6.72528">
        <ele>7</ele>
        <time>2013-10-13T12:41:10Z</time>
      </trkpt>
      <trkpt lat="43.41407" lon="6.72543">
        <ele>7</ele>
        <time>2013-10-13T12:41:13Z</time>
      </trkpt>
      <trkpt lat="43.41413" lon="6.72556">
        <ele>7</ele>
        <time>2013-10-13T12:41:16Z</time>
      </trkpt>
      <trkpt lat="43.41419" lon="6.7257">
        <ele>7</ele>
        <time>2013-10-13T12:41:19Z</time>
      </trkpt>
      <trkpt lat="43.41427" lon="6.72584">
        <ele>7</ele>
        <time>2013-10-13T12:41:22Z</time>
      </trkpt>
      <trkpt lat="43.41431" lon="6.72594">
        <ele>7</ele>
        <time>2013-10-13T12:41:24Z</time>
      </trkpt>
      <trkpt lat="43.41435" lon="6.72606">
        <ele>7</ele>
        <time>2013-10-13T12:41:27Z</time>
      </trkpt>
      <trkpt lat="43.41442" lon="6.72615">
        <ele>7</ele>
        <time>2013-10-13T12:41:29Z</time>
      </trkpt>
      <trkpt lat="43.41449" lon="6.72622">
        <ele>7</ele>
        <time>2013-10-13T12:41:31Z</time>
      </trkpt>
      <trkpt lat="43.41458" lon="6.72627">
        <ele>7</ele>
        <time>2013-10-13T12:41:33Z</time>
      </trkpt>
      <trkpt lat="43.41465" lon="6.72633">
        <ele>7</ele>
        <time>2013-10-13T12:41:35Z</time>
      </trkpt>
      <trkpt lat="43.41473" lon="6.72638">
        <ele>7</ele>
        <time>2013-10-13T12:41:37Z</time>
      </trkpt>
      <trkpt lat="43.41485" lon="6.72644">
        <ele>7</ele>
        <time>2013-10-13T12:41:40Z</time>
      </trkpt>
      <trkpt lat="43.41492" lon="6.72649">
        <ele>7</ele>
        <time>2013-10-13T12:41:42Z</time>
      </trkpt>
      <trkpt lat="43.415" lon="6.72652">
        <ele>7</ele>
        <time>2013-10-13T12:41:44Z</time>
      </trkpt>
      <trkpt lat="43.41512" lon="6.72656">
        <ele>7</ele>
        <time>2013-10-13T12:41:47Z</time>
      </trkpt>
      <trkpt lat="43.41524" lon="6.72659">
        <ele>7</ele>
        <time>2013-10-13T12:41:50Z</time>
      </trkpt>
      <trkpt lat="43.41532" lon="6.72668">
        <ele>7</ele>
        <time>2013-10-13T12:41:54Z</time>
      </trkpt>
      <trkpt lat="43.41523" lon="6.72678">
        <ele>7</ele>
        <time>2013-10-13T12:41:59Z</time>
      </trkpt>
      <trkpt lat="43.41518" lon="6.72685">
        <ele>7</ele>
        <time>2013-10-13T12:42:03Z</time>
      </trkpt>
      <trkpt lat="43.41523" lon="6.72692">
        <ele>7</ele>
        <time>2013-10-13T12:42:07Z</time>
      </trkpt>
      <trkpt lat="43.41531" lon="6.72697">
        <ele>7</ele>
        <time>2013-10-13T12:42:10Z</time>
      </trkpt>
      <trkpt lat="43.41536" lon="6.72701">
        <ele>7</ele>
        <time>2013-10-13T12:42:12Z</time>
      </trkpt>
      <trkpt lat="43.41542" lon="6.72704">
        <ele>7</ele>
        <time>2013-10-13T12:42:14Z</time>
      </trkpt>
      <trkpt lat="43.41549" lon="6.72708">
        <ele>7</ele>
        <time>2013-10-13T12:42:16Z</time>
      </trkpt>
      <trkpt lat="43.41558" lon="6.72713">
        <ele>7</ele>
        <time>2013-10-13T12:42:19Z</time>
      </trkpt>
      <trkpt lat="43.41565" lon="6.72713">
        <ele>7</ele>
        <time>2013-10-13T12:42:21Z</time>
      </trkpt>
      <trkpt lat="43.41569" lon="6.72708">
        <ele>7</ele>
        <time>2013-10-13T12:42:23Z</time>
      </trkpt>
      <trkpt lat="43.41574" lon="6.72701">
        <ele>7</ele>
        <time>2013-10-13T12:42:25Z</time>
      </trkpt>
      <trkpt lat="43.41578" lon="6.72695">
        <ele>7</ele>
        <time>2013-10-13T12:42:27Z</time>
      </trkpt>
      <trkpt lat="43.41578" lon="6.72709">
        <ele>7</ele>
        <time>2013-10-13T12:42:33Z</time>
      </trkpt>
      <trkpt lat="43.41572" lon="6.7272">
        <ele>7</ele>
        <time>2013-10-13T12:42:36Z</time>
      </trkpt>
      <trkpt lat="43.41569" lon="6.72732">
        <ele>7</ele>
        <time>2013-10-13T12:42:39Z</time>
      </trkpt>
      <trkpt lat="43.41567" lon="6.72743">
        <ele>7</ele>
        <time>2013-10-13T12:42:41Z</time>
      </trkpt>
      <trkpt lat="43.41562" lon="6.72752">
        <ele>7</ele>
        <time>2013-10-13T12:42:43Z</time>
      </trkpt>
      <trkpt lat="43.41555" lon="6.72759">
        <ele>7</ele>
        <time>2013-10-13T12:42:45Z</time>
      </trkpt>
      <trkpt lat="43.41546" lon="6.72771">
        <ele>7</ele>
        <time>2013-10-13T12:42:48Z</time>
      </trkpt>
      <trkpt lat="43.4154" lon="6.72779">
        <ele>7</ele>
        <time>2013-10-13T12:42:50Z</time>
      </trkpt>
      <trkpt lat="43.41534" lon="6.72787">
        <ele>7</ele>
        <time>2013-10-13T12:42:52Z</time>
      </trkpt>
      <trkpt lat="43.41527" lon="6.72795">
        <ele>7</ele>
        <time>2013-10-13T12:42:54Z</time>
      </trkpt>
      <trkpt lat="43.41534" lon="6.72801">
        <ele>7</ele>
        <time>2013-10-13T12:43:02Z</time>
      </trkpt>
      <trkpt lat="43.41543" lon="6.72799">
        <ele>7</ele>
        <time>2013-10-13T12:43:04Z</time>
      </trkpt>
      <trkpt lat="43.41552" lon="6.72797">
        <ele>7</ele>
        <time>2013-10-13T12:43:06Z</time>
      </trkpt>
      <trkpt lat="43.41559" lon="6.72798">
        <ele>7</ele>
        <time>2013-10-13T12:43:08Z</time>
      </trkpt>
      <trkpt lat="43.41558" lon="6.72811">
        <ele>7</ele>
        <time>2013-10-13T12:43:12Z</time>
      </trkpt>
      <trkpt lat="43.41557" lon="6.72822">
        <ele>7</ele>
        <time>2013-10-13T12:43:15Z</time>
      </trkpt>
      <trkpt lat="43.41568" lon="6.72824">
        <ele>7</ele>
        <time>2013-10-13T12:43:19Z</time>
      </trkpt>
      <trkpt lat="43.41575" lon="6.7282">
        <ele>7</ele>
        <time>2013-10-13T12:43:21Z</time>
      </trkpt>
      <trkpt lat="43.41582" lon="6.72818">
        <ele>7</ele>
        <time>2013-10-13T12:43:23Z</time>
      </trkpt>
      <trkpt lat="43.4159" lon="6.72815">
        <ele>7</ele>
        <time>2013-10-13T12:43:25Z</time>
      </trkpt>
      <trkpt lat="43.41597" lon="6.72811">
        <ele>7</ele>
        <time>2013-10-13T12:43:27Z</time>
      </trkpt>
      <trkpt lat="43.41605" lon="6.72809">
        <ele>7</ele>
        <time>2013-10-13T12:43:29Z</time>
      </trkpt>
      <trkpt lat="43.41614" lon="6.72809">
        <ele>7</ele>
        <time>2013-10-13T12:43:31Z</time>
      </trkpt>
      <trkpt lat="43.41622" lon="6.72812">
        <ele>7</ele>
        <time>2013-10-13T12:43:33Z</time>
      </trkpt>
      <trkpt lat="43.4163" lon="6.72815">
        <ele>7</ele>
        <time>2013-10-13T12:43:35Z</time>
      </trkpt>
      <trkpt lat="43.41637" lon="6.72818">
        <ele>7</ele>
        <time>2013-10-13T12:43:37Z</time>
      </trkpt>
      <trkpt lat="43.41645" lon="6.72821">
        <ele>7</ele>
        <time>2013-10-13T12:43:39Z</time>
      </trkpt>
      <trkpt lat="43.41653" lon="6.72825">
        <ele>7</ele>
        <time>2013-10-13T12:43:41Z</time>
      </trkpt>
      <trkpt lat="43.4166" lon="6.72828">
        <ele>7</ele>
        <time>2013-10-13T12:43:43Z</time>
      </trkpt>
      <trkpt lat="43.41668" lon="6.72831">
        <ele>7</ele>
        <time>2013-10-13T12:43:45Z</time>
      </trkpt>
      <trkpt lat="43.41675" lon="6.72833">
        <ele>7</ele>
        <time>2013-10-13T12:43:47Z</time>
      </trkpt>
      <trkpt lat="43.41684" lon="6.72838">
        <ele>7</ele>
        <time>2013-10-13T12:43:50Z</time>
      </trkpt>
      <trkpt lat="43.41683" lon="6.72848">
        <ele>7</ele>
        <time>2013-10-13T12:43:53Z</time>
      </trkpt>
      <trkpt lat="43.41673" lon="6.72852">
        <ele>7</ele>
        <time>2013-10-13T12:43:56Z</time>
      </trkpt>
      <trkpt lat="43.41667" lon="6.72854">
        <ele>7</ele>
        <time>2013-10-13T12:43:58Z</time>
      </trkpt>
      <trkpt lat="43.41661" lon="6.72855">
        <ele>7</ele>
        <time>2013-10-13T12:44:01Z</time>
      </trkpt>
      <trkpt lat="43.41655" lon="6.72858">
        <ele>7</ele>
        <time>2013-10-13T12:44:04Z</time>
      </trkpt>
      <trkpt lat="43.41647" lon="6.72863">
        <ele>7</ele>
        <time>2013-10-13T12:44:06Z</time>
      </trkpt>
      <trkpt lat="43.4164" lon="6.72879">
        <ele>7</ele>
        <time>2013-10-13T12:44:09Z</time>
      </trkpt>
      <trkpt lat="43.41644" lon="6.72888">
        <ele>7</ele>
        <time>2013-10-13T12:44:11Z</time>
      </trkpt>
      <trkpt lat="43.41648" lon="6.72897">
        <ele>7</ele>
        <time>2013-10-13T12:44:13Z</time>
      </trkpt>
      <trkpt lat="43.41654" lon="6.72905">
        <ele>7</ele>
        <time>2013-10-13T12:44:15Z</time>
      </trkpt>
      <trkpt lat="43.41661" lon="6.72918">
        <ele>7</ele>
        <time>2013-10-13T12:44:18Z</time>
      </trkpt>
      <trkpt lat="43.41668" lon="6.72931">
        <ele>5</ele>
        <time>2013-10-13T12:44:21Z</time>
      </trkpt>
      <trkpt lat="43.41671" lon="6.7294">
        <ele>5</ele>
        <time>2013-10-13T12:44:23Z</time>
      </trkpt>
      <trkpt lat="43.41674" lon="6.72949">
        <ele>5</ele>
        <time>2013-10-13T12:44:25Z</time>
      </trkpt>
      <trkpt lat="43.41673" lon="6.72959">
        <ele>5</ele>
        <time>2013-10-13T12:44:27Z</time>
      </trkpt>
      <trkpt lat="43.41672" lon="6.72969">
        <ele>5</ele>
        <time>2013-10-13T12:44:29Z</time>
      </trkpt>
      <trkpt lat="43.41671" lon="6.72979">
        <ele>5</ele>
        <time>2013-10-13T12:44:31Z</time>
      </trkpt>
      <trkpt lat="43.4167" lon="6.72989">
        <ele>5</ele>
        <time>2013-10-13T12:44:33Z</time>
      </trkpt>
      <trkpt lat="43.41668" lon="6.72998">
        <ele>5</ele>
        <time>2013-10-13T12:44:35Z</time>
      </trkpt>
      <trkpt lat="43.41667" lon="6.73008">
        <ele>5</ele>
        <time>2013-10-13T12:44:37Z</time>
      </trkpt>
      <trkpt lat="43.41666" lon="6.73017">
        <ele>5</ele>
        <time>2013-10-13T12:44:39Z</time>
      </trkpt>
      <trkpt lat="43.41665" lon="6.73027">
        <ele>5</ele>
        <time>2013-10-13T12:44:41Z</time>
      </trkpt>
      <trkpt lat="43.41663" lon="6.73037">
        <ele>5</ele>
        <time>2013-10-13T12:44:43Z</time>
      </trkpt>
      <trkpt lat="43.41662" lon="6.73047">
        <ele>5</ele>
        <time>2013-10-13T12:44:45Z</time>
      </trkpt>
      <trkpt lat="43.41661" lon="6.73057">
        <ele>5</ele>
        <time>2013-10-13T12:44:47Z</time>
      </trkpt>
      <trkpt lat="43.4166" lon="6.73067">
        <ele>5</ele>
        <time>2013-10-13T12:44:49Z</time>
      </trkpt>
      <trkpt lat="43.41658" lon="6.73076">
        <ele>5</ele>
        <time>2013-10-13T12:44:51Z</time>
      </trkpt>
      <trkpt lat="43.41656" lon="6.73087">
        <ele>5</ele>
        <time>2013-10-13T12:44:53Z</time>
      </trkpt>
      <trkpt lat="43.41655" lon="6.73097">
        <ele>5</ele>
        <time>2013-10-13T12:44:55Z</time>
      </trkpt>
      <trkpt lat="43.41653" lon="6.73107">
        <ele>5</ele>
        <time>2013-10-13T12:44:57Z</time>
      </trkpt>
      <trkpt lat="43.41652" lon="6.73118">
        <ele>5</ele>
        <time>2013-10-13T12:44:59Z</time>
      </trkpt>
      <trkpt lat="43.4165" lon="6.73128">
        <ele>5</ele>
        <time>2013-10-13T12:45:01Z</time>
      </trkpt>
      <trkpt lat="43.41649" lon="6.73138">
        <ele>5</ele>
        <time>2013-10-13T12:45:03Z</time>
      </trkpt>
      <trkpt lat="43.41647" lon="6.73148">
        <ele>5</ele>
        <time>2013-10-13T12:45:05Z</time>
      </trkpt>
      <trkpt lat="43.41646" lon="6.73159">
        <ele>5</ele>
        <time>2013-10-13T12:45:07Z</time>
      </trkpt>
      <trkpt lat="43.41645" lon="6.73169">
        <ele>5</ele>
        <time>2013-10-13T12:45:09Z</time>
      </trkpt>
      <trkpt lat="43.41643" lon="6.73179">
        <ele>5</ele>
        <time>2013-10-13T12:45:11Z</time>
      </trkpt>
      <trkpt lat="43.41642" lon="6.7319">
        <ele>5</ele>
        <time>2013-10-13T12:45:13Z</time>
      </trkpt>
      <trkpt lat="43.4164" lon="6.732">
        <ele>5</ele>
        <time>2013-10-13T12:45:15Z</time>
      </trkpt>
      <trkpt lat="43.41639" lon="6.73211">
        <ele>5</ele>
        <time>2013-10-13T12:45:17Z</time>
      </trkpt>
      <trkpt lat="43.41637" lon="6.73221">
        <ele>5</ele>
        <time>2013-10-13T12:45:19Z</time>
      </trkpt>
      <trkpt lat="43.41636" lon="6.73232">
        <ele>5</ele>
        <time>2013-10-13T12:45:21Z</time>
      </trkpt>
      <trkpt lat="43.41635" lon="6.73242">
        <ele>5</ele>
        <time>2013-10-13T12:45:23Z</time>
      </trkpt>
      <trkpt lat="43.41633" lon="6.73253">
        <ele>5</ele>
        <time>2013-10-13T12:45:25Z</time>
      </trkpt>
      <trkpt lat="43.41632" lon="6.73263">
        <ele>5</ele>
        <time>2013-10-13T12:45:27Z</time>
      </trkpt>
      <trkpt lat="43.41631" lon="6.73273">
        <ele>5</ele>
        <time>2013-10-13T12:45:29Z</time>
      </trkpt>
      <trkpt lat="43.41629" lon="6.73283">
        <ele>5</ele>
        <time>2013-10-13T12:45:31Z</time>
      </trkpt>
      <trkpt lat="43.41628" lon="6.73293">
        <ele>5</ele>
        <time>2013-10-13T12:45:33Z</time>
      </trkpt>
      <trkpt lat="43.41627" lon="6.73303">
        <ele>5</ele>
        <time>2013-10-13T12:45:35Z</time>
      </trkpt>
      <trkpt lat="43.41626" lon="6.73308">
        <ele>5</ele>
        <time>2013-10-13T12:45:36Z</time>
      </trkpt>
      <trkpt lat="43.41624" lon="6.73318">
        <ele>4.2899966239929</ele>
        <time>2013-10-13T12:45:38Z</time>
      </trkpt>
      <trkpt lat="43.41623" lon="6.73329">
        <ele>4</ele>
        <time>2013-10-13T12:45:40Z</time>
      </trkpt>
      <trkpt lat="43.41622" lon="6.73339">
        <ele>4</ele>
        <time>2013-10-13T12:45:42Z</time>
      </trkpt>
      <trkpt lat="43.4162" lon="6.7335">
        <ele>4</ele>
        <time>2013-10-13T12:45:44Z</time>
      </trkpt>
      <trkpt lat="43.41618" lon="6.7336">
        <ele>4</ele>
        <time>2013-10-13T12:45:46Z</time>
      </trkpt>
      <trkpt lat="43.41617" lon="6.73371">
        <ele>4</ele>
        <time>2013-10-13T12:45:48Z</time>
      </trkpt>
      <trkpt lat="43.41616" lon="6.73381">
        <ele>4</ele>
        <time>2013-10-13T12:45:50Z</time>
      </trkpt>
      <trkpt lat="43.41615" lon="6.73391">
        <ele>4</ele>
        <time>2013-10-13T12:45:52Z</time>
      </trkpt>
      <trkpt lat="43.41614" lon="6.73402">
        <ele>4</ele>
        <time>2013-10-13T12:45:54Z</time>
      </trkpt>
      <trkpt lat="43.41613" lon="6.73413">
        <ele>4</ele>
        <time>2013-10-13T12:45:56Z</time>
      </trkpt>
      <trkpt lat="43.41611" lon="6.73423">
        <ele>4</ele>
        <time>2013-10-13T12:45:58Z</time>
      </trkpt>
      <trkpt lat="43.41609" lon="6.73433">
        <ele>4.6099967956543</ele>
        <time>2013-10-13T12:46:00Z</time>
      </trkpt>
      <trkpt lat="43.41608" lon="6.73444">
        <ele>5</ele>
        <time>2013-10-13T12:46:02Z</time>
      </trkpt>
      <trkpt lat="43.41607" lon="6.73455">
        <ele>5</ele>
        <time>2013-10-13T12:46:04Z</time>
      </trkpt>
      <trkpt lat="43.41605" lon="6.73467">
        <ele>5</ele>
        <time>2013-10-13T12:46:06Z</time>
      </trkpt>
      <trkpt lat="43.41603" lon="6.73478">
        <ele>5</ele>
        <time>2013-10-13T12:46:08Z</time>
      </trkpt>
      <trkpt lat="43.41602" lon="6.7349">
        <ele>5</ele>
        <time>2013-10-13T12:46:10Z</time>
      </trkpt>
      <trkpt lat="43.416" lon="6.73501">
        <ele>5</ele>
        <time>2013-10-13T12:46:12Z</time>
      </trkpt>
      <trkpt lat="43.41599" lon="6.73512">
        <ele>5</ele>
        <time>2013-10-13T12:46:14Z</time>
      </trkpt>
      <trkpt lat="43.41597" lon="6.73522">
        <ele>5</ele>
        <time>2013-10-13T12:46:16Z</time>
      </trkpt>
      <trkpt lat="43.41595" lon="6.73532">
        <ele>5</ele>
        <time>2013-10-13T12:46:18Z</time>
      </trkpt>
      <trkpt lat="43.41593" lon="6.73543">
        <ele>5</ele>
        <time>2013-10-13T12:46:20Z</time>
      </trkpt>
      <trkpt lat="43.41592" lon="6.73554">
        <ele>5</ele>
        <time>2013-10-13T12:46:22Z</time>
      </trkpt>
      <trkpt lat="43.41591" lon="6.73564">
        <ele>5</ele>
        <time>2013-10-13T12:46:24Z</time>
      </trkpt>
      <trkpt lat="43.41592" lon="6.73575">
        <ele>5</ele>
        <time>2013-10-13T12:46:26Z</time>
      </trkpt>
      <trkpt lat="43.41595" lon="6.73585">
        <ele>5</ele>
        <time>2013-10-13T12:46:28Z</time>
      </trkpt>
      <trkpt lat="43.41599" lon="6.73595">
        <ele>4.2899966239929</ele>
        <time>2013-10-13T12:46:30Z</time>
      </trkpt>
      <trkpt lat="43.41603" lon="6.73604">
        <ele>4</ele>
        <time>2013-10-13T12:46:32Z</time>
      </trkpt>
      <trkpt lat="43.41607" lon="6.73614">
        <ele>4</ele>
        <time>2013-10-13T12:46:34Z</time>
      </trkpt>
      <trkpt lat="43.41612" lon="6.73623">
        <ele>4</ele>
        <time>2013-10-13T12:46:36Z</time>
      </trkpt>
      <trkpt lat="43.41617" lon="6.73633">
        <ele>4</ele>
        <time>2013-10-13T12:46:38Z</time>
      </trkpt>
      <trkpt lat="43.41621" lon="6.73642">
        <ele>4</ele>
        <time>2013-10-13T12:46:40Z</time>
      </trkpt>
      <trkpt lat="43.41626" lon="6.73651">
        <ele>4</ele>
        <time>2013-10-13T12:46:42Z</time>
      </trkpt>
      <trkpt lat="43.41631" lon="6.7366">
        <ele>4</ele>
        <time>2013-10-13T12:46:44Z</time>
      </trkpt>
      <trkpt lat="43.41636" lon="6.73667">
        <ele>4</ele>
        <time>2013-10-13T12:46:46Z</time>
      </trkpt>
      <trkpt lat="43.41641" lon="6.73674">
        <ele>4</ele>
        <time>2013-10-13T12:46:48Z</time>
      </trkpt>
      <trkpt lat="43.41646" lon="6.73681">
        <ele>4.6099967956543</ele>
        <time>2013-10-13T12:46:50Z</time>
      </trkpt>
      <trkpt lat="43.41651" lon="6.73688">
        <ele>5</ele>
        <time>2013-10-13T12:46:52Z</time>
      </trkpt>
      <trkpt lat="43.41657" lon="6.73694">
        <ele>5</ele>
        <time>2013-10-13T12:46:54Z</time>
      </trkpt>
      <trkpt lat="43.41663" lon="6.737">
        <ele>5</ele>
        <time>2013-10-13T12:46:56Z</time>
      </trkpt>
      <trkpt lat="43.41669" lon="6.73704">
        <ele>5</ele>
        <time>2013-10-13T12:46:58Z</time>
      </trkpt>
      <trkpt lat="43.41675" lon="6.73709">
        <ele>4.3600001335144</ele>
        <time>2013-10-13T12:47:00Z</time>
      </trkpt>
      <trkpt lat="43.41681" lon="6.73713">
        <ele>4</ele>
        <time>2013-10-13T12:47:02Z</time>
      </trkpt>
      <trkpt lat="43.41687" lon="6.73718">
        <ele>4</ele>
        <time>2013-10-13T12:47:04Z</time>
      </trkpt>
      <trkpt lat="43.41693" lon="6.73724">
        <ele>4</ele>
        <time>2013-10-13T12:47:06Z</time>
      </trkpt>
      <trkpt lat="43.41696" lon="6.73733">
        <ele>4</ele>
        <time>2013-10-13T12:47:08Z</time>
      </trkpt>
      <trkpt lat="43.41693" lon="6.73742">
        <ele>4</ele>
        <time>2013-10-13T12:47:10Z</time>
      </trkpt>
      <trkpt lat="43.41686" lon="6.73746">
        <ele>4</ele>
        <time>2013-10-13T12:47:12Z</time>
      </trkpt>
      <trkpt lat="43.41678" lon="6.73748">
        <ele>4</ele>
        <time>2013-10-13T12:47:14Z</time>
      </trkpt>
      <trkpt lat="43.41665" lon="6.73746">
        <ele>4</ele>
        <time>2013-10-13T12:47:17Z</time>
      </trkpt>
      <trkpt lat="43.41657" lon="6.73746">
        <ele>4</ele>
        <time>2013-10-13T12:47:19Z</time>
      </trkpt>
      <trkpt lat="43.41649" lon="6.73746">
        <ele>4</ele>
        <time>2013-10-13T12:47:21Z</time>
      </trkpt>
      <trkpt lat="43.4164" lon="6.73746">
        <ele>4</ele>
        <time>2013-10-13T12:47:23Z</time>
      </trkpt>
      <trkpt lat="43.41629" lon="6.73745">
        <ele>4</ele>
        <time>2013-10-13T12:47:26Z</time>
      </trkpt>
      <trkpt lat="43.41621" lon="6.73744">
        <ele>4</ele>
        <time>2013-10-13T12:47:28Z</time>
      </trkpt>
      <trkpt lat="43.41613" lon="6.73743">
        <ele>4</ele>
        <time>2013-10-13T12:47:30Z</time>
      </trkpt>
      <trkpt lat="43.41605" lon="6.73745">
        <ele>4</ele>
        <time>2013-10-13T12:47:32Z</time>
      </trkpt>
      <trkpt lat="43.41597" lon="6.73747">
        <ele>4</ele>
        <time>2013-10-13T12:47:34Z</time>
      </trkpt>
      <trkpt lat="43.4159" lon="6.7375">
        <ele>4</ele>
        <time>2013-10-13T12:47:36Z</time>
      </trkpt>
      <trkpt lat="43.41583" lon="6.73754">
        <ele>4</ele>
        <time>2013-10-13T12:47:38Z</time>
      </trkpt>
      <trkpt lat="43.41578" lon="6.73761">
        <ele>4</ele>
        <time>2013-10-13T12:47:40Z</time>
      </trkpt>
      <trkpt lat="43.41574" lon="6.73771">
        <ele>4</ele>
        <time>2013-10-13T12:47:42Z</time>
      </trkpt>
      <trkpt lat="43.41571" lon="6.73781">
        <ele>4</ele>
        <time>2013-10-13T12:47:44Z</time>
      </trkpt>
      <trkpt lat="43.41565" lon="6.73787">
        <ele>4</ele>
        <time>2013-10-13T12:47:46Z</time>
      </trkpt>
      <trkpt lat="43.41558" lon="6.73791">
        <ele>4</ele>
        <time>2013-10-13T12:47:48Z</time>
      </trkpt>
      <trkpt lat="43.41551" lon="6.73796">
        <ele>4</ele>
        <time>2013-10-13T12:47:50Z</time>
      </trkpt>
      <trkpt lat="43.41548" lon="6.73805">
        <ele>4</ele>
        <time>2013-10-13T12:47:52Z</time>
      </trkpt>
      <trkpt lat="43.41548" lon="6.73815">
        <ele>4</ele>
        <time>2013-10-13T12:47:54Z</time>
      </trkpt>
      <trkpt lat="43.41554" lon="6.73827">
        <ele>4</ele>
        <time>2013-10-13T12:47:57Z</time>
      </trkpt>
      <trkpt lat="43.41564" lon="6.73834">
        <ele>4.7100033760071</ele>
        <time>2013-10-13T12:48:00Z</time>
      </trkpt>
      <trkpt lat="43.41571" lon="6.73839">
        <ele>5</ele>
        <time>2013-10-13T12:48:02Z</time>
      </trkpt>
      <trkpt lat="43.41578" lon="6.73844">
        <ele>5</ele>
        <time>2013-10-13T12:48:04Z</time>
      </trkpt>
      <trkpt lat="43.41581" lon="6.73846">
        <ele>5</ele>
        <time>2013-10-13T12:48:06Z</time>
      </trkpt>
    </trkseg>
  </trk>
</gpx>